<?xml version="1.0" encoding="UTF-8" standalone="no" ?>
<gpx xmlns="http://www.topografix.com/GPX/1/1" xmlns:xsi="http://www.w3.org/2001/XMLSchema-instance" xsi:schemaLocation="http://www.topografix.com/GPX/1/1 http://www.topografix.com/GPX/1/1/gpx.xsd" version="1.1" creator="VisuGPX - https://www.visugpx.com">
  <metadata>
    <name>Transmondo_2014</name>
    <desc><![CDATA[Transmondo]]></desc>
  </metadata>
  <trk>
    <name><![CDATA[Mountain Biking 9/14/14 9:16 am]]></name>
    <trkseg>
      <trkpt lat="45.81695" lon="4.83184">
        <ele>261.3</ele>
        <time>2014-09-14T08:01:08Z</time>
      </trkpt>
      <trkpt lat="45.8169" lon="4.83187">
        <ele>262</ele>
        <time>2014-09-14T08:01:13Z</time>
      </trkpt>
      <trkpt lat="45.81685" lon="4.83173">
        <ele>263.2</ele>
        <time>2014-09-14T08:01:42Z</time>
      </trkpt>
      <trkpt lat="45.81683" lon="4.83161">
        <ele>264.2</ele>
        <time>2014-09-14T08:01:44Z</time>
      </trkpt>
      <trkpt lat="45.81682" lon="4.83134">
        <ele>265</ele>
        <time>2014-09-14T08:01:46Z</time>
      </trkpt>
      <trkpt lat="45.81681" lon="4.83089">
        <ele>265.6</ele>
        <time>2014-09-14T08:01:48Z</time>
      </trkpt>
      <trkpt lat="45.8168" lon="4.83068">
        <ele>266.8</ele>
        <time>2014-09-14T08:01:48Z</time>
      </trkpt>
      <trkpt lat="45.81679" lon="4.83051">
        <ele>268</ele>
        <time>2014-09-14T08:01:51Z</time>
      </trkpt>
      <trkpt lat="45.81678" lon="4.83036">
        <ele>269.5</ele>
        <time>2014-09-14T08:02:07Z</time>
      </trkpt>
      <trkpt lat="45.81674" lon="4.83011">
        <ele>270.9</ele>
        <time>2014-09-14T08:02:09Z</time>
      </trkpt>
      <trkpt lat="45.81672" lon="4.82996">
        <ele>271.5</ele>
        <time>2014-09-14T08:02:09Z</time>
      </trkpt>
      <trkpt lat="45.8167" lon="4.8298">
        <ele>271.9</ele>
        <time>2014-09-14T08:02:10Z</time>
      </trkpt>
      <trkpt lat="45.81671" lon="4.82964">
        <ele>272.4</ele>
        <time>2014-09-14T08:02:13Z</time>
      </trkpt>
      <trkpt lat="45.8168" lon="4.82959">
        <ele>272.3</ele>
        <time>2014-09-14T08:02:17Z</time>
      </trkpt>
      <trkpt lat="45.81691" lon="4.82959">
        <ele>272.2</ele>
        <time>2014-09-14T08:02:21Z</time>
      </trkpt>
      <trkpt lat="45.81702" lon="4.82961">
        <ele>272.1</ele>
        <time>2014-09-14T08:02:24Z</time>
      </trkpt>
      <trkpt lat="45.81713" lon="4.8296">
        <ele>272</ele>
        <time>2014-09-14T08:02:27Z</time>
      </trkpt>
      <trkpt lat="45.81723" lon="4.82962">
        <ele>271.9</ele>
        <time>2014-09-14T08:02:30Z</time>
      </trkpt>
      <trkpt lat="45.81733" lon="4.82963">
        <ele>271.8</ele>
        <time>2014-09-14T08:02:33Z</time>
      </trkpt>
      <trkpt lat="45.81743" lon="4.82963">
        <ele>271.8</ele>
        <time>2014-09-14T08:02:36Z</time>
      </trkpt>
      <trkpt lat="45.81755" lon="4.82964">
        <ele>271.8</ele>
        <time>2014-09-14T08:02:39Z</time>
      </trkpt>
      <trkpt lat="45.81766" lon="4.82965">
        <ele>272.1</ele>
        <time>2014-09-14T08:02:41Z</time>
      </trkpt>
      <trkpt lat="45.81776" lon="4.82966">
        <ele>272.5</ele>
        <time>2014-09-14T08:02:43Z</time>
      </trkpt>
      <trkpt lat="45.81786" lon="4.82968">
        <ele>272.8</ele>
        <time>2014-09-14T08:02:45Z</time>
      </trkpt>
      <trkpt lat="45.81795" lon="4.8297">
        <ele>273.2</ele>
        <time>2014-09-14T08:02:47Z</time>
      </trkpt>
      <trkpt lat="45.81804" lon="4.82973">
        <ele>273.5</ele>
        <time>2014-09-14T08:02:49Z</time>
      </trkpt>
      <trkpt lat="45.81813" lon="4.82977">
        <ele>273.9</ele>
        <time>2014-09-14T08:02:51Z</time>
      </trkpt>
      <trkpt lat="45.81823" lon="4.82982">
        <ele>274.5</ele>
        <time>2014-09-14T08:02:53Z</time>
      </trkpt>
      <trkpt lat="45.81833" lon="4.82988">
        <ele>275</ele>
        <time>2014-09-14T08:02:55Z</time>
      </trkpt>
      <trkpt lat="45.81845" lon="4.82995">
        <ele>275.5</ele>
        <time>2014-09-14T08:02:57Z</time>
      </trkpt>
      <trkpt lat="45.81857" lon="4.83003">
        <ele>275.7</ele>
        <time>2014-09-14T08:02:59Z</time>
      </trkpt>
      <trkpt lat="45.8187" lon="4.8301">
        <ele>275.9</ele>
        <time>2014-09-14T08:03:01Z</time>
      </trkpt>
      <trkpt lat="45.81885" lon="4.83016">
        <ele>276.1</ele>
        <time>2014-09-14T08:03:03Z</time>
      </trkpt>
      <trkpt lat="45.81899" lon="4.83022">
        <ele>276.5</ele>
        <time>2014-09-14T08:03:05Z</time>
      </trkpt>
      <trkpt lat="45.81914" lon="4.83027">
        <ele>277</ele>
        <time>2014-09-14T08:03:07Z</time>
      </trkpt>
      <trkpt lat="45.81931" lon="4.83033">
        <ele>277.5</ele>
        <time>2014-09-14T08:03:09Z</time>
      </trkpt>
      <trkpt lat="45.81947" lon="4.83037">
        <ele>277.9</ele>
        <time>2014-09-14T08:03:11Z</time>
      </trkpt>
      <trkpt lat="45.81962" lon="4.83041">
        <ele>278.7</ele>
        <time>2014-09-14T08:03:13Z</time>
      </trkpt>
      <trkpt lat="45.81978" lon="4.83044">
        <ele>279.4</ele>
        <time>2014-09-14T08:03:15Z</time>
      </trkpt>
      <trkpt lat="45.81995" lon="4.83045">
        <ele>280</ele>
        <time>2014-09-14T08:03:17Z</time>
      </trkpt>
      <trkpt lat="45.8201" lon="4.83043">
        <ele>278.8</ele>
        <time>2014-09-14T08:03:19Z</time>
      </trkpt>
      <trkpt lat="45.82028" lon="4.83042">
        <ele>277.6</ele>
        <time>2014-09-14T08:03:21Z</time>
      </trkpt>
      <trkpt lat="45.82046" lon="4.83044">
        <ele>276.5</ele>
        <time>2014-09-14T08:03:23Z</time>
      </trkpt>
      <trkpt lat="45.82055" lon="4.83047">
        <ele>275.3</ele>
        <time>2014-09-14T08:03:24Z</time>
      </trkpt>
      <trkpt lat="45.82064" lon="4.8305">
        <ele>274.6</ele>
        <time>2014-09-14T08:03:25Z</time>
      </trkpt>
      <trkpt lat="45.82079" lon="4.83061">
        <ele>274</ele>
        <time>2014-09-14T08:03:27Z</time>
      </trkpt>
      <trkpt lat="45.82091" lon="4.8307">
        <ele>273.4</ele>
        <time>2014-09-14T08:03:29Z</time>
      </trkpt>
      <trkpt lat="45.82104" lon="4.83079">
        <ele>272.7</ele>
        <time>2014-09-14T08:03:31Z</time>
      </trkpt>
      <trkpt lat="45.82118" lon="4.83088">
        <ele>271.7</ele>
        <time>2014-09-14T08:03:33Z</time>
      </trkpt>
      <trkpt lat="45.82129" lon="4.83096">
        <ele>270.7</ele>
        <time>2014-09-14T08:03:35Z</time>
      </trkpt>
      <trkpt lat="45.82141" lon="4.83104">
        <ele>268.6</ele>
        <time>2014-09-14T08:03:37Z</time>
      </trkpt>
      <trkpt lat="45.82153" lon="4.83112">
        <ele>268.4</ele>
        <time>2014-09-14T08:03:39Z</time>
      </trkpt>
      <trkpt lat="45.82165" lon="4.83119">
        <ele>269</ele>
        <time>2014-09-14T08:03:41Z</time>
      </trkpt>
      <trkpt lat="45.82176" lon="4.83126">
        <ele>269.6</ele>
        <time>2014-09-14T08:03:43Z</time>
      </trkpt>
      <trkpt lat="45.82187" lon="4.83133">
        <ele>270.3</ele>
        <time>2014-09-14T08:03:45Z</time>
      </trkpt>
      <trkpt lat="45.82197" lon="4.8314">
        <ele>270.1</ele>
        <time>2014-09-14T08:03:47Z</time>
      </trkpt>
      <trkpt lat="45.82209" lon="4.83148">
        <ele>269.8</ele>
        <time>2014-09-14T08:03:49Z</time>
      </trkpt>
      <trkpt lat="45.82219" lon="4.83156">
        <ele>267.7</ele>
        <time>2014-09-14T08:03:51Z</time>
      </trkpt>
      <trkpt lat="45.82229" lon="4.83167">
        <ele>266.6</ele>
        <time>2014-09-14T08:03:54Z</time>
      </trkpt>
      <trkpt lat="45.82236" lon="4.83176">
        <ele>265.5</ele>
        <time>2014-09-14T08:03:56Z</time>
      </trkpt>
      <trkpt lat="45.82243" lon="4.83185">
        <ele>264.5</ele>
        <time>2014-09-14T08:03:58Z</time>
      </trkpt>
      <trkpt lat="45.82958" lon="4.83483">
        <ele>264.5</ele>
        <time>2014-09-14T08:07:05Z</time>
      </trkpt>
      <trkpt lat="45.83217" lon="4.83308">
        <ele>264.5</ele>
        <time>2014-09-14T08:07:11Z</time>
      </trkpt>
      <trkpt lat="45.83224" lon="4.83295">
        <ele>263.5</ele>
        <time>2014-09-14T08:07:13Z</time>
      </trkpt>
      <trkpt lat="45.83232" lon="4.83282">
        <ele>263.6</ele>
        <time>2014-09-14T08:07:15Z</time>
      </trkpt>
      <trkpt lat="45.8324" lon="4.83269">
        <ele>263.7</ele>
        <time>2014-09-14T08:07:17Z</time>
      </trkpt>
      <trkpt lat="45.83248" lon="4.83257">
        <ele>263.8</ele>
        <time>2014-09-14T08:07:19Z</time>
      </trkpt>
      <trkpt lat="45.83257" lon="4.83246">
        <ele>264</ele>
        <time>2014-09-14T08:07:21Z</time>
      </trkpt>
      <trkpt lat="45.83265" lon="4.83233">
        <ele>264.1</ele>
        <time>2014-09-14T08:07:23Z</time>
      </trkpt>
      <trkpt lat="45.83271" lon="4.83219">
        <ele>263.2</ele>
        <time>2014-09-14T08:07:25Z</time>
      </trkpt>
      <trkpt lat="45.83278" lon="4.83206">
        <ele>262.3</ele>
        <time>2014-09-14T08:07:27Z</time>
      </trkpt>
      <trkpt lat="45.83285" lon="4.83194">
        <ele>261.5</ele>
        <time>2014-09-14T08:07:29Z</time>
      </trkpt>
      <trkpt lat="45.83291" lon="4.83183">
        <ele>260.8</ele>
        <time>2014-09-14T08:07:31Z</time>
      </trkpt>
      <trkpt lat="45.83299" lon="4.83171">
        <ele>260.1</ele>
        <time>2014-09-14T08:07:33Z</time>
      </trkpt>
      <trkpt lat="45.83306" lon="4.83157">
        <ele>259.4</ele>
        <time>2014-09-14T08:07:35Z</time>
      </trkpt>
      <trkpt lat="45.83314" lon="4.83142">
        <ele>258.2</ele>
        <time>2014-09-14T08:07:37Z</time>
      </trkpt>
      <trkpt lat="45.83322" lon="4.83126">
        <ele>257</ele>
        <time>2014-09-14T08:07:39Z</time>
      </trkpt>
      <trkpt lat="45.83332" lon="4.83107">
        <ele>255.8</ele>
        <time>2014-09-14T08:07:41Z</time>
      </trkpt>
      <trkpt lat="45.83338" lon="4.83094">
        <ele>253.2</ele>
        <time>2014-09-14T08:07:42Z</time>
      </trkpt>
      <trkpt lat="45.83347" lon="4.83074">
        <ele>252.5</ele>
        <time>2014-09-14T08:07:44Z</time>
      </trkpt>
      <trkpt lat="45.83356" lon="4.83053">
        <ele>251.7</ele>
        <time>2014-09-14T08:07:46Z</time>
      </trkpt>
      <trkpt lat="45.83366" lon="4.83032">
        <ele>251</ele>
        <time>2014-09-14T08:07:48Z</time>
      </trkpt>
      <trkpt lat="45.83377" lon="4.83015">
        <ele>250.7</ele>
        <time>2014-09-14T08:07:50Z</time>
      </trkpt>
      <trkpt lat="45.83389" lon="4.83003">
        <ele>250.5</ele>
        <time>2014-09-14T08:07:52Z</time>
      </trkpt>
      <trkpt lat="45.83402" lon="4.82993">
        <ele>250.2</ele>
        <time>2014-09-14T08:07:54Z</time>
      </trkpt>
      <trkpt lat="45.83414" lon="4.8298">
        <ele>249.9</ele>
        <time>2014-09-14T08:07:56Z</time>
      </trkpt>
      <trkpt lat="45.83419" lon="4.82968">
        <ele>249.1</ele>
        <time>2014-09-14T08:07:57Z</time>
      </trkpt>
      <trkpt lat="45.83422" lon="4.82956">
        <ele>248.7</ele>
        <time>2014-09-14T08:07:58Z</time>
      </trkpt>
      <trkpt lat="45.83426" lon="4.82942">
        <ele>248.4</ele>
        <time>2014-09-14T08:07:59Z</time>
      </trkpt>
      <trkpt lat="45.83432" lon="4.82916">
        <ele>249.5</ele>
        <time>2014-09-14T08:08:01Z</time>
      </trkpt>
      <trkpt lat="45.83435" lon="4.82903">
        <ele>250.5</ele>
        <time>2014-09-14T08:08:02Z</time>
      </trkpt>
      <trkpt lat="45.83438" lon="4.8289">
        <ele>251.8</ele>
        <time>2014-09-14T08:08:04Z</time>
      </trkpt>
      <trkpt lat="45.83445" lon="4.82858">
        <ele>253.1</ele>
        <time>2014-09-14T08:08:06Z</time>
      </trkpt>
      <trkpt lat="45.83448" lon="4.82839">
        <ele>251.7</ele>
        <time>2014-09-14T08:08:08Z</time>
      </trkpt>
      <trkpt lat="45.83451" lon="4.82821">
        <ele>250.4</ele>
        <time>2014-09-14T08:08:10Z</time>
      </trkpt>
      <trkpt lat="45.83454" lon="4.82801">
        <ele>249.4</ele>
        <time>2014-09-14T08:08:12Z</time>
      </trkpt>
      <trkpt lat="45.83454" lon="4.8278">
        <ele>248.4</ele>
        <time>2014-09-14T08:08:14Z</time>
      </trkpt>
      <trkpt lat="45.83457" lon="4.8276">
        <ele>247.4</ele>
        <time>2014-09-14T08:08:16Z</time>
      </trkpt>
      <trkpt lat="45.83465" lon="4.82739">
        <ele>245.9</ele>
        <time>2014-09-14T08:08:18Z</time>
      </trkpt>
      <trkpt lat="45.83473" lon="4.82719">
        <ele>244.5</ele>
        <time>2014-09-14T08:08:20Z</time>
      </trkpt>
      <trkpt lat="45.83484" lon="4.82698">
        <ele>243.1</ele>
        <time>2014-09-14T08:08:22Z</time>
      </trkpt>
      <trkpt lat="45.83491" lon="4.82686">
        <ele>241.7</ele>
        <time>2014-09-14T08:08:23Z</time>
      </trkpt>
      <trkpt lat="45.83497" lon="4.82675">
        <ele>240.2</ele>
        <time>2014-09-14T08:08:25Z</time>
      </trkpt>
      <trkpt lat="45.8351" lon="4.82651">
        <ele>238.6</ele>
        <time>2014-09-14T08:08:26Z</time>
      </trkpt>
      <trkpt lat="45.83515" lon="4.8264">
        <ele>237.7</ele>
        <time>2014-09-14T08:08:28Z</time>
      </trkpt>
      <trkpt lat="45.83527" lon="4.82615">
        <ele>236.7</ele>
        <time>2014-09-14T08:08:29Z</time>
      </trkpt>
      <trkpt lat="45.83534" lon="4.82602">
        <ele>235.4</ele>
        <time>2014-09-14T08:08:30Z</time>
      </trkpt>
      <trkpt lat="45.83539" lon="4.82588">
        <ele>234</ele>
        <time>2014-09-14T08:08:31Z</time>
      </trkpt>
      <trkpt lat="45.83545" lon="4.82574">
        <ele>232.6</ele>
        <time>2014-09-14T08:08:32Z</time>
      </trkpt>
      <trkpt lat="45.8355" lon="4.8256">
        <ele>231.3</ele>
        <time>2014-09-14T08:08:33Z</time>
      </trkpt>
      <trkpt lat="45.83555" lon="4.82544">
        <ele>230</ele>
        <time>2014-09-14T08:08:34Z</time>
      </trkpt>
      <trkpt lat="45.83561" lon="4.82526">
        <ele>228.6</ele>
        <time>2014-09-14T08:08:35Z</time>
      </trkpt>
      <trkpt lat="45.83566" lon="4.82509">
        <ele>227.3</ele>
        <time>2014-09-14T08:08:36Z</time>
      </trkpt>
      <trkpt lat="45.8357" lon="4.82492">
        <ele>225.9</ele>
        <time>2014-09-14T08:08:37Z</time>
      </trkpt>
      <trkpt lat="45.83575" lon="4.82475">
        <ele>224.5</ele>
        <time>2014-09-14T08:08:38Z</time>
      </trkpt>
      <trkpt lat="45.83581" lon="4.82459">
        <ele>224.5</ele>
        <time>2014-09-14T08:08:39Z</time>
      </trkpt>
      <trkpt lat="45.83587" lon="4.82444">
        <ele>224.5</ele>
        <time>2014-09-14T08:08:40Z</time>
      </trkpt>
      <trkpt lat="45.83593" lon="4.82429">
        <ele>224.5</ele>
        <time>2014-09-14T08:08:41Z</time>
      </trkpt>
      <trkpt lat="45.83599" lon="4.82414">
        <ele>224.5</ele>
        <time>2014-09-14T08:08:42Z</time>
      </trkpt>
      <trkpt lat="45.83606" lon="4.82399">
        <ele>223.6</ele>
        <time>2014-09-14T08:08:44Z</time>
      </trkpt>
      <trkpt lat="45.83611" lon="4.82362">
        <ele>222.8</ele>
        <time>2014-09-14T08:08:45Z</time>
      </trkpt>
      <trkpt lat="45.83611" lon="4.82343">
        <ele>221.9</ele>
        <time>2014-09-14T08:08:46Z</time>
      </trkpt>
      <trkpt lat="45.8361" lon="4.82325">
        <ele>220.6</ele>
        <time>2014-09-14T08:08:47Z</time>
      </trkpt>
      <trkpt lat="45.83609" lon="4.82309">
        <ele>219.4</ele>
        <time>2014-09-14T08:08:49Z</time>
      </trkpt>
      <trkpt lat="45.83607" lon="4.82282">
        <ele>218.1</ele>
        <time>2014-09-14T08:08:50Z</time>
      </trkpt>
      <trkpt lat="45.83612" lon="4.82262">
        <ele>216.8</ele>
        <time>2014-09-14T08:08:52Z</time>
      </trkpt>
      <trkpt lat="45.83621" lon="4.82262">
        <ele>215.6</ele>
        <time>2014-09-14T08:08:55Z</time>
      </trkpt>
      <trkpt lat="45.83632" lon="4.82273">
        <ele>214.5</ele>
        <time>2014-09-14T08:08:57Z</time>
      </trkpt>
      <trkpt lat="45.83641" lon="4.82283">
        <ele>213</ele>
        <time>2014-09-14T08:08:59Z</time>
      </trkpt>
      <trkpt lat="45.8365" lon="4.82288">
        <ele>211.5</ele>
        <time>2014-09-14T08:09:03Z</time>
      </trkpt>
      <trkpt lat="45.8366" lon="4.82289">
        <ele>210.5</ele>
        <time>2014-09-14T08:09:12Z</time>
      </trkpt>
      <trkpt lat="45.83674" lon="4.82296">
        <ele>209.5</ele>
        <time>2014-09-14T08:09:15Z</time>
      </trkpt>
      <trkpt lat="45.83686" lon="4.82301">
        <ele>208.5</ele>
        <time>2014-09-14T08:09:17Z</time>
      </trkpt>
      <trkpt lat="45.83697" lon="4.82306">
        <ele>207.9</ele>
        <time>2014-09-14T08:09:20Z</time>
      </trkpt>
      <trkpt lat="45.83706" lon="4.82309">
        <ele>207.3</ele>
        <time>2014-09-14T08:09:21Z</time>
      </trkpt>
      <trkpt lat="45.83719" lon="4.82317">
        <ele>206.2</ele>
        <time>2014-09-14T08:09:24Z</time>
      </trkpt>
      <trkpt lat="45.83729" lon="4.82329">
        <ele>205.1</ele>
        <time>2014-09-14T08:09:26Z</time>
      </trkpt>
      <trkpt lat="45.83735" lon="4.82343">
        <ele>204</ele>
        <time>2014-09-14T08:09:28Z</time>
      </trkpt>
      <trkpt lat="45.83743" lon="4.8236">
        <ele>202.9</ele>
        <time>2014-09-14T08:09:30Z</time>
      </trkpt>
      <trkpt lat="45.83752" lon="4.82381">
        <ele>202</ele>
        <time>2014-09-14T08:09:32Z</time>
      </trkpt>
      <trkpt lat="45.83762" lon="4.824">
        <ele>201.1</ele>
        <time>2014-09-14T08:09:34Z</time>
      </trkpt>
      <trkpt lat="45.83771" lon="4.82421">
        <ele>200.5</ele>
        <time>2014-09-14T08:09:36Z</time>
      </trkpt>
      <trkpt lat="45.83779" lon="4.82439">
        <ele>200</ele>
        <time>2014-09-14T08:09:38Z</time>
      </trkpt>
      <trkpt lat="45.8378" lon="4.82458">
        <ele>199.5</ele>
        <time>2014-09-14T08:09:40Z</time>
      </trkpt>
      <trkpt lat="45.8378" lon="4.82477">
        <ele>198.9</ele>
        <time>2014-09-14T08:09:42Z</time>
      </trkpt>
      <trkpt lat="45.83781" lon="4.82493">
        <ele>198.4</ele>
        <time>2014-09-14T08:09:44Z</time>
      </trkpt>
      <trkpt lat="45.83782" lon="4.8251">
        <ele>198.3</ele>
        <time>2014-09-14T08:09:47Z</time>
      </trkpt>
      <trkpt lat="45.83779" lon="4.82525">
        <ele>198.2</ele>
        <time>2014-09-14T08:09:52Z</time>
      </trkpt>
      <trkpt lat="45.83777" lon="4.82546">
        <ele>198.1</ele>
        <time>2014-09-14T08:09:53Z</time>
      </trkpt>
      <trkpt lat="45.8377" lon="4.82566">
        <ele>197.8</ele>
        <time>2014-09-14T08:09:57Z</time>
      </trkpt>
      <trkpt lat="45.83766" lon="4.8258">
        <ele>197.6</ele>
        <time>2014-09-14T08:10:05Z</time>
      </trkpt>
      <trkpt lat="45.83766" lon="4.82596">
        <ele>197.5</ele>
        <time>2014-09-14T08:10:08Z</time>
      </trkpt>
      <trkpt lat="45.83763" lon="4.82613">
        <ele>197.3</ele>
        <time>2014-09-14T08:10:10Z</time>
      </trkpt>
      <trkpt lat="45.83765" lon="4.82626">
        <ele>197</ele>
        <time>2014-09-14T08:10:11Z</time>
      </trkpt>
      <trkpt lat="45.83769" lon="4.82649">
        <ele>196.7</ele>
        <time>2014-09-14T08:10:12Z</time>
      </trkpt>
      <trkpt lat="45.83768" lon="4.82668">
        <ele>196.5</ele>
        <time>2014-09-14T08:10:14Z</time>
      </trkpt>
      <trkpt lat="45.83768" lon="4.82686">
        <ele>196.2</ele>
        <time>2014-09-14T08:10:16Z</time>
      </trkpt>
      <trkpt lat="45.83768" lon="4.82705">
        <ele>195.8</ele>
        <time>2014-09-14T08:10:18Z</time>
      </trkpt>
      <trkpt lat="45.83769" lon="4.82726">
        <ele>195.5</ele>
        <time>2014-09-14T08:10:21Z</time>
      </trkpt>
      <trkpt lat="45.83771" lon="4.82744">
        <ele>195.1</ele>
        <time>2014-09-14T08:10:22Z</time>
      </trkpt>
      <trkpt lat="45.83772" lon="4.82762">
        <ele>194.9</ele>
        <time>2014-09-14T08:10:25Z</time>
      </trkpt>
      <trkpt lat="45.83772" lon="4.82779">
        <ele>194.7</ele>
        <time>2014-09-14T08:10:27Z</time>
      </trkpt>
      <trkpt lat="45.8377" lon="4.82797">
        <ele>194</ele>
        <time>2014-09-14T08:10:29Z</time>
      </trkpt>
      <trkpt lat="45.83767" lon="4.82813">
        <ele>193.3</ele>
        <time>2014-09-14T08:10:32Z</time>
      </trkpt>
      <trkpt lat="45.83763" lon="4.82829">
        <ele>192.6</ele>
        <time>2014-09-14T08:10:33Z</time>
      </trkpt>
      <trkpt lat="45.83758" lon="4.82846">
        <ele>192</ele>
        <time>2014-09-14T08:10:34Z</time>
      </trkpt>
      <trkpt lat="45.83752" lon="4.82863">
        <ele>191.4</ele>
        <time>2014-09-14T08:10:36Z</time>
      </trkpt>
      <trkpt lat="45.83748" lon="4.82885">
        <ele>190.7</ele>
        <time>2014-09-14T08:10:38Z</time>
      </trkpt>
      <trkpt lat="45.83748" lon="4.82907">
        <ele>190.2</ele>
        <time>2014-09-14T08:10:41Z</time>
      </trkpt>
      <trkpt lat="45.83749" lon="4.82926">
        <ele>188.9</ele>
        <time>2014-09-14T08:10:42Z</time>
      </trkpt>
      <trkpt lat="45.83753" lon="4.82939">
        <ele>187.6</ele>
        <time>2014-09-14T08:10:44Z</time>
      </trkpt>
      <trkpt lat="45.8376" lon="4.82951">
        <ele>186.4</ele>
        <time>2014-09-14T08:10:46Z</time>
      </trkpt>
      <trkpt lat="45.83771" lon="4.82958">
        <ele>185.1</ele>
        <time>2014-09-14T08:10:48Z</time>
      </trkpt>
      <trkpt lat="45.83783" lon="4.82958">
        <ele>184.4</ele>
        <time>2014-09-14T08:10:50Z</time>
      </trkpt>
      <trkpt lat="45.83797" lon="4.82949">
        <ele>183.6</ele>
        <time>2014-09-14T08:10:52Z</time>
      </trkpt>
      <trkpt lat="45.83811" lon="4.82938">
        <ele>182.9</ele>
        <time>2014-09-14T08:10:58Z</time>
      </trkpt>
      <trkpt lat="45.83821" lon="4.82923">
        <ele>182.2</ele>
        <time>2014-09-14T08:11:00Z</time>
      </trkpt>
      <trkpt lat="45.83836" lon="4.8291">
        <ele>181.5</ele>
        <time>2014-09-14T08:11:03Z</time>
      </trkpt>
      <trkpt lat="45.83847" lon="4.82904">
        <ele>180.4</ele>
        <time>2014-09-14T08:11:04Z</time>
      </trkpt>
      <trkpt lat="45.83857" lon="4.82903">
        <ele>179.1</ele>
        <time>2014-09-14T08:11:06Z</time>
      </trkpt>
      <trkpt lat="45.83865" lon="4.82912">
        <ele>178.5</ele>
        <time>2014-09-14T08:11:09Z</time>
      </trkpt>
      <trkpt lat="45.83872" lon="4.82927">
        <ele>178</ele>
        <time>2014-09-14T08:11:10Z</time>
      </trkpt>
      <trkpt lat="45.83878" lon="4.82942">
        <ele>177.5</ele>
        <time>2014-09-14T08:11:12Z</time>
      </trkpt>
      <trkpt lat="45.83882" lon="4.82954">
        <ele>177.3</ele>
        <time>2014-09-14T08:11:13Z</time>
      </trkpt>
      <trkpt lat="45.83884" lon="4.82967">
        <ele>176.7</ele>
        <time>2014-09-14T08:11:14Z</time>
      </trkpt>
      <trkpt lat="45.83886" lon="4.82981">
        <ele>176.2</ele>
        <time>2014-09-14T08:11:15Z</time>
      </trkpt>
      <trkpt lat="45.83884" lon="4.83003">
        <ele>175.6</ele>
        <time>2014-09-14T08:11:17Z</time>
      </trkpt>
      <trkpt lat="45.83882" lon="4.8302">
        <ele>175.1</ele>
        <time>2014-09-14T08:11:19Z</time>
      </trkpt>
      <trkpt lat="45.83881" lon="4.83039">
        <ele>174.4</ele>
        <time>2014-09-14T08:11:21Z</time>
      </trkpt>
      <trkpt lat="45.8388" lon="4.83056">
        <ele>174</ele>
        <time>2014-09-14T08:11:23Z</time>
      </trkpt>
      <trkpt lat="45.8388" lon="4.8307">
        <ele>173.8</ele>
        <time>2014-09-14T08:11:25Z</time>
      </trkpt>
      <trkpt lat="45.83878" lon="4.83088">
        <ele>173.6</ele>
        <time>2014-09-14T08:11:28Z</time>
      </trkpt>
      <trkpt lat="45.83879" lon="4.83102">
        <ele>173.5</ele>
        <time>2014-09-14T08:11:30Z</time>
      </trkpt>
      <trkpt lat="45.83891" lon="4.83113">
        <ele>173.3</ele>
        <time>2014-09-14T08:11:33Z</time>
      </trkpt>
      <trkpt lat="45.83904" lon="4.83116">
        <ele>172.7</ele>
        <time>2014-09-14T08:11:36Z</time>
      </trkpt>
      <trkpt lat="45.83914" lon="4.83116">
        <ele>172.6</ele>
        <time>2014-09-14T08:11:38Z</time>
      </trkpt>
      <trkpt lat="45.83925" lon="4.83115">
        <ele>172.5</ele>
        <time>2014-09-14T08:11:40Z</time>
      </trkpt>
      <trkpt lat="45.83934" lon="4.83114">
        <ele>172.5</ele>
        <time>2014-09-14T08:11:42Z</time>
      </trkpt>
      <trkpt lat="45.83947" lon="4.83112">
        <ele>172.4</ele>
        <time>2014-09-14T08:11:45Z</time>
      </trkpt>
      <trkpt lat="45.83956" lon="4.83111">
        <ele>172.5</ele>
        <time>2014-09-14T08:11:47Z</time>
      </trkpt>
      <trkpt lat="45.83968" lon="4.83111">
        <ele>172.5</ele>
        <time>2014-09-14T08:11:50Z</time>
      </trkpt>
      <trkpt lat="45.83983" lon="4.83111">
        <ele>172.6</ele>
        <time>2014-09-14T08:11:53Z</time>
      </trkpt>
      <trkpt lat="45.83996" lon="4.83111">
        <ele>172.6</ele>
        <time>2014-09-14T08:11:55Z</time>
      </trkpt>
      <trkpt lat="45.8401" lon="4.83111">
        <ele>172.6</ele>
        <time>2014-09-14T08:11:57Z</time>
      </trkpt>
      <trkpt lat="45.84022" lon="4.83112">
        <ele>172.6</ele>
        <time>2014-09-14T08:11:59Z</time>
      </trkpt>
      <trkpt lat="45.84032" lon="4.83113">
        <ele>172.6</ele>
        <time>2014-09-14T08:12:01Z</time>
      </trkpt>
      <trkpt lat="45.84043" lon="4.83114">
        <ele>172.5</ele>
        <time>2014-09-14T08:12:04Z</time>
      </trkpt>
      <trkpt lat="45.84055" lon="4.83115">
        <ele>172.5</ele>
        <time>2014-09-14T08:12:07Z</time>
      </trkpt>
      <trkpt lat="45.84066" lon="4.83117">
        <ele>172.4</ele>
        <time>2014-09-14T08:12:10Z</time>
      </trkpt>
      <trkpt lat="45.84076" lon="4.8312">
        <ele>172.1</ele>
        <time>2014-09-14T08:12:12Z</time>
      </trkpt>
      <trkpt lat="45.84088" lon="4.83123">
        <ele>171.5</ele>
        <time>2014-09-14T08:12:15Z</time>
      </trkpt>
      <trkpt lat="45.841" lon="4.83126">
        <ele>171</ele>
        <time>2014-09-14T08:12:17Z</time>
      </trkpt>
      <trkpt lat="45.84112" lon="4.8313">
        <ele>170.5</ele>
        <time>2014-09-14T08:12:19Z</time>
      </trkpt>
      <trkpt lat="45.84121" lon="4.83132">
        <ele>170</ele>
        <time>2014-09-14T08:12:21Z</time>
      </trkpt>
      <trkpt lat="45.84131" lon="4.83135">
        <ele>169.5</ele>
        <time>2014-09-14T08:12:23Z</time>
      </trkpt>
      <trkpt lat="45.84141" lon="4.83138">
        <ele>169.1</ele>
        <time>2014-09-14T08:12:25Z</time>
      </trkpt>
      <trkpt lat="45.84154" lon="4.83142">
        <ele>168.9</ele>
        <time>2014-09-14T08:12:27Z</time>
      </trkpt>
      <trkpt lat="45.84167" lon="4.83147">
        <ele>168.7</ele>
        <time>2014-09-14T08:12:29Z</time>
      </trkpt>
      <trkpt lat="45.84178" lon="4.83151">
        <ele>168.5</ele>
        <time>2014-09-14T08:12:31Z</time>
      </trkpt>
      <trkpt lat="45.84188" lon="4.83155">
        <ele>168.4</ele>
        <time>2014-09-14T08:12:33Z</time>
      </trkpt>
      <trkpt lat="45.84199" lon="4.83159">
        <ele>168.4</ele>
        <time>2014-09-14T08:12:35Z</time>
      </trkpt>
      <trkpt lat="45.84211" lon="4.83162">
        <ele>168.6</ele>
        <time>2014-09-14T08:12:37Z</time>
      </trkpt>
      <trkpt lat="45.84222" lon="4.83166">
        <ele>168.9</ele>
        <time>2014-09-14T08:12:39Z</time>
      </trkpt>
      <trkpt lat="45.84235" lon="4.83169">
        <ele>169.2</ele>
        <time>2014-09-14T08:12:41Z</time>
      </trkpt>
      <trkpt lat="45.84249" lon="4.83173">
        <ele>169.5</ele>
        <time>2014-09-14T08:12:43Z</time>
      </trkpt>
      <trkpt lat="45.84261" lon="4.83176">
        <ele>169.7</ele>
        <time>2014-09-14T08:12:45Z</time>
      </trkpt>
      <trkpt lat="45.84272" lon="4.83179">
        <ele>170</ele>
        <time>2014-09-14T08:12:47Z</time>
      </trkpt>
      <trkpt lat="45.84283" lon="4.83183">
        <ele>170</ele>
        <time>2014-09-14T08:12:49Z</time>
      </trkpt>
      <trkpt lat="45.84294" lon="4.83186">
        <ele>170</ele>
        <time>2014-09-14T08:12:51Z</time>
      </trkpt>
      <trkpt lat="45.84304" lon="4.8319">
        <ele>170</ele>
        <time>2014-09-14T08:12:53Z</time>
      </trkpt>
      <trkpt lat="45.84318" lon="4.83194">
        <ele>170.1</ele>
        <time>2014-09-14T08:12:55Z</time>
      </trkpt>
      <trkpt lat="45.8433" lon="4.83198">
        <ele>170.2</ele>
        <time>2014-09-14T08:12:57Z</time>
      </trkpt>
      <trkpt lat="45.84343" lon="4.83201">
        <ele>170.3</ele>
        <time>2014-09-14T08:12:59Z</time>
      </trkpt>
      <trkpt lat="45.84356" lon="4.83203">
        <ele>170.4</ele>
        <time>2014-09-14T08:13:01Z</time>
      </trkpt>
      <trkpt lat="45.84369" lon="4.83206">
        <ele>170.5</ele>
        <time>2014-09-14T08:13:03Z</time>
      </trkpt>
      <trkpt lat="45.84382" lon="4.8321">
        <ele>170.5</ele>
        <time>2014-09-14T08:13:05Z</time>
      </trkpt>
      <trkpt lat="45.84395" lon="4.83214">
        <ele>170.6</ele>
        <time>2014-09-14T08:13:07Z</time>
      </trkpt>
      <trkpt lat="45.84409" lon="4.83217">
        <ele>170.5</ele>
        <time>2014-09-14T08:13:09Z</time>
      </trkpt>
      <trkpt lat="45.84423" lon="4.8322">
        <ele>170.5</ele>
        <time>2014-09-14T08:13:11Z</time>
      </trkpt>
      <trkpt lat="45.84436" lon="4.83223">
        <ele>170.4</ele>
        <time>2014-09-14T08:13:13Z</time>
      </trkpt>
      <trkpt lat="45.84449" lon="4.83226">
        <ele>170.3</ele>
        <time>2014-09-14T08:13:15Z</time>
      </trkpt>
      <trkpt lat="45.84462" lon="4.83229">
        <ele>170.1</ele>
        <time>2014-09-14T08:13:17Z</time>
      </trkpt>
      <trkpt lat="45.84474" lon="4.83232">
        <ele>169.9</ele>
        <time>2014-09-14T08:13:19Z</time>
      </trkpt>
      <trkpt lat="45.84486" lon="4.83235">
        <ele>169.7</ele>
        <time>2014-09-14T08:13:21Z</time>
      </trkpt>
      <trkpt lat="45.84499" lon="4.83239">
        <ele>169.5</ele>
        <time>2014-09-14T08:13:23Z</time>
      </trkpt>
      <trkpt lat="45.84512" lon="4.83242">
        <ele>169.4</ele>
        <time>2014-09-14T08:13:25Z</time>
      </trkpt>
      <trkpt lat="45.84524" lon="4.83245">
        <ele>169.2</ele>
        <time>2014-09-14T08:13:27Z</time>
      </trkpt>
      <trkpt lat="45.84537" lon="4.83247">
        <ele>169</ele>
        <time>2014-09-14T08:13:29Z</time>
      </trkpt>
      <trkpt lat="45.84552" lon="4.83248">
        <ele>169</ele>
        <time>2014-09-14T08:13:31Z</time>
      </trkpt>
      <trkpt lat="45.84566" lon="4.83248">
        <ele>169</ele>
        <time>2014-09-14T08:13:33Z</time>
      </trkpt>
      <trkpt lat="45.8458" lon="4.83246">
        <ele>169</ele>
        <time>2014-09-14T08:13:35Z</time>
      </trkpt>
      <trkpt lat="45.84592" lon="4.83246">
        <ele>169.1</ele>
        <time>2014-09-14T08:13:37Z</time>
      </trkpt>
      <trkpt lat="45.84605" lon="4.83244">
        <ele>169.2</ele>
        <time>2014-09-14T08:13:39Z</time>
      </trkpt>
      <trkpt lat="45.84619" lon="4.83239">
        <ele>169.3</ele>
        <time>2014-09-14T08:13:41Z</time>
      </trkpt>
      <trkpt lat="45.84633" lon="4.83233">
        <ele>169.4</ele>
        <time>2014-09-14T08:13:43Z</time>
      </trkpt>
      <trkpt lat="45.84645" lon="4.83225">
        <ele>169.5</ele>
        <time>2014-09-14T08:13:45Z</time>
      </trkpt>
      <trkpt lat="45.84656" lon="4.83219">
        <ele>169.4</ele>
        <time>2014-09-14T08:13:47Z</time>
      </trkpt>
      <trkpt lat="45.84668" lon="4.83213">
        <ele>169.3</ele>
        <time>2014-09-14T08:13:49Z</time>
      </trkpt>
      <trkpt lat="45.84681" lon="4.83205">
        <ele>169.2</ele>
        <time>2014-09-14T08:13:51Z</time>
      </trkpt>
      <trkpt lat="45.84695" lon="4.83198">
        <ele>169.1</ele>
        <time>2014-09-14T08:13:53Z</time>
      </trkpt>
      <trkpt lat="45.84708" lon="4.83191">
        <ele>169</ele>
        <time>2014-09-14T08:13:55Z</time>
      </trkpt>
      <trkpt lat="45.84721" lon="4.83187">
        <ele>168.9</ele>
        <time>2014-09-14T08:13:57Z</time>
      </trkpt>
      <trkpt lat="45.84736" lon="4.83186">
        <ele>168.7</ele>
        <time>2014-09-14T08:13:59Z</time>
      </trkpt>
      <trkpt lat="45.8475" lon="4.83185">
        <ele>168.5</ele>
        <time>2014-09-14T08:14:01Z</time>
      </trkpt>
      <trkpt lat="45.84761" lon="4.83186">
        <ele>168.4</ele>
        <time>2014-09-14T08:14:03Z</time>
      </trkpt>
      <trkpt lat="45.84774" lon="4.83187">
        <ele>168.2</ele>
        <time>2014-09-14T08:14:05Z</time>
      </trkpt>
      <trkpt lat="45.84787" lon="4.8319">
        <ele>168</ele>
        <time>2014-09-14T08:14:07Z</time>
      </trkpt>
      <trkpt lat="45.84799" lon="4.83193">
        <ele>168</ele>
        <time>2014-09-14T08:14:09Z</time>
      </trkpt>
      <trkpt lat="45.84811" lon="4.83197">
        <ele>168</ele>
        <time>2014-09-14T08:14:11Z</time>
      </trkpt>
      <trkpt lat="45.84824" lon="4.83202">
        <ele>168</ele>
        <time>2014-09-14T08:14:13Z</time>
      </trkpt>
      <trkpt lat="45.84839" lon="4.83207">
        <ele>168</ele>
        <time>2014-09-14T08:14:15Z</time>
      </trkpt>
      <trkpt lat="45.84851" lon="4.83211">
        <ele>168</ele>
        <time>2014-09-14T08:14:17Z</time>
      </trkpt>
      <trkpt lat="45.84862" lon="4.83215">
        <ele>168</ele>
        <time>2014-09-14T08:14:19Z</time>
      </trkpt>
      <trkpt lat="45.84874" lon="4.83218">
        <ele>168</ele>
        <time>2014-09-14T08:14:21Z</time>
      </trkpt>
      <trkpt lat="45.84885" lon="4.83222">
        <ele>168</ele>
        <time>2014-09-14T08:14:23Z</time>
      </trkpt>
      <trkpt lat="45.84896" lon="4.83227">
        <ele>168</ele>
        <time>2014-09-14T08:14:25Z</time>
      </trkpt>
      <trkpt lat="45.84909" lon="4.83232">
        <ele>168</ele>
        <time>2014-09-14T08:14:27Z</time>
      </trkpt>
      <trkpt lat="45.84921" lon="4.83236">
        <ele>168.3</ele>
        <time>2014-09-14T08:14:29Z</time>
      </trkpt>
      <trkpt lat="45.8493" lon="4.83241">
        <ele>168.5</ele>
        <time>2014-09-14T08:14:31Z</time>
      </trkpt>
      <trkpt lat="45.84939" lon="4.83246">
        <ele>168.8</ele>
        <time>2014-09-14T08:14:33Z</time>
      </trkpt>
      <trkpt lat="45.84949" lon="4.83251">
        <ele>169.1</ele>
        <time>2014-09-14T08:14:35Z</time>
      </trkpt>
      <trkpt lat="45.84959" lon="4.83255">
        <ele>169.4</ele>
        <time>2014-09-14T08:14:37Z</time>
      </trkpt>
      <trkpt lat="45.84971" lon="4.83261">
        <ele>169.6</ele>
        <time>2014-09-14T08:14:39Z</time>
      </trkpt>
      <trkpt lat="45.84983" lon="4.83266">
        <ele>169.9</ele>
        <time>2014-09-14T08:14:41Z</time>
      </trkpt>
      <trkpt lat="45.84994" lon="4.83272">
        <ele>170.3</ele>
        <time>2014-09-14T08:14:43Z</time>
      </trkpt>
      <trkpt lat="45.85006" lon="4.83277">
        <ele>170.5</ele>
        <time>2014-09-14T08:14:45Z</time>
      </trkpt>
      <trkpt lat="45.85016" lon="4.83281">
        <ele>170.8</ele>
        <time>2014-09-14T08:14:47Z</time>
      </trkpt>
      <trkpt lat="45.85027" lon="4.83285">
        <ele>171.1</ele>
        <time>2014-09-14T08:14:49Z</time>
      </trkpt>
      <trkpt lat="45.85038" lon="4.83289">
        <ele>171.1</ele>
        <time>2014-09-14T08:14:51Z</time>
      </trkpt>
      <trkpt lat="45.85048" lon="4.83295">
        <ele>171.1</ele>
        <time>2014-09-14T08:14:53Z</time>
      </trkpt>
      <trkpt lat="45.85061" lon="4.83304">
        <ele>171.1</ele>
        <time>2014-09-14T08:14:56Z</time>
      </trkpt>
      <trkpt lat="45.8507" lon="4.83309">
        <ele>171</ele>
        <time>2014-09-14T08:14:59Z</time>
      </trkpt>
      <trkpt lat="45.85082" lon="4.83316">
        <ele>170.9</ele>
        <time>2014-09-14T08:15:01Z</time>
      </trkpt>
      <trkpt lat="45.85094" lon="4.83321">
        <ele>170.8</ele>
        <time>2014-09-14T08:15:03Z</time>
      </trkpt>
      <trkpt lat="45.85106" lon="4.83325">
        <ele>170.7</ele>
        <time>2014-09-14T08:15:05Z</time>
      </trkpt>
      <trkpt lat="45.85119" lon="4.83329">
        <ele>170.5</ele>
        <time>2014-09-14T08:15:08Z</time>
      </trkpt>
      <trkpt lat="45.85129" lon="4.83332">
        <ele>170.5</ele>
        <time>2014-09-14T08:15:10Z</time>
      </trkpt>
      <trkpt lat="45.85139" lon="4.83335">
        <ele>170.4</ele>
        <time>2014-09-14T08:15:12Z</time>
      </trkpt>
      <trkpt lat="45.85151" lon="4.83339">
        <ele>170.3</ele>
        <time>2014-09-14T08:15:15Z</time>
      </trkpt>
      <trkpt lat="45.85162" lon="4.8334">
        <ele>170.2</ele>
        <time>2014-09-14T08:15:18Z</time>
      </trkpt>
      <trkpt lat="45.85175" lon="4.83344">
        <ele>170.1</ele>
        <time>2014-09-14T08:15:21Z</time>
      </trkpt>
      <trkpt lat="45.85187" lon="4.83348">
        <ele>170</ele>
        <time>2014-09-14T08:15:23Z</time>
      </trkpt>
      <trkpt lat="45.85199" lon="4.83352">
        <ele>170</ele>
        <time>2014-09-14T08:15:25Z</time>
      </trkpt>
      <trkpt lat="45.85209" lon="4.83355">
        <ele>170</ele>
        <time>2014-09-14T08:15:27Z</time>
      </trkpt>
      <trkpt lat="45.85219" lon="4.83357">
        <ele>170</ele>
        <time>2014-09-14T08:15:29Z</time>
      </trkpt>
      <trkpt lat="45.85228" lon="4.83359">
        <ele>170</ele>
        <time>2014-09-14T08:15:31Z</time>
      </trkpt>
      <trkpt lat="45.8524" lon="4.83364">
        <ele>170</ele>
        <time>2014-09-14T08:15:33Z</time>
      </trkpt>
      <trkpt lat="45.8525" lon="4.83367">
        <ele>170</ele>
        <time>2014-09-14T08:15:35Z</time>
      </trkpt>
      <trkpt lat="45.85262" lon="4.83369">
        <ele>170</ele>
        <time>2014-09-14T08:15:37Z</time>
      </trkpt>
      <trkpt lat="45.85273" lon="4.83371">
        <ele>170</ele>
        <time>2014-09-14T08:15:39Z</time>
      </trkpt>
      <trkpt lat="45.85284" lon="4.83373">
        <ele>170</ele>
        <time>2014-09-14T08:15:41Z</time>
      </trkpt>
      <trkpt lat="45.85297" lon="4.83378">
        <ele>170</ele>
        <time>2014-09-14T08:15:44Z</time>
      </trkpt>
      <trkpt lat="45.85306" lon="4.83382">
        <ele>170</ele>
        <time>2014-09-14T08:15:46Z</time>
      </trkpt>
      <trkpt lat="45.85316" lon="4.83386">
        <ele>170</ele>
        <time>2014-09-14T08:15:48Z</time>
      </trkpt>
      <trkpt lat="45.85326" lon="4.83389">
        <ele>170</ele>
        <time>2014-09-14T08:15:50Z</time>
      </trkpt>
      <trkpt lat="45.85337" lon="4.83391">
        <ele>170.1</ele>
        <time>2014-09-14T08:15:52Z</time>
      </trkpt>
      <trkpt lat="45.85349" lon="4.83393">
        <ele>170.2</ele>
        <time>2014-09-14T08:15:54Z</time>
      </trkpt>
      <trkpt lat="45.8536" lon="4.83396">
        <ele>170.3</ele>
        <time>2014-09-14T08:15:56Z</time>
      </trkpt>
      <trkpt lat="45.8537" lon="4.83398">
        <ele>170.4</ele>
        <time>2014-09-14T08:15:58Z</time>
      </trkpt>
      <trkpt lat="45.85381" lon="4.83402">
        <ele>170.5</ele>
        <time>2014-09-14T08:16:00Z</time>
      </trkpt>
      <trkpt lat="45.85392" lon="4.83405">
        <ele>170.5</ele>
        <time>2014-09-14T08:16:02Z</time>
      </trkpt>
      <trkpt lat="45.85402" lon="4.8341">
        <ele>170.5</ele>
        <time>2014-09-14T08:16:04Z</time>
      </trkpt>
      <trkpt lat="45.85415" lon="4.83415">
        <ele>170.5</ele>
        <time>2014-09-14T08:16:06Z</time>
      </trkpt>
      <trkpt lat="45.85427" lon="4.83417">
        <ele>170.5</ele>
        <time>2014-09-14T08:16:09Z</time>
      </trkpt>
      <trkpt lat="45.85443" lon="4.83423">
        <ele>170.5</ele>
        <time>2014-09-14T08:16:12Z</time>
      </trkpt>
      <trkpt lat="45.85452" lon="4.83427">
        <ele>170.5</ele>
        <time>2014-09-14T08:16:13Z</time>
      </trkpt>
      <trkpt lat="45.85464" lon="4.83432">
        <ele>170.5</ele>
        <time>2014-09-14T08:16:15Z</time>
      </trkpt>
      <trkpt lat="45.85478" lon="4.83436">
        <ele>170.4</ele>
        <time>2014-09-14T08:16:17Z</time>
      </trkpt>
      <trkpt lat="45.8549" lon="4.83439">
        <ele>170.4</ele>
        <time>2014-09-14T08:16:19Z</time>
      </trkpt>
      <trkpt lat="45.85502" lon="4.83441">
        <ele>170.4</ele>
        <time>2014-09-14T08:16:21Z</time>
      </trkpt>
      <trkpt lat="45.85514" lon="4.83443">
        <ele>170.4</ele>
        <time>2014-09-14T08:16:23Z</time>
      </trkpt>
      <trkpt lat="45.85527" lon="4.83447">
        <ele>170.4</ele>
        <time>2014-09-14T08:16:25Z</time>
      </trkpt>
      <trkpt lat="45.85541" lon="4.83452">
        <ele>170.5</ele>
        <time>2014-09-14T08:16:27Z</time>
      </trkpt>
      <trkpt lat="45.85555" lon="4.83456">
        <ele>170.5</ele>
        <time>2014-09-14T08:16:29Z</time>
      </trkpt>
      <trkpt lat="45.85568" lon="4.83461">
        <ele>170.6</ele>
        <time>2014-09-14T08:16:31Z</time>
      </trkpt>
      <trkpt lat="45.85578" lon="4.83465">
        <ele>170.5</ele>
        <time>2014-09-14T08:16:33Z</time>
      </trkpt>
      <trkpt lat="45.85592" lon="4.8347">
        <ele>170.5</ele>
        <time>2014-09-14T08:16:36Z</time>
      </trkpt>
      <trkpt lat="45.85603" lon="4.83474">
        <ele>170.4</ele>
        <time>2014-09-14T08:16:38Z</time>
      </trkpt>
      <trkpt lat="45.85614" lon="4.83478">
        <ele>170.3</ele>
        <time>2014-09-14T08:16:40Z</time>
      </trkpt>
      <trkpt lat="45.85624" lon="4.83481">
        <ele>170.1</ele>
        <time>2014-09-14T08:16:42Z</time>
      </trkpt>
      <trkpt lat="45.85636" lon="4.83485">
        <ele>169.9</ele>
        <time>2014-09-14T08:16:44Z</time>
      </trkpt>
      <trkpt lat="45.85647" lon="4.83489">
        <ele>169.7</ele>
        <time>2014-09-14T08:16:46Z</time>
      </trkpt>
      <trkpt lat="45.85659" lon="4.83492">
        <ele>169.7</ele>
        <time>2014-09-14T08:16:48Z</time>
      </trkpt>
      <trkpt lat="45.85672" lon="4.83495">
        <ele>169.7</ele>
        <time>2014-09-14T08:16:50Z</time>
      </trkpt>
      <trkpt lat="45.85685" lon="4.83498">
        <ele>169.7</ele>
        <time>2014-09-14T08:16:52Z</time>
      </trkpt>
      <trkpt lat="45.85697" lon="4.835">
        <ele>169.7</ele>
        <time>2014-09-14T08:16:54Z</time>
      </trkpt>
      <trkpt lat="45.85709" lon="4.83501">
        <ele>169.9</ele>
        <time>2014-09-14T08:16:56Z</time>
      </trkpt>
      <trkpt lat="45.85721" lon="4.83503">
        <ele>170.1</ele>
        <time>2014-09-14T08:16:58Z</time>
      </trkpt>
      <trkpt lat="45.85734" lon="4.83505">
        <ele>170.3</ele>
        <time>2014-09-14T08:17:00Z</time>
      </trkpt>
      <trkpt lat="45.85746" lon="4.83506">
        <ele>170.5</ele>
        <time>2014-09-14T08:17:02Z</time>
      </trkpt>
      <trkpt lat="45.85758" lon="4.83507">
        <ele>170.6</ele>
        <time>2014-09-14T08:17:04Z</time>
      </trkpt>
      <trkpt lat="45.85768" lon="4.83507">
        <ele>170.8</ele>
        <time>2014-09-14T08:17:06Z</time>
      </trkpt>
      <trkpt lat="45.85778" lon="4.83508">
        <ele>171</ele>
        <time>2014-09-14T08:17:08Z</time>
      </trkpt>
      <trkpt lat="45.8579" lon="4.83511">
        <ele>171</ele>
        <time>2014-09-14T08:17:10Z</time>
      </trkpt>
      <trkpt lat="45.858" lon="4.83513">
        <ele>171</ele>
        <time>2014-09-14T08:17:12Z</time>
      </trkpt>
      <trkpt lat="45.85811" lon="4.83517">
        <ele>171</ele>
        <time>2014-09-14T08:17:14Z</time>
      </trkpt>
      <trkpt lat="45.85822" lon="4.83519">
        <ele>171</ele>
        <time>2014-09-14T08:17:16Z</time>
      </trkpt>
      <trkpt lat="45.85834" lon="4.83522">
        <ele>170.9</ele>
        <time>2014-09-14T08:17:18Z</time>
      </trkpt>
      <trkpt lat="45.85846" lon="4.83524">
        <ele>170.8</ele>
        <time>2014-09-14T08:17:20Z</time>
      </trkpt>
      <trkpt lat="45.85857" lon="4.83528">
        <ele>170.7</ele>
        <time>2014-09-14T08:17:22Z</time>
      </trkpt>
      <trkpt lat="45.85869" lon="4.83532">
        <ele>170.6</ele>
        <time>2014-09-14T08:17:24Z</time>
      </trkpt>
      <trkpt lat="45.85881" lon="4.83534">
        <ele>170.5</ele>
        <time>2014-09-14T08:17:26Z</time>
      </trkpt>
      <trkpt lat="45.85893" lon="4.83536">
        <ele>170.5</ele>
        <time>2014-09-14T08:17:28Z</time>
      </trkpt>
      <trkpt lat="45.85904" lon="4.83537">
        <ele>170.4</ele>
        <time>2014-09-14T08:17:30Z</time>
      </trkpt>
      <trkpt lat="45.85917" lon="4.83538">
        <ele>170.3</ele>
        <time>2014-09-14T08:17:32Z</time>
      </trkpt>
      <trkpt lat="45.85928" lon="4.83537">
        <ele>170.2</ele>
        <time>2014-09-14T08:17:34Z</time>
      </trkpt>
      <trkpt lat="45.85939" lon="4.83537">
        <ele>170.1</ele>
        <time>2014-09-14T08:17:36Z</time>
      </trkpt>
      <trkpt lat="45.85949" lon="4.83536">
        <ele>170</ele>
        <time>2014-09-14T08:17:38Z</time>
      </trkpt>
      <trkpt lat="45.85961" lon="4.83533">
        <ele>170</ele>
        <time>2014-09-14T08:17:40Z</time>
      </trkpt>
      <trkpt lat="45.85973" lon="4.83531">
        <ele>170</ele>
        <time>2014-09-14T08:17:42Z</time>
      </trkpt>
      <trkpt lat="45.85985" lon="4.83528">
        <ele>170</ele>
        <time>2014-09-14T08:17:44Z</time>
      </trkpt>
      <trkpt lat="45.85998" lon="4.83526">
        <ele>170</ele>
        <time>2014-09-14T08:17:46Z</time>
      </trkpt>
      <trkpt lat="45.86009" lon="4.83525">
        <ele>170</ele>
        <time>2014-09-14T08:17:48Z</time>
      </trkpt>
      <trkpt lat="45.8602" lon="4.83524">
        <ele>170</ele>
        <time>2014-09-14T08:17:50Z</time>
      </trkpt>
      <trkpt lat="45.86031" lon="4.83525">
        <ele>170</ele>
        <time>2014-09-14T08:17:52Z</time>
      </trkpt>
      <trkpt lat="45.86041" lon="4.83527">
        <ele>170</ele>
        <time>2014-09-14T08:17:54Z</time>
      </trkpt>
      <trkpt lat="45.86051" lon="4.83528">
        <ele>170</ele>
        <time>2014-09-14T08:17:56Z</time>
      </trkpt>
      <trkpt lat="45.8606" lon="4.83525">
        <ele>170</ele>
        <time>2014-09-14T08:17:58Z</time>
      </trkpt>
      <trkpt lat="45.86072" lon="4.83523">
        <ele>169.9</ele>
        <time>2014-09-14T08:18:00Z</time>
      </trkpt>
      <trkpt lat="45.86082" lon="4.83524">
        <ele>169.8</ele>
        <time>2014-09-14T08:18:02Z</time>
      </trkpt>
      <trkpt lat="45.86095" lon="4.83524">
        <ele>169.7</ele>
        <time>2014-09-14T08:18:05Z</time>
      </trkpt>
      <trkpt lat="45.86107" lon="4.83527">
        <ele>169.6</ele>
        <time>2014-09-14T08:18:07Z</time>
      </trkpt>
      <trkpt lat="45.86119" lon="4.83529">
        <ele>169.5</ele>
        <time>2014-09-14T08:18:09Z</time>
      </trkpt>
      <trkpt lat="45.86132" lon="4.83532">
        <ele>169.5</ele>
        <time>2014-09-14T08:18:11Z</time>
      </trkpt>
      <trkpt lat="45.86146" lon="4.83534">
        <ele>169.4</ele>
        <time>2014-09-14T08:18:13Z</time>
      </trkpt>
      <trkpt lat="45.86158" lon="4.83536">
        <ele>169.3</ele>
        <time>2014-09-14T08:18:15Z</time>
      </trkpt>
      <trkpt lat="45.86167" lon="4.83537">
        <ele>169.4</ele>
        <time>2014-09-14T08:18:17Z</time>
      </trkpt>
      <trkpt lat="45.86177" lon="4.83538">
        <ele>169.5</ele>
        <time>2014-09-14T08:18:19Z</time>
      </trkpt>
      <trkpt lat="45.86187" lon="4.83537">
        <ele>169.5</ele>
        <time>2014-09-14T08:18:21Z</time>
      </trkpt>
      <trkpt lat="45.86198" lon="4.83536">
        <ele>169.7</ele>
        <time>2014-09-14T08:18:23Z</time>
      </trkpt>
      <trkpt lat="45.8621" lon="4.83535">
        <ele>169.9</ele>
        <time>2014-09-14T08:18:25Z</time>
      </trkpt>
      <trkpt lat="45.86222" lon="4.83536">
        <ele>170.1</ele>
        <time>2014-09-14T08:18:27Z</time>
      </trkpt>
      <trkpt lat="45.86233" lon="4.83536">
        <ele>170.3</ele>
        <time>2014-09-14T08:18:29Z</time>
      </trkpt>
      <trkpt lat="45.86244" lon="4.83538">
        <ele>170.3</ele>
        <time>2014-09-14T08:18:31Z</time>
      </trkpt>
      <trkpt lat="45.86257" lon="4.83538">
        <ele>170.3</ele>
        <time>2014-09-14T08:18:34Z</time>
      </trkpt>
      <trkpt lat="45.86269" lon="4.83538">
        <ele>170.3</ele>
        <time>2014-09-14T08:18:36Z</time>
      </trkpt>
      <trkpt lat="45.8628" lon="4.83537">
        <ele>170.3</ele>
        <time>2014-09-14T08:18:38Z</time>
      </trkpt>
      <trkpt lat="45.86291" lon="4.83536">
        <ele>170.1</ele>
        <time>2014-09-14T08:18:40Z</time>
      </trkpt>
      <trkpt lat="45.86302" lon="4.83535">
        <ele>169.9</ele>
        <time>2014-09-14T08:18:42Z</time>
      </trkpt>
      <trkpt lat="45.86314" lon="4.83535">
        <ele>169.7</ele>
        <time>2014-09-14T08:18:44Z</time>
      </trkpt>
      <trkpt lat="45.86325" lon="4.83535">
        <ele>169.5</ele>
        <time>2014-09-14T08:18:46Z</time>
      </trkpt>
      <trkpt lat="45.86336" lon="4.83535">
        <ele>169.5</ele>
        <time>2014-09-14T08:18:48Z</time>
      </trkpt>
      <trkpt lat="45.86345" lon="4.83532">
        <ele>169.5</ele>
        <time>2014-09-14T08:18:50Z</time>
      </trkpt>
      <trkpt lat="45.86357" lon="4.83526">
        <ele>169.5</ele>
        <time>2014-09-14T08:18:52Z</time>
      </trkpt>
      <trkpt lat="45.86367" lon="4.83522">
        <ele>169.7</ele>
        <time>2014-09-14T08:18:54Z</time>
      </trkpt>
      <trkpt lat="45.86376" lon="4.83518">
        <ele>169.9</ele>
        <time>2014-09-14T08:18:56Z</time>
      </trkpt>
      <trkpt lat="45.86387" lon="4.83514">
        <ele>170.1</ele>
        <time>2014-09-14T08:18:58Z</time>
      </trkpt>
      <trkpt lat="45.86399" lon="4.83509">
        <ele>170.3</ele>
        <time>2014-09-14T08:19:00Z</time>
      </trkpt>
      <trkpt lat="45.8641" lon="4.83505">
        <ele>170.5</ele>
        <time>2014-09-14T08:19:02Z</time>
      </trkpt>
      <trkpt lat="45.86421" lon="4.83502">
        <ele>170.6</ele>
        <time>2014-09-14T08:19:04Z</time>
      </trkpt>
      <trkpt lat="45.86432" lon="4.83499">
        <ele>170.8</ele>
        <time>2014-09-14T08:19:06Z</time>
      </trkpt>
      <trkpt lat="45.86446" lon="4.83493">
        <ele>171</ele>
        <time>2014-09-14T08:19:09Z</time>
      </trkpt>
      <trkpt lat="45.86457" lon="4.83487">
        <ele>171.2</ele>
        <time>2014-09-14T08:19:11Z</time>
      </trkpt>
      <trkpt lat="45.86467" lon="4.83481">
        <ele>171.4</ele>
        <time>2014-09-14T08:19:13Z</time>
      </trkpt>
      <trkpt lat="45.86479" lon="4.83476">
        <ele>171.5</ele>
        <time>2014-09-14T08:19:15Z</time>
      </trkpt>
      <trkpt lat="45.86489" lon="4.83472">
        <ele>171.7</ele>
        <time>2014-09-14T08:19:17Z</time>
      </trkpt>
      <trkpt lat="45.865" lon="4.83468">
        <ele>171.8</ele>
        <time>2014-09-14T08:19:19Z</time>
      </trkpt>
      <trkpt lat="45.86512" lon="4.83464">
        <ele>171.9</ele>
        <time>2014-09-14T08:19:21Z</time>
      </trkpt>
      <trkpt lat="45.86524" lon="4.8346">
        <ele>172</ele>
        <time>2014-09-14T08:19:23Z</time>
      </trkpt>
      <trkpt lat="45.86534" lon="4.83457">
        <ele>172.1</ele>
        <time>2014-09-14T08:19:25Z</time>
      </trkpt>
      <trkpt lat="45.86544" lon="4.83453">
        <ele>172.2</ele>
        <time>2014-09-14T08:19:27Z</time>
      </trkpt>
      <trkpt lat="45.86554" lon="4.83451">
        <ele>172.3</ele>
        <time>2014-09-14T08:19:29Z</time>
      </trkpt>
      <trkpt lat="45.86563" lon="4.83449">
        <ele>172.4</ele>
        <time>2014-09-14T08:19:31Z</time>
      </trkpt>
      <trkpt lat="45.86573" lon="4.83448">
        <ele>172.3</ele>
        <time>2014-09-14T08:19:33Z</time>
      </trkpt>
      <trkpt lat="45.86583" lon="4.83447">
        <ele>172.2</ele>
        <time>2014-09-14T08:19:35Z</time>
      </trkpt>
      <trkpt lat="45.86595" lon="4.83446">
        <ele>172.1</ele>
        <time>2014-09-14T08:19:37Z</time>
      </trkpt>
      <trkpt lat="45.86607" lon="4.83445">
        <ele>172</ele>
        <time>2014-09-14T08:19:39Z</time>
      </trkpt>
      <trkpt lat="45.86618" lon="4.83445">
        <ele>172</ele>
        <time>2014-09-14T08:19:41Z</time>
      </trkpt>
      <trkpt lat="45.8663" lon="4.83446">
        <ele>172</ele>
        <time>2014-09-14T08:19:43Z</time>
      </trkpt>
      <trkpt lat="45.8664" lon="4.83447">
        <ele>172</ele>
        <time>2014-09-14T08:19:45Z</time>
      </trkpt>
      <trkpt lat="45.86649" lon="4.83448">
        <ele>172</ele>
        <time>2014-09-14T08:19:47Z</time>
      </trkpt>
      <trkpt lat="45.8666" lon="4.8345">
        <ele>172</ele>
        <time>2014-09-14T08:19:49Z</time>
      </trkpt>
      <trkpt lat="45.86673" lon="4.83453">
        <ele>172</ele>
        <time>2014-09-14T08:19:51Z</time>
      </trkpt>
      <trkpt lat="45.86687" lon="4.83455">
        <ele>172</ele>
        <time>2014-09-14T08:19:53Z</time>
      </trkpt>
      <trkpt lat="45.86699" lon="4.83456">
        <ele>172</ele>
        <time>2014-09-14T08:19:55Z</time>
      </trkpt>
      <trkpt lat="45.86712" lon="4.83456">
        <ele>172</ele>
        <time>2014-09-14T08:19:57Z</time>
      </trkpt>
      <trkpt lat="45.86723" lon="4.83457">
        <ele>172</ele>
        <time>2014-09-14T08:19:59Z</time>
      </trkpt>
      <trkpt lat="45.86733" lon="4.83457">
        <ele>172</ele>
        <time>2014-09-14T08:20:01Z</time>
      </trkpt>
      <trkpt lat="45.86743" lon="4.83458">
        <ele>171.7</ele>
        <time>2014-09-14T08:20:03Z</time>
      </trkpt>
      <trkpt lat="45.86753" lon="4.8346">
        <ele>171.5</ele>
        <time>2014-09-14T08:20:05Z</time>
      </trkpt>
      <trkpt lat="45.86764" lon="4.8346">
        <ele>171.2</ele>
        <time>2014-09-14T08:20:07Z</time>
      </trkpt>
      <trkpt lat="45.86775" lon="4.83459">
        <ele>170.9</ele>
        <time>2014-09-14T08:20:09Z</time>
      </trkpt>
      <trkpt lat="45.86787" lon="4.83459">
        <ele>170.6</ele>
        <time>2014-09-14T08:20:11Z</time>
      </trkpt>
      <trkpt lat="45.86798" lon="4.83459">
        <ele>170.4</ele>
        <time>2014-09-14T08:20:13Z</time>
      </trkpt>
      <trkpt lat="45.8681" lon="4.8346">
        <ele>170.1</ele>
        <time>2014-09-14T08:20:15Z</time>
      </trkpt>
      <trkpt lat="45.86824" lon="4.83461">
        <ele>169.9</ele>
        <time>2014-09-14T08:20:17Z</time>
      </trkpt>
      <trkpt lat="45.86837" lon="4.83462">
        <ele>169.7</ele>
        <time>2014-09-14T08:20:19Z</time>
      </trkpt>
      <trkpt lat="45.86849" lon="4.83464">
        <ele>169.5</ele>
        <time>2014-09-14T08:20:21Z</time>
      </trkpt>
      <trkpt lat="45.8686" lon="4.83465">
        <ele>169.4</ele>
        <time>2014-09-14T08:20:23Z</time>
      </trkpt>
      <trkpt lat="45.86872" lon="4.83466">
        <ele>169.5</ele>
        <time>2014-09-14T08:20:25Z</time>
      </trkpt>
      <trkpt lat="45.86884" lon="4.83467">
        <ele>169.5</ele>
        <time>2014-09-14T08:20:27Z</time>
      </trkpt>
      <trkpt lat="45.86896" lon="4.83469">
        <ele>169.6</ele>
        <time>2014-09-14T08:20:29Z</time>
      </trkpt>
      <trkpt lat="45.86909" lon="4.83472">
        <ele>169.6</ele>
        <time>2014-09-14T08:20:31Z</time>
      </trkpt>
      <trkpt lat="45.86923" lon="4.83475">
        <ele>169.6</ele>
        <time>2014-09-14T08:20:33Z</time>
      </trkpt>
      <trkpt lat="45.86936" lon="4.83478">
        <ele>169.6</ele>
        <time>2014-09-14T08:20:35Z</time>
      </trkpt>
      <trkpt lat="45.86948" lon="4.83479">
        <ele>169.6</ele>
        <time>2014-09-14T08:20:37Z</time>
      </trkpt>
      <trkpt lat="45.86962" lon="4.83479">
        <ele>169.5</ele>
        <time>2014-09-14T08:20:39Z</time>
      </trkpt>
      <trkpt lat="45.86976" lon="4.83478">
        <ele>169.5</ele>
        <time>2014-09-14T08:20:41Z</time>
      </trkpt>
      <trkpt lat="45.86989" lon="4.83478">
        <ele>169</ele>
        <time>2014-09-14T08:20:43Z</time>
      </trkpt>
      <trkpt lat="45.87002" lon="4.83478">
        <ele>168.5</ele>
        <time>2014-09-14T08:20:45Z</time>
      </trkpt>
      <trkpt lat="45.87016" lon="4.83479">
        <ele>168.1</ele>
        <time>2014-09-14T08:20:47Z</time>
      </trkpt>
      <trkpt lat="45.87029" lon="4.83478">
        <ele>167.6</ele>
        <time>2014-09-14T08:20:49Z</time>
      </trkpt>
      <trkpt lat="45.87042" lon="4.83479">
        <ele>167.2</ele>
        <time>2014-09-14T08:20:51Z</time>
      </trkpt>
      <trkpt lat="45.87054" lon="4.83478">
        <ele>166.8</ele>
        <time>2014-09-14T08:20:53Z</time>
      </trkpt>
      <trkpt lat="45.87067" lon="4.83477">
        <ele>167</ele>
        <time>2014-09-14T08:20:55Z</time>
      </trkpt>
      <trkpt lat="45.87081" lon="4.83477">
        <ele>167.2</ele>
        <time>2014-09-14T08:20:57Z</time>
      </trkpt>
      <trkpt lat="45.87094" lon="4.83476">
        <ele>167.4</ele>
        <time>2014-09-14T08:20:59Z</time>
      </trkpt>
      <trkpt lat="45.87107" lon="4.83475">
        <ele>167.5</ele>
        <time>2014-09-14T08:21:01Z</time>
      </trkpt>
      <trkpt lat="45.8712" lon="4.83475">
        <ele>167.7</ele>
        <time>2014-09-14T08:21:03Z</time>
      </trkpt>
      <trkpt lat="45.87132" lon="4.83476">
        <ele>168.3</ele>
        <time>2014-09-14T08:21:05Z</time>
      </trkpt>
      <trkpt lat="45.87145" lon="4.83477">
        <ele>168.5</ele>
        <time>2014-09-14T08:21:07Z</time>
      </trkpt>
      <trkpt lat="45.87157" lon="4.83478">
        <ele>168.6</ele>
        <time>2014-09-14T08:21:09Z</time>
      </trkpt>
      <trkpt lat="45.8717" lon="4.8348">
        <ele>168.8</ele>
        <time>2014-09-14T08:21:11Z</time>
      </trkpt>
      <trkpt lat="45.87183" lon="4.83482">
        <ele>169</ele>
        <time>2014-09-14T08:21:13Z</time>
      </trkpt>
      <trkpt lat="45.87194" lon="4.83483">
        <ele>169.2</ele>
        <time>2014-09-14T08:21:16Z</time>
      </trkpt>
      <trkpt lat="45.87211" lon="4.83486">
        <ele>168.8</ele>
        <time>2014-09-14T08:21:18Z</time>
      </trkpt>
      <trkpt lat="45.87224" lon="4.83489">
        <ele>168.5</ele>
        <time>2014-09-14T08:21:20Z</time>
      </trkpt>
      <trkpt lat="45.87236" lon="4.83491">
        <ele>168.5</ele>
        <time>2014-09-14T08:21:22Z</time>
      </trkpt>
      <trkpt lat="45.87247" lon="4.83493">
        <ele>168.5</ele>
        <time>2014-09-14T08:21:24Z</time>
      </trkpt>
      <trkpt lat="45.87258" lon="4.83495">
        <ele>168.5</ele>
        <time>2014-09-14T08:21:26Z</time>
      </trkpt>
      <trkpt lat="45.87271" lon="4.83497">
        <ele>168.5</ele>
        <time>2014-09-14T08:21:28Z</time>
      </trkpt>
      <trkpt lat="45.87283" lon="4.83499">
        <ele>168.8</ele>
        <time>2014-09-14T08:21:30Z</time>
      </trkpt>
      <trkpt lat="45.87294" lon="4.835">
        <ele>169.2</ele>
        <time>2014-09-14T08:21:32Z</time>
      </trkpt>
      <trkpt lat="45.87305" lon="4.83502">
        <ele>169.5</ele>
        <time>2014-09-14T08:21:34Z</time>
      </trkpt>
      <trkpt lat="45.87317" lon="4.83504">
        <ele>169.9</ele>
        <time>2014-09-14T08:21:36Z</time>
      </trkpt>
      <trkpt lat="45.87329" lon="4.83505">
        <ele>170.4</ele>
        <time>2014-09-14T08:21:38Z</time>
      </trkpt>
      <trkpt lat="45.8734" lon="4.83507">
        <ele>170.8</ele>
        <time>2014-09-14T08:21:40Z</time>
      </trkpt>
      <trkpt lat="45.87351" lon="4.83509">
        <ele>171.3</ele>
        <time>2014-09-14T08:21:42Z</time>
      </trkpt>
      <trkpt lat="45.87363" lon="4.8351">
        <ele>171.4</ele>
        <time>2014-09-14T08:21:44Z</time>
      </trkpt>
      <trkpt lat="45.87373" lon="4.8351">
        <ele>171.5</ele>
        <time>2014-09-14T08:21:46Z</time>
      </trkpt>
      <trkpt lat="45.87384" lon="4.8351">
        <ele>171.5</ele>
        <time>2014-09-14T08:21:48Z</time>
      </trkpt>
      <trkpt lat="45.87397" lon="4.8351">
        <ele>171.6</ele>
        <time>2014-09-14T08:21:50Z</time>
      </trkpt>
      <trkpt lat="45.87408" lon="4.8351">
        <ele>171.7</ele>
        <time>2014-09-14T08:21:52Z</time>
      </trkpt>
      <trkpt lat="45.87418" lon="4.83509">
        <ele>171.9</ele>
        <time>2014-09-14T08:21:54Z</time>
      </trkpt>
      <trkpt lat="45.87428" lon="4.83509">
        <ele>172.1</ele>
        <time>2014-09-14T08:21:56Z</time>
      </trkpt>
      <trkpt lat="45.87439" lon="4.83509">
        <ele>172.3</ele>
        <time>2014-09-14T08:21:58Z</time>
      </trkpt>
      <trkpt lat="45.87452" lon="4.83509">
        <ele>172.4</ele>
        <time>2014-09-14T08:22:00Z</time>
      </trkpt>
      <trkpt lat="45.87463" lon="4.83508">
        <ele>172.5</ele>
        <time>2014-09-14T08:22:02Z</time>
      </trkpt>
      <trkpt lat="45.87474" lon="4.83508">
        <ele>172.5</ele>
        <time>2014-09-14T08:22:04Z</time>
      </trkpt>
      <trkpt lat="45.87485" lon="4.83507">
        <ele>172.6</ele>
        <time>2014-09-14T08:22:06Z</time>
      </trkpt>
      <trkpt lat="45.87497" lon="4.83506">
        <ele>172.5</ele>
        <time>2014-09-14T08:22:08Z</time>
      </trkpt>
      <trkpt lat="45.87508" lon="4.83506">
        <ele>172.3</ele>
        <time>2014-09-14T08:22:10Z</time>
      </trkpt>
      <trkpt lat="45.8752" lon="4.83507">
        <ele>172.1</ele>
        <time>2014-09-14T08:22:12Z</time>
      </trkpt>
      <trkpt lat="45.87531" lon="4.83509">
        <ele>171.9</ele>
        <time>2014-09-14T08:22:14Z</time>
      </trkpt>
      <trkpt lat="45.87543" lon="4.83513">
        <ele>171.6</ele>
        <time>2014-09-14T08:22:16Z</time>
      </trkpt>
      <trkpt lat="45.87555" lon="4.83517">
        <ele>171.4</ele>
        <time>2014-09-14T08:22:18Z</time>
      </trkpt>
      <trkpt lat="45.87568" lon="4.83523">
        <ele>171.1</ele>
        <time>2014-09-14T08:22:20Z</time>
      </trkpt>
      <trkpt lat="45.87579" lon="4.83527">
        <ele>170.9</ele>
        <time>2014-09-14T08:22:22Z</time>
      </trkpt>
      <trkpt lat="45.87588" lon="4.83532">
        <ele>170.7</ele>
        <time>2014-09-14T08:22:24Z</time>
      </trkpt>
      <trkpt lat="45.87597" lon="4.83536">
        <ele>170.5</ele>
        <time>2014-09-14T08:22:26Z</time>
      </trkpt>
      <trkpt lat="45.8761" lon="4.83539">
        <ele>170.4</ele>
        <time>2014-09-14T08:22:29Z</time>
      </trkpt>
      <trkpt lat="45.8762" lon="4.83541">
        <ele>170.5</ele>
        <time>2014-09-14T08:22:31Z</time>
      </trkpt>
      <trkpt lat="45.8763" lon="4.83542">
        <ele>170.5</ele>
        <time>2014-09-14T08:22:33Z</time>
      </trkpt>
      <trkpt lat="45.87644" lon="4.83539">
        <ele>170.6</ele>
        <time>2014-09-14T08:22:36Z</time>
      </trkpt>
      <trkpt lat="45.87656" lon="4.83536">
        <ele>170.7</ele>
        <time>2014-09-14T08:22:39Z</time>
      </trkpt>
      <trkpt lat="45.87666" lon="4.83532">
        <ele>170.9</ele>
        <time>2014-09-14T08:22:42Z</time>
      </trkpt>
      <trkpt lat="45.87677" lon="4.83525">
        <ele>171.1</ele>
        <time>2014-09-14T08:22:46Z</time>
      </trkpt>
      <trkpt lat="45.87683" lon="4.83513">
        <ele>171.3</ele>
        <time>2014-09-14T08:22:49Z</time>
      </trkpt>
      <trkpt lat="45.87681" lon="4.83499">
        <ele>171.4</ele>
        <time>2014-09-14T08:22:52Z</time>
      </trkpt>
      <trkpt lat="45.87678" lon="4.83481">
        <ele>171.5</ele>
        <time>2014-09-14T08:22:55Z</time>
      </trkpt>
      <trkpt lat="45.87673" lon="4.83463">
        <ele>171.5</ele>
        <time>2014-09-14T08:22:58Z</time>
      </trkpt>
      <trkpt lat="45.87668" lon="4.83453">
        <ele>171.8</ele>
        <time>2014-09-14T08:23:00Z</time>
      </trkpt>
      <trkpt lat="45.87659" lon="4.8344">
        <ele>172.3</ele>
        <time>2014-09-14T08:23:03Z</time>
      </trkpt>
      <trkpt lat="45.87649" lon="4.83428">
        <ele>172.7</ele>
        <time>2014-09-14T08:23:06Z</time>
      </trkpt>
      <trkpt lat="45.8764" lon="4.83414">
        <ele>173.2</ele>
        <time>2014-09-14T08:23:08Z</time>
      </trkpt>
      <trkpt lat="45.87632" lon="4.83403">
        <ele>173.6</ele>
        <time>2014-09-14T08:23:10Z</time>
      </trkpt>
      <trkpt lat="45.8762" lon="4.83391">
        <ele>174</ele>
        <time>2014-09-14T08:23:13Z</time>
      </trkpt>
      <trkpt lat="45.87613" lon="4.83383">
        <ele>174.4</ele>
        <time>2014-09-14T08:23:15Z</time>
      </trkpt>
      <trkpt lat="45.87602" lon="4.83374">
        <ele>174.7</ele>
        <time>2014-09-14T08:23:18Z</time>
      </trkpt>
      <trkpt lat="45.87593" lon="4.83361">
        <ele>175.1</ele>
        <time>2014-09-14T08:23:22Z</time>
      </trkpt>
      <trkpt lat="45.87587" lon="4.83351">
        <ele>175.6</ele>
        <time>2014-09-14T08:23:25Z</time>
      </trkpt>
      <trkpt lat="45.87579" lon="4.83341">
        <ele>176.2</ele>
        <time>2014-09-14T08:23:28Z</time>
      </trkpt>
      <trkpt lat="45.87571" lon="4.83329">
        <ele>176.5</ele>
        <time>2014-09-14T08:23:32Z</time>
      </trkpt>
      <trkpt lat="45.87565" lon="4.83318">
        <ele>176.7</ele>
        <time>2014-09-14T08:23:35Z</time>
      </trkpt>
      <trkpt lat="45.87559" lon="4.83306">
        <ele>176.9</ele>
        <time>2014-09-14T08:23:38Z</time>
      </trkpt>
      <trkpt lat="45.87552" lon="4.83295">
        <ele>177.1</ele>
        <time>2014-09-14T08:23:41Z</time>
      </trkpt>
      <trkpt lat="45.87551" lon="4.83281">
        <ele>177.3</ele>
        <time>2014-09-14T08:23:44Z</time>
      </trkpt>
      <trkpt lat="45.87551" lon="4.83266">
        <ele>177.8</ele>
        <time>2014-09-14T08:23:48Z</time>
      </trkpt>
      <trkpt lat="45.87557" lon="4.83255">
        <ele>178.4</ele>
        <time>2014-09-14T08:23:53Z</time>
      </trkpt>
      <trkpt lat="45.87565" lon="4.83248">
        <ele>178.9</ele>
        <time>2014-09-14T08:23:57Z</time>
      </trkpt>
      <trkpt lat="45.87571" lon="4.83236">
        <ele>179.5</ele>
        <time>2014-09-14T08:24:01Z</time>
      </trkpt>
      <trkpt lat="45.8757" lon="4.83222">
        <ele>179.8</ele>
        <time>2014-09-14T08:24:06Z</time>
      </trkpt>
      <trkpt lat="45.87566" lon="4.83211">
        <ele>180.9</ele>
        <time>2014-09-14T08:24:10Z</time>
      </trkpt>
      <trkpt lat="45.8756" lon="4.83198">
        <ele>182</ele>
        <time>2014-09-14T08:24:14Z</time>
      </trkpt>
      <trkpt lat="45.87555" lon="4.83186">
        <ele>183.1</ele>
        <time>2014-09-14T08:24:19Z</time>
      </trkpt>
      <trkpt lat="45.87551" lon="4.83172">
        <ele>184.2</ele>
        <time>2014-09-14T08:24:23Z</time>
      </trkpt>
      <trkpt lat="45.87553" lon="4.83157">
        <ele>185.3</ele>
        <time>2014-09-14T08:24:28Z</time>
      </trkpt>
      <trkpt lat="45.87544" lon="4.83153">
        <ele>186.4</ele>
        <time>2014-09-14T08:24:34Z</time>
      </trkpt>
      <trkpt lat="45.87535" lon="4.83155">
        <ele>187.9</ele>
        <time>2014-09-14T08:24:38Z</time>
      </trkpt>
      <trkpt lat="45.87524" lon="4.83156">
        <ele>189.5</ele>
        <time>2014-09-14T08:24:42Z</time>
      </trkpt>
      <trkpt lat="45.87514" lon="4.83156">
        <ele>191</ele>
        <time>2014-09-14T08:24:46Z</time>
      </trkpt>
      <trkpt lat="45.87504" lon="4.83155">
        <ele>192.5</ele>
        <time>2014-09-14T08:24:50Z</time>
      </trkpt>
      <trkpt lat="45.87495" lon="4.83146">
        <ele>194.1</ele>
        <time>2014-09-14T08:24:56Z</time>
      </trkpt>
      <trkpt lat="45.87496" lon="4.83127">
        <ele>194.9</ele>
        <time>2014-09-14T08:25:03Z</time>
      </trkpt>
      <trkpt lat="45.87504" lon="4.83119">
        <ele>195.7</ele>
        <time>2014-09-14T08:25:08Z</time>
      </trkpt>
      <trkpt lat="45.87512" lon="4.83109">
        <ele>197.2</ele>
        <time>2014-09-14T08:25:13Z</time>
      </trkpt>
      <trkpt lat="45.87519" lon="4.83099">
        <ele>198.6</ele>
        <time>2014-09-14T08:25:19Z</time>
      </trkpt>
      <trkpt lat="45.87525" lon="4.83087">
        <ele>200.1</ele>
        <time>2014-09-14T08:25:24Z</time>
      </trkpt>
      <trkpt lat="45.87531" lon="4.83075">
        <ele>201.5</ele>
        <time>2014-09-14T08:25:28Z</time>
      </trkpt>
      <trkpt lat="45.87535" lon="4.8306">
        <ele>202.2</ele>
        <time>2014-09-14T08:25:33Z</time>
      </trkpt>
      <trkpt lat="45.87537" lon="4.83045">
        <ele>202.8</ele>
        <time>2014-09-14T08:25:38Z</time>
      </trkpt>
      <trkpt lat="45.87536" lon="4.83031">
        <ele>203.8</ele>
        <time>2014-09-14T08:25:43Z</time>
      </trkpt>
      <trkpt lat="45.87535" lon="4.83016">
        <ele>204.8</ele>
        <time>2014-09-14T08:25:48Z</time>
      </trkpt>
      <trkpt lat="45.87535" lon="4.82998">
        <ele>205.8</ele>
        <time>2014-09-14T08:25:54Z</time>
      </trkpt>
      <trkpt lat="45.87532" lon="4.82985">
        <ele>206.8</ele>
        <time>2014-09-14T08:25:58Z</time>
      </trkpt>
      <trkpt lat="45.87529" lon="4.82971">
        <ele>207.8</ele>
        <time>2014-09-14T08:26:03Z</time>
      </trkpt>
      <trkpt lat="45.87527" lon="4.82958">
        <ele>208.2</ele>
        <time>2014-09-14T08:26:07Z</time>
      </trkpt>
      <trkpt lat="45.87525" lon="4.82943">
        <ele>208.5</ele>
        <time>2014-09-14T08:26:12Z</time>
      </trkpt>
      <trkpt lat="45.87523" lon="4.82929">
        <ele>208.6</ele>
        <time>2014-09-14T08:26:17Z</time>
      </trkpt>
      <trkpt lat="45.87519" lon="4.82916">
        <ele>208.7</ele>
        <time>2014-09-14T08:26:21Z</time>
      </trkpt>
      <trkpt lat="45.87515" lon="4.82904">
        <ele>208.8</ele>
        <time>2014-09-14T08:26:25Z</time>
      </trkpt>
      <trkpt lat="45.87512" lon="4.82892">
        <ele>208.9</ele>
        <time>2014-09-14T08:26:29Z</time>
      </trkpt>
      <trkpt lat="45.87507" lon="4.8288">
        <ele>208.6</ele>
        <time>2014-09-14T08:26:33Z</time>
      </trkpt>
      <trkpt lat="45.87502" lon="4.82867">
        <ele>208.4</ele>
        <time>2014-09-14T08:26:38Z</time>
      </trkpt>
      <trkpt lat="45.87496" lon="4.82855">
        <ele>207.5</ele>
        <time>2014-09-14T08:26:43Z</time>
      </trkpt>
      <trkpt lat="45.87492" lon="4.82843">
        <ele>206.7</ele>
        <time>2014-09-14T08:26:47Z</time>
      </trkpt>
      <trkpt lat="45.87488" lon="4.8283">
        <ele>207.2</ele>
        <time>2014-09-14T08:26:51Z</time>
      </trkpt>
      <trkpt lat="45.87482" lon="4.82816">
        <ele>207.6</ele>
        <time>2014-09-14T08:26:55Z</time>
      </trkpt>
      <trkpt lat="45.87477" lon="4.82804">
        <ele>208.1</ele>
        <time>2014-09-14T08:26:58Z</time>
      </trkpt>
      <trkpt lat="45.87471" lon="4.82792">
        <ele>208.8</ele>
        <time>2014-09-14T08:27:01Z</time>
      </trkpt>
      <trkpt lat="45.87464" lon="4.82778">
        <ele>209.2</ele>
        <time>2014-09-14T08:27:05Z</time>
      </trkpt>
      <trkpt lat="45.87456" lon="4.82766">
        <ele>209.5</ele>
        <time>2014-09-14T08:27:08Z</time>
      </trkpt>
      <trkpt lat="45.87449" lon="4.82751">
        <ele>209.9</ele>
        <time>2014-09-14T08:27:11Z</time>
      </trkpt>
      <trkpt lat="45.87442" lon="4.82738">
        <ele>210.3</ele>
        <time>2014-09-14T08:27:14Z</time>
      </trkpt>
      <trkpt lat="45.87433" lon="4.82725">
        <ele>210.6</ele>
        <time>2014-09-14T08:27:17Z</time>
      </trkpt>
      <trkpt lat="45.87425" lon="4.82711">
        <ele>211.5</ele>
        <time>2014-09-14T08:27:20Z</time>
      </trkpt>
      <trkpt lat="45.87421" lon="4.82698">
        <ele>211.9</ele>
        <time>2014-09-14T08:27:23Z</time>
      </trkpt>
      <trkpt lat="45.87414" lon="4.82682">
        <ele>211</ele>
        <time>2014-09-14T08:27:26Z</time>
      </trkpt>
      <trkpt lat="45.87409" lon="4.82667">
        <ele>210.1</ele>
        <time>2014-09-14T08:27:29Z</time>
      </trkpt>
      <trkpt lat="45.87403" lon="4.82653">
        <ele>210.2</ele>
        <time>2014-09-14T08:27:32Z</time>
      </trkpt>
      <trkpt lat="45.87396" lon="4.82639">
        <ele>210.3</ele>
        <time>2014-09-14T08:27:35Z</time>
      </trkpt>
      <trkpt lat="45.87391" lon="4.82627">
        <ele>210.7</ele>
        <time>2014-09-14T08:27:38Z</time>
      </trkpt>
      <trkpt lat="45.87388" lon="4.82615">
        <ele>210.5</ele>
        <time>2014-09-14T08:27:41Z</time>
      </trkpt>
      <trkpt lat="45.87382" lon="4.82601">
        <ele>210.4</ele>
        <time>2014-09-14T08:27:44Z</time>
      </trkpt>
      <trkpt lat="45.87374" lon="4.82585">
        <ele>210.2</ele>
        <time>2014-09-14T08:27:47Z</time>
      </trkpt>
      <trkpt lat="45.87366" lon="4.82571">
        <ele>210</ele>
        <time>2014-09-14T08:27:50Z</time>
      </trkpt>
      <trkpt lat="45.87359" lon="4.82556">
        <ele>209.8</ele>
        <time>2014-09-14T08:27:53Z</time>
      </trkpt>
      <trkpt lat="45.87353" lon="4.82542">
        <ele>210.2</ele>
        <time>2014-09-14T08:27:56Z</time>
      </trkpt>
      <trkpt lat="45.87347" lon="4.82529">
        <ele>210.1</ele>
        <time>2014-09-14T08:27:59Z</time>
      </trkpt>
      <trkpt lat="45.87341" lon="4.82512">
        <ele>210</ele>
        <time>2014-09-14T08:28:02Z</time>
      </trkpt>
      <trkpt lat="45.87332" lon="4.82497">
        <ele>208.9</ele>
        <time>2014-09-14T08:28:05Z</time>
      </trkpt>
      <trkpt lat="45.87327" lon="4.82486">
        <ele>207.8</ele>
        <time>2014-09-14T08:28:07Z</time>
      </trkpt>
      <trkpt lat="45.8732" lon="4.8247">
        <ele>207.8</ele>
        <time>2014-09-14T08:28:10Z</time>
      </trkpt>
      <trkpt lat="45.87312" lon="4.82455">
        <ele>208.5</ele>
        <time>2014-09-14T08:28:13Z</time>
      </trkpt>
      <trkpt lat="45.87304" lon="4.82441">
        <ele>208.4</ele>
        <time>2014-09-14T08:28:16Z</time>
      </trkpt>
      <trkpt lat="45.87299" lon="4.82429">
        <ele>208.3</ele>
        <time>2014-09-14T08:28:18Z</time>
      </trkpt>
      <trkpt lat="45.87293" lon="4.82417">
        <ele>208.2</ele>
        <time>2014-09-14T08:28:20Z</time>
      </trkpt>
      <trkpt lat="45.87284" lon="4.82404">
        <ele>208.1</ele>
        <time>2014-09-14T08:28:23Z</time>
      </trkpt>
      <trkpt lat="45.87276" lon="4.82391">
        <ele>208</ele>
        <time>2014-09-14T08:28:24Z</time>
      </trkpt>
      <trkpt lat="45.87265" lon="4.82376">
        <ele>207.9</ele>
        <time>2014-09-14T08:28:26Z</time>
      </trkpt>
      <trkpt lat="45.87254" lon="4.8236">
        <ele>208.5</ele>
        <time>2014-09-14T08:28:28Z</time>
      </trkpt>
      <trkpt lat="45.87243" lon="4.82345">
        <ele>209</ele>
        <time>2014-09-14T08:28:30Z</time>
      </trkpt>
      <trkpt lat="45.87231" lon="4.82328">
        <ele>209.5</ele>
        <time>2014-09-14T08:28:32Z</time>
      </trkpt>
      <trkpt lat="45.87225" lon="4.82317">
        <ele>209</ele>
        <time>2014-09-14T08:28:33Z</time>
      </trkpt>
      <trkpt lat="45.87216" lon="4.82297">
        <ele>208.3</ele>
        <time>2014-09-14T08:28:35Z</time>
      </trkpt>
      <trkpt lat="45.87207" lon="4.82277">
        <ele>208.3</ele>
        <time>2014-09-14T08:28:37Z</time>
      </trkpt>
      <trkpt lat="45.87198" lon="4.82256">
        <ele>208.3</ele>
        <time>2014-09-14T08:28:39Z</time>
      </trkpt>
      <trkpt lat="45.8719" lon="4.82237">
        <ele>208.3</ele>
        <time>2014-09-14T08:28:41Z</time>
      </trkpt>
      <trkpt lat="45.87183" lon="4.82221">
        <ele>208.3</ele>
        <time>2014-09-14T08:28:43Z</time>
      </trkpt>
      <trkpt lat="45.87177" lon="4.82206">
        <ele>208.5</ele>
        <time>2014-09-14T08:28:45Z</time>
      </trkpt>
      <trkpt lat="45.87173" lon="4.82188">
        <ele>209.3</ele>
        <time>2014-09-14T08:28:47Z</time>
      </trkpt>
      <trkpt lat="45.87168" lon="4.82173">
        <ele>209.4</ele>
        <time>2014-09-14T08:28:49Z</time>
      </trkpt>
      <trkpt lat="45.87165" lon="4.82157">
        <ele>209.7</ele>
        <time>2014-09-14T08:28:51Z</time>
      </trkpt>
      <trkpt lat="45.87161" lon="4.82141">
        <ele>210.1</ele>
        <time>2014-09-14T08:28:54Z</time>
      </trkpt>
      <trkpt lat="45.87153" lon="4.8213">
        <ele>210.5</ele>
        <time>2014-09-14T08:28:55Z</time>
      </trkpt>
      <trkpt lat="45.87145" lon="4.82121">
        <ele>211</ele>
        <time>2014-09-14T08:28:57Z</time>
      </trkpt>
      <trkpt lat="45.87134" lon="4.8211">
        <ele>211.5</ele>
        <time>2014-09-14T08:29:00Z</time>
      </trkpt>
      <trkpt lat="45.87125" lon="4.82104">
        <ele>212.1</ele>
        <time>2014-09-14T08:29:03Z</time>
      </trkpt>
      <trkpt lat="45.87114" lon="4.82095">
        <ele>212.6</ele>
        <time>2014-09-14T08:29:07Z</time>
      </trkpt>
      <trkpt lat="45.87105" lon="4.82087">
        <ele>213.8</ele>
        <time>2014-09-14T08:29:10Z</time>
      </trkpt>
      <trkpt lat="45.87097" lon="4.82078">
        <ele>214.7</ele>
        <time>2014-09-14T08:29:13Z</time>
      </trkpt>
      <trkpt lat="45.87088" lon="4.82072">
        <ele>215.6</ele>
        <time>2014-09-14T08:29:16Z</time>
      </trkpt>
      <trkpt lat="45.87079" lon="4.82069">
        <ele>216.5</ele>
        <time>2014-09-14T08:29:19Z</time>
      </trkpt>
      <trkpt lat="45.87068" lon="4.82064">
        <ele>216.8</ele>
        <time>2014-09-14T08:29:25Z</time>
      </trkpt>
      <trkpt lat="45.87066" lon="4.8205">
        <ele>217.1</ele>
        <time>2014-09-14T08:29:33Z</time>
      </trkpt>
      <trkpt lat="45.87065" lon="4.82034">
        <ele>217.5</ele>
        <time>2014-09-14T08:29:45Z</time>
      </trkpt>
      <trkpt lat="45.87055" lon="4.82024">
        <ele>218</ele>
        <time>2014-09-14T08:29:55Z</time>
      </trkpt>
      <trkpt lat="45.87054" lon="4.82024">
        <ele>218.7</ele>
        <time>2014-09-14T08:30:23Z</time>
      </trkpt>
      <trkpt lat="45.86989" lon="4.81981">
        <ele>218</ele>
        <time>2014-09-14T09:16:54Z</time>
      </trkpt>
      <trkpt lat="45.86983" lon="4.81991">
        <ele>218.3</ele>
        <time>2014-09-14T09:18:48Z</time>
      </trkpt>
      <trkpt lat="45.86982" lon="4.82006">
        <ele>218.2</ele>
        <time>2014-09-14T09:18:51Z</time>
      </trkpt>
      <trkpt lat="45.86982" lon="4.8202">
        <ele>219.3</ele>
        <time>2014-09-14T09:18:54Z</time>
      </trkpt>
      <trkpt lat="45.8698" lon="4.82034">
        <ele>220.2</ele>
        <time>2014-09-14T09:18:56Z</time>
      </trkpt>
      <trkpt lat="45.86976" lon="4.82051">
        <ele>220.9</ele>
        <time>2014-09-14T09:18:59Z</time>
      </trkpt>
      <trkpt lat="45.86973" lon="4.82063">
        <ele>221.8</ele>
        <time>2014-09-14T09:19:02Z</time>
      </trkpt>
      <trkpt lat="45.86964" lon="4.82055">
        <ele>222.7</ele>
        <time>2014-09-14T09:19:09Z</time>
      </trkpt>
      <trkpt lat="45.86956" lon="4.82039">
        <ele>223.6</ele>
        <time>2014-09-14T09:19:12Z</time>
      </trkpt>
      <trkpt lat="45.86948" lon="4.82027">
        <ele>224.5</ele>
        <time>2014-09-14T09:19:14Z</time>
      </trkpt>
      <trkpt lat="45.8694" lon="4.82013">
        <ele>225.5</ele>
        <time>2014-09-14T09:19:16Z</time>
      </trkpt>
      <trkpt lat="45.86932" lon="4.82002">
        <ele>226.1</ele>
        <time>2014-09-14T09:19:18Z</time>
      </trkpt>
      <trkpt lat="45.86924" lon="4.81992">
        <ele>226.5</ele>
        <time>2014-09-14T09:19:20Z</time>
      </trkpt>
      <trkpt lat="45.86916" lon="4.81983">
        <ele>228.1</ele>
        <time>2014-09-14T09:19:22Z</time>
      </trkpt>
      <trkpt lat="45.86908" lon="4.81972">
        <ele>228.7</ele>
        <time>2014-09-14T09:19:24Z</time>
      </trkpt>
      <trkpt lat="45.86901" lon="4.81961">
        <ele>230.2</ele>
        <time>2014-09-14T09:19:26Z</time>
      </trkpt>
      <trkpt lat="45.86892" lon="4.8195">
        <ele>231.6</ele>
        <time>2014-09-14T09:19:29Z</time>
      </trkpt>
      <trkpt lat="45.86882" lon="4.81947">
        <ele>233.1</ele>
        <time>2014-09-14T09:19:32Z</time>
      </trkpt>
      <trkpt lat="45.8687" lon="4.81955">
        <ele>234.5</ele>
        <time>2014-09-14T09:19:36Z</time>
      </trkpt>
      <trkpt lat="45.8686" lon="4.81958">
        <ele>236</ele>
        <time>2014-09-14T09:19:39Z</time>
      </trkpt>
      <trkpt lat="45.86847" lon="4.81961">
        <ele>238.5</ele>
        <time>2014-09-14T09:19:42Z</time>
      </trkpt>
      <trkpt lat="45.86833" lon="4.81965">
        <ele>240.9</ele>
        <time>2014-09-14T09:19:45Z</time>
      </trkpt>
      <trkpt lat="45.86821" lon="4.81969">
        <ele>243.6</ele>
        <time>2014-09-14T09:19:48Z</time>
      </trkpt>
      <trkpt lat="45.8681" lon="4.81971">
        <ele>246.4</ele>
        <time>2014-09-14T09:19:51Z</time>
      </trkpt>
      <trkpt lat="45.868" lon="4.81973">
        <ele>248.2</ele>
        <time>2014-09-14T09:19:54Z</time>
      </trkpt>
      <trkpt lat="45.86789" lon="4.81978">
        <ele>250</ele>
        <time>2014-09-14T09:19:57Z</time>
      </trkpt>
      <trkpt lat="45.8678" lon="4.81984">
        <ele>251</ele>
        <time>2014-09-14T09:20:00Z</time>
      </trkpt>
      <trkpt lat="45.8677" lon="4.81987">
        <ele>252</ele>
        <time>2014-09-14T09:20:03Z</time>
      </trkpt>
      <trkpt lat="45.8676" lon="4.81992">
        <ele>253.7</ele>
        <time>2014-09-14T09:20:07Z</time>
      </trkpt>
      <trkpt lat="45.8675" lon="4.81996">
        <ele>255.5</ele>
        <time>2014-09-14T09:20:11Z</time>
      </trkpt>
      <trkpt lat="45.86741" lon="4.81997">
        <ele>257.2</ele>
        <time>2014-09-14T09:20:14Z</time>
      </trkpt>
      <trkpt lat="45.86731" lon="4.82001">
        <ele>257.2</ele>
        <time>2014-09-14T09:20:18Z</time>
      </trkpt>
      <trkpt lat="45.8672" lon="4.82003">
        <ele>257.2</ele>
        <time>2014-09-14T09:20:23Z</time>
      </trkpt>
      <trkpt lat="45.8671" lon="4.82005">
        <ele>257.2</ele>
        <time>2014-09-14T09:20:30Z</time>
      </trkpt>
      <trkpt lat="45.86701" lon="4.8201">
        <ele>257.2</ele>
        <time>2014-09-14T09:20:36Z</time>
      </trkpt>
      <trkpt lat="45.8671" lon="4.82019">
        <ele>257.2</ele>
        <time>2014-09-14T09:20:42Z</time>
      </trkpt>
      <trkpt lat="45.86718" lon="4.82025">
        <ele>257.2</ele>
        <time>2014-09-14T09:20:47Z</time>
      </trkpt>
      <trkpt lat="45.86729" lon="4.82029">
        <ele>257.2</ele>
        <time>2014-09-14T09:20:52Z</time>
      </trkpt>
      <trkpt lat="45.8674" lon="4.8203">
        <ele>257.2</ele>
        <time>2014-09-14T09:20:56Z</time>
      </trkpt>
      <trkpt lat="45.8675" lon="4.8203">
        <ele>255.5</ele>
        <time>2014-09-14T09:21:01Z</time>
      </trkpt>
      <trkpt lat="45.86761" lon="4.82032">
        <ele>253.7</ele>
        <time>2014-09-14T09:21:05Z</time>
      </trkpt>
      <trkpt lat="45.86772" lon="4.82033">
        <ele>253</ele>
        <time>2014-09-14T09:21:09Z</time>
      </trkpt>
      <trkpt lat="45.86783" lon="4.82036">
        <ele>253</ele>
        <time>2014-09-14T09:21:13Z</time>
      </trkpt>
      <trkpt lat="45.86792" lon="4.8204">
        <ele>253.9</ele>
        <time>2014-09-14T09:21:16Z</time>
      </trkpt>
      <trkpt lat="45.86802" lon="4.82045">
        <ele>254.8</ele>
        <time>2014-09-14T09:21:20Z</time>
      </trkpt>
      <trkpt lat="45.86809" lon="4.82055">
        <ele>255.7</ele>
        <time>2014-09-14T09:21:23Z</time>
      </trkpt>
      <trkpt lat="45.86809" lon="4.82069">
        <ele>256.6</ele>
        <time>2014-09-14T09:21:27Z</time>
      </trkpt>
      <trkpt lat="45.86799" lon="4.82073">
        <ele>257.5</ele>
        <time>2014-09-14T09:21:33Z</time>
      </trkpt>
      <trkpt lat="45.86787" lon="4.8207">
        <ele>258.5</ele>
        <time>2014-09-14T09:21:38Z</time>
      </trkpt>
      <trkpt lat="45.86777" lon="4.8207">
        <ele>259.4</ele>
        <time>2014-09-14T09:21:41Z</time>
      </trkpt>
      <trkpt lat="45.86766" lon="4.82067">
        <ele>261.3</ele>
        <time>2014-09-14T09:21:46Z</time>
      </trkpt>
      <trkpt lat="45.86755" lon="4.82066">
        <ele>264</ele>
        <time>2014-09-14T09:21:49Z</time>
      </trkpt>
      <trkpt lat="45.86743" lon="4.8207">
        <ele>265.7</ele>
        <time>2014-09-14T09:21:53Z</time>
      </trkpt>
      <trkpt lat="45.86733" lon="4.8207">
        <ele>267.5</ele>
        <time>2014-09-14T09:21:57Z</time>
      </trkpt>
      <trkpt lat="45.86722" lon="4.82073">
        <ele>268.3</ele>
        <time>2014-09-14T09:22:02Z</time>
      </trkpt>
      <trkpt lat="45.86713" lon="4.82076">
        <ele>269.1</ele>
        <time>2014-09-14T09:22:07Z</time>
      </trkpt>
      <trkpt lat="45.86702" lon="4.82078">
        <ele>269.9</ele>
        <time>2014-09-14T09:22:11Z</time>
      </trkpt>
      <trkpt lat="45.86693" lon="4.82078">
        <ele>270.7</ele>
        <time>2014-09-14T09:22:16Z</time>
      </trkpt>
      <trkpt lat="45.86684" lon="4.82077">
        <ele>271.5</ele>
        <time>2014-09-14T09:22:20Z</time>
      </trkpt>
      <trkpt lat="45.86674" lon="4.82077">
        <ele>272.7</ele>
        <time>2014-09-14T09:22:25Z</time>
      </trkpt>
      <trkpt lat="45.86664" lon="4.82077">
        <ele>273.9</ele>
        <time>2014-09-14T09:22:29Z</time>
      </trkpt>
      <trkpt lat="45.86653" lon="4.82077">
        <ele>275.1</ele>
        <time>2014-09-14T09:22:33Z</time>
      </trkpt>
      <trkpt lat="45.86643" lon="4.82077">
        <ele>275.5</ele>
        <time>2014-09-14T09:22:37Z</time>
      </trkpt>
      <trkpt lat="45.86634" lon="4.82077">
        <ele>274.8</ele>
        <time>2014-09-14T09:22:41Z</time>
      </trkpt>
      <trkpt lat="45.86622" lon="4.82076">
        <ele>274.2</ele>
        <time>2014-09-14T09:22:46Z</time>
      </trkpt>
      <trkpt lat="45.86611" lon="4.82074">
        <ele>273.5</ele>
        <time>2014-09-14T09:22:51Z</time>
      </trkpt>
      <trkpt lat="45.86601" lon="4.82068">
        <ele>272.9</ele>
        <time>2014-09-14T09:22:54Z</time>
      </trkpt>
      <trkpt lat="45.86593" lon="4.82058">
        <ele>273.2</ele>
        <time>2014-09-14T09:22:56Z</time>
      </trkpt>
      <trkpt lat="45.86582" lon="4.82044">
        <ele>273.5</ele>
        <time>2014-09-14T09:22:58Z</time>
      </trkpt>
      <trkpt lat="45.86568" lon="4.82031">
        <ele>273.7</ele>
        <time>2014-09-14T09:23:00Z</time>
      </trkpt>
      <trkpt lat="45.86559" lon="4.82024">
        <ele>273.6</ele>
        <time>2014-09-14T09:23:01Z</time>
      </trkpt>
      <trkpt lat="45.86549" lon="4.82016">
        <ele>273.5</ele>
        <time>2014-09-14T09:23:02Z</time>
      </trkpt>
      <trkpt lat="45.86539" lon="4.82008">
        <ele>274.1</ele>
        <time>2014-09-14T09:23:03Z</time>
      </trkpt>
      <trkpt lat="45.86529" lon="4.81999">
        <ele>274.6</ele>
        <time>2014-09-14T09:23:04Z</time>
      </trkpt>
      <trkpt lat="45.86521" lon="4.8199">
        <ele>276.2</ele>
        <time>2014-09-14T09:23:05Z</time>
      </trkpt>
      <trkpt lat="45.86508" lon="4.81976">
        <ele>277.7</ele>
        <time>2014-09-14T09:23:07Z</time>
      </trkpt>
      <trkpt lat="45.86501" lon="4.81963">
        <ele>279.3</ele>
        <time>2014-09-14T09:23:09Z</time>
      </trkpt>
      <trkpt lat="45.86502" lon="4.81949">
        <ele>281</ele>
        <time>2014-09-14T09:23:11Z</time>
      </trkpt>
      <trkpt lat="45.865" lon="4.81931">
        <ele>281.8</ele>
        <time>2014-09-14T09:23:17Z</time>
      </trkpt>
      <trkpt lat="45.86491" lon="4.81921">
        <ele>282.6</ele>
        <time>2014-09-14T09:23:21Z</time>
      </trkpt>
      <trkpt lat="45.86482" lon="4.81917">
        <ele>283.5</ele>
        <time>2014-09-14T09:23:24Z</time>
      </trkpt>
      <trkpt lat="45.86472" lon="4.81914">
        <ele>284.3</ele>
        <time>2014-09-14T09:23:28Z</time>
      </trkpt>
      <trkpt lat="45.8646" lon="4.8191">
        <ele>286.3</ele>
        <time>2014-09-14T09:23:32Z</time>
      </trkpt>
      <trkpt lat="45.86445" lon="4.8191">
        <ele>287.6</ele>
        <time>2014-09-14T09:23:38Z</time>
      </trkpt>
      <trkpt lat="45.86433" lon="4.81902">
        <ele>289</ele>
        <time>2014-09-14T09:23:43Z</time>
      </trkpt>
      <trkpt lat="45.86425" lon="4.81895">
        <ele>290.4</ele>
        <time>2014-09-14T09:23:47Z</time>
      </trkpt>
      <trkpt lat="45.86416" lon="4.81887">
        <ele>291.3</ele>
        <time>2014-09-14T09:23:51Z</time>
      </trkpt>
      <trkpt lat="45.86407" lon="4.81877">
        <ele>292.2</ele>
        <time>2014-09-14T09:23:56Z</time>
      </trkpt>
      <trkpt lat="45.86402" lon="4.81864">
        <ele>292.9</ele>
        <time>2014-09-14T09:24:01Z</time>
      </trkpt>
      <trkpt lat="45.86395" lon="4.81854">
        <ele>293.6</ele>
        <time>2014-09-14T09:24:05Z</time>
      </trkpt>
      <trkpt lat="45.86387" lon="4.81844">
        <ele>294.4</ele>
        <time>2014-09-14T09:24:11Z</time>
      </trkpt>
      <trkpt lat="45.86378" lon="4.81836">
        <ele>296.2</ele>
        <time>2014-09-14T09:24:15Z</time>
      </trkpt>
      <trkpt lat="45.86368" lon="4.81825">
        <ele>298</ele>
        <time>2014-09-14T09:24:20Z</time>
      </trkpt>
      <trkpt lat="45.86359" lon="4.81817">
        <ele>298.6</ele>
        <time>2014-09-14T09:24:24Z</time>
      </trkpt>
      <trkpt lat="45.86345" lon="4.81809">
        <ele>299.3</ele>
        <time>2014-09-14T09:24:29Z</time>
      </trkpt>
      <trkpt lat="45.86335" lon="4.81802">
        <ele>299.5</ele>
        <time>2014-09-14T09:24:34Z</time>
      </trkpt>
      <trkpt lat="45.86327" lon="4.81793">
        <ele>299.6</ele>
        <time>2014-09-14T09:24:40Z</time>
      </trkpt>
      <trkpt lat="45.86319" lon="4.81786">
        <ele>300.3</ele>
        <time>2014-09-14T09:24:45Z</time>
      </trkpt>
      <trkpt lat="45.86314" lon="4.81773">
        <ele>300.9</ele>
        <time>2014-09-14T09:24:49Z</time>
      </trkpt>
      <trkpt lat="45.86302" lon="4.81755">
        <ele>302.9</ele>
        <time>2014-09-14T09:24:57Z</time>
      </trkpt>
      <trkpt lat="45.86285" lon="4.81746">
        <ele>304.9</ele>
        <time>2014-09-14T09:25:06Z</time>
      </trkpt>
      <trkpt lat="45.86275" lon="4.81738">
        <ele>306.9</ele>
        <time>2014-09-14T09:25:11Z</time>
      </trkpt>
      <trkpt lat="45.86266" lon="4.8173">
        <ele>307.8</ele>
        <time>2014-09-14T09:25:15Z</time>
      </trkpt>
      <trkpt lat="45.86259" lon="4.81721">
        <ele>308.5</ele>
        <time>2014-09-14T09:25:19Z</time>
      </trkpt>
      <trkpt lat="45.86248" lon="4.81713">
        <ele>309.1</ele>
        <time>2014-09-14T09:25:25Z</time>
      </trkpt>
      <trkpt lat="45.86234" lon="4.81696">
        <ele>309.7</ele>
        <time>2014-09-14T09:25:36Z</time>
      </trkpt>
      <trkpt lat="45.86226" lon="4.81687">
        <ele>310.8</ele>
        <time>2014-09-14T09:25:41Z</time>
      </trkpt>
      <trkpt lat="45.86218" lon="4.81674">
        <ele>311.9</ele>
        <time>2014-09-14T09:25:48Z</time>
      </trkpt>
      <trkpt lat="45.86208" lon="4.81669">
        <ele>313</ele>
        <time>2014-09-14T09:25:53Z</time>
      </trkpt>
      <trkpt lat="45.86201" lon="4.8166">
        <ele>315.6</ele>
        <time>2014-09-14T09:25:58Z</time>
      </trkpt>
      <trkpt lat="45.86191" lon="4.81656">
        <ele>316.9</ele>
        <time>2014-09-14T09:26:04Z</time>
      </trkpt>
      <trkpt lat="45.86181" lon="4.81653">
        <ele>318.2</ele>
        <time>2014-09-14T09:26:09Z</time>
      </trkpt>
      <trkpt lat="45.86174" lon="4.81642">
        <ele>319.5</ele>
        <time>2014-09-14T09:26:14Z</time>
      </trkpt>
      <trkpt lat="45.86166" lon="4.81635">
        <ele>320.3</ele>
        <time>2014-09-14T09:26:19Z</time>
      </trkpt>
      <trkpt lat="45.86153" lon="4.81627">
        <ele>321.4</ele>
        <time>2014-09-14T09:26:26Z</time>
      </trkpt>
      <trkpt lat="45.86146" lon="4.81618">
        <ele>322.5</ele>
        <time>2014-09-14T09:26:31Z</time>
      </trkpt>
      <trkpt lat="45.86139" lon="4.81609">
        <ele>323.5</ele>
        <time>2014-09-14T09:26:37Z</time>
      </trkpt>
      <trkpt lat="45.8613" lon="4.81604">
        <ele>324.6</ele>
        <time>2014-09-14T09:26:43Z</time>
      </trkpt>
      <trkpt lat="45.86124" lon="4.81594">
        <ele>325.7</ele>
        <time>2014-09-14T09:26:49Z</time>
      </trkpt>
      <trkpt lat="45.86115" lon="4.81586">
        <ele>326.8</ele>
        <time>2014-09-14T09:26:55Z</time>
      </trkpt>
      <trkpt lat="45.86106" lon="4.81581">
        <ele>326.4</ele>
        <time>2014-09-14T09:26:59Z</time>
      </trkpt>
      <trkpt lat="45.86096" lon="4.81579">
        <ele>327.5</ele>
        <time>2014-09-14T09:27:05Z</time>
      </trkpt>
      <trkpt lat="45.86087" lon="4.81575">
        <ele>328.6</ele>
        <time>2014-09-14T09:27:10Z</time>
      </trkpt>
      <trkpt lat="45.86078" lon="4.8157">
        <ele>329.8</ele>
        <time>2014-09-14T09:27:14Z</time>
      </trkpt>
      <trkpt lat="45.86072" lon="4.8156">
        <ele>331.5</ele>
        <time>2014-09-14T09:27:18Z</time>
      </trkpt>
      <trkpt lat="45.86061" lon="4.81553">
        <ele>333.1</ele>
        <time>2014-09-14T09:27:24Z</time>
      </trkpt>
      <trkpt lat="45.86054" lon="4.81545">
        <ele>334.7</ele>
        <time>2014-09-14T09:27:28Z</time>
      </trkpt>
      <trkpt lat="45.86044" lon="4.8154">
        <ele>336.4</ele>
        <time>2014-09-14T09:27:33Z</time>
      </trkpt>
      <trkpt lat="45.86029" lon="4.81536">
        <ele>338</ele>
        <time>2014-09-14T09:27:40Z</time>
      </trkpt>
      <trkpt lat="45.86018" lon="4.81535">
        <ele>339.6</ele>
        <time>2014-09-14T09:27:46Z</time>
      </trkpt>
      <trkpt lat="45.86005" lon="4.81539">
        <ele>341.3</ele>
        <time>2014-09-14T09:27:51Z</time>
      </trkpt>
      <trkpt lat="45.85995" lon="4.81528">
        <ele>344.2</ele>
        <time>2014-09-14T09:27:58Z</time>
      </trkpt>
      <trkpt lat="45.8599" lon="4.81517">
        <ele>345.5</ele>
        <time>2014-09-14T09:28:05Z</time>
      </trkpt>
      <trkpt lat="45.85983" lon="4.81505">
        <ele>347.7</ele>
        <time>2014-09-14T09:28:13Z</time>
      </trkpt>
      <trkpt lat="45.85973" lon="4.81502">
        <ele>349.9</ele>
        <time>2014-09-14T09:28:21Z</time>
      </trkpt>
      <trkpt lat="45.85965" lon="4.81494">
        <ele>352.1</ele>
        <time>2014-09-14T09:28:27Z</time>
      </trkpt>
      <trkpt lat="45.85961" lon="4.8148">
        <ele>354.3</ele>
        <time>2014-09-14T09:28:34Z</time>
      </trkpt>
      <trkpt lat="45.85953" lon="4.81472">
        <ele>356.5</ele>
        <time>2014-09-14T09:28:40Z</time>
      </trkpt>
      <trkpt lat="45.85949" lon="4.8146">
        <ele>358.6</ele>
        <time>2014-09-14T09:28:52Z</time>
      </trkpt>
      <trkpt lat="45.85948" lon="4.81446">
        <ele>360.8</ele>
        <time>2014-09-14T09:28:57Z</time>
      </trkpt>
      <trkpt lat="45.85943" lon="4.81435">
        <ele>363</ele>
        <time>2014-09-14T09:29:07Z</time>
      </trkpt>
      <trkpt lat="45.85936" lon="4.81426">
        <ele>364.7</ele>
        <time>2014-09-14T09:29:19Z</time>
      </trkpt>
      <trkpt lat="45.85929" lon="4.81418">
        <ele>365.2</ele>
        <time>2014-09-14T09:29:28Z</time>
      </trkpt>
      <trkpt lat="45.85921" lon="4.81409">
        <ele>366.1</ele>
        <time>2014-09-14T09:29:37Z</time>
      </trkpt>
      <trkpt lat="45.85915" lon="4.81399">
        <ele>366.1</ele>
        <time>2014-09-14T09:29:47Z</time>
      </trkpt>
      <trkpt lat="45.85909" lon="4.81389">
        <ele>366.1</ele>
        <time>2014-09-14T09:29:55Z</time>
      </trkpt>
      <trkpt lat="45.85909" lon="4.81376">
        <ele>366.1</ele>
        <time>2014-09-14T09:30:11Z</time>
      </trkpt>
      <trkpt lat="45.85923" lon="4.81381">
        <ele>365</ele>
        <time>2014-09-14T09:30:21Z</time>
      </trkpt>
      <trkpt lat="45.85931" lon="4.81385">
        <ele>363.9</ele>
        <time>2014-09-14T09:30:23Z</time>
      </trkpt>
      <trkpt lat="45.8594" lon="4.81391">
        <ele>362.8</ele>
        <time>2014-09-14T09:30:25Z</time>
      </trkpt>
      <trkpt lat="45.8595" lon="4.81398">
        <ele>361.7</ele>
        <time>2014-09-14T09:30:27Z</time>
      </trkpt>
      <trkpt lat="45.85962" lon="4.81405">
        <ele>360.6</ele>
        <time>2014-09-14T09:30:29Z</time>
      </trkpt>
      <trkpt lat="45.85973" lon="4.81411">
        <ele>360</ele>
        <time>2014-09-14T09:30:31Z</time>
      </trkpt>
      <trkpt lat="45.85988" lon="4.81418">
        <ele>358.1</ele>
        <time>2014-09-14T09:30:33Z</time>
      </trkpt>
      <trkpt lat="45.86" lon="4.81427">
        <ele>355.7</ele>
        <time>2014-09-14T09:30:35Z</time>
      </trkpt>
      <trkpt lat="45.86013" lon="4.81438">
        <ele>353.4</ele>
        <time>2014-09-14T09:30:37Z</time>
      </trkpt>
      <trkpt lat="45.86024" lon="4.81443">
        <ele>351</ele>
        <time>2014-09-14T09:30:39Z</time>
      </trkpt>
      <trkpt lat="45.86037" lon="4.81446">
        <ele>348.6</ele>
        <time>2014-09-14T09:30:41Z</time>
      </trkpt>
      <trkpt lat="45.86054" lon="4.81451">
        <ele>347.5</ele>
        <time>2014-09-14T09:30:43Z</time>
      </trkpt>
      <trkpt lat="45.86063" lon="4.81455">
        <ele>346.9</ele>
        <time>2014-09-14T09:30:44Z</time>
      </trkpt>
      <trkpt lat="45.86072" lon="4.81457">
        <ele>346.4</ele>
        <time>2014-09-14T09:30:45Z</time>
      </trkpt>
      <trkpt lat="45.86088" lon="4.81462">
        <ele>345.8</ele>
        <time>2014-09-14T09:30:47Z</time>
      </trkpt>
      <trkpt lat="45.86103" lon="4.81466">
        <ele>345.3</ele>
        <time>2014-09-14T09:30:49Z</time>
      </trkpt>
      <trkpt lat="45.86119" lon="4.8147">
        <ele>344.7</ele>
        <time>2014-09-14T09:30:51Z</time>
      </trkpt>
      <trkpt lat="45.86132" lon="4.81474">
        <ele>345.5</ele>
        <time>2014-09-14T09:30:53Z</time>
      </trkpt>
      <trkpt lat="45.86146" lon="4.8148">
        <ele>346.2</ele>
        <time>2014-09-14T09:30:55Z</time>
      </trkpt>
      <trkpt lat="45.86161" lon="4.81486">
        <ele>347.1</ele>
        <time>2014-09-14T09:30:57Z</time>
      </trkpt>
      <trkpt lat="45.86174" lon="4.8149">
        <ele>348</ele>
        <time>2014-09-14T09:30:59Z</time>
      </trkpt>
      <trkpt lat="45.86185" lon="4.81495">
        <ele>348.9</ele>
        <time>2014-09-14T09:31:01Z</time>
      </trkpt>
      <trkpt lat="45.86196" lon="4.81501">
        <ele>349.7</ele>
        <time>2014-09-14T09:31:03Z</time>
      </trkpt>
      <trkpt lat="45.86207" lon="4.81507">
        <ele>349.9</ele>
        <time>2014-09-14T09:31:05Z</time>
      </trkpt>
      <trkpt lat="45.8622" lon="4.81514">
        <ele>350.1</ele>
        <time>2014-09-14T09:31:07Z</time>
      </trkpt>
      <trkpt lat="45.86232" lon="4.81519">
        <ele>349.7</ele>
        <time>2014-09-14T09:31:09Z</time>
      </trkpt>
      <trkpt lat="45.86247" lon="4.81525">
        <ele>349.4</ele>
        <time>2014-09-14T09:31:11Z</time>
      </trkpt>
      <trkpt lat="45.86262" lon="4.81534">
        <ele>349</ele>
        <time>2014-09-14T09:31:13Z</time>
      </trkpt>
      <trkpt lat="45.8627" lon="4.81539">
        <ele>348.6</ele>
        <time>2014-09-14T09:31:14Z</time>
      </trkpt>
      <trkpt lat="45.86279" lon="4.81544">
        <ele>348.3</ele>
        <time>2014-09-14T09:31:15Z</time>
      </trkpt>
      <trkpt lat="45.86295" lon="4.81549">
        <ele>347.7</ele>
        <time>2014-09-14T09:31:17Z</time>
      </trkpt>
      <trkpt lat="45.86308" lon="4.81557">
        <ele>347.2</ele>
        <time>2014-09-14T09:31:19Z</time>
      </trkpt>
      <trkpt lat="45.86321" lon="4.81568">
        <ele>346.6</ele>
        <time>2014-09-14T09:31:21Z</time>
      </trkpt>
      <trkpt lat="45.86335" lon="4.81572">
        <ele>344.9</ele>
        <time>2014-09-14T09:31:23Z</time>
      </trkpt>
      <trkpt lat="45.86347" lon="4.81583">
        <ele>343.2</ele>
        <time>2014-09-14T09:31:25Z</time>
      </trkpt>
      <trkpt lat="45.86358" lon="4.816">
        <ele>341.5</ele>
        <time>2014-09-14T09:31:27Z</time>
      </trkpt>
      <trkpt lat="45.86365" lon="4.81616">
        <ele>340.3</ele>
        <time>2014-09-14T09:31:29Z</time>
      </trkpt>
      <trkpt lat="45.86374" lon="4.81628">
        <ele>339.1</ele>
        <time>2014-09-14T09:31:31Z</time>
      </trkpt>
      <trkpt lat="45.86386" lon="4.8163">
        <ele>337.9</ele>
        <time>2014-09-14T09:31:33Z</time>
      </trkpt>
      <trkpt lat="45.86399" lon="4.81626">
        <ele>336.7</ele>
        <time>2014-09-14T09:31:35Z</time>
      </trkpt>
      <trkpt lat="45.86412" lon="4.81618">
        <ele>335.5</ele>
        <time>2014-09-14T09:31:37Z</time>
      </trkpt>
      <trkpt lat="45.86423" lon="4.81605">
        <ele>334.4</ele>
        <time>2014-09-14T09:31:39Z</time>
      </trkpt>
      <trkpt lat="45.86426" lon="4.81584">
        <ele>332.6</ele>
        <time>2014-09-14T09:31:41Z</time>
      </trkpt>
      <trkpt lat="45.86433" lon="4.81569">
        <ele>330.9</ele>
        <time>2014-09-14T09:31:48Z</time>
      </trkpt>
      <trkpt lat="45.86438" lon="4.81581">
        <ele>330.4</ele>
        <time>2014-09-14T09:31:51Z</time>
      </trkpt>
      <trkpt lat="45.86442" lon="4.816">
        <ele>329.8</ele>
        <time>2014-09-14T09:31:53Z</time>
      </trkpt>
      <trkpt lat="45.86443" lon="4.8162">
        <ele>328</ele>
        <time>2014-09-14T09:31:55Z</time>
      </trkpt>
      <trkpt lat="45.8644" lon="4.81641">
        <ele>326.2</ele>
        <time>2014-09-14T09:31:57Z</time>
      </trkpt>
      <trkpt lat="45.86438" lon="4.81667">
        <ele>324.4</ele>
        <time>2014-09-14T09:31:59Z</time>
      </trkpt>
      <trkpt lat="45.86436" lon="4.81683">
        <ele>322.5</ele>
        <time>2014-09-14T09:32:00Z</time>
      </trkpt>
      <trkpt lat="45.86434" lon="4.817">
        <ele>320.7</ele>
        <time>2014-09-14T09:32:01Z</time>
      </trkpt>
      <trkpt lat="45.86432" lon="4.81715">
        <ele>317.7</ele>
        <time>2014-09-14T09:32:02Z</time>
      </trkpt>
      <trkpt lat="45.8643" lon="4.81729">
        <ele>314.7</ele>
        <time>2014-09-14T09:32:03Z</time>
      </trkpt>
      <trkpt lat="45.86428" lon="4.81742">
        <ele>312.2</ele>
        <time>2014-09-14T09:32:04Z</time>
      </trkpt>
      <trkpt lat="45.86428" lon="4.81764">
        <ele>309.6</ele>
        <time>2014-09-14T09:32:06Z</time>
      </trkpt>
      <trkpt lat="45.86433" lon="4.81783">
        <ele>307.1</ele>
        <time>2014-09-14T09:32:08Z</time>
      </trkpt>
      <trkpt lat="45.86443" lon="4.81796">
        <ele>304.5</ele>
        <time>2014-09-14T09:32:10Z</time>
      </trkpt>
      <trkpt lat="45.86456" lon="4.81807">
        <ele>303.3</ele>
        <time>2014-09-14T09:32:12Z</time>
      </trkpt>
      <trkpt lat="45.86469" lon="4.81825">
        <ele>302</ele>
        <time>2014-09-14T09:32:14Z</time>
      </trkpt>
      <trkpt lat="45.86476" lon="4.81836">
        <ele>300.7</ele>
        <time>2014-09-14T09:32:15Z</time>
      </trkpt>
      <trkpt lat="45.86485" lon="4.81841">
        <ele>298.7</ele>
        <time>2014-09-14T09:32:17Z</time>
      </trkpt>
      <trkpt lat="45.86503" lon="4.81847">
        <ele>296.7</ele>
        <time>2014-09-14T09:32:18Z</time>
      </trkpt>
      <trkpt lat="45.86513" lon="4.81851">
        <ele>295.9</ele>
        <time>2014-09-14T09:32:19Z</time>
      </trkpt>
      <trkpt lat="45.86523" lon="4.81854">
        <ele>295.1</ele>
        <time>2014-09-14T09:32:20Z</time>
      </trkpt>
      <trkpt lat="45.8654" lon="4.81856">
        <ele>294.4</ele>
        <time>2014-09-14T09:32:22Z</time>
      </trkpt>
      <trkpt lat="45.86557" lon="4.81855">
        <ele>293.5</ele>
        <time>2014-09-14T09:32:24Z</time>
      </trkpt>
      <trkpt lat="45.8657" lon="4.81848">
        <ele>292.5</ele>
        <time>2014-09-14T09:32:26Z</time>
      </trkpt>
      <trkpt lat="45.86583" lon="4.8184">
        <ele>291.6</ele>
        <time>2014-09-14T09:32:28Z</time>
      </trkpt>
      <trkpt lat="45.86591" lon="4.81828">
        <ele>290.7</ele>
        <time>2014-09-14T09:32:30Z</time>
      </trkpt>
      <trkpt lat="45.86596" lon="4.81809">
        <ele>289.7</ele>
        <time>2014-09-14T09:32:32Z</time>
      </trkpt>
      <trkpt lat="45.86594" lon="4.81789">
        <ele>288.7</ele>
        <time>2014-09-14T09:32:34Z</time>
      </trkpt>
      <trkpt lat="45.8659" lon="4.81769">
        <ele>288.5</ele>
        <time>2014-09-14T09:32:36Z</time>
      </trkpt>
      <trkpt lat="45.86589" lon="4.81747">
        <ele>288.2</ele>
        <time>2014-09-14T09:32:39Z</time>
      </trkpt>
      <trkpt lat="45.86587" lon="4.81725">
        <ele>288</ele>
        <time>2014-09-14T09:32:40Z</time>
      </trkpt>
      <trkpt lat="45.86586" lon="4.81707">
        <ele>287.8</ele>
        <time>2014-09-14T09:32:42Z</time>
      </trkpt>
      <trkpt lat="45.86591" lon="4.8169">
        <ele>285.3</ele>
        <time>2014-09-14T09:32:45Z</time>
      </trkpt>
      <trkpt lat="45.86603" lon="4.81692">
        <ele>282.9</ele>
        <time>2014-09-14T09:32:50Z</time>
      </trkpt>
      <trkpt lat="45.86609" lon="4.81707">
        <ele>281.4</ele>
        <time>2014-09-14T09:32:52Z</time>
      </trkpt>
      <trkpt lat="45.86615" lon="4.81727">
        <ele>279.8</ele>
        <time>2014-09-14T09:32:54Z</time>
      </trkpt>
      <trkpt lat="45.86622" lon="4.81745">
        <ele>278.3</ele>
        <time>2014-09-14T09:32:56Z</time>
      </trkpt>
      <trkpt lat="45.8663" lon="4.81763">
        <ele>276.8</ele>
        <time>2014-09-14T09:32:58Z</time>
      </trkpt>
      <trkpt lat="45.86639" lon="4.81779">
        <ele>275.4</ele>
        <time>2014-09-14T09:33:00Z</time>
      </trkpt>
      <trkpt lat="45.86647" lon="4.81798">
        <ele>273.9</ele>
        <time>2014-09-14T09:33:02Z</time>
      </trkpt>
      <trkpt lat="45.86654" lon="4.81818">
        <ele>272.3</ele>
        <time>2014-09-14T09:33:04Z</time>
      </trkpt>
      <trkpt lat="45.86661" lon="4.81834">
        <ele>268.4</ele>
        <time>2014-09-14T09:33:06Z</time>
      </trkpt>
      <trkpt lat="45.86671" lon="4.81847">
        <ele>266.8</ele>
        <time>2014-09-14T09:33:08Z</time>
      </trkpt>
      <trkpt lat="45.86681" lon="4.81863">
        <ele>267.6</ele>
        <time>2014-09-14T09:33:10Z</time>
      </trkpt>
      <trkpt lat="45.86692" lon="4.81876">
        <ele>268.5</ele>
        <time>2014-09-14T09:33:12Z</time>
      </trkpt>
      <trkpt lat="45.86702" lon="4.81877">
        <ele>268.5</ele>
        <time>2014-09-14T09:33:14Z</time>
      </trkpt>
      <trkpt lat="45.86713" lon="4.81867">
        <ele>267.6</ele>
        <time>2014-09-14T09:33:16Z</time>
      </trkpt>
      <trkpt lat="45.86709" lon="4.81846">
        <ele>266.8</ele>
        <time>2014-09-14T09:33:24Z</time>
      </trkpt>
      <trkpt lat="45.86706" lon="4.81833">
        <ele>266</ele>
        <time>2014-09-14T09:33:27Z</time>
      </trkpt>
      <trkpt lat="45.86704" lon="4.8182">
        <ele>265.2</ele>
        <time>2014-09-14T09:33:29Z</time>
      </trkpt>
      <trkpt lat="45.86699" lon="4.818">
        <ele>264.4</ele>
        <time>2014-09-14T09:33:32Z</time>
      </trkpt>
      <trkpt lat="45.86693" lon="4.81784">
        <ele>263.1</ele>
        <time>2014-09-14T09:33:34Z</time>
      </trkpt>
      <trkpt lat="45.86686" lon="4.81769">
        <ele>264</ele>
        <time>2014-09-14T09:33:36Z</time>
      </trkpt>
      <trkpt lat="45.8668" lon="4.81754">
        <ele>262.5</ele>
        <time>2014-09-14T09:33:38Z</time>
      </trkpt>
      <trkpt lat="45.86674" lon="4.81736">
        <ele>261.1</ele>
        <time>2014-09-14T09:33:40Z</time>
      </trkpt>
      <trkpt lat="45.86668" lon="4.81722">
        <ele>259.6</ele>
        <time>2014-09-14T09:33:42Z</time>
      </trkpt>
      <trkpt lat="45.86662" lon="4.81708">
        <ele>257.4</ele>
        <time>2014-09-14T09:33:44Z</time>
      </trkpt>
      <trkpt lat="45.86655" lon="4.81692">
        <ele>255.9</ele>
        <time>2014-09-14T09:33:46Z</time>
      </trkpt>
      <trkpt lat="45.86649" lon="4.81675">
        <ele>254.5</ele>
        <time>2014-09-14T09:33:48Z</time>
      </trkpt>
      <trkpt lat="45.86644" lon="4.8166">
        <ele>253.8</ele>
        <time>2014-09-14T09:33:50Z</time>
      </trkpt>
      <trkpt lat="45.86638" lon="4.81641">
        <ele>253.2</ele>
        <time>2014-09-14T09:33:52Z</time>
      </trkpt>
      <trkpt lat="45.86633" lon="4.81626">
        <ele>252.5</ele>
        <time>2014-09-14T09:33:54Z</time>
      </trkpt>
      <trkpt lat="45.86631" lon="4.81611">
        <ele>252.5</ele>
        <time>2014-09-14T09:33:56Z</time>
      </trkpt>
      <trkpt lat="45.8664" lon="4.81615">
        <ele>252.5</ele>
        <time>2014-09-14T09:34:03Z</time>
      </trkpt>
      <trkpt lat="45.86645" lon="4.81632">
        <ele>252.5</ele>
        <time>2014-09-14T09:34:05Z</time>
      </trkpt>
      <trkpt lat="45.86652" lon="4.81644">
        <ele>250.6</ele>
        <time>2014-09-14T09:34:07Z</time>
      </trkpt>
      <trkpt lat="45.86664" lon="4.81653">
        <ele>248.7</ele>
        <time>2014-09-14T09:34:09Z</time>
      </trkpt>
      <trkpt lat="45.86677" lon="4.81662">
        <ele>248</ele>
        <time>2014-09-14T09:34:11Z</time>
      </trkpt>
      <trkpt lat="45.86691" lon="4.81673">
        <ele>247.3</ele>
        <time>2014-09-14T09:34:14Z</time>
      </trkpt>
      <trkpt lat="45.86706" lon="4.81689">
        <ele>246.5</ele>
        <time>2014-09-14T09:34:15Z</time>
      </trkpt>
      <trkpt lat="45.86713" lon="4.81698">
        <ele>245</ele>
        <time>2014-09-14T09:34:16Z</time>
      </trkpt>
      <trkpt lat="45.86722" lon="4.81708">
        <ele>243.5</ele>
        <time>2014-09-14T09:34:17Z</time>
      </trkpt>
      <trkpt lat="45.8673" lon="4.81718">
        <ele>242.5</ele>
        <time>2014-09-14T09:34:19Z</time>
      </trkpt>
      <trkpt lat="45.86744" lon="4.81742">
        <ele>241.6</ele>
        <time>2014-09-14T09:34:20Z</time>
      </trkpt>
      <trkpt lat="45.86748" lon="4.81755">
        <ele>240.7</ele>
        <time>2014-09-14T09:34:21Z</time>
      </trkpt>
      <trkpt lat="45.86753" lon="4.81771">
        <ele>239.8</ele>
        <time>2014-09-14T09:34:22Z</time>
      </trkpt>
      <trkpt lat="45.86759" lon="4.81795">
        <ele>239.9</ele>
        <time>2014-09-14T09:34:24Z</time>
      </trkpt>
      <trkpt lat="45.86764" lon="4.81816">
        <ele>240</ele>
        <time>2014-09-14T09:34:26Z</time>
      </trkpt>
      <trkpt lat="45.86772" lon="4.81836">
        <ele>239.7</ele>
        <time>2014-09-14T09:34:29Z</time>
      </trkpt>
      <trkpt lat="45.86778" lon="4.81857">
        <ele>239.5</ele>
        <time>2014-09-14T09:34:30Z</time>
      </trkpt>
      <trkpt lat="45.86788" lon="4.81876">
        <ele>239.2</ele>
        <time>2014-09-14T09:34:32Z</time>
      </trkpt>
      <trkpt lat="45.868" lon="4.81894">
        <ele>238.9</ele>
        <time>2014-09-14T09:34:34Z</time>
      </trkpt>
      <trkpt lat="45.86811" lon="4.81908">
        <ele>238.6</ele>
        <time>2014-09-14T09:34:37Z</time>
      </trkpt>
      <trkpt lat="45.86823" lon="4.81921">
        <ele>237.7</ele>
        <time>2014-09-14T09:34:38Z</time>
      </trkpt>
      <trkpt lat="45.86832" lon="4.81927">
        <ele>236.8</ele>
        <time>2014-09-14T09:34:40Z</time>
      </trkpt>
      <trkpt lat="45.86841" lon="4.81935">
        <ele>236</ele>
        <time>2014-09-14T09:34:42Z</time>
      </trkpt>
      <trkpt lat="45.86854" lon="4.81928">
        <ele>235</ele>
        <time>2014-09-14T09:34:45Z</time>
      </trkpt>
      <trkpt lat="45.86856" lon="4.81909">
        <ele>235</ele>
        <time>2014-09-14T09:34:47Z</time>
      </trkpt>
      <trkpt lat="45.86847" lon="4.81885">
        <ele>235</ele>
        <time>2014-09-14T09:34:57Z</time>
      </trkpt>
      <trkpt lat="45.86847" lon="4.81883">
        <ele>235</ele>
        <time>2014-09-14T09:35:28Z</time>
      </trkpt>
      <trkpt lat="45.86881" lon="4.81908">
        <ele>226.7</ele>
        <time>2014-09-14T09:37:29Z</time>
      </trkpt>
      <trkpt lat="45.86883" lon="4.81914">
        <ele>227.9</ele>
        <time>2014-09-14T09:37:44Z</time>
      </trkpt>
      <trkpt lat="45.86889" lon="4.81925">
        <ele>228.8</ele>
        <time>2014-09-14T09:37:48Z</time>
      </trkpt>
      <trkpt lat="45.86892" lon="4.81938">
        <ele>229.4</ele>
        <time>2014-09-14T09:38:01Z</time>
      </trkpt>
      <trkpt lat="45.86885" lon="4.81949">
        <ele>230</ele>
        <time>2014-09-14T09:38:10Z</time>
      </trkpt>
      <trkpt lat="45.86878" lon="4.81958">
        <ele>230.5</ele>
        <time>2014-09-14T09:38:15Z</time>
      </trkpt>
      <trkpt lat="45.86866" lon="4.81959">
        <ele>231.4</ele>
        <time>2014-09-14T09:38:19Z</time>
      </trkpt>
      <trkpt lat="45.86857" lon="4.81957">
        <ele>232.3</ele>
        <time>2014-09-14T09:38:22Z</time>
      </trkpt>
      <trkpt lat="45.86847" lon="4.81955">
        <ele>233.2</ele>
        <time>2014-09-14T09:38:26Z</time>
      </trkpt>
      <trkpt lat="45.86838" lon="4.81953">
        <ele>235.9</ele>
        <time>2014-09-14T09:38:29Z</time>
      </trkpt>
      <trkpt lat="45.86827" lon="4.81953">
        <ele>238.6</ele>
        <time>2014-09-14T09:38:33Z</time>
      </trkpt>
      <trkpt lat="45.86816" lon="4.81954">
        <ele>240.5</ele>
        <time>2014-09-14T09:38:37Z</time>
      </trkpt>
      <trkpt lat="45.86807" lon="4.81955">
        <ele>242.3</ele>
        <time>2014-09-14T09:38:41Z</time>
      </trkpt>
      <trkpt lat="45.86798" lon="4.81957">
        <ele>244.1</ele>
        <time>2014-09-14T09:38:46Z</time>
      </trkpt>
      <trkpt lat="45.86787" lon="4.81962">
        <ele>245.9</ele>
        <time>2014-09-14T09:38:52Z</time>
      </trkpt>
      <trkpt lat="45.86776" lon="4.81967">
        <ele>247.7</ele>
        <time>2014-09-14T09:38:57Z</time>
      </trkpt>
      <trkpt lat="45.86766" lon="4.81971">
        <ele>249.5</ele>
        <time>2014-09-14T09:39:02Z</time>
      </trkpt>
      <trkpt lat="45.86756" lon="4.81976">
        <ele>252.1</ele>
        <time>2014-09-14T09:39:08Z</time>
      </trkpt>
      <trkpt lat="45.86746" lon="4.81979">
        <ele>254.6</ele>
        <time>2014-09-14T09:39:15Z</time>
      </trkpt>
      <trkpt lat="45.86737" lon="4.81979">
        <ele>257.2</ele>
        <time>2014-09-14T09:39:21Z</time>
      </trkpt>
      <trkpt lat="45.86727" lon="4.81985">
        <ele>257.2</ele>
        <time>2014-09-14T09:39:27Z</time>
      </trkpt>
      <trkpt lat="45.86718" lon="4.81988">
        <ele>257.2</ele>
        <time>2014-09-14T09:39:35Z</time>
      </trkpt>
      <trkpt lat="45.86709" lon="4.81984">
        <ele>257.2</ele>
        <time>2014-09-14T09:39:42Z</time>
      </trkpt>
      <trkpt lat="45.86699" lon="4.81984">
        <ele>257.2</ele>
        <time>2014-09-14T09:39:50Z</time>
      </trkpt>
      <trkpt lat="45.86709" lon="4.82001">
        <ele>257.2</ele>
        <time>2014-09-14T09:40:04Z</time>
      </trkpt>
      <trkpt lat="45.86718" lon="4.82009">
        <ele>257.2</ele>
        <time>2014-09-14T09:40:07Z</time>
      </trkpt>
      <trkpt lat="45.86727" lon="4.82015">
        <ele>257.2</ele>
        <time>2014-09-14T09:40:11Z</time>
      </trkpt>
      <trkpt lat="45.86736" lon="4.8202">
        <ele>257.2</ele>
        <time>2014-09-14T09:40:17Z</time>
      </trkpt>
      <trkpt lat="45.86746" lon="4.82022">
        <ele>255.5</ele>
        <time>2014-09-14T09:40:24Z</time>
      </trkpt>
      <trkpt lat="45.86756" lon="4.82025">
        <ele>254.7</ele>
        <time>2014-09-14T09:40:29Z</time>
      </trkpt>
      <trkpt lat="45.86769" lon="4.82033">
        <ele>254.9</ele>
        <time>2014-09-14T09:40:39Z</time>
      </trkpt>
      <trkpt lat="45.86779" lon="4.82041">
        <ele>255.8</ele>
        <time>2014-09-14T09:40:46Z</time>
      </trkpt>
      <trkpt lat="45.86788" lon="4.82043">
        <ele>256.7</ele>
        <time>2014-09-14T09:40:53Z</time>
      </trkpt>
      <trkpt lat="45.86797" lon="4.82053">
        <ele>257.6</ele>
        <time>2014-09-14T09:41:01Z</time>
      </trkpt>
      <trkpt lat="45.868" lon="4.82066">
        <ele>258.5</ele>
        <time>2014-09-14T09:41:10Z</time>
      </trkpt>
      <trkpt lat="45.86792" lon="4.82058">
        <ele>259.5</ele>
        <time>2014-09-14T09:41:19Z</time>
      </trkpt>
      <trkpt lat="45.86783" lon="4.8206">
        <ele>260.4</ele>
        <time>2014-09-14T09:41:25Z</time>
      </trkpt>
      <trkpt lat="45.86773" lon="4.82062">
        <ele>261.3</ele>
        <time>2014-09-14T09:41:30Z</time>
      </trkpt>
      <trkpt lat="45.86763" lon="4.82061">
        <ele>262.2</ele>
        <time>2014-09-14T09:41:35Z</time>
      </trkpt>
      <trkpt lat="45.86752" lon="4.82062">
        <ele>264.9</ele>
        <time>2014-09-14T09:41:41Z</time>
      </trkpt>
      <trkpt lat="45.86743" lon="4.82064">
        <ele>266.6</ele>
        <time>2014-09-14T09:41:47Z</time>
      </trkpt>
      <trkpt lat="45.86732" lon="4.82066">
        <ele>267.5</ele>
        <time>2014-09-14T09:41:54Z</time>
      </trkpt>
      <trkpt lat="45.86724" lon="4.82069">
        <ele>268.3</ele>
        <time>2014-09-14T09:42:00Z</time>
      </trkpt>
      <trkpt lat="45.86715" lon="4.82074">
        <ele>269.1</ele>
        <time>2014-09-14T09:42:06Z</time>
      </trkpt>
      <trkpt lat="45.86705" lon="4.82075">
        <ele>269.9</ele>
        <time>2014-09-14T09:42:14Z</time>
      </trkpt>
      <trkpt lat="45.86695" lon="4.82072">
        <ele>270.7</ele>
        <time>2014-09-14T09:42:21Z</time>
      </trkpt>
      <trkpt lat="45.86685" lon="4.8207">
        <ele>271.5</ele>
        <time>2014-09-14T09:42:27Z</time>
      </trkpt>
      <trkpt lat="45.86675" lon="4.82071">
        <ele>272.7</ele>
        <time>2014-09-14T09:42:31Z</time>
      </trkpt>
      <trkpt lat="45.86664" lon="4.82069">
        <ele>273.9</ele>
        <time>2014-09-14T09:42:36Z</time>
      </trkpt>
      <trkpt lat="45.86654" lon="4.82067">
        <ele>275.1</ele>
        <time>2014-09-14T09:42:41Z</time>
      </trkpt>
      <trkpt lat="45.86644" lon="4.82067">
        <ele>274.5</ele>
        <time>2014-09-14T09:42:45Z</time>
      </trkpt>
      <trkpt lat="45.86635" lon="4.82065">
        <ele>273.8</ele>
        <time>2014-09-14T09:42:49Z</time>
      </trkpt>
      <trkpt lat="45.86625" lon="4.82064">
        <ele>273.2</ele>
        <time>2014-09-14T09:42:53Z</time>
      </trkpt>
      <trkpt lat="45.86615" lon="4.82068">
        <ele>272.5</ele>
        <time>2014-09-14T09:42:58Z</time>
      </trkpt>
      <trkpt lat="45.86604" lon="4.82063">
        <ele>271.9</ele>
        <time>2014-09-14T09:43:04Z</time>
      </trkpt>
      <trkpt lat="45.86596" lon="4.82053">
        <ele>272.2</ele>
        <time>2014-09-14T09:43:07Z</time>
      </trkpt>
      <trkpt lat="45.86587" lon="4.82043">
        <ele>272.5</ele>
        <time>2014-09-14T09:43:09Z</time>
      </trkpt>
      <trkpt lat="45.86578" lon="4.82033">
        <ele>272.7</ele>
        <time>2014-09-14T09:43:11Z</time>
      </trkpt>
      <trkpt lat="45.86569" lon="4.82023">
        <ele>273.3</ele>
        <time>2014-09-14T09:43:13Z</time>
      </trkpt>
      <trkpt lat="45.86554" lon="4.8201">
        <ele>273.8</ele>
        <time>2014-09-14T09:43:15Z</time>
      </trkpt>
      <trkpt lat="45.86545" lon="4.82005">
        <ele>274.4</ele>
        <time>2014-09-14T09:43:16Z</time>
      </trkpt>
      <trkpt lat="45.86536" lon="4.81995">
        <ele>275.9</ele>
        <time>2014-09-14T09:43:18Z</time>
      </trkpt>
      <trkpt lat="45.86524" lon="4.81974">
        <ele>277.5</ele>
        <time>2014-09-14T09:43:22Z</time>
      </trkpt>
      <trkpt lat="45.86519" lon="4.81955">
        <ele>279</ele>
        <time>2014-09-14T09:43:24Z</time>
      </trkpt>
      <trkpt lat="45.86512" lon="4.81943">
        <ele>280.5</ele>
        <time>2014-09-14T09:43:27Z</time>
      </trkpt>
      <trkpt lat="45.86504" lon="4.81933">
        <ele>282.3</ele>
        <time>2014-09-14T09:43:32Z</time>
      </trkpt>
      <trkpt lat="45.86495" lon="4.8193">
        <ele>283.1</ele>
        <time>2014-09-14T09:43:36Z</time>
      </trkpt>
      <trkpt lat="45.86485" lon="4.81926">
        <ele>283.9</ele>
        <time>2014-09-14T09:43:41Z</time>
      </trkpt>
      <trkpt lat="45.86476" lon="4.81924">
        <ele>284.7</ele>
        <time>2014-09-14T09:43:45Z</time>
      </trkpt>
      <trkpt lat="45.86467" lon="4.81923">
        <ele>284.9</ele>
        <time>2014-09-14T09:43:50Z</time>
      </trkpt>
      <trkpt lat="45.86451" lon="4.81915">
        <ele>285.1</ele>
        <time>2014-09-14T09:43:58Z</time>
      </trkpt>
      <trkpt lat="45.86441" lon="4.81911">
        <ele>286.5</ele>
        <time>2014-09-14T09:44:04Z</time>
      </trkpt>
      <trkpt lat="45.86431" lon="4.81907">
        <ele>287.8</ele>
        <time>2014-09-14T09:44:09Z</time>
      </trkpt>
      <trkpt lat="45.86422" lon="4.81903">
        <ele>289.2</ele>
        <time>2014-09-14T09:44:13Z</time>
      </trkpt>
      <trkpt lat="45.86413" lon="4.81896">
        <ele>290.5</ele>
        <time>2014-09-14T09:44:17Z</time>
      </trkpt>
      <trkpt lat="45.86408" lon="4.81884">
        <ele>291.5</ele>
        <time>2014-09-14T09:44:23Z</time>
      </trkpt>
      <trkpt lat="45.86402" lon="4.81872">
        <ele>292.2</ele>
        <time>2014-09-14T09:44:28Z</time>
      </trkpt>
      <trkpt lat="45.86396" lon="4.8186">
        <ele>292.9</ele>
        <time>2014-09-14T09:44:34Z</time>
      </trkpt>
      <trkpt lat="45.86389" lon="4.8185">
        <ele>293.6</ele>
        <time>2014-09-14T09:44:41Z</time>
      </trkpt>
      <trkpt lat="45.86382" lon="4.81841">
        <ele>295.5</ele>
        <time>2014-09-14T09:44:47Z</time>
      </trkpt>
      <trkpt lat="45.86375" lon="4.81829">
        <ele>297.3</ele>
        <time>2014-09-14T09:44:52Z</time>
      </trkpt>
      <trkpt lat="45.86368" lon="4.81818">
        <ele>299.1</ele>
        <time>2014-09-14T09:44:58Z</time>
      </trkpt>
      <trkpt lat="45.8636" lon="4.81807">
        <ele>299.7</ele>
        <time>2014-09-14T09:45:03Z</time>
      </trkpt>
      <trkpt lat="45.86353" lon="4.81796">
        <ele>300.4</ele>
        <time>2014-09-14T09:45:08Z</time>
      </trkpt>
      <trkpt lat="45.86346" lon="4.81786">
        <ele>301</ele>
        <time>2014-09-14T09:45:15Z</time>
      </trkpt>
      <trkpt lat="45.86339" lon="4.81776">
        <ele>301.6</ele>
        <time>2014-09-14T09:45:22Z</time>
      </trkpt>
      <trkpt lat="45.86331" lon="4.8177">
        <ele>302.3</ele>
        <time>2014-09-14T09:45:29Z</time>
      </trkpt>
      <trkpt lat="45.86322" lon="4.81762">
        <ele>302.9</ele>
        <time>2014-09-14T09:45:34Z</time>
      </trkpt>
      <trkpt lat="45.86314" lon="4.81754">
        <ele>304.9</ele>
        <time>2014-09-14T09:45:39Z</time>
      </trkpt>
      <trkpt lat="45.86305" lon="4.81745">
        <ele>306.9</ele>
        <time>2014-09-14T09:45:44Z</time>
      </trkpt>
      <trkpt lat="45.86296" lon="4.81738">
        <ele>307.8</ele>
        <time>2014-09-14T09:45:51Z</time>
      </trkpt>
      <trkpt lat="45.86287" lon="4.81731">
        <ele>308.7</ele>
        <time>2014-09-14T09:45:56Z</time>
      </trkpt>
      <trkpt lat="45.8628" lon="4.81722">
        <ele>309.6</ele>
        <time>2014-09-14T09:46:02Z</time>
      </trkpt>
      <trkpt lat="45.86272" lon="4.81712">
        <ele>310.5</ele>
        <time>2014-09-14T09:46:08Z</time>
      </trkpt>
      <trkpt lat="45.86265" lon="4.81703">
        <ele>311.5</ele>
        <time>2014-09-14T09:46:15Z</time>
      </trkpt>
      <trkpt lat="45.86258" lon="4.81693">
        <ele>312.4</ele>
        <time>2014-09-14T09:46:20Z</time>
      </trkpt>
      <trkpt lat="45.86253" lon="4.81682">
        <ele>313.3</ele>
        <time>2014-09-14T09:46:26Z</time>
      </trkpt>
      <trkpt lat="45.86245" lon="4.81672">
        <ele>314.4</ele>
        <time>2014-09-14T09:46:32Z</time>
      </trkpt>
      <trkpt lat="45.86236" lon="4.81665">
        <ele>315.5</ele>
        <time>2014-09-14T09:46:37Z</time>
      </trkpt>
      <trkpt lat="45.86228" lon="4.81659">
        <ele>315.2</ele>
        <time>2014-09-14T09:46:44Z</time>
      </trkpt>
      <trkpt lat="45.8622" lon="4.81652">
        <ele>316.5</ele>
        <time>2014-09-14T09:46:50Z</time>
      </trkpt>
      <trkpt lat="45.86212" lon="4.81645">
        <ele>317.7</ele>
        <time>2014-09-14T09:47:00Z</time>
      </trkpt>
      <trkpt lat="45.86203" lon="4.81637">
        <ele>319</ele>
        <time>2014-09-14T09:47:05Z</time>
      </trkpt>
      <trkpt lat="45.86192" lon="4.81637">
        <ele>320.3</ele>
        <time>2014-09-14T09:47:10Z</time>
      </trkpt>
      <trkpt lat="45.86181" lon="4.81633">
        <ele>321.5</ele>
        <time>2014-09-14T09:47:14Z</time>
      </trkpt>
      <trkpt lat="45.86173" lon="4.81626">
        <ele>322.4</ele>
        <time>2014-09-14T09:47:19Z</time>
      </trkpt>
      <trkpt lat="45.86162" lon="4.81619">
        <ele>323.2</ele>
        <time>2014-09-14T09:47:24Z</time>
      </trkpt>
      <trkpt lat="45.86152" lon="4.81617">
        <ele>324</ele>
        <time>2014-09-14T09:47:29Z</time>
      </trkpt>
      <trkpt lat="45.86142" lon="4.81613">
        <ele>325.1</ele>
        <time>2014-09-14T09:47:35Z</time>
      </trkpt>
      <trkpt lat="45.86134" lon="4.81606">
        <ele>326.2</ele>
        <time>2014-09-14T09:47:40Z</time>
      </trkpt>
      <trkpt lat="45.86126" lon="4.81597">
        <ele>327.3</ele>
        <time>2014-09-14T09:47:45Z</time>
      </trkpt>
      <trkpt lat="45.86118" lon="4.81589">
        <ele>326.8</ele>
        <time>2014-09-14T09:47:50Z</time>
      </trkpt>
      <trkpt lat="45.8611" lon="4.81581">
        <ele>326.4</ele>
        <time>2014-09-14T09:47:56Z</time>
      </trkpt>
      <trkpt lat="45.86102" lon="4.81575">
        <ele>325.9</ele>
        <time>2014-09-14T09:48:04Z</time>
      </trkpt>
      <trkpt lat="45.86092" lon="4.81568">
        <ele>327.1</ele>
        <time>2014-09-14T09:48:11Z</time>
      </trkpt>
      <trkpt lat="45.86081" lon="4.81563">
        <ele>328.3</ele>
        <time>2014-09-14T09:48:16Z</time>
      </trkpt>
      <trkpt lat="45.86072" lon="4.8156">
        <ele>329.9</ele>
        <time>2014-09-14T09:48:21Z</time>
      </trkpt>
      <trkpt lat="45.86064" lon="4.81552">
        <ele>331.5</ele>
        <time>2014-09-14T09:48:26Z</time>
      </trkpt>
      <trkpt lat="45.86054" lon="4.81549">
        <ele>333.2</ele>
        <time>2014-09-14T09:48:32Z</time>
      </trkpt>
      <trkpt lat="45.86044" lon="4.81544">
        <ele>334.5</ele>
        <time>2014-09-14T09:48:39Z</time>
      </trkpt>
      <trkpt lat="45.86036" lon="4.81537">
        <ele>335.9</ele>
        <time>2014-09-14T09:48:44Z</time>
      </trkpt>
      <trkpt lat="45.86026" lon="4.81532">
        <ele>337.3</ele>
        <time>2014-09-14T09:48:49Z</time>
      </trkpt>
      <trkpt lat="45.86016" lon="4.81531">
        <ele>337.3</ele>
        <time>2014-09-14T09:48:55Z</time>
      </trkpt>
      <trkpt lat="45.86015" lon="4.81544">
        <ele>337.3</ele>
        <time>2014-09-14T09:49:04Z</time>
      </trkpt>
      <trkpt lat="45.86024" lon="4.81552">
        <ele>337.3</ele>
        <time>2014-09-14T09:49:09Z</time>
      </trkpt>
      <trkpt lat="45.86032" lon="4.81561">
        <ele>335.6</ele>
        <time>2014-09-14T09:49:13Z</time>
      </trkpt>
      <trkpt lat="45.86041" lon="4.81569">
        <ele>334</ele>
        <time>2014-09-14T09:49:17Z</time>
      </trkpt>
      <trkpt lat="45.86048" lon="4.81579">
        <ele>332.3</ele>
        <time>2014-09-14T09:49:20Z</time>
      </trkpt>
      <trkpt lat="45.86056" lon="4.81587">
        <ele>330.5</ele>
        <time>2014-09-14T09:49:22Z</time>
      </trkpt>
      <trkpt lat="45.86065" lon="4.81597">
        <ele>328.8</ele>
        <time>2014-09-14T09:49:24Z</time>
      </trkpt>
      <trkpt lat="45.86075" lon="4.81609">
        <ele>327.4</ele>
        <time>2014-09-14T09:49:27Z</time>
      </trkpt>
      <trkpt lat="45.86084" lon="4.81621">
        <ele>325.9</ele>
        <time>2014-09-14T09:49:30Z</time>
      </trkpt>
      <trkpt lat="45.86093" lon="4.81635">
        <ele>323.5</ele>
        <time>2014-09-14T09:49:33Z</time>
      </trkpt>
      <trkpt lat="45.861" lon="4.81647">
        <ele>322.4</ele>
        <time>2014-09-14T09:49:35Z</time>
      </trkpt>
      <trkpt lat="45.86106" lon="4.8166">
        <ele>321.6</ele>
        <time>2014-09-14T09:49:37Z</time>
      </trkpt>
      <trkpt lat="45.86113" lon="4.81672">
        <ele>320.9</ele>
        <time>2014-09-14T09:49:39Z</time>
      </trkpt>
      <trkpt lat="45.86119" lon="4.81683">
        <ele>320.2</ele>
        <time>2014-09-14T09:49:41Z</time>
      </trkpt>
      <trkpt lat="45.86129" lon="4.81697">
        <ele>319.5</ele>
        <time>2014-09-14T09:49:44Z</time>
      </trkpt>
      <trkpt lat="45.8614" lon="4.81707">
        <ele>318.8</ele>
        <time>2014-09-14T09:49:46Z</time>
      </trkpt>
      <trkpt lat="45.8615" lon="4.81716">
        <ele>318.2</ele>
        <time>2014-09-14T09:49:48Z</time>
      </trkpt>
      <trkpt lat="45.86163" lon="4.81724">
        <ele>317.5</ele>
        <time>2014-09-14T09:49:50Z</time>
      </trkpt>
      <trkpt lat="45.86174" lon="4.81732">
        <ele>315.5</ele>
        <time>2014-09-14T09:49:52Z</time>
      </trkpt>
      <trkpt lat="45.86184" lon="4.81741">
        <ele>313.8</ele>
        <time>2014-09-14T09:49:54Z</time>
      </trkpt>
      <trkpt lat="45.86192" lon="4.81752">
        <ele>313.2</ele>
        <time>2014-09-14T09:49:56Z</time>
      </trkpt>
      <trkpt lat="45.862" lon="4.81764">
        <ele>312.5</ele>
        <time>2014-09-14T09:49:58Z</time>
      </trkpt>
      <trkpt lat="45.86209" lon="4.81779">
        <ele>311.5</ele>
        <time>2014-09-14T09:50:00Z</time>
      </trkpt>
      <trkpt lat="45.86219" lon="4.81795">
        <ele>310.5</ele>
        <time>2014-09-14T09:50:02Z</time>
      </trkpt>
      <trkpt lat="45.86232" lon="4.81812">
        <ele>309.5</ele>
        <time>2014-09-14T09:50:04Z</time>
      </trkpt>
      <trkpt lat="45.86239" lon="4.81823">
        <ele>309.5</ele>
        <time>2014-09-14T09:50:05Z</time>
      </trkpt>
      <trkpt lat="45.86245" lon="4.81835">
        <ele>309.4</ele>
        <time>2014-09-14T09:50:06Z</time>
      </trkpt>
      <trkpt lat="45.86251" lon="4.81845">
        <ele>309.3</ele>
        <time>2014-09-14T09:50:07Z</time>
      </trkpt>
      <trkpt lat="45.86258" lon="4.81857">
        <ele>309.2</ele>
        <time>2014-09-14T09:50:08Z</time>
      </trkpt>
      <trkpt lat="45.86264" lon="4.81869">
        <ele>308.6</ele>
        <time>2014-09-14T09:50:09Z</time>
      </trkpt>
      <trkpt lat="45.8627" lon="4.81882">
        <ele>307.6</ele>
        <time>2014-09-14T09:50:10Z</time>
      </trkpt>
      <trkpt lat="45.86276" lon="4.81893">
        <ele>306.6</ele>
        <time>2014-09-14T09:50:11Z</time>
      </trkpt>
      <trkpt lat="45.86282" lon="4.81906">
        <ele>306.5</ele>
        <time>2014-09-14T09:50:12Z</time>
      </trkpt>
      <trkpt lat="45.86288" lon="4.81917">
        <ele>306.3</ele>
        <time>2014-09-14T09:50:13Z</time>
      </trkpt>
      <trkpt lat="45.86295" lon="4.81928">
        <ele>306.1</ele>
        <time>2014-09-14T09:50:14Z</time>
      </trkpt>
      <trkpt lat="45.86307" lon="4.81947">
        <ele>305.9</ele>
        <time>2014-09-14T09:50:16Z</time>
      </trkpt>
      <trkpt lat="45.86313" lon="4.81957">
        <ele>303.6</ele>
        <time>2014-09-14T09:50:18Z</time>
      </trkpt>
      <trkpt lat="45.86333" lon="4.8199">
        <ele>302.3</ele>
        <time>2014-09-14T09:50:20Z</time>
      </trkpt>
      <trkpt lat="45.86345" lon="4.82006">
        <ele>300.9</ele>
        <time>2014-09-14T09:50:24Z</time>
      </trkpt>
      <trkpt lat="45.86363" lon="4.82028">
        <ele>299.5</ele>
        <time>2014-09-14T09:50:25Z</time>
      </trkpt>
      <trkpt lat="45.86371" lon="4.82038">
        <ele>300.1</ele>
        <time>2014-09-14T09:50:27Z</time>
      </trkpt>
      <trkpt lat="45.86387" lon="4.82055">
        <ele>300.6</ele>
        <time>2014-09-14T09:50:29Z</time>
      </trkpt>
      <trkpt lat="45.86394" lon="4.82063">
        <ele>301.2</ele>
        <time>2014-09-14T09:50:30Z</time>
      </trkpt>
      <trkpt lat="45.86408" lon="4.82078">
        <ele>299.7</ele>
        <time>2014-09-14T09:50:32Z</time>
      </trkpt>
      <trkpt lat="45.86419" lon="4.82088">
        <ele>298.3</ele>
        <time>2014-09-14T09:50:34Z</time>
      </trkpt>
      <trkpt lat="45.86427" lon="4.82092">
        <ele>296.8</ele>
        <time>2014-09-14T09:50:35Z</time>
      </trkpt>
      <trkpt lat="45.86437" lon="4.82095">
        <ele>295.5</ele>
        <time>2014-09-14T09:50:36Z</time>
      </trkpt>
      <trkpt lat="45.86454" lon="4.82101">
        <ele>295.3</ele>
        <time>2014-09-14T09:50:38Z</time>
      </trkpt>
      <trkpt lat="45.8647" lon="4.8211">
        <ele>294.1</ele>
        <time>2014-09-14T09:50:40Z</time>
      </trkpt>
      <trkpt lat="45.8648" lon="4.8212">
        <ele>292.9</ele>
        <time>2014-09-14T09:50:42Z</time>
      </trkpt>
      <trkpt lat="45.86494" lon="4.82135">
        <ele>291.7</ele>
        <time>2014-09-14T09:50:45Z</time>
      </trkpt>
      <trkpt lat="45.86502" lon="4.82142">
        <ele>290.5</ele>
        <time>2014-09-14T09:50:47Z</time>
      </trkpt>
      <trkpt lat="45.86517" lon="4.82137">
        <ele>289.4</ele>
        <time>2014-09-14T09:50:49Z</time>
      </trkpt>
      <trkpt lat="45.86527" lon="4.82127">
        <ele>288.2</ele>
        <time>2014-09-14T09:50:50Z</time>
      </trkpt>
      <trkpt lat="45.86538" lon="4.82119">
        <ele>288.2</ele>
        <time>2014-09-14T09:50:52Z</time>
      </trkpt>
      <trkpt lat="45.86528" lon="4.82121">
        <ele>288.2</ele>
        <time>2014-09-14T09:51:01Z</time>
      </trkpt>
      <trkpt lat="45.86516" lon="4.82121">
        <ele>289.4</ele>
        <time>2014-09-14T09:51:07Z</time>
      </trkpt>
      <trkpt lat="45.86506" lon="4.8212">
        <ele>290.4</ele>
        <time>2014-09-14T09:51:11Z</time>
      </trkpt>
      <trkpt lat="45.86496" lon="4.82118">
        <ele>291.5</ele>
        <time>2014-09-14T09:51:15Z</time>
      </trkpt>
      <trkpt lat="45.86487" lon="4.8212">
        <ele>292.7</ele>
        <time>2014-09-14T09:51:19Z</time>
      </trkpt>
      <trkpt lat="45.86474" lon="4.82125">
        <ele>293.9</ele>
        <time>2014-09-14T09:51:25Z</time>
      </trkpt>
      <trkpt lat="45.86463" lon="4.82126">
        <ele>295.1</ele>
        <time>2014-09-14T09:51:30Z</time>
      </trkpt>
      <trkpt lat="45.86447" lon="4.82126">
        <ele>296.3</ele>
        <time>2014-09-14T09:51:38Z</time>
      </trkpt>
      <trkpt lat="45.86438" lon="4.82124">
        <ele>299</ele>
        <time>2014-09-14T09:51:43Z</time>
      </trkpt>
      <trkpt lat="45.86427" lon="4.82124">
        <ele>302.3</ele>
        <time>2014-09-14T09:51:48Z</time>
      </trkpt>
      <trkpt lat="45.86417" lon="4.82126">
        <ele>305.5</ele>
        <time>2014-09-14T09:51:53Z</time>
      </trkpt>
      <trkpt lat="45.86407" lon="4.82128">
        <ele>308.8</ele>
        <time>2014-09-14T09:51:58Z</time>
      </trkpt>
      <trkpt lat="45.86392" lon="4.82129">
        <ele>310.9</ele>
        <time>2014-09-14T09:52:05Z</time>
      </trkpt>
      <trkpt lat="45.86378" lon="4.82133">
        <ele>313</ele>
        <time>2014-09-14T09:52:16Z</time>
      </trkpt>
      <trkpt lat="45.86369" lon="4.82138">
        <ele>315.1</ele>
        <time>2014-09-14T09:52:23Z</time>
      </trkpt>
      <trkpt lat="45.86361" lon="4.82146">
        <ele>317.2</ele>
        <time>2014-09-14T09:52:30Z</time>
      </trkpt>
      <trkpt lat="45.86355" lon="4.82157">
        <ele>319.2</ele>
        <time>2014-09-14T09:52:35Z</time>
      </trkpt>
      <trkpt lat="45.86351" lon="4.82171">
        <ele>321.2</ele>
        <time>2014-09-14T09:52:39Z</time>
      </trkpt>
      <trkpt lat="45.8635" lon="4.82185">
        <ele>323.2</ele>
        <time>2014-09-14T09:52:43Z</time>
      </trkpt>
      <trkpt lat="45.86349" lon="4.82201">
        <ele>322.1</ele>
        <time>2014-09-14T09:52:46Z</time>
      </trkpt>
      <trkpt lat="45.8635" lon="4.82216">
        <ele>320.5</ele>
        <time>2014-09-14T09:52:49Z</time>
      </trkpt>
      <trkpt lat="45.86355" lon="4.82238">
        <ele>318.8</ele>
        <time>2014-09-14T09:52:54Z</time>
      </trkpt>
      <trkpt lat="45.86362" lon="4.8225">
        <ele>317.2</ele>
        <time>2014-09-14T09:52:57Z</time>
      </trkpt>
      <trkpt lat="45.86371" lon="4.82259">
        <ele>316.2</ele>
        <time>2014-09-14T09:52:59Z</time>
      </trkpt>
      <trkpt lat="45.86381" lon="4.8227">
        <ele>315.2</ele>
        <time>2014-09-14T09:53:01Z</time>
      </trkpt>
      <trkpt lat="45.86391" lon="4.82279">
        <ele>314.2</ele>
        <time>2014-09-14T09:53:03Z</time>
      </trkpt>
      <trkpt lat="45.86399" lon="4.8229">
        <ele>313.2</ele>
        <time>2014-09-14T09:53:05Z</time>
      </trkpt>
      <trkpt lat="45.86408" lon="4.82301">
        <ele>312.3</ele>
        <time>2014-09-14T09:53:07Z</time>
      </trkpt>
      <trkpt lat="45.86416" lon="4.82312">
        <ele>311.4</ele>
        <time>2014-09-14T09:53:10Z</time>
      </trkpt>
      <trkpt lat="45.86425" lon="4.82319">
        <ele>312</ele>
        <time>2014-09-14T09:53:14Z</time>
      </trkpt>
      <trkpt lat="45.86416" lon="4.82316">
        <ele>314.2</ele>
        <time>2014-09-14T09:53:30Z</time>
      </trkpt>
      <trkpt lat="45.86405" lon="4.82318">
        <ele>316.4</ele>
        <time>2014-09-14T09:53:40Z</time>
      </trkpt>
      <trkpt lat="45.86395" lon="4.82318">
        <ele>318.5</ele>
        <time>2014-09-14T09:53:47Z</time>
      </trkpt>
      <trkpt lat="45.86385" lon="4.82321">
        <ele>320.7</ele>
        <time>2014-09-14T09:53:57Z</time>
      </trkpt>
      <trkpt lat="45.86376" lon="4.82327">
        <ele>322.3</ele>
        <time>2014-09-14T09:54:10Z</time>
      </trkpt>
      <trkpt lat="45.86368" lon="4.82334">
        <ele>323.8</ele>
        <time>2014-09-14T09:54:19Z</time>
      </trkpt>
      <trkpt lat="45.8636" lon="4.82342">
        <ele>325.4</ele>
        <time>2014-09-14T09:54:26Z</time>
      </trkpt>
      <trkpt lat="45.86352" lon="4.82347">
        <ele>326.9</ele>
        <time>2014-09-14T09:54:36Z</time>
      </trkpt>
      <trkpt lat="45.86342" lon="4.82348">
        <ele>328.5</ele>
        <time>2014-09-14T09:54:53Z</time>
      </trkpt>
      <trkpt lat="45.86333" lon="4.82348">
        <ele>331.2</ele>
        <time>2014-09-14T09:55:00Z</time>
      </trkpt>
      <trkpt lat="45.86324" lon="4.82354">
        <ele>332.5</ele>
        <time>2014-09-14T09:55:07Z</time>
      </trkpt>
      <trkpt lat="45.86314" lon="4.82359">
        <ele>333.7</ele>
        <time>2014-09-14T09:55:14Z</time>
      </trkpt>
      <trkpt lat="45.86305" lon="4.82357">
        <ele>335</ele>
        <time>2014-09-14T09:55:20Z</time>
      </trkpt>
      <trkpt lat="45.86298" lon="4.82366">
        <ele>336.3</ele>
        <time>2014-09-14T09:55:31Z</time>
      </trkpt>
      <trkpt lat="45.86291" lon="4.82378">
        <ele>337.5</ele>
        <time>2014-09-14T09:55:37Z</time>
      </trkpt>
      <trkpt lat="45.86284" lon="4.82388">
        <ele>338.8</ele>
        <time>2014-09-14T09:55:41Z</time>
      </trkpt>
      <trkpt lat="45.86276" lon="4.82397">
        <ele>340.1</ele>
        <time>2014-09-14T09:55:48Z</time>
      </trkpt>
      <trkpt lat="45.86267" lon="4.82405">
        <ele>341.4</ele>
        <time>2014-09-14T09:55:54Z</time>
      </trkpt>
      <trkpt lat="45.86258" lon="4.82409">
        <ele>342.6</ele>
        <time>2014-09-14T09:56:00Z</time>
      </trkpt>
      <trkpt lat="45.86248" lon="4.82411">
        <ele>345</ele>
        <time>2014-09-14T09:56:08Z</time>
      </trkpt>
      <trkpt lat="45.86239" lon="4.82415">
        <ele>346.2</ele>
        <time>2014-09-14T09:56:14Z</time>
      </trkpt>
      <trkpt lat="45.8623" lon="4.82421">
        <ele>347.3</ele>
        <time>2014-09-14T09:56:19Z</time>
      </trkpt>
      <trkpt lat="45.8622" lon="4.82421">
        <ele>348.4</ele>
        <time>2014-09-14T09:56:26Z</time>
      </trkpt>
      <trkpt lat="45.8621" lon="4.82419">
        <ele>349.5</ele>
        <time>2014-09-14T09:56:33Z</time>
      </trkpt>
      <trkpt lat="45.86201" lon="4.82423">
        <ele>350.5</ele>
        <time>2014-09-14T09:56:40Z</time>
      </trkpt>
      <trkpt lat="45.86191" lon="4.82424">
        <ele>351.6</ele>
        <time>2014-09-14T09:56:48Z</time>
      </trkpt>
      <trkpt lat="45.8618" lon="4.82424">
        <ele>352.7</ele>
        <time>2014-09-14T09:57:00Z</time>
      </trkpt>
      <trkpt lat="45.8617" lon="4.82425">
        <ele>354.5</ele>
        <time>2014-09-14T09:57:06Z</time>
      </trkpt>
      <trkpt lat="45.86159" lon="4.8243">
        <ele>356.4</ele>
        <time>2014-09-14T09:57:13Z</time>
      </trkpt>
      <trkpt lat="45.86149" lon="4.82428">
        <ele>358.2</ele>
        <time>2014-09-14T09:57:19Z</time>
      </trkpt>
      <trkpt lat="45.86139" lon="4.82421">
        <ele>358.9</ele>
        <time>2014-09-14T09:57:27Z</time>
      </trkpt>
      <trkpt lat="45.86129" lon="4.82415">
        <ele>359.6</ele>
        <time>2014-09-14T09:57:33Z</time>
      </trkpt>
      <trkpt lat="45.8612" lon="4.82414">
        <ele>360.4</ele>
        <time>2014-09-14T09:57:39Z</time>
      </trkpt>
      <trkpt lat="45.86111" lon="4.82418">
        <ele>361.1</ele>
        <time>2014-09-14T09:57:46Z</time>
      </trkpt>
      <trkpt lat="45.86101" lon="4.82419">
        <ele>361.8</ele>
        <time>2014-09-14T09:57:54Z</time>
      </trkpt>
      <trkpt lat="45.86092" lon="4.82421">
        <ele>362.5</ele>
        <time>2014-09-14T09:57:58Z</time>
      </trkpt>
      <trkpt lat="45.86083" lon="4.82426">
        <ele>363.3</ele>
        <time>2014-09-14T09:58:03Z</time>
      </trkpt>
      <trkpt lat="45.86073" lon="4.82431">
        <ele>364</ele>
        <time>2014-09-14T09:58:07Z</time>
      </trkpt>
      <trkpt lat="45.86062" lon="4.82431">
        <ele>364</ele>
        <time>2014-09-14T09:58:12Z</time>
      </trkpt>
      <trkpt lat="45.86051" lon="4.82429">
        <ele>364</ele>
        <time>2014-09-14T09:58:17Z</time>
      </trkpt>
      <trkpt lat="45.86041" lon="4.82427">
        <ele>364</ele>
        <time>2014-09-14T09:58:21Z</time>
      </trkpt>
      <trkpt lat="45.86031" lon="4.82423">
        <ele>364</ele>
        <time>2014-09-14T09:58:26Z</time>
      </trkpt>
      <trkpt lat="45.86023" lon="4.82418">
        <ele>364</ele>
        <time>2014-09-14T09:58:30Z</time>
      </trkpt>
      <trkpt lat="45.86013" lon="4.82415">
        <ele>363.8</ele>
        <time>2014-09-14T09:58:34Z</time>
      </trkpt>
      <trkpt lat="45.86003" lon="4.82412">
        <ele>363.6</ele>
        <time>2014-09-14T09:58:37Z</time>
      </trkpt>
      <trkpt lat="45.85993" lon="4.82412">
        <ele>363.5</ele>
        <time>2014-09-14T09:58:40Z</time>
      </trkpt>
      <trkpt lat="45.85981" lon="4.82409">
        <ele>363.3</ele>
        <time>2014-09-14T09:58:44Z</time>
      </trkpt>
      <trkpt lat="45.8597" lon="4.82411">
        <ele>363.9</ele>
        <time>2014-09-14T09:58:47Z</time>
      </trkpt>
      <trkpt lat="45.85958" lon="4.8241">
        <ele>364.5</ele>
        <time>2014-09-14T09:58:50Z</time>
      </trkpt>
      <trkpt lat="45.85947" lon="4.82408">
        <ele>365.2</ele>
        <time>2014-09-14T09:58:53Z</time>
      </trkpt>
      <trkpt lat="45.85937" lon="4.82404">
        <ele>365.8</ele>
        <time>2014-09-14T09:58:56Z</time>
      </trkpt>
      <trkpt lat="45.85928" lon="4.82394">
        <ele>366.5</ele>
        <time>2014-09-14T09:58:59Z</time>
      </trkpt>
      <trkpt lat="45.85919" lon="4.8238">
        <ele>367.1</ele>
        <time>2014-09-14T09:59:02Z</time>
      </trkpt>
      <trkpt lat="45.85915" lon="4.82368">
        <ele>367.7</ele>
        <time>2014-09-14T09:59:04Z</time>
      </trkpt>
      <trkpt lat="45.85909" lon="4.82358">
        <ele>368.2</ele>
        <time>2014-09-14T09:59:06Z</time>
      </trkpt>
      <trkpt lat="45.85902" lon="4.82343">
        <ele>368.6</ele>
        <time>2014-09-14T09:59:09Z</time>
      </trkpt>
      <trkpt lat="45.85897" lon="4.82332">
        <ele>369.1</ele>
        <time>2014-09-14T09:59:12Z</time>
      </trkpt>
      <trkpt lat="45.85891" lon="4.82319">
        <ele>369.5</ele>
        <time>2014-09-14T09:59:16Z</time>
      </trkpt>
      <trkpt lat="45.85886" lon="4.82306">
        <ele>369.2</ele>
        <time>2014-09-14T09:59:20Z</time>
      </trkpt>
      <trkpt lat="45.8588" lon="4.82293">
        <ele>368.8</ele>
        <time>2014-09-14T09:59:24Z</time>
      </trkpt>
      <trkpt lat="45.85875" lon="4.82282">
        <ele>368.5</ele>
        <time>2014-09-14T09:59:28Z</time>
      </trkpt>
      <trkpt lat="45.85869" lon="4.82269">
        <ele>369.5</ele>
        <time>2014-09-14T09:59:33Z</time>
      </trkpt>
      <trkpt lat="45.85864" lon="4.82258">
        <ele>370.5</ele>
        <time>2014-09-14T09:59:39Z</time>
      </trkpt>
      <trkpt lat="45.85866" lon="4.82244">
        <ele>371.5</ele>
        <time>2014-09-14T09:59:43Z</time>
      </trkpt>
      <trkpt lat="45.85862" lon="4.82231">
        <ele>372.5</ele>
        <time>2014-09-14T09:59:49Z</time>
      </trkpt>
      <trkpt lat="45.85857" lon="4.8222">
        <ele>373.8</ele>
        <time>2014-09-14T09:59:56Z</time>
      </trkpt>
      <trkpt lat="45.85861" lon="4.82207">
        <ele>375.2</ele>
        <time>2014-09-14T10:00:02Z</time>
      </trkpt>
      <trkpt lat="45.85857" lon="4.82194">
        <ele>377.5</ele>
        <time>2014-09-14T10:00:10Z</time>
      </trkpt>
      <trkpt lat="45.85858" lon="4.8218">
        <ele>379.9</ele>
        <time>2014-09-14T10:00:16Z</time>
      </trkpt>
      <trkpt lat="45.85856" lon="4.82165">
        <ele>382.3</ele>
        <time>2014-09-14T10:00:25Z</time>
      </trkpt>
      <trkpt lat="45.85853" lon="4.82153">
        <ele>384.6</ele>
        <time>2014-09-14T10:00:30Z</time>
      </trkpt>
      <trkpt lat="45.85855" lon="4.82139">
        <ele>387</ele>
        <time>2014-09-14T10:00:37Z</time>
      </trkpt>
      <trkpt lat="45.8585" lon="4.82128">
        <ele>388</ele>
        <time>2014-09-14T10:00:42Z</time>
      </trkpt>
      <trkpt lat="45.85841" lon="4.82122">
        <ele>389</ele>
        <time>2014-09-14T10:00:47Z</time>
      </trkpt>
      <trkpt lat="45.85832" lon="4.82118">
        <ele>390</ele>
        <time>2014-09-14T10:00:52Z</time>
      </trkpt>
      <trkpt lat="45.85827" lon="4.82102">
        <ele>391.3</ele>
        <time>2014-09-14T10:01:00Z</time>
      </trkpt>
      <trkpt lat="45.85825" lon="4.82088">
        <ele>392.5</ele>
        <time>2014-09-14T10:01:07Z</time>
      </trkpt>
      <trkpt lat="45.85816" lon="4.8208">
        <ele>393.8</ele>
        <time>2014-09-14T10:01:15Z</time>
      </trkpt>
      <trkpt lat="45.85804" lon="4.82075">
        <ele>394.1</ele>
        <time>2014-09-14T10:01:20Z</time>
      </trkpt>
      <trkpt lat="45.85794" lon="4.8207">
        <ele>394.4</ele>
        <time>2014-09-14T10:01:25Z</time>
      </trkpt>
      <trkpt lat="45.85785" lon="4.82068">
        <ele>394.6</ele>
        <time>2014-09-14T10:01:30Z</time>
      </trkpt>
      <trkpt lat="45.85776" lon="4.82069">
        <ele>394.9</ele>
        <time>2014-09-14T10:01:34Z</time>
      </trkpt>
      <trkpt lat="45.85766" lon="4.8207">
        <ele>395.2</ele>
        <time>2014-09-14T10:01:38Z</time>
      </trkpt>
      <trkpt lat="45.85754" lon="4.8207">
        <ele>396.4</ele>
        <time>2014-09-14T10:01:43Z</time>
      </trkpt>
      <trkpt lat="45.85744" lon="4.82072">
        <ele>397.5</ele>
        <time>2014-09-14T10:01:45Z</time>
      </trkpt>
      <trkpt lat="45.85732" lon="4.82074">
        <ele>398.7</ele>
        <time>2014-09-14T10:01:48Z</time>
      </trkpt>
      <trkpt lat="45.8572" lon="4.82078">
        <ele>399.6</ele>
        <time>2014-09-14T10:01:51Z</time>
      </trkpt>
      <trkpt lat="45.8571" lon="4.82082">
        <ele>400.5</ele>
        <time>2014-09-14T10:01:54Z</time>
      </trkpt>
      <trkpt lat="45.85699" lon="4.82089">
        <ele>401.5</ele>
        <time>2014-09-14T10:01:57Z</time>
      </trkpt>
      <trkpt lat="45.85688" lon="4.82096">
        <ele>402.4</ele>
        <time>2014-09-14T10:02:00Z</time>
      </trkpt>
      <trkpt lat="45.85677" lon="4.82103">
        <ele>403.4</ele>
        <time>2014-09-14T10:02:03Z</time>
      </trkpt>
      <trkpt lat="45.85669" lon="4.82112">
        <ele>404.4</ele>
        <time>2014-09-14T10:02:07Z</time>
      </trkpt>
      <trkpt lat="45.8566" lon="4.82115">
        <ele>405.4</ele>
        <time>2014-09-14T10:02:11Z</time>
      </trkpt>
      <trkpt lat="45.85651" lon="4.82118">
        <ele>406.4</ele>
        <time>2014-09-14T10:02:18Z</time>
      </trkpt>
      <trkpt lat="45.85639" lon="4.8212">
        <ele>406.5</ele>
        <time>2014-09-14T10:02:24Z</time>
      </trkpt>
      <trkpt lat="45.85625" lon="4.82122">
        <ele>406.5</ele>
        <time>2014-09-14T10:02:27Z</time>
      </trkpt>
      <trkpt lat="45.85615" lon="4.82123">
        <ele>406.6</ele>
        <time>2014-09-14T10:02:29Z</time>
      </trkpt>
      <trkpt lat="45.85605" lon="4.82121">
        <ele>406.7</ele>
        <time>2014-09-14T10:02:32Z</time>
      </trkpt>
      <trkpt lat="45.85594" lon="4.82123">
        <ele>406.8</ele>
        <time>2014-09-14T10:02:35Z</time>
      </trkpt>
      <trkpt lat="45.85585" lon="4.8212">
        <ele>406.9</ele>
        <time>2014-09-14T10:02:41Z</time>
      </trkpt>
      <trkpt lat="45.85592" lon="4.82112">
        <ele>407.8</ele>
        <time>2014-09-14T10:02:51Z</time>
      </trkpt>
      <trkpt lat="45.85598" lon="4.82099">
        <ele>408.6</ele>
        <time>2014-09-14T10:03:00Z</time>
      </trkpt>
      <trkpt lat="45.85595" lon="4.82086">
        <ele>409.5</ele>
        <time>2014-09-14T10:03:06Z</time>
      </trkpt>
      <trkpt lat="45.85591" lon="4.82071">
        <ele>410.3</ele>
        <time>2014-09-14T10:03:09Z</time>
      </trkpt>
      <trkpt lat="45.85588" lon="4.82059">
        <ele>411.1</ele>
        <time>2014-09-14T10:03:13Z</time>
      </trkpt>
      <trkpt lat="45.85586" lon="4.82046">
        <ele>411.9</ele>
        <time>2014-09-14T10:03:18Z</time>
      </trkpt>
      <trkpt lat="45.85585" lon="4.82032">
        <ele>412.7</ele>
        <time>2014-09-14T10:03:26Z</time>
      </trkpt>
      <trkpt lat="45.85586" lon="4.82019">
        <ele>414.1</ele>
        <time>2014-09-14T10:03:31Z</time>
      </trkpt>
      <trkpt lat="45.85581" lon="4.82008">
        <ele>415.5</ele>
        <time>2014-09-14T10:03:38Z</time>
      </trkpt>
      <trkpt lat="45.85576" lon="4.81997">
        <ele>416.8</ele>
        <time>2014-09-14T10:03:43Z</time>
      </trkpt>
      <trkpt lat="45.85574" lon="4.81984">
        <ele>418.2</ele>
        <time>2014-09-14T10:03:49Z</time>
      </trkpt>
      <trkpt lat="45.85575" lon="4.8197">
        <ele>418.7</ele>
        <time>2014-09-14T10:03:54Z</time>
      </trkpt>
      <trkpt lat="45.85577" lon="4.81957">
        <ele>419.3</ele>
        <time>2014-09-14T10:04:00Z</time>
      </trkpt>
      <trkpt lat="45.85575" lon="4.81942">
        <ele>419.9</ele>
        <time>2014-09-14T10:04:05Z</time>
      </trkpt>
      <trkpt lat="45.85574" lon="4.81926">
        <ele>420.5</ele>
        <time>2014-09-14T10:04:09Z</time>
      </trkpt>
      <trkpt lat="45.85574" lon="4.8191">
        <ele>421.2</ele>
        <time>2014-09-14T10:04:13Z</time>
      </trkpt>
      <trkpt lat="45.85576" lon="4.81894">
        <ele>421.8</ele>
        <time>2014-09-14T10:04:17Z</time>
      </trkpt>
      <trkpt lat="45.85572" lon="4.8188">
        <ele>422.5</ele>
        <time>2014-09-14T10:04:20Z</time>
      </trkpt>
      <trkpt lat="45.8557" lon="4.81865">
        <ele>422.1</ele>
        <time>2014-09-14T10:04:23Z</time>
      </trkpt>
      <trkpt lat="45.85567" lon="4.81848">
        <ele>421.7</ele>
        <time>2014-09-14T10:04:26Z</time>
      </trkpt>
      <trkpt lat="45.85564" lon="4.81834">
        <ele>421.4</ele>
        <time>2014-09-14T10:04:28Z</time>
      </trkpt>
      <trkpt lat="45.85558" lon="4.81816">
        <ele>421</ele>
        <time>2014-09-14T10:04:31Z</time>
      </trkpt>
      <trkpt lat="45.85552" lon="4.81805">
        <ele>420.6</ele>
        <time>2014-09-14T10:04:33Z</time>
      </trkpt>
      <trkpt lat="45.85544" lon="4.81791">
        <ele>420.5</ele>
        <time>2014-09-14T10:04:36Z</time>
      </trkpt>
      <trkpt lat="45.85542" lon="4.81778">
        <ele>420.6</ele>
        <time>2014-09-14T10:04:40Z</time>
      </trkpt>
      <trkpt lat="45.85541" lon="4.81762">
        <ele>420.8</ele>
        <time>2014-09-14T10:04:46Z</time>
      </trkpt>
      <trkpt lat="45.85543" lon="4.81748">
        <ele>421</ele>
        <time>2014-09-14T10:04:50Z</time>
      </trkpt>
      <trkpt lat="45.85544" lon="4.81734">
        <ele>421.2</ele>
        <time>2014-09-14T10:04:53Z</time>
      </trkpt>
      <trkpt lat="45.85547" lon="4.81718">
        <ele>421.4</ele>
        <time>2014-09-14T10:04:57Z</time>
      </trkpt>
      <trkpt lat="45.85546" lon="4.81705">
        <ele>422</ele>
        <time>2014-09-14T10:05:01Z</time>
      </trkpt>
      <trkpt lat="45.85541" lon="4.81693">
        <ele>422.9</ele>
        <time>2014-09-14T10:05:06Z</time>
      </trkpt>
      <trkpt lat="45.85535" lon="4.81682">
        <ele>423.8</ele>
        <time>2014-09-14T10:05:13Z</time>
      </trkpt>
      <trkpt lat="45.85532" lon="4.81669">
        <ele>424.7</ele>
        <time>2014-09-14T10:05:16Z</time>
      </trkpt>
      <trkpt lat="45.85527" lon="4.81655">
        <ele>425.6</ele>
        <time>2014-09-14T10:05:21Z</time>
      </trkpt>
      <trkpt lat="45.85524" lon="4.81641">
        <ele>426.4</ele>
        <time>2014-09-14T10:05:29Z</time>
      </trkpt>
      <trkpt lat="45.8552" lon="4.81626">
        <ele>426.6</ele>
        <time>2014-09-14T10:05:33Z</time>
      </trkpt>
      <trkpt lat="45.85515" lon="4.81613">
        <ele>427.1</ele>
        <time>2014-09-14T10:05:36Z</time>
      </trkpt>
      <trkpt lat="45.8551" lon="4.81602">
        <ele>427.5</ele>
        <time>2014-09-14T10:05:40Z</time>
      </trkpt>
      <trkpt lat="45.85508" lon="4.81589">
        <ele>428</ele>
        <time>2014-09-14T10:05:45Z</time>
      </trkpt>
      <trkpt lat="45.85504" lon="4.81575">
        <ele>428.5</ele>
        <time>2014-09-14T10:05:50Z</time>
      </trkpt>
      <trkpt lat="45.85499" lon="4.81561">
        <ele>428.9</ele>
        <time>2014-09-14T10:05:56Z</time>
      </trkpt>
      <trkpt lat="45.85494" lon="4.81548">
        <ele>429.1</ele>
        <time>2014-09-14T10:06:01Z</time>
      </trkpt>
      <trkpt lat="45.8549" lon="4.81534">
        <ele>429.3</ele>
        <time>2014-09-14T10:06:06Z</time>
      </trkpt>
      <trkpt lat="45.85488" lon="4.81519">
        <ele>429.5</ele>
        <time>2014-09-14T10:06:10Z</time>
      </trkpt>
      <trkpt lat="45.85486" lon="4.81505">
        <ele>429.6</ele>
        <time>2014-09-14T10:06:15Z</time>
      </trkpt>
      <trkpt lat="45.85483" lon="4.81493">
        <ele>429.8</ele>
        <time>2014-09-14T10:06:20Z</time>
      </trkpt>
      <trkpt lat="45.85482" lon="4.81476">
        <ele>430</ele>
        <time>2014-09-14T10:06:25Z</time>
      </trkpt>
      <trkpt lat="45.8548" lon="4.81462">
        <ele>430</ele>
        <time>2014-09-14T10:06:29Z</time>
      </trkpt>
      <trkpt lat="45.85479" lon="4.81449">
        <ele>430.6</ele>
        <time>2014-09-14T10:06:33Z</time>
      </trkpt>
      <trkpt lat="45.85477" lon="4.81432">
        <ele>431.3</ele>
        <time>2014-09-14T10:06:38Z</time>
      </trkpt>
      <trkpt lat="45.85474" lon="4.81419">
        <ele>431.9</ele>
        <time>2014-09-14T10:06:42Z</time>
      </trkpt>
      <trkpt lat="45.85471" lon="4.81403">
        <ele>432.5</ele>
        <time>2014-09-14T10:06:46Z</time>
      </trkpt>
      <trkpt lat="45.85469" lon="4.81388">
        <ele>433.2</ele>
        <time>2014-09-14T10:06:51Z</time>
      </trkpt>
      <trkpt lat="45.85471" lon="4.81373">
        <ele>433.8</ele>
        <time>2014-09-14T10:06:54Z</time>
      </trkpt>
      <trkpt lat="45.85473" lon="4.81357">
        <ele>434.1</ele>
        <time>2014-09-14T10:06:57Z</time>
      </trkpt>
      <trkpt lat="45.85477" lon="4.81343">
        <ele>434.4</ele>
        <time>2014-09-14T10:07:01Z</time>
      </trkpt>
      <trkpt lat="45.85483" lon="4.81328">
        <ele>434.6</ele>
        <time>2014-09-14T10:07:05Z</time>
      </trkpt>
      <trkpt lat="45.85491" lon="4.81316">
        <ele>434.9</ele>
        <time>2014-09-14T10:07:09Z</time>
      </trkpt>
      <trkpt lat="45.85498" lon="4.81303">
        <ele>435.2</ele>
        <time>2014-09-14T10:07:13Z</time>
      </trkpt>
      <trkpt lat="45.85498" lon="4.8129">
        <ele>436.6</ele>
        <time>2014-09-14T10:07:16Z</time>
      </trkpt>
      <trkpt lat="45.85493" lon="4.81279">
        <ele>438.1</ele>
        <time>2014-09-14T10:07:19Z</time>
      </trkpt>
      <trkpt lat="45.85486" lon="4.81267">
        <ele>439.5</ele>
        <time>2014-09-14T10:07:23Z</time>
      </trkpt>
      <trkpt lat="45.85478" lon="4.81261">
        <ele>441</ele>
        <time>2014-09-14T10:07:26Z</time>
      </trkpt>
      <trkpt lat="45.85469" lon="4.81258">
        <ele>442.5</ele>
        <time>2014-09-14T10:07:30Z</time>
      </trkpt>
      <trkpt lat="45.8546" lon="4.81254">
        <ele>443.9</ele>
        <time>2014-09-14T10:07:34Z</time>
      </trkpt>
      <trkpt lat="45.85452" lon="4.81247">
        <ele>443.7</ele>
        <time>2014-09-14T10:07:38Z</time>
      </trkpt>
      <trkpt lat="45.85443" lon="4.81241">
        <ele>443.5</ele>
        <time>2014-09-14T10:07:45Z</time>
      </trkpt>
      <trkpt lat="45.85432" lon="4.81234">
        <ele>443.4</ele>
        <time>2014-09-14T10:07:48Z</time>
      </trkpt>
      <trkpt lat="45.85423" lon="4.81228">
        <ele>443.2</ele>
        <time>2014-09-14T10:07:53Z</time>
      </trkpt>
      <trkpt lat="45.85415" lon="4.8122">
        <ele>445.4</ele>
        <time>2014-09-14T10:07:58Z</time>
      </trkpt>
      <trkpt lat="45.85409" lon="4.81209">
        <ele>445.7</ele>
        <time>2014-09-14T10:08:04Z</time>
      </trkpt>
      <trkpt lat="45.85401" lon="4.81201">
        <ele>446.1</ele>
        <time>2014-09-14T10:08:10Z</time>
      </trkpt>
      <trkpt lat="45.85392" lon="4.81191">
        <ele>446.5</ele>
        <time>2014-09-14T10:08:15Z</time>
      </trkpt>
      <trkpt lat="45.85384" lon="4.81183">
        <ele>446.8</ele>
        <time>2014-09-14T10:08:19Z</time>
      </trkpt>
      <trkpt lat="45.85373" lon="4.81177">
        <ele>447.2</ele>
        <time>2014-09-14T10:08:25Z</time>
      </trkpt>
      <trkpt lat="45.85365" lon="4.81171">
        <ele>445.5</ele>
        <time>2014-09-14T10:08:29Z</time>
      </trkpt>
      <trkpt lat="45.85356" lon="4.81164">
        <ele>445.9</ele>
        <time>2014-09-14T10:08:34Z</time>
      </trkpt>
      <trkpt lat="45.85348" lon="4.81158">
        <ele>446.3</ele>
        <time>2014-09-14T10:08:39Z</time>
      </trkpt>
      <trkpt lat="45.85339" lon="4.8115">
        <ele>446.6</ele>
        <time>2014-09-14T10:08:43Z</time>
      </trkpt>
      <trkpt lat="45.85332" lon="4.81143">
        <ele>447</ele>
        <time>2014-09-14T10:08:47Z</time>
      </trkpt>
      <trkpt lat="45.85325" lon="4.81132">
        <ele>447.9</ele>
        <time>2014-09-14T10:08:53Z</time>
      </trkpt>
      <trkpt lat="45.85316" lon="4.81127">
        <ele>448.8</ele>
        <time>2014-09-14T10:08:59Z</time>
      </trkpt>
      <trkpt lat="45.85309" lon="4.81116">
        <ele>449.7</ele>
        <time>2014-09-14T10:09:06Z</time>
      </trkpt>
      <trkpt lat="45.85301" lon="4.81108">
        <ele>450.6</ele>
        <time>2014-09-14T10:09:10Z</time>
      </trkpt>
      <trkpt lat="45.85293" lon="4.81098">
        <ele>449.6</ele>
        <time>2014-09-14T10:09:15Z</time>
      </trkpt>
      <trkpt lat="45.85285" lon="4.81089">
        <ele>448.6</ele>
        <time>2014-09-14T10:09:20Z</time>
      </trkpt>
      <trkpt lat="45.85278" lon="4.81079">
        <ele>449.6</ele>
        <time>2014-09-14T10:09:25Z</time>
      </trkpt>
      <trkpt lat="45.85271" lon="4.81066">
        <ele>450.6</ele>
        <time>2014-09-14T10:09:29Z</time>
      </trkpt>
      <trkpt lat="45.85262" lon="4.81059">
        <ele>451.6</ele>
        <time>2014-09-14T10:09:33Z</time>
      </trkpt>
      <trkpt lat="45.85254" lon="4.81051">
        <ele>454.5</ele>
        <time>2014-09-14T10:09:38Z</time>
      </trkpt>
      <trkpt lat="45.85246" lon="4.81041">
        <ele>457.5</ele>
        <time>2014-09-14T10:09:44Z</time>
      </trkpt>
      <trkpt lat="45.85238" lon="4.81033">
        <ele>457.5</ele>
        <time>2014-09-14T10:09:49Z</time>
      </trkpt>
      <trkpt lat="45.85227" lon="4.81038">
        <ele>457.5</ele>
        <time>2014-09-14T10:09:54Z</time>
      </trkpt>
      <trkpt lat="45.85229" lon="4.81051">
        <ele>457.5</ele>
        <time>2014-09-14T10:10:02Z</time>
      </trkpt>
      <trkpt lat="45.85235" lon="4.81066">
        <ele>457.5</ele>
        <time>2014-09-14T10:10:08Z</time>
      </trkpt>
      <trkpt lat="45.85241" lon="4.81079">
        <ele>459.4</ele>
        <time>2014-09-14T10:10:16Z</time>
      </trkpt>
      <trkpt lat="45.85242" lon="4.81095">
        <ele>461.3</ele>
        <time>2014-09-14T10:10:23Z</time>
      </trkpt>
      <trkpt lat="45.85243" lon="4.81108">
        <ele>464.5</ele>
        <time>2014-09-14T10:10:28Z</time>
      </trkpt>
      <trkpt lat="45.85234" lon="4.81103">
        <ele>467.4</ele>
        <time>2014-09-14T10:10:45Z</time>
      </trkpt>
      <trkpt lat="45.85228" lon="4.81091">
        <ele>470.3</ele>
        <time>2014-09-14T10:10:50Z</time>
      </trkpt>
      <trkpt lat="45.85221" lon="4.81081">
        <ele>471.3</ele>
        <time>2014-09-14T10:10:56Z</time>
      </trkpt>
      <trkpt lat="45.85212" lon="4.81075">
        <ele>472.3</ele>
        <time>2014-09-14T10:11:03Z</time>
      </trkpt>
      <trkpt lat="45.85205" lon="4.81066">
        <ele>473.3</ele>
        <time>2014-09-14T10:11:12Z</time>
      </trkpt>
      <trkpt lat="45.85198" lon="4.81054">
        <ele>474.3</ele>
        <time>2014-09-14T10:11:19Z</time>
      </trkpt>
      <trkpt lat="45.85191" lon="4.81044">
        <ele>475.3</ele>
        <time>2014-09-14T10:11:25Z</time>
      </trkpt>
      <trkpt lat="45.85183" lon="4.81034">
        <ele>476.3</ele>
        <time>2014-09-14T10:11:31Z</time>
      </trkpt>
      <trkpt lat="45.85177" lon="4.81021">
        <ele>477.3</ele>
        <time>2014-09-14T10:11:37Z</time>
      </trkpt>
      <trkpt lat="45.85169" lon="4.81011">
        <ele>479</ele>
        <time>2014-09-14T10:11:41Z</time>
      </trkpt>
      <trkpt lat="45.85161" lon="4.81003">
        <ele>479.5</ele>
        <time>2014-09-14T10:11:46Z</time>
      </trkpt>
      <trkpt lat="45.85151" lon="4.80996">
        <ele>480.3</ele>
        <time>2014-09-14T10:11:52Z</time>
      </trkpt>
      <trkpt lat="45.85142" lon="4.8099">
        <ele>481.1</ele>
        <time>2014-09-14T10:12:00Z</time>
      </trkpt>
      <trkpt lat="45.85135" lon="4.80981">
        <ele>481.9</ele>
        <time>2014-09-14T10:12:05Z</time>
      </trkpt>
      <trkpt lat="45.85128" lon="4.80971">
        <ele>482.7</ele>
        <time>2014-09-14T10:12:11Z</time>
      </trkpt>
      <trkpt lat="45.85121" lon="4.80962">
        <ele>483.5</ele>
        <time>2014-09-14T10:12:16Z</time>
      </trkpt>
      <trkpt lat="45.85114" lon="4.80954">
        <ele>484.4</ele>
        <time>2014-09-14T10:12:20Z</time>
      </trkpt>
      <trkpt lat="45.85104" lon="4.80944">
        <ele>485.2</ele>
        <time>2014-09-14T10:12:25Z</time>
      </trkpt>
      <trkpt lat="45.85096" lon="4.80935">
        <ele>486</ele>
        <time>2014-09-14T10:12:29Z</time>
      </trkpt>
      <trkpt lat="45.85089" lon="4.80924">
        <ele>485.9</ele>
        <time>2014-09-14T10:12:33Z</time>
      </trkpt>
      <trkpt lat="45.8508" lon="4.80911">
        <ele>486.6</ele>
        <time>2014-09-14T10:12:39Z</time>
      </trkpt>
      <trkpt lat="45.85072" lon="4.809">
        <ele>487.4</ele>
        <time>2014-09-14T10:12:44Z</time>
      </trkpt>
      <trkpt lat="45.85065" lon="4.80891">
        <ele>488</ele>
        <time>2014-09-14T10:12:48Z</time>
      </trkpt>
      <trkpt lat="45.85059" lon="4.80881">
        <ele>488.6</ele>
        <time>2014-09-14T10:12:52Z</time>
      </trkpt>
      <trkpt lat="45.85052" lon="4.80869">
        <ele>489.3</ele>
        <time>2014-09-14T10:12:57Z</time>
      </trkpt>
      <trkpt lat="45.85046" lon="4.80858">
        <ele>489.9</ele>
        <time>2014-09-14T10:13:03Z</time>
      </trkpt>
      <trkpt lat="45.85037" lon="4.80848">
        <ele>490.1</ele>
        <time>2014-09-14T10:13:06Z</time>
      </trkpt>
      <trkpt lat="45.8503" lon="4.80835">
        <ele>490.3</ele>
        <time>2014-09-14T10:13:10Z</time>
      </trkpt>
      <trkpt lat="45.85024" lon="4.80825">
        <ele>490.5</ele>
        <time>2014-09-14T10:13:13Z</time>
      </trkpt>
      <trkpt lat="45.85017" lon="4.80813">
        <ele>490.6</ele>
        <time>2014-09-14T10:13:16Z</time>
      </trkpt>
      <trkpt lat="45.85011" lon="4.80801">
        <ele>491.7</ele>
        <time>2014-09-14T10:13:19Z</time>
      </trkpt>
      <trkpt lat="45.85007" lon="4.80787">
        <ele>490.1</ele>
        <time>2014-09-14T10:13:22Z</time>
      </trkpt>
      <trkpt lat="45.85003" lon="4.80769">
        <ele>488.5</ele>
        <time>2014-09-14T10:13:25Z</time>
      </trkpt>
      <trkpt lat="45.84998" lon="4.80752">
        <ele>486.8</ele>
        <time>2014-09-14T10:13:28Z</time>
      </trkpt>
      <trkpt lat="45.84992" lon="4.8074">
        <ele>487</ele>
        <time>2014-09-14T10:13:30Z</time>
      </trkpt>
      <trkpt lat="45.84986" lon="4.80726">
        <ele>487.2</ele>
        <time>2014-09-14T10:13:32Z</time>
      </trkpt>
      <trkpt lat="45.84979" lon="4.80711">
        <ele>487.4</ele>
        <time>2014-09-14T10:13:34Z</time>
      </trkpt>
      <trkpt lat="45.84972" lon="4.80696">
        <ele>488</ele>
        <time>2014-09-14T10:13:37Z</time>
      </trkpt>
      <trkpt lat="45.84967" lon="4.80685">
        <ele>488.6</ele>
        <time>2014-09-14T10:13:40Z</time>
      </trkpt>
      <trkpt lat="45.84957" lon="4.80677">
        <ele>489.3</ele>
        <time>2014-09-14T10:13:45Z</time>
      </trkpt>
      <trkpt lat="45.84947" lon="4.80673">
        <ele>489.9</ele>
        <time>2014-09-14T10:13:48Z</time>
      </trkpt>
      <trkpt lat="45.84937" lon="4.80667">
        <ele>490.5</ele>
        <time>2014-09-14T10:13:55Z</time>
      </trkpt>
      <trkpt lat="45.84927" lon="4.80666">
        <ele>492.1</ele>
        <time>2014-09-14T10:13:59Z</time>
      </trkpt>
      <trkpt lat="45.84914" lon="4.80665">
        <ele>493.6</ele>
        <time>2014-09-14T10:14:02Z</time>
      </trkpt>
      <trkpt lat="45.84903" lon="4.80661">
        <ele>495.2</ele>
        <time>2014-09-14T10:14:04Z</time>
      </trkpt>
      <trkpt lat="45.84893" lon="4.80658">
        <ele>494.9</ele>
        <time>2014-09-14T10:14:06Z</time>
      </trkpt>
      <trkpt lat="45.84883" lon="4.80654">
        <ele>494.6</ele>
        <time>2014-09-14T10:14:08Z</time>
      </trkpt>
      <trkpt lat="45.84872" lon="4.80649">
        <ele>494.4</ele>
        <time>2014-09-14T10:14:10Z</time>
      </trkpt>
      <trkpt lat="45.84862" lon="4.80645">
        <ele>494.1</ele>
        <time>2014-09-14T10:14:12Z</time>
      </trkpt>
      <trkpt lat="45.84852" lon="4.80641">
        <ele>493.8</ele>
        <time>2014-09-14T10:14:14Z</time>
      </trkpt>
      <trkpt lat="45.84841" lon="4.80638">
        <ele>493.3</ele>
        <time>2014-09-14T10:14:16Z</time>
      </trkpt>
      <trkpt lat="45.84831" lon="4.80637">
        <ele>492.7</ele>
        <time>2014-09-14T10:14:18Z</time>
      </trkpt>
      <trkpt lat="45.84822" lon="4.80634">
        <ele>492.2</ele>
        <time>2014-09-14T10:14:20Z</time>
      </trkpt>
      <trkpt lat="45.84813" lon="4.80632">
        <ele>491.9</ele>
        <time>2014-09-14T10:14:22Z</time>
      </trkpt>
      <trkpt lat="45.84803" lon="4.80632">
        <ele>491.6</ele>
        <time>2014-09-14T10:14:24Z</time>
      </trkpt>
      <trkpt lat="45.84791" lon="4.80632">
        <ele>491.4</ele>
        <time>2014-09-14T10:14:26Z</time>
      </trkpt>
      <trkpt lat="45.84781" lon="4.80634">
        <ele>491.1</ele>
        <time>2014-09-14T10:14:28Z</time>
      </trkpt>
      <trkpt lat="45.8477" lon="4.80635">
        <ele>490.8</ele>
        <time>2014-09-14T10:14:30Z</time>
      </trkpt>
      <trkpt lat="45.84758" lon="4.80636">
        <ele>490.6</ele>
        <time>2014-09-14T10:14:32Z</time>
      </trkpt>
      <trkpt lat="45.84748" lon="4.80639">
        <ele>490.5</ele>
        <time>2014-09-14T10:14:34Z</time>
      </trkpt>
      <trkpt lat="45.8474" lon="4.80643">
        <ele>490.3</ele>
        <time>2014-09-14T10:14:36Z</time>
      </trkpt>
      <trkpt lat="45.84727" lon="4.80647">
        <ele>490.4</ele>
        <time>2014-09-14T10:14:39Z</time>
      </trkpt>
      <trkpt lat="45.84716" lon="4.80649">
        <ele>490.5</ele>
        <time>2014-09-14T10:14:41Z</time>
      </trkpt>
      <trkpt lat="45.84704" lon="4.8065">
        <ele>490.5</ele>
        <time>2014-09-14T10:14:43Z</time>
      </trkpt>
      <trkpt lat="45.84692" lon="4.8065">
        <ele>490.6</ele>
        <time>2014-09-14T10:14:46Z</time>
      </trkpt>
      <trkpt lat="45.84681" lon="4.80651">
        <ele>490.2</ele>
        <time>2014-09-14T10:14:49Z</time>
      </trkpt>
      <trkpt lat="45.84668" lon="4.80649">
        <ele>489.7</ele>
        <time>2014-09-14T10:14:51Z</time>
      </trkpt>
      <trkpt lat="45.84656" lon="4.80646">
        <ele>489.3</ele>
        <time>2014-09-14T10:14:53Z</time>
      </trkpt>
      <trkpt lat="45.84642" lon="4.80641">
        <ele>489.6</ele>
        <time>2014-09-14T10:14:56Z</time>
      </trkpt>
      <trkpt lat="45.8463" lon="4.80641">
        <ele>489.9</ele>
        <time>2014-09-14T10:14:58Z</time>
      </trkpt>
      <trkpt lat="45.84618" lon="4.80641">
        <ele>490.2</ele>
        <time>2014-09-14T10:15:00Z</time>
      </trkpt>
      <trkpt lat="45.84608" lon="4.80639">
        <ele>490.5</ele>
        <time>2014-09-14T10:15:02Z</time>
      </trkpt>
      <trkpt lat="45.84598" lon="4.80636">
        <ele>490.7</ele>
        <time>2014-09-14T10:15:04Z</time>
      </trkpt>
      <trkpt lat="45.84591" lon="4.80625">
        <ele>491</ele>
        <time>2014-09-14T10:15:07Z</time>
      </trkpt>
      <trkpt lat="45.84587" lon="4.80608">
        <ele>491.3</ele>
        <time>2014-09-14T10:15:09Z</time>
      </trkpt>
      <trkpt lat="45.84584" lon="4.80593">
        <ele>491.5</ele>
        <time>2014-09-14T10:15:11Z</time>
      </trkpt>
      <trkpt lat="45.8458" lon="4.80579">
        <ele>492.2</ele>
        <time>2014-09-14T10:15:13Z</time>
      </trkpt>
      <trkpt lat="45.84574" lon="4.80566">
        <ele>492.9</ele>
        <time>2014-09-14T10:15:15Z</time>
      </trkpt>
      <trkpt lat="45.84561" lon="4.80559">
        <ele>493.6</ele>
        <time>2014-09-14T10:15:18Z</time>
      </trkpt>
      <trkpt lat="45.84549" lon="4.80561">
        <ele>493.5</ele>
        <time>2014-09-14T10:15:21Z</time>
      </trkpt>
      <trkpt lat="45.8454" lon="4.80567">
        <ele>493.5</ele>
        <time>2014-09-14T10:15:24Z</time>
      </trkpt>
      <trkpt lat="45.84529" lon="4.80572">
        <ele>493.4</ele>
        <time>2014-09-14T10:15:27Z</time>
      </trkpt>
      <trkpt lat="45.84518" lon="4.80578">
        <ele>493.3</ele>
        <time>2014-09-14T10:15:30Z</time>
      </trkpt>
      <trkpt lat="45.84509" lon="4.8058">
        <ele>493.5</ele>
        <time>2014-09-14T10:15:33Z</time>
      </trkpt>
      <trkpt lat="45.84498" lon="4.80583">
        <ele>493.8</ele>
        <time>2014-09-14T10:15:37Z</time>
      </trkpt>
      <trkpt lat="45.84486" lon="4.80588">
        <ele>494.1</ele>
        <time>2014-09-14T10:15:42Z</time>
      </trkpt>
      <trkpt lat="45.84477" lon="4.80591">
        <ele>494.5</ele>
        <time>2014-09-14T10:15:48Z</time>
      </trkpt>
      <trkpt lat="45.84466" lon="4.80592">
        <ele>494.8</ele>
        <time>2014-09-14T10:15:53Z</time>
      </trkpt>
      <trkpt lat="45.84456" lon="4.80592">
        <ele>495.2</ele>
        <time>2014-09-14T10:15:58Z</time>
      </trkpt>
      <trkpt lat="45.84446" lon="4.80592">
        <ele>494.5</ele>
        <time>2014-09-14T10:16:03Z</time>
      </trkpt>
      <trkpt lat="45.84437" lon="4.80591">
        <ele>493.9</ele>
        <time>2014-09-14T10:16:08Z</time>
      </trkpt>
      <trkpt lat="45.84428" lon="4.80597">
        <ele>493.3</ele>
        <time>2014-09-14T10:16:13Z</time>
      </trkpt>
      <trkpt lat="45.84421" lon="4.8061">
        <ele>492.6</ele>
        <time>2014-09-14T10:16:16Z</time>
      </trkpt>
      <trkpt lat="45.84419" lon="4.80625">
        <ele>492</ele>
        <time>2014-09-14T10:16:19Z</time>
      </trkpt>
      <trkpt lat="45.84414" lon="4.8064">
        <ele>490</ele>
        <time>2014-09-14T10:16:22Z</time>
      </trkpt>
      <trkpt lat="45.8441" lon="4.80654">
        <ele>488</ele>
        <time>2014-09-14T10:16:27Z</time>
      </trkpt>
      <trkpt lat="45.84413" lon="4.80668">
        <ele>486</ele>
        <time>2014-09-14T10:16:32Z</time>
      </trkpt>
      <trkpt lat="45.84414" lon="4.80686">
        <ele>484</ele>
        <time>2014-09-14T10:16:36Z</time>
      </trkpt>
      <trkpt lat="45.84413" lon="4.80706">
        <ele>482</ele>
        <time>2014-09-14T10:16:39Z</time>
      </trkpt>
      <trkpt lat="45.84414" lon="4.80721">
        <ele>479</ele>
        <time>2014-09-14T10:16:42Z</time>
      </trkpt>
      <trkpt lat="45.84417" lon="4.80735">
        <ele>477</ele>
        <time>2014-09-14T10:16:45Z</time>
      </trkpt>
      <trkpt lat="45.8442" lon="4.80748">
        <ele>475</ele>
        <time>2014-09-14T10:16:48Z</time>
      </trkpt>
      <trkpt lat="45.84422" lon="4.80765">
        <ele>473</ele>
        <time>2014-09-14T10:16:52Z</time>
      </trkpt>
      <trkpt lat="45.84424" lon="4.80781">
        <ele>471</ele>
        <time>2014-09-14T10:16:56Z</time>
      </trkpt>
      <trkpt lat="45.84425" lon="4.80798">
        <ele>469</ele>
        <time>2014-09-14T10:16:59Z</time>
      </trkpt>
      <trkpt lat="45.84422" lon="4.80815">
        <ele>467.5</ele>
        <time>2014-09-14T10:17:02Z</time>
      </trkpt>
      <trkpt lat="45.84418" lon="4.80829">
        <ele>465.9</ele>
        <time>2014-09-14T10:17:05Z</time>
      </trkpt>
      <trkpt lat="45.8442" lon="4.80844">
        <ele>464.4</ele>
        <time>2014-09-14T10:17:08Z</time>
      </trkpt>
      <trkpt lat="45.84414" lon="4.80859">
        <ele>462.8</ele>
        <time>2014-09-14T10:17:11Z</time>
      </trkpt>
      <trkpt lat="45.84408" lon="4.8087">
        <ele>461.3</ele>
        <time>2014-09-14T10:17:13Z</time>
      </trkpt>
      <trkpt lat="45.84402" lon="4.80884">
        <ele>460.1</ele>
        <time>2014-09-14T10:17:16Z</time>
      </trkpt>
      <trkpt lat="45.84399" lon="4.809">
        <ele>458.9</ele>
        <time>2014-09-14T10:17:18Z</time>
      </trkpt>
      <trkpt lat="45.84395" lon="4.80918">
        <ele>457.7</ele>
        <time>2014-09-14T10:17:20Z</time>
      </trkpt>
      <trkpt lat="45.84389" lon="4.80932">
        <ele>456.5</ele>
        <time>2014-09-14T10:17:22Z</time>
      </trkpt>
      <trkpt lat="45.84383" lon="4.8095">
        <ele>455.4</ele>
        <time>2014-09-14T10:17:24Z</time>
      </trkpt>
      <trkpt lat="45.84379" lon="4.80969">
        <ele>453.3</ele>
        <time>2014-09-14T10:17:26Z</time>
      </trkpt>
      <trkpt lat="45.84375" lon="4.80987">
        <ele>451.7</ele>
        <time>2014-09-14T10:17:28Z</time>
      </trkpt>
      <trkpt lat="45.8437" lon="4.81007">
        <ele>450.2</ele>
        <time>2014-09-14T10:17:30Z</time>
      </trkpt>
      <trkpt lat="45.84364" lon="4.8103">
        <ele>448.6</ele>
        <time>2014-09-14T10:17:32Z</time>
      </trkpt>
      <trkpt lat="45.84362" lon="4.81043">
        <ele>446.5</ele>
        <time>2014-09-14T10:17:33Z</time>
      </trkpt>
      <trkpt lat="45.84357" lon="4.81068">
        <ele>444.3</ele>
        <time>2014-09-14T10:17:35Z</time>
      </trkpt>
      <trkpt lat="45.84352" lon="4.81091">
        <ele>442.7</ele>
        <time>2014-09-14T10:17:38Z</time>
      </trkpt>
      <trkpt lat="45.84347" lon="4.81114">
        <ele>441.2</ele>
        <time>2014-09-14T10:17:39Z</time>
      </trkpt>
      <trkpt lat="45.84344" lon="4.81134">
        <ele>438.9</ele>
        <time>2014-09-14T10:17:41Z</time>
      </trkpt>
      <trkpt lat="45.84343" lon="4.81155">
        <ele>436.6</ele>
        <time>2014-09-14T10:17:43Z</time>
      </trkpt>
      <trkpt lat="45.84341" lon="4.81179">
        <ele>434.4</ele>
        <time>2014-09-14T10:17:45Z</time>
      </trkpt>
      <trkpt lat="45.84337" lon="4.81199">
        <ele>433</ele>
        <time>2014-09-14T10:17:47Z</time>
      </trkpt>
      <trkpt lat="45.84331" lon="4.81219">
        <ele>431.5</ele>
        <time>2014-09-14T10:17:50Z</time>
      </trkpt>
      <trkpt lat="45.84324" lon="4.81239">
        <ele>429.9</ele>
        <time>2014-09-14T10:17:51Z</time>
      </trkpt>
      <trkpt lat="45.84316" lon="4.81253">
        <ele>428.4</ele>
        <time>2014-09-14T10:17:54Z</time>
      </trkpt>
      <trkpt lat="45.84308" lon="4.81262">
        <ele>427.5</ele>
        <time>2014-09-14T10:17:55Z</time>
      </trkpt>
      <trkpt lat="45.84299" lon="4.81258">
        <ele>426.5</ele>
        <time>2014-09-14T10:17:59Z</time>
      </trkpt>
      <trkpt lat="45.8429" lon="4.81255">
        <ele>425.6</ele>
        <time>2014-09-14T10:18:02Z</time>
      </trkpt>
      <trkpt lat="45.84279" lon="4.81255">
        <ele>424.7</ele>
        <time>2014-09-14T10:18:06Z</time>
      </trkpt>
      <trkpt lat="45.8427" lon="4.81253">
        <ele>424.5</ele>
        <time>2014-09-14T10:18:10Z</time>
      </trkpt>
      <trkpt lat="45.8426" lon="4.81255">
        <ele>424.8</ele>
        <time>2014-09-14T10:18:15Z</time>
      </trkpt>
      <trkpt lat="45.84249" lon="4.81251">
        <ele>425.1</ele>
        <time>2014-09-14T10:18:19Z</time>
      </trkpt>
      <trkpt lat="45.84236" lon="4.81247">
        <ele>425.4</ele>
        <time>2014-09-14T10:18:22Z</time>
      </trkpt>
      <trkpt lat="45.84225" lon="4.81245">
        <ele>425.8</ele>
        <time>2014-09-14T10:18:25Z</time>
      </trkpt>
      <trkpt lat="45.84216" lon="4.81241">
        <ele>426.3</ele>
        <time>2014-09-14T10:18:28Z</time>
      </trkpt>
      <trkpt lat="45.84203" lon="4.8124">
        <ele>426.7</ele>
        <time>2014-09-14T10:18:32Z</time>
      </trkpt>
      <trkpt lat="45.84192" lon="4.81243">
        <ele>427.2</ele>
        <time>2014-09-14T10:18:35Z</time>
      </trkpt>
      <trkpt lat="45.84181" lon="4.81246">
        <ele>427.6</ele>
        <time>2014-09-14T10:18:39Z</time>
      </trkpt>
      <trkpt lat="45.8417" lon="4.81248">
        <ele>428.4</ele>
        <time>2014-09-14T10:18:42Z</time>
      </trkpt>
      <trkpt lat="45.84161" lon="4.81252">
        <ele>429.1</ele>
        <time>2014-09-14T10:18:45Z</time>
      </trkpt>
      <trkpt lat="45.8415" lon="4.81253">
        <ele>429.8</ele>
        <time>2014-09-14T10:18:49Z</time>
      </trkpt>
      <trkpt lat="45.84141" lon="4.81254">
        <ele>430.1</ele>
        <time>2014-09-14T10:18:53Z</time>
      </trkpt>
      <trkpt lat="45.84131" lon="4.81256">
        <ele>430.4</ele>
        <time>2014-09-14T10:18:57Z</time>
      </trkpt>
      <trkpt lat="45.84122" lon="4.8126">
        <ele>430.6</ele>
        <time>2014-09-14T10:19:02Z</time>
      </trkpt>
      <trkpt lat="45.84112" lon="4.8126">
        <ele>430.9</ele>
        <time>2014-09-14T10:19:07Z</time>
      </trkpt>
      <trkpt lat="45.84103" lon="4.81257">
        <ele>431.2</ele>
        <time>2014-09-14T10:19:11Z</time>
      </trkpt>
      <trkpt lat="45.84092" lon="4.81254">
        <ele>430.8</ele>
        <time>2014-09-14T10:19:15Z</time>
      </trkpt>
      <trkpt lat="45.84083" lon="4.8125">
        <ele>430.5</ele>
        <time>2014-09-14T10:19:18Z</time>
      </trkpt>
      <trkpt lat="45.84073" lon="4.81246">
        <ele>430.1</ele>
        <time>2014-09-14T10:19:21Z</time>
      </trkpt>
      <trkpt lat="45.84062" lon="4.81244">
        <ele>429.5</ele>
        <time>2014-09-14T10:19:25Z</time>
      </trkpt>
      <trkpt lat="45.8405" lon="4.81241">
        <ele>429.8</ele>
        <time>2014-09-14T10:19:29Z</time>
      </trkpt>
      <trkpt lat="45.8404" lon="4.81239">
        <ele>430.2</ele>
        <time>2014-09-14T10:19:33Z</time>
      </trkpt>
      <trkpt lat="45.84031" lon="4.81234">
        <ele>430.5</ele>
        <time>2014-09-14T10:19:36Z</time>
      </trkpt>
      <trkpt lat="45.8402" lon="4.81228">
        <ele>430.9</ele>
        <time>2014-09-14T10:19:40Z</time>
      </trkpt>
      <trkpt lat="45.84009" lon="4.81221">
        <ele>431.3</ele>
        <time>2014-09-14T10:19:44Z</time>
      </trkpt>
      <trkpt lat="45.84002" lon="4.81212">
        <ele>432</ele>
        <time>2014-09-14T10:19:46Z</time>
      </trkpt>
      <trkpt lat="45.83995" lon="4.81203">
        <ele>432.7</ele>
        <time>2014-09-14T10:19:48Z</time>
      </trkpt>
      <trkpt lat="45.83987" lon="4.81188">
        <ele>432.1</ele>
        <time>2014-09-14T10:19:51Z</time>
      </trkpt>
      <trkpt lat="45.8398" lon="4.81172">
        <ele>431.5</ele>
        <time>2014-09-14T10:19:54Z</time>
      </trkpt>
      <trkpt lat="45.83976" lon="4.81158">
        <ele>430.8</ele>
        <time>2014-09-14T10:19:57Z</time>
      </trkpt>
      <trkpt lat="45.83969" lon="4.81137">
        <ele>430.4</ele>
        <time>2014-09-14T10:20:00Z</time>
      </trkpt>
      <trkpt lat="45.83964" lon="4.81121">
        <ele>428.9</ele>
        <time>2014-09-14T10:20:02Z</time>
      </trkpt>
      <trkpt lat="45.83958" lon="4.81105">
        <ele>427.5</ele>
        <time>2014-09-14T10:20:03Z</time>
      </trkpt>
      <trkpt lat="45.83954" lon="4.81086">
        <ele>426</ele>
        <time>2014-09-14T10:20:05Z</time>
      </trkpt>
      <trkpt lat="45.83948" lon="4.81061">
        <ele>424.5</ele>
        <time>2014-09-14T10:20:07Z</time>
      </trkpt>
      <trkpt lat="45.83944" lon="4.81041">
        <ele>422.9</ele>
        <time>2014-09-14T10:20:09Z</time>
      </trkpt>
      <trkpt lat="45.83943" lon="4.81021">
        <ele>421</ele>
        <time>2014-09-14T10:20:11Z</time>
      </trkpt>
      <trkpt lat="45.83943" lon="4.81002">
        <ele>419.1</ele>
        <time>2014-09-14T10:20:13Z</time>
      </trkpt>
      <trkpt lat="45.83944" lon="4.80983">
        <ele>421.3</ele>
        <time>2014-09-14T10:20:17Z</time>
      </trkpt>
      <trkpt lat="45.83944" lon="4.80955">
        <ele>423.5</ele>
        <time>2014-09-14T10:20:19Z</time>
      </trkpt>
      <trkpt lat="45.8395" lon="4.80935">
        <ele>425.6</ele>
        <time>2014-09-14T10:20:21Z</time>
      </trkpt>
      <trkpt lat="45.83955" lon="4.80916">
        <ele>427</ele>
        <time>2014-09-14T10:20:26Z</time>
      </trkpt>
      <trkpt lat="45.83961" lon="4.80901">
        <ele>428.4</ele>
        <time>2014-09-14T10:20:27Z</time>
      </trkpt>
      <trkpt lat="45.83967" lon="4.80863">
        <ele>429.7</ele>
        <time>2014-09-14T10:20:29Z</time>
      </trkpt>
      <trkpt lat="45.83968" lon="4.80849">
        <ele>431.1</ele>
        <time>2014-09-14T10:20:32Z</time>
      </trkpt>
      <trkpt lat="45.83966" lon="4.80837">
        <ele>432.5</ele>
        <time>2014-09-14T10:20:36Z</time>
      </trkpt>
      <trkpt lat="45.83956" lon="4.80833">
        <ele>434</ele>
        <time>2014-09-14T10:20:38Z</time>
      </trkpt>
      <trkpt lat="45.83942" lon="4.8083">
        <ele>434.4</ele>
        <time>2014-09-14T10:20:41Z</time>
      </trkpt>
      <trkpt lat="45.83931" lon="4.80828">
        <ele>434.7</ele>
        <time>2014-09-14T10:20:43Z</time>
      </trkpt>
      <trkpt lat="45.83918" lon="4.80828">
        <ele>433</ele>
        <time>2014-09-14T10:20:45Z</time>
      </trkpt>
      <trkpt lat="45.83903" lon="4.80831">
        <ele>431.3</ele>
        <time>2014-09-14T10:20:47Z</time>
      </trkpt>
      <trkpt lat="45.83886" lon="4.80834">
        <ele>429.5</ele>
        <time>2014-09-14T10:20:49Z</time>
      </trkpt>
      <trkpt lat="45.83869" lon="4.80836">
        <ele>428.5</ele>
        <time>2014-09-14T10:20:51Z</time>
      </trkpt>
      <trkpt lat="45.83855" lon="4.80836">
        <ele>428.9</ele>
        <time>2014-09-14T10:20:53Z</time>
      </trkpt>
      <trkpt lat="45.83841" lon="4.80832">
        <ele>429.4</ele>
        <time>2014-09-14T10:20:55Z</time>
      </trkpt>
      <trkpt lat="45.83828" lon="4.80823">
        <ele>427.6</ele>
        <time>2014-09-14T10:20:57Z</time>
      </trkpt>
      <trkpt lat="45.83818" lon="4.80813">
        <ele>425.9</ele>
        <time>2014-09-14T10:20:59Z</time>
      </trkpt>
      <trkpt lat="45.8381" lon="4.80799">
        <ele>424.2</ele>
        <time>2014-09-14T10:21:01Z</time>
      </trkpt>
      <trkpt lat="45.838" lon="4.80782">
        <ele>423.5</ele>
        <time>2014-09-14T10:21:03Z</time>
      </trkpt>
      <trkpt lat="45.83793" lon="4.80768">
        <ele>423.6</ele>
        <time>2014-09-14T10:21:06Z</time>
      </trkpt>
      <trkpt lat="45.83789" lon="4.80753">
        <ele>423.7</ele>
        <time>2014-09-14T10:21:09Z</time>
      </trkpt>
      <trkpt lat="45.83784" lon="4.80743">
        <ele>423.8</ele>
        <time>2014-09-14T10:21:13Z</time>
      </trkpt>
      <trkpt lat="45.83774" lon="4.80739">
        <ele>423.9</ele>
        <time>2014-09-14T10:21:54Z</time>
      </trkpt>
      <trkpt lat="45.83774" lon="4.80739">
        <ele>424</ele>
        <time>2014-09-14T10:21:56Z</time>
      </trkpt>
      <trkpt lat="45.83736" lon="4.80677">
        <ele>425</ele>
        <time>2014-09-14T10:54:01Z</time>
      </trkpt>
      <trkpt lat="45.83752" lon="4.80712">
        <ele>425</ele>
        <time>2014-09-14T10:54:01Z</time>
      </trkpt>
      <trkpt lat="45.83742" lon="4.80705">
        <ele>425</ele>
        <time>2014-09-14T10:54:25Z</time>
      </trkpt>
      <trkpt lat="45.83732" lon="4.80704">
        <ele>425</ele>
        <time>2014-09-14T10:54:28Z</time>
      </trkpt>
      <trkpt lat="45.83728" lon="4.80688">
        <ele>426.5</ele>
        <time>2014-09-14T10:54:33Z</time>
      </trkpt>
      <trkpt lat="45.8373" lon="4.80675">
        <ele>427.7</ele>
        <time>2014-09-14T10:54:37Z</time>
      </trkpt>
      <trkpt lat="45.83728" lon="4.80662">
        <ele>429.1</ele>
        <time>2014-09-14T10:54:41Z</time>
      </trkpt>
      <trkpt lat="45.83725" lon="4.8065">
        <ele>430.5</ele>
        <time>2014-09-14T10:54:47Z</time>
      </trkpt>
      <trkpt lat="45.83722" lon="4.80636">
        <ele>432</ele>
        <time>2014-09-14T10:54:53Z</time>
      </trkpt>
      <trkpt lat="45.83722" lon="4.80622">
        <ele>433.5</ele>
        <time>2014-09-14T10:54:57Z</time>
      </trkpt>
      <trkpt lat="45.8372" lon="4.80606">
        <ele>435.7</ele>
        <time>2014-09-14T10:55:01Z</time>
      </trkpt>
      <trkpt lat="45.83716" lon="4.80591">
        <ele>437.9</ele>
        <time>2014-09-14T10:55:05Z</time>
      </trkpt>
      <trkpt lat="45.83711" lon="4.80578">
        <ele>440.1</ele>
        <time>2014-09-14T10:55:09Z</time>
      </trkpt>
      <trkpt lat="45.83706" lon="4.80564">
        <ele>443.1</ele>
        <time>2014-09-14T10:55:13Z</time>
      </trkpt>
      <trkpt lat="45.83707" lon="4.8055">
        <ele>446.1</ele>
        <time>2014-09-14T10:55:18Z</time>
      </trkpt>
      <trkpt lat="45.83718" lon="4.80548">
        <ele>447.7</ele>
        <time>2014-09-14T10:55:23Z</time>
      </trkpt>
      <trkpt lat="45.83728" lon="4.80547">
        <ele>449.4</ele>
        <time>2014-09-14T10:55:28Z</time>
      </trkpt>
      <trkpt lat="45.8372" lon="4.80539">
        <ele>451</ele>
        <time>2014-09-14T10:55:34Z</time>
      </trkpt>
      <trkpt lat="45.8371" lon="4.80538">
        <ele>452.6</ele>
        <time>2014-09-14T10:55:37Z</time>
      </trkpt>
      <trkpt lat="45.83701" lon="4.80529">
        <ele>454.9</ele>
        <time>2014-09-14T10:55:41Z</time>
      </trkpt>
      <trkpt lat="45.837" lon="4.80515">
        <ele>457.2</ele>
        <time>2014-09-14T10:55:47Z</time>
      </trkpt>
      <trkpt lat="45.83697" lon="4.80503">
        <ele>458.8</ele>
        <time>2014-09-14T10:55:52Z</time>
      </trkpt>
      <trkpt lat="45.83694" lon="4.80491">
        <ele>460.5</ele>
        <time>2014-09-14T10:55:58Z</time>
      </trkpt>
      <trkpt lat="45.83692" lon="4.80477">
        <ele>462.1</ele>
        <time>2014-09-14T10:56:05Z</time>
      </trkpt>
      <trkpt lat="45.83692" lon="4.80462">
        <ele>462.9</ele>
        <time>2014-09-14T10:56:11Z</time>
      </trkpt>
      <trkpt lat="45.83689" lon="4.80448">
        <ele>464</ele>
        <time>2014-09-14T10:56:19Z</time>
      </trkpt>
      <trkpt lat="45.83686" lon="4.80435">
        <ele>465.1</ele>
        <time>2014-09-14T10:56:27Z</time>
      </trkpt>
      <trkpt lat="45.83687" lon="4.8042">
        <ele>466.2</ele>
        <time>2014-09-14T10:56:35Z</time>
      </trkpt>
      <trkpt lat="45.83686" lon="4.80405">
        <ele>467</ele>
        <time>2014-09-14T10:56:47Z</time>
      </trkpt>
      <trkpt lat="45.83681" lon="4.80394">
        <ele>467.8</ele>
        <time>2014-09-14T10:56:58Z</time>
      </trkpt>
      <trkpt lat="45.83686" lon="4.80381">
        <ele>467.8</ele>
        <time>2014-09-14T10:57:06Z</time>
      </trkpt>
      <trkpt lat="45.83677" lon="4.80376">
        <ele>467.8</ele>
        <time>2014-09-14T10:57:28Z</time>
      </trkpt>
      <trkpt lat="45.83667" lon="4.80383">
        <ele>468.1</ele>
        <time>2014-09-14T10:57:43Z</time>
      </trkpt>
      <trkpt lat="45.8366" lon="4.80393">
        <ele>468.4</ele>
        <time>2014-09-14T10:57:48Z</time>
      </trkpt>
      <trkpt lat="45.83652" lon="4.80402">
        <ele>468.6</ele>
        <time>2014-09-14T10:57:53Z</time>
      </trkpt>
      <trkpt lat="45.83644" lon="4.80409">
        <ele>468.9</ele>
        <time>2014-09-14T10:57:57Z</time>
      </trkpt>
      <trkpt lat="45.83635" lon="4.80414">
        <ele>468.9</ele>
        <time>2014-09-14T10:58:00Z</time>
      </trkpt>
      <trkpt lat="45.83626" lon="4.80417">
        <ele>468.9</ele>
        <time>2014-09-14T10:58:02Z</time>
      </trkpt>
      <trkpt lat="45.83616" lon="4.80417">
        <ele>469.4</ele>
        <time>2014-09-14T10:58:05Z</time>
      </trkpt>
      <trkpt lat="45.83608" lon="4.80408">
        <ele>470.1</ele>
        <time>2014-09-14T10:58:08Z</time>
      </trkpt>
      <trkpt lat="45.83601" lon="4.804">
        <ele>470.8</ele>
        <time>2014-09-14T10:58:11Z</time>
      </trkpt>
      <trkpt lat="45.83593" lon="4.80393">
        <ele>471.5</ele>
        <time>2014-09-14T10:58:14Z</time>
      </trkpt>
      <trkpt lat="45.83583" lon="4.80384">
        <ele>472</ele>
        <time>2014-09-14T10:58:18Z</time>
      </trkpt>
      <trkpt lat="45.83575" lon="4.80375">
        <ele>472.2</ele>
        <time>2014-09-14T10:58:21Z</time>
      </trkpt>
      <trkpt lat="45.83568" lon="4.80366">
        <ele>472.4</ele>
        <time>2014-09-14T10:58:24Z</time>
      </trkpt>
      <trkpt lat="45.8356" lon="4.80355">
        <ele>472.5</ele>
        <time>2014-09-14T10:58:28Z</time>
      </trkpt>
      <trkpt lat="45.83552" lon="4.80346">
        <ele>473.3</ele>
        <time>2014-09-14T10:58:32Z</time>
      </trkpt>
      <trkpt lat="45.83544" lon="4.80335">
        <ele>474</ele>
        <time>2014-09-14T10:58:36Z</time>
      </trkpt>
      <trkpt lat="45.83536" lon="4.80326">
        <ele>474.7</ele>
        <time>2014-09-14T10:58:39Z</time>
      </trkpt>
      <trkpt lat="45.83527" lon="4.80316">
        <ele>475</ele>
        <time>2014-09-14T10:58:43Z</time>
      </trkpt>
      <trkpt lat="45.83519" lon="4.80306">
        <ele>475.3</ele>
        <time>2014-09-14T10:58:47Z</time>
      </trkpt>
      <trkpt lat="45.83513" lon="4.80295">
        <ele>475.5</ele>
        <time>2014-09-14T10:58:51Z</time>
      </trkpt>
      <trkpt lat="45.83509" lon="4.80281">
        <ele>476.5</ele>
        <time>2014-09-14T10:58:56Z</time>
      </trkpt>
      <trkpt lat="45.83504" lon="4.80268">
        <ele>477.6</ele>
        <time>2014-09-14T10:59:00Z</time>
      </trkpt>
      <trkpt lat="45.835" lon="4.80255">
        <ele>478.8</ele>
        <time>2014-09-14T10:59:03Z</time>
      </trkpt>
      <trkpt lat="45.83497" lon="4.80241">
        <ele>480</ele>
        <time>2014-09-14T10:59:07Z</time>
      </trkpt>
      <trkpt lat="45.83496" lon="4.80226">
        <ele>481.2</ele>
        <time>2014-09-14T10:59:12Z</time>
      </trkpt>
      <trkpt lat="45.83497" lon="4.80213">
        <ele>481.8</ele>
        <time>2014-09-14T10:59:16Z</time>
      </trkpt>
      <trkpt lat="45.83499" lon="4.80198">
        <ele>482.5</ele>
        <time>2014-09-14T10:59:19Z</time>
      </trkpt>
      <trkpt lat="45.835" lon="4.80184">
        <ele>483.6</ele>
        <time>2014-09-14T10:59:24Z</time>
      </trkpt>
      <trkpt lat="45.83502" lon="4.80171">
        <ele>484.8</ele>
        <time>2014-09-14T10:59:36Z</time>
      </trkpt>
      <trkpt lat="45.83508" lon="4.8016">
        <ele>486.5</ele>
        <time>2014-09-14T10:59:45Z</time>
      </trkpt>
      <trkpt lat="45.83518" lon="4.80152">
        <ele>488.1</ele>
        <time>2014-09-14T10:59:49Z</time>
      </trkpt>
      <trkpt lat="45.83527" lon="4.80143">
        <ele>489.1</ele>
        <time>2014-09-14T10:59:52Z</time>
      </trkpt>
      <trkpt lat="45.83533" lon="4.80132">
        <ele>490.1</ele>
        <time>2014-09-14T10:59:56Z</time>
      </trkpt>
      <trkpt lat="45.8354" lon="4.8012">
        <ele>491.1</ele>
        <time>2014-09-14T11:00:00Z</time>
      </trkpt>
      <trkpt lat="45.83546" lon="4.80108">
        <ele>492.1</ele>
        <time>2014-09-14T11:00:06Z</time>
      </trkpt>
      <trkpt lat="45.83554" lon="4.80102">
        <ele>494.5</ele>
        <time>2014-09-14T11:00:12Z</time>
      </trkpt>
      <trkpt lat="45.83559" lon="4.8009">
        <ele>497</ele>
        <time>2014-09-14T11:00:15Z</time>
      </trkpt>
      <trkpt lat="45.83567" lon="4.80077">
        <ele>499.5</ele>
        <time>2014-09-14T11:00:20Z</time>
      </trkpt>
      <trkpt lat="45.83574" lon="4.80067">
        <ele>501.4</ele>
        <time>2014-09-14T11:00:24Z</time>
      </trkpt>
      <trkpt lat="45.83582" lon="4.80063">
        <ele>503.3</ele>
        <time>2014-09-14T11:00:29Z</time>
      </trkpt>
      <trkpt lat="45.8359" lon="4.80053">
        <ele>504.5</ele>
        <time>2014-09-14T11:00:34Z</time>
      </trkpt>
      <trkpt lat="45.83598" lon="4.80042">
        <ele>505.8</ele>
        <time>2014-09-14T11:00:38Z</time>
      </trkpt>
      <trkpt lat="45.83605" lon="4.80033">
        <ele>507.1</ele>
        <time>2014-09-14T11:00:42Z</time>
      </trkpt>
      <trkpt lat="45.83613" lon="4.80026">
        <ele>508.4</ele>
        <time>2014-09-14T11:00:47Z</time>
      </trkpt>
      <trkpt lat="45.83621" lon="4.8002">
        <ele>509.6</ele>
        <time>2014-09-14T11:00:52Z</time>
      </trkpt>
      <trkpt lat="45.8363" lon="4.80015">
        <ele>510.9</ele>
        <time>2014-09-14T11:00:57Z</time>
      </trkpt>
      <trkpt lat="45.83638" lon="4.80011">
        <ele>510.7</ele>
        <time>2014-09-14T11:01:02Z</time>
      </trkpt>
      <trkpt lat="45.83648" lon="4.80007">
        <ele>510.5</ele>
        <time>2014-09-14T11:01:07Z</time>
      </trkpt>
      <trkpt lat="45.83657" lon="4.8">
        <ele>510.4</ele>
        <time>2014-09-14T11:01:13Z</time>
      </trkpt>
      <trkpt lat="45.83665" lon="4.79993">
        <ele>510.7</ele>
        <time>2014-09-14T11:01:18Z</time>
      </trkpt>
      <trkpt lat="45.83672" lon="4.79985">
        <ele>511.7</ele>
        <time>2014-09-14T11:01:23Z</time>
      </trkpt>
      <trkpt lat="45.83678" lon="4.79974">
        <ele>512.9</ele>
        <time>2014-09-14T11:01:29Z</time>
      </trkpt>
      <trkpt lat="45.83687" lon="4.79966">
        <ele>514.1</ele>
        <time>2014-09-14T11:01:37Z</time>
      </trkpt>
      <trkpt lat="45.83698" lon="4.79962">
        <ele>515.3</ele>
        <time>2014-09-14T11:01:42Z</time>
      </trkpt>
      <trkpt lat="45.83707" lon="4.79956">
        <ele>516.5</ele>
        <time>2014-09-14T11:01:46Z</time>
      </trkpt>
      <trkpt lat="45.83716" lon="4.79954">
        <ele>517.6</ele>
        <time>2014-09-14T11:01:51Z</time>
      </trkpt>
      <trkpt lat="45.83725" lon="4.79953">
        <ele>518.8</ele>
        <time>2014-09-14T11:01:57Z</time>
      </trkpt>
      <trkpt lat="45.83735" lon="4.7995">
        <ele>520</ele>
        <time>2014-09-14T11:02:01Z</time>
      </trkpt>
      <trkpt lat="45.83743" lon="4.79942">
        <ele>521.2</ele>
        <time>2014-09-14T11:02:06Z</time>
      </trkpt>
      <trkpt lat="45.83749" lon="4.79929">
        <ele>522.4</ele>
        <time>2014-09-14T11:02:10Z</time>
      </trkpt>
      <trkpt lat="45.83754" lon="4.79917">
        <ele>523</ele>
        <time>2014-09-14T11:02:14Z</time>
      </trkpt>
      <trkpt lat="45.83753" lon="4.79903">
        <ele>522.4</ele>
        <time>2014-09-14T11:02:21Z</time>
      </trkpt>
      <trkpt lat="45.83744" lon="4.79897">
        <ele>520.5</ele>
        <time>2014-09-14T11:02:23Z</time>
      </trkpt>
      <trkpt lat="45.83736" lon="4.79892">
        <ele>519.9</ele>
        <time>2014-09-14T11:02:25Z</time>
      </trkpt>
      <trkpt lat="45.83725" lon="4.79885">
        <ele>519.3</ele>
        <time>2014-09-14T11:02:28Z</time>
      </trkpt>
      <trkpt lat="45.83715" lon="4.79882">
        <ele>518.6</ele>
        <time>2014-09-14T11:02:31Z</time>
      </trkpt>
      <trkpt lat="45.83704" lon="4.79879">
        <ele>518</ele>
        <time>2014-09-14T11:02:34Z</time>
      </trkpt>
      <trkpt lat="45.83693" lon="4.79876">
        <ele>517.4</ele>
        <time>2014-09-14T11:02:37Z</time>
      </trkpt>
      <trkpt lat="45.83682" lon="4.7988">
        <ele>516.6</ele>
        <time>2014-09-14T11:02:40Z</time>
      </trkpt>
      <trkpt lat="45.83672" lon="4.79886">
        <ele>515.9</ele>
        <time>2014-09-14T11:02:43Z</time>
      </trkpt>
      <trkpt lat="45.83655" lon="4.799">
        <ele>515.2</ele>
        <time>2014-09-14T11:02:45Z</time>
      </trkpt>
      <trkpt lat="45.83642" lon="4.79909">
        <ele>514.5</ele>
        <time>2014-09-14T11:02:47Z</time>
      </trkpt>
      <trkpt lat="45.8363" lon="4.79917">
        <ele>514.4</ele>
        <time>2014-09-14T11:02:49Z</time>
      </trkpt>
      <trkpt lat="45.83618" lon="4.79924">
        <ele>515.5</ele>
        <time>2014-09-14T11:02:51Z</time>
      </trkpt>
      <trkpt lat="45.83606" lon="4.7993">
        <ele>515.4</ele>
        <time>2014-09-14T11:02:53Z</time>
      </trkpt>
      <trkpt lat="45.83595" lon="4.79937">
        <ele>514.3</ele>
        <time>2014-09-14T11:02:55Z</time>
      </trkpt>
      <trkpt lat="45.83585" lon="4.79941">
        <ele>513.2</ele>
        <time>2014-09-14T11:02:56Z</time>
      </trkpt>
      <trkpt lat="45.83572" lon="4.79947">
        <ele>512.1</ele>
        <time>2014-09-14T11:02:57Z</time>
      </trkpt>
      <trkpt lat="45.8356" lon="4.79952">
        <ele>511</ele>
        <time>2014-09-14T11:02:58Z</time>
      </trkpt>
      <trkpt lat="45.83548" lon="4.79958">
        <ele>509.6</ele>
        <time>2014-09-14T11:02:59Z</time>
      </trkpt>
      <trkpt lat="45.83532" lon="4.79966">
        <ele>508.3</ele>
        <time>2014-09-14T11:03:01Z</time>
      </trkpt>
      <trkpt lat="45.83516" lon="4.79973">
        <ele>506.9</ele>
        <time>2014-09-14T11:03:03Z</time>
      </trkpt>
      <trkpt lat="45.83504" lon="4.79979">
        <ele>505.5</ele>
        <time>2014-09-14T11:03:05Z</time>
      </trkpt>
      <trkpt lat="45.83494" lon="4.79984">
        <ele>504.3</ele>
        <time>2014-09-14T11:03:07Z</time>
      </trkpt>
      <trkpt lat="45.83457" lon="4.79983">
        <ele>503</ele>
        <time>2014-09-14T11:03:10Z</time>
      </trkpt>
      <trkpt lat="45.83418" lon="4.79975">
        <ele>501.9</ele>
        <time>2014-09-14T11:03:12Z</time>
      </trkpt>
      <trkpt lat="45.83404" lon="4.79973">
        <ele>501.8</ele>
        <time>2014-09-14T11:03:13Z</time>
      </trkpt>
      <trkpt lat="45.83394" lon="4.7997">
        <ele>501.7</ele>
        <time>2014-09-14T11:03:14Z</time>
      </trkpt>
      <trkpt lat="45.83379" lon="4.79968">
        <ele>501.6</ele>
        <time>2014-09-14T11:03:16Z</time>
      </trkpt>
      <trkpt lat="45.83297" lon="4.79975">
        <ele>501.5</ele>
        <time>2014-09-14T11:03:19Z</time>
      </trkpt>
      <trkpt lat="45.83287" lon="4.79994">
        <ele>502.1</ele>
        <time>2014-09-14T11:03:21Z</time>
      </trkpt>
      <trkpt lat="45.83278" lon="4.79996">
        <ele>502.6</ele>
        <time>2014-09-14T11:03:31Z</time>
      </trkpt>
      <trkpt lat="45.83241" lon="4.80022">
        <ele>503.2</ele>
        <time>2014-09-14T11:03:43Z</time>
      </trkpt>
      <trkpt lat="45.83221" lon="4.80037">
        <ele>503.7</ele>
        <time>2014-09-14T11:03:48Z</time>
      </trkpt>
      <trkpt lat="45.83213" lon="4.80044">
        <ele>503.5</ele>
        <time>2014-09-14T11:03:49Z</time>
      </trkpt>
      <trkpt lat="45.83199" lon="4.80056">
        <ele>503.4</ele>
        <time>2014-09-14T11:03:59Z</time>
      </trkpt>
      <trkpt lat="45.83183" lon="4.80069">
        <ele>501.7</ele>
        <time>2014-09-14T11:04:01Z</time>
      </trkpt>
      <trkpt lat="45.83174" lon="4.80083">
        <ele>500.1</ele>
        <time>2014-09-14T11:04:02Z</time>
      </trkpt>
      <trkpt lat="45.83165" lon="4.80091">
        <ele>498.5</ele>
        <time>2014-09-14T11:04:07Z</time>
      </trkpt>
      <trkpt lat="45.83117" lon="4.80205">
        <ele>496.8</ele>
        <time>2014-09-14T11:04:13Z</time>
      </trkpt>
      <trkpt lat="45.83094" lon="4.80209">
        <ele>495.2</ele>
        <time>2014-09-14T11:04:14Z</time>
      </trkpt>
      <trkpt lat="45.83077" lon="4.80226">
        <ele>493.3</ele>
        <time>2014-09-14T11:04:17Z</time>
      </trkpt>
      <trkpt lat="45.83077" lon="4.80246">
        <ele>490.7</ele>
        <time>2014-09-14T11:04:18Z</time>
      </trkpt>
      <trkpt lat="45.83072" lon="4.80258">
        <ele>488.2</ele>
        <time>2014-09-14T11:04:19Z</time>
      </trkpt>
      <trkpt lat="45.83066" lon="4.8027">
        <ele>485.6</ele>
        <time>2014-09-14T11:04:20Z</time>
      </trkpt>
      <trkpt lat="45.83058" lon="4.80281">
        <ele>483.7</ele>
        <time>2014-09-14T11:04:21Z</time>
      </trkpt>
      <trkpt lat="45.83049" lon="4.80292">
        <ele>481.8</ele>
        <time>2014-09-14T11:04:23Z</time>
      </trkpt>
      <trkpt lat="45.83038" lon="4.8031">
        <ele>481.2</ele>
        <time>2014-09-14T11:04:25Z</time>
      </trkpt>
      <trkpt lat="45.8303" lon="4.8032">
        <ele>480</ele>
        <time>2014-09-14T11:04:27Z</time>
      </trkpt>
      <trkpt lat="45.83017" lon="4.80336">
        <ele>478.3</ele>
        <time>2014-09-14T11:04:29Z</time>
      </trkpt>
      <trkpt lat="45.83011" lon="4.80345">
        <ele>475.7</ele>
        <time>2014-09-14T11:04:31Z</time>
      </trkpt>
      <trkpt lat="45.83004" lon="4.80354">
        <ele>473.2</ele>
        <time>2014-09-14T11:04:33Z</time>
      </trkpt>
      <trkpt lat="45.82998" lon="4.80363">
        <ele>470.6</ele>
        <time>2014-09-14T11:04:35Z</time>
      </trkpt>
      <trkpt lat="45.8292" lon="4.80434">
        <ele>468.7</ele>
        <time>2014-09-14T11:04:39Z</time>
      </trkpt>
      <trkpt lat="45.82878" lon="4.80459">
        <ele>466.8</ele>
        <time>2014-09-14T11:04:44Z</time>
      </trkpt>
      <trkpt lat="45.82835" lon="4.80467">
        <ele>464.1</ele>
        <time>2014-09-14T11:04:46Z</time>
      </trkpt>
      <trkpt lat="45.82823" lon="4.80468">
        <ele>461.4</ele>
        <time>2014-09-14T11:04:47Z</time>
      </trkpt>
      <trkpt lat="45.82812" lon="4.80477">
        <ele>458.6</ele>
        <time>2014-09-14T11:04:49Z</time>
      </trkpt>
      <trkpt lat="45.82807" lon="4.80488">
        <ele>455.9</ele>
        <time>2014-09-14T11:04:50Z</time>
      </trkpt>
      <trkpt lat="45.82796" lon="4.80502">
        <ele>453.7</ele>
        <time>2014-09-14T11:04:52Z</time>
      </trkpt>
      <trkpt lat="45.82785" lon="4.80515">
        <ele>452.1</ele>
        <time>2014-09-14T11:04:54Z</time>
      </trkpt>
      <trkpt lat="45.82772" lon="4.80524">
        <ele>451.3</ele>
        <time>2014-09-14T11:04:57Z</time>
      </trkpt>
      <trkpt lat="45.8276" lon="4.80528">
        <ele>449.7</ele>
        <time>2014-09-14T11:04:58Z</time>
      </trkpt>
      <trkpt lat="45.8275" lon="4.8053">
        <ele>448.2</ele>
        <time>2014-09-14T11:04:59Z</time>
      </trkpt>
      <trkpt lat="45.82735" lon="4.80532">
        <ele>446.1</ele>
        <time>2014-09-14T11:05:01Z</time>
      </trkpt>
      <trkpt lat="45.82721" lon="4.80534">
        <ele>444</ele>
        <time>2014-09-14T11:05:02Z</time>
      </trkpt>
      <trkpt lat="45.8271" lon="4.80537">
        <ele>442.7</ele>
        <time>2014-09-14T11:05:03Z</time>
      </trkpt>
      <trkpt lat="45.827" lon="4.80539">
        <ele>441.5</ele>
        <time>2014-09-14T11:05:04Z</time>
      </trkpt>
      <trkpt lat="45.82683" lon="4.80544">
        <ele>439.5</ele>
        <time>2014-09-14T11:05:06Z</time>
      </trkpt>
      <trkpt lat="45.82668" lon="4.80555">
        <ele>437.5</ele>
        <time>2014-09-14T11:05:10Z</time>
      </trkpt>
      <trkpt lat="45.82653" lon="4.80563">
        <ele>434.8</ele>
        <time>2014-09-14T11:05:12Z</time>
      </trkpt>
      <trkpt lat="45.82639" lon="4.80571">
        <ele>432.2</ele>
        <time>2014-09-14T11:05:14Z</time>
      </trkpt>
      <trkpt lat="45.82629" lon="4.80576">
        <ele>428.8</ele>
        <time>2014-09-14T11:05:16Z</time>
      </trkpt>
      <trkpt lat="45.82605" lon="4.80591">
        <ele>426.2</ele>
        <time>2014-09-14T11:05:19Z</time>
      </trkpt>
      <trkpt lat="45.82585" lon="4.8061">
        <ele>423.5</ele>
        <time>2014-09-14T11:05:22Z</time>
      </trkpt>
      <trkpt lat="45.82564" lon="4.80632">
        <ele>421.5</ele>
        <time>2014-09-14T11:05:25Z</time>
      </trkpt>
      <trkpt lat="45.82554" lon="4.80642">
        <ele>419.4</ele>
        <time>2014-09-14T11:05:27Z</time>
      </trkpt>
      <trkpt lat="45.82542" lon="4.80647">
        <ele>417.3</ele>
        <time>2014-09-14T11:05:29Z</time>
      </trkpt>
      <trkpt lat="45.82528" lon="4.80653">
        <ele>415.2</ele>
        <time>2014-09-14T11:05:31Z</time>
      </trkpt>
      <trkpt lat="45.82516" lon="4.80657">
        <ele>412.5</ele>
        <time>2014-09-14T11:05:33Z</time>
      </trkpt>
      <trkpt lat="45.82506" lon="4.80659">
        <ele>409.9</ele>
        <time>2014-09-14T11:05:35Z</time>
      </trkpt>
      <trkpt lat="45.82494" lon="4.80662">
        <ele>407.9</ele>
        <time>2014-09-14T11:05:37Z</time>
      </trkpt>
      <trkpt lat="45.82483" lon="4.80663">
        <ele>405.9</ele>
        <time>2014-09-14T11:05:39Z</time>
      </trkpt>
      <trkpt lat="45.82472" lon="4.80663">
        <ele>404.6</ele>
        <time>2014-09-14T11:05:41Z</time>
      </trkpt>
      <trkpt lat="45.82459" lon="4.80659">
        <ele>403.4</ele>
        <time>2014-09-14T11:05:43Z</time>
      </trkpt>
      <trkpt lat="45.82449" lon="4.80658">
        <ele>402.1</ele>
        <time>2014-09-14T11:05:45Z</time>
      </trkpt>
      <trkpt lat="45.82437" lon="4.80661">
        <ele>399.7</ele>
        <time>2014-09-14T11:05:48Z</time>
      </trkpt>
      <trkpt lat="45.82416" lon="4.80665">
        <ele>397.4</ele>
        <time>2014-09-14T11:05:55Z</time>
      </trkpt>
      <trkpt lat="45.82406" lon="4.80668">
        <ele>395</ele>
        <time>2014-09-14T11:05:57Z</time>
      </trkpt>
      <trkpt lat="45.82396" lon="4.80675">
        <ele>392.6</ele>
        <time>2014-09-14T11:06:00Z</time>
      </trkpt>
      <trkpt lat="45.82381" lon="4.80686">
        <ele>391.5</ele>
        <time>2014-09-14T11:06:07Z</time>
      </trkpt>
      <trkpt lat="45.8237" lon="4.80684">
        <ele>390.5</ele>
        <time>2014-09-14T11:06:12Z</time>
      </trkpt>
      <trkpt lat="45.8236" lon="4.80681">
        <ele>388.6</ele>
        <time>2014-09-14T11:06:18Z</time>
      </trkpt>
      <trkpt lat="45.82352" lon="4.80685">
        <ele>386.8</ele>
        <time>2014-09-14T11:06:22Z</time>
      </trkpt>
      <trkpt lat="45.82342" lon="4.80693">
        <ele>385</ele>
        <time>2014-09-14T11:06:26Z</time>
      </trkpt>
      <trkpt lat="45.82335" lon="4.80702">
        <ele>383.2</ele>
        <time>2014-09-14T11:06:29Z</time>
      </trkpt>
      <trkpt lat="45.82329" lon="4.80713">
        <ele>380.8</ele>
        <time>2014-09-14T11:06:32Z</time>
      </trkpt>
      <trkpt lat="45.82322" lon="4.80723">
        <ele>379.5</ele>
        <time>2014-09-14T11:06:35Z</time>
      </trkpt>
      <trkpt lat="45.82313" lon="4.80737">
        <ele>378.3</ele>
        <time>2014-09-14T11:06:39Z</time>
      </trkpt>
      <trkpt lat="45.82305" lon="4.80747">
        <ele>376.7</ele>
        <time>2014-09-14T11:06:43Z</time>
      </trkpt>
      <trkpt lat="45.82296" lon="4.80753">
        <ele>375.2</ele>
        <time>2014-09-14T11:06:46Z</time>
      </trkpt>
      <trkpt lat="45.82285" lon="4.80756">
        <ele>373.6</ele>
        <time>2014-09-14T11:06:49Z</time>
      </trkpt>
      <trkpt lat="45.82277" lon="4.80773">
        <ele>372.1</ele>
        <time>2014-09-14T11:06:53Z</time>
      </trkpt>
      <trkpt lat="45.82284" lon="4.80788">
        <ele>371.3</ele>
        <time>2014-09-14T11:06:55Z</time>
      </trkpt>
      <trkpt lat="45.82297" lon="4.80798">
        <ele>370.5</ele>
        <time>2014-09-14T11:06:56Z</time>
      </trkpt>
      <trkpt lat="45.82307" lon="4.80808">
        <ele>369.6</ele>
        <time>2014-09-14T11:06:57Z</time>
      </trkpt>
      <trkpt lat="45.82316" lon="4.80816">
        <ele>368.8</ele>
        <time>2014-09-14T11:06:58Z</time>
      </trkpt>
      <trkpt lat="45.82325" lon="4.80822">
        <ele>368.5</ele>
        <time>2014-09-14T11:06:59Z</time>
      </trkpt>
      <trkpt lat="45.82335" lon="4.80829">
        <ele>368.3</ele>
        <time>2014-09-14T11:07:00Z</time>
      </trkpt>
      <trkpt lat="45.82344" lon="4.80835">
        <ele>369.2</ele>
        <time>2014-09-14T11:07:01Z</time>
      </trkpt>
      <trkpt lat="45.82353" lon="4.80841">
        <ele>369.3</ele>
        <time>2014-09-14T11:07:02Z</time>
      </trkpt>
      <trkpt lat="45.82361" lon="4.80846">
        <ele>369.4</ele>
        <time>2014-09-14T11:07:03Z</time>
      </trkpt>
      <trkpt lat="45.8237" lon="4.80852">
        <ele>369.5</ele>
        <time>2014-09-14T11:07:04Z</time>
      </trkpt>
      <trkpt lat="45.82379" lon="4.80857">
        <ele>369.5</ele>
        <time>2014-09-14T11:07:05Z</time>
      </trkpt>
      <trkpt lat="45.82396" lon="4.80875">
        <ele>369.6</ele>
        <time>2014-09-14T11:07:07Z</time>
      </trkpt>
      <trkpt lat="45.82404" lon="4.80884">
        <ele>369.7</ele>
        <time>2014-09-14T11:07:08Z</time>
      </trkpt>
      <trkpt lat="45.82412" lon="4.80894">
        <ele>370.5</ele>
        <time>2014-09-14T11:07:09Z</time>
      </trkpt>
      <trkpt lat="45.8242" lon="4.80903">
        <ele>370.7</ele>
        <time>2014-09-14T11:07:10Z</time>
      </trkpt>
      <trkpt lat="45.82427" lon="4.80911">
        <ele>370.9</ele>
        <time>2014-09-14T11:07:11Z</time>
      </trkpt>
      <trkpt lat="45.82442" lon="4.80926">
        <ele>371.1</ele>
        <time>2014-09-14T11:07:13Z</time>
      </trkpt>
      <trkpt lat="45.82454" lon="4.80939">
        <ele>370.1</ele>
        <time>2014-09-14T11:07:15Z</time>
      </trkpt>
      <trkpt lat="45.82465" lon="4.8095">
        <ele>370.2</ele>
        <time>2014-09-14T11:07:17Z</time>
      </trkpt>
      <trkpt lat="45.82477" lon="4.8096">
        <ele>370.3</ele>
        <time>2014-09-14T11:07:19Z</time>
      </trkpt>
      <trkpt lat="45.82491" lon="4.80965">
        <ele>370.8</ele>
        <time>2014-09-14T11:07:21Z</time>
      </trkpt>
      <trkpt lat="45.82505" lon="4.80969">
        <ele>371.4</ele>
        <time>2014-09-14T11:07:23Z</time>
      </trkpt>
      <trkpt lat="45.82517" lon="4.80974">
        <ele>371.9</ele>
        <time>2014-09-14T11:07:25Z</time>
      </trkpt>
      <trkpt lat="45.82529" lon="4.80976">
        <ele>372.5</ele>
        <time>2014-09-14T11:07:27Z</time>
      </trkpt>
      <trkpt lat="45.82543" lon="4.80977">
        <ele>372.3</ele>
        <time>2014-09-14T11:07:29Z</time>
      </trkpt>
      <trkpt lat="45.82556" lon="4.80977">
        <ele>372.7</ele>
        <time>2014-09-14T11:07:31Z</time>
      </trkpt>
      <trkpt lat="45.82568" lon="4.80978">
        <ele>373.2</ele>
        <time>2014-09-14T11:07:33Z</time>
      </trkpt>
      <trkpt lat="45.82577" lon="4.80981">
        <ele>374.3</ele>
        <time>2014-09-14T11:07:35Z</time>
      </trkpt>
      <trkpt lat="45.82591" lon="4.80986">
        <ele>375.4</ele>
        <time>2014-09-14T11:07:38Z</time>
      </trkpt>
      <trkpt lat="45.82604" lon="4.8099">
        <ele>376.5</ele>
        <time>2014-09-14T11:07:41Z</time>
      </trkpt>
      <trkpt lat="45.82613" lon="4.80995">
        <ele>377.5</ele>
        <time>2014-09-14T11:07:43Z</time>
      </trkpt>
      <trkpt lat="45.82622" lon="4.81">
        <ele>378.2</ele>
        <time>2014-09-14T11:07:45Z</time>
      </trkpt>
      <trkpt lat="45.82633" lon="4.81009">
        <ele>378.8</ele>
        <time>2014-09-14T11:07:48Z</time>
      </trkpt>
      <trkpt lat="45.82642" lon="4.81013">
        <ele>379.5</ele>
        <time>2014-09-14T11:07:51Z</time>
      </trkpt>
      <trkpt lat="45.82651" lon="4.81016">
        <ele>380.1</ele>
        <time>2014-09-14T11:07:55Z</time>
      </trkpt>
      <trkpt lat="45.82666" lon="4.81018">
        <ele>380.7</ele>
        <time>2014-09-14T11:08:03Z</time>
      </trkpt>
      <trkpt lat="45.82675" lon="4.81014">
        <ele>382.1</ele>
        <time>2014-09-14T11:08:08Z</time>
      </trkpt>
      <trkpt lat="45.82686" lon="4.81015">
        <ele>384.2</ele>
        <time>2014-09-14T11:08:16Z</time>
      </trkpt>
      <trkpt lat="45.82692" lon="4.81026">
        <ele>385.6</ele>
        <time>2014-09-14T11:08:24Z</time>
      </trkpt>
      <trkpt lat="45.82697" lon="4.81038">
        <ele>387.1</ele>
        <time>2014-09-14T11:08:33Z</time>
      </trkpt>
      <trkpt lat="45.82703" lon="4.81048">
        <ele>388.5</ele>
        <time>2014-09-14T11:08:43Z</time>
      </trkpt>
      <trkpt lat="45.8271" lon="4.81057">
        <ele>390</ele>
        <time>2014-09-14T11:08:50Z</time>
      </trkpt>
      <trkpt lat="45.82719" lon="4.81068">
        <ele>391.5</ele>
        <time>2014-09-14T11:08:57Z</time>
      </trkpt>
      <trkpt lat="45.82726" lon="4.81078">
        <ele>392.9</ele>
        <time>2014-09-14T11:09:03Z</time>
      </trkpt>
      <trkpt lat="45.82732" lon="4.81089">
        <ele>394.4</ele>
        <time>2014-09-14T11:09:08Z</time>
      </trkpt>
      <trkpt lat="45.82736" lon="4.81101">
        <ele>395.8</ele>
        <time>2014-09-14T11:09:15Z</time>
      </trkpt>
      <trkpt lat="45.82743" lon="4.81111">
        <ele>398.4</ele>
        <time>2014-09-14T11:09:21Z</time>
      </trkpt>
      <trkpt lat="45.82752" lon="4.81115">
        <ele>400.2</ele>
        <time>2014-09-14T11:09:27Z</time>
      </trkpt>
      <trkpt lat="45.82761" lon="4.81121">
        <ele>401.3</ele>
        <time>2014-09-14T11:09:34Z</time>
      </trkpt>
      <trkpt lat="45.82769" lon="4.81127">
        <ele>402.4</ele>
        <time>2014-09-14T11:09:40Z</time>
      </trkpt>
      <trkpt lat="45.82786" lon="4.81135">
        <ele>403.5</ele>
        <time>2014-09-14T11:09:48Z</time>
      </trkpt>
      <trkpt lat="45.82796" lon="4.81138">
        <ele>404.5</ele>
        <time>2014-09-14T11:09:52Z</time>
      </trkpt>
      <trkpt lat="45.82809" lon="4.81143">
        <ele>405.6</ele>
        <time>2014-09-14T11:09:56Z</time>
      </trkpt>
      <trkpt lat="45.82816" lon="4.81157">
        <ele>406.9</ele>
        <time>2014-09-14T11:10:05Z</time>
      </trkpt>
      <trkpt lat="45.8281" lon="4.81169">
        <ele>408.2</ele>
        <time>2014-09-14T11:10:10Z</time>
      </trkpt>
      <trkpt lat="45.82804" lon="4.81183">
        <ele>409.5</ele>
        <time>2014-09-14T11:10:14Z</time>
      </trkpt>
      <trkpt lat="45.82802" lon="4.81198">
        <ele>410.7</ele>
        <time>2014-09-14T11:10:18Z</time>
      </trkpt>
      <trkpt lat="45.82798" lon="4.8121">
        <ele>410.9</ele>
        <time>2014-09-14T11:10:22Z</time>
      </trkpt>
      <trkpt lat="45.82795" lon="4.81224">
        <ele>411.1</ele>
        <time>2014-09-14T11:10:26Z</time>
      </trkpt>
      <trkpt lat="45.82793" lon="4.81238">
        <ele>411.7</ele>
        <time>2014-09-14T11:10:30Z</time>
      </trkpt>
      <trkpt lat="45.82788" lon="4.81257">
        <ele>412.4</ele>
        <time>2014-09-14T11:10:36Z</time>
      </trkpt>
      <trkpt lat="45.82786" lon="4.8127">
        <ele>413</ele>
        <time>2014-09-14T11:10:39Z</time>
      </trkpt>
      <trkpt lat="45.82784" lon="4.81285">
        <ele>413.6</ele>
        <time>2014-09-14T11:10:43Z</time>
      </trkpt>
      <trkpt lat="45.82783" lon="4.813">
        <ele>414.3</ele>
        <time>2014-09-14T11:10:47Z</time>
      </trkpt>
      <trkpt lat="45.82782" lon="4.81315">
        <ele>415.4</ele>
        <time>2014-09-14T11:10:51Z</time>
      </trkpt>
      <trkpt lat="45.8278" lon="4.81331">
        <ele>416.5</ele>
        <time>2014-09-14T11:10:55Z</time>
      </trkpt>
      <trkpt lat="45.82778" lon="4.81347">
        <ele>417.5</ele>
        <time>2014-09-14T11:10:59Z</time>
      </trkpt>
      <trkpt lat="45.82778" lon="4.8136">
        <ele>418.6</ele>
        <time>2014-09-14T11:11:03Z</time>
      </trkpt>
      <trkpt lat="45.82777" lon="4.81374">
        <ele>419.7</ele>
        <time>2014-09-14T11:11:08Z</time>
      </trkpt>
      <trkpt lat="45.82777" lon="4.81389">
        <ele>420.8</ele>
        <time>2014-09-14T11:11:12Z</time>
      </trkpt>
      <trkpt lat="45.82771" lon="4.81399">
        <ele>422.1</ele>
        <time>2014-09-14T11:11:22Z</time>
      </trkpt>
      <trkpt lat="45.82768" lon="4.81412">
        <ele>423.4</ele>
        <time>2014-09-14T11:11:29Z</time>
      </trkpt>
      <trkpt lat="45.82765" lon="4.81426">
        <ele>424.6</ele>
        <time>2014-09-14T11:11:35Z</time>
      </trkpt>
      <trkpt lat="45.82762" lon="4.8144">
        <ele>425.9</ele>
        <time>2014-09-14T11:11:43Z</time>
      </trkpt>
      <trkpt lat="45.82758" lon="4.81454">
        <ele>427.2</ele>
        <time>2014-09-14T11:11:48Z</time>
      </trkpt>
      <trkpt lat="45.82756" lon="4.81478">
        <ele>427.8</ele>
        <time>2014-09-14T11:11:57Z</time>
      </trkpt>
      <trkpt lat="45.82753" lon="4.81492">
        <ele>428.5</ele>
        <time>2014-09-14T11:12:03Z</time>
      </trkpt>
      <trkpt lat="45.82746" lon="4.81502">
        <ele>430</ele>
        <time>2014-09-14T11:12:19Z</time>
      </trkpt>
      <trkpt lat="45.82738" lon="4.81509">
        <ele>431.5</ele>
        <time>2014-09-14T11:12:27Z</time>
      </trkpt>
      <trkpt lat="45.82729" lon="4.81516">
        <ele>433.1</ele>
        <time>2014-09-14T11:12:35Z</time>
      </trkpt>
      <trkpt lat="45.82721" lon="4.81526">
        <ele>434.6</ele>
        <time>2014-09-14T11:12:41Z</time>
      </trkpt>
      <trkpt lat="45.82711" lon="4.8154">
        <ele>435.5</ele>
        <time>2014-09-14T11:12:46Z</time>
      </trkpt>
      <trkpt lat="45.82704" lon="4.81552">
        <ele>436.5</ele>
        <time>2014-09-14T11:12:50Z</time>
      </trkpt>
      <trkpt lat="45.827" lon="4.81565">
        <ele>437.5</ele>
        <time>2014-09-14T11:12:54Z</time>
      </trkpt>
      <trkpt lat="45.82696" lon="4.81579">
        <ele>438.5</ele>
        <time>2014-09-14T11:13:00Z</time>
      </trkpt>
      <trkpt lat="45.82693" lon="4.81593">
        <ele>439.5</ele>
        <time>2014-09-14T11:13:05Z</time>
      </trkpt>
      <trkpt lat="45.82691" lon="4.81608">
        <ele>440.5</ele>
        <time>2014-09-14T11:13:09Z</time>
      </trkpt>
      <trkpt lat="45.8269" lon="4.81623">
        <ele>441.5</ele>
        <time>2014-09-14T11:13:14Z</time>
      </trkpt>
      <trkpt lat="45.82691" lon="4.81637">
        <ele>441.5</ele>
        <time>2014-09-14T11:13:17Z</time>
      </trkpt>
      <trkpt lat="45.82692" lon="4.81649">
        <ele>442</ele>
        <time>2014-09-14T11:13:20Z</time>
      </trkpt>
      <trkpt lat="45.82693" lon="4.81664">
        <ele>442.5</ele>
        <time>2014-09-14T11:13:25Z</time>
      </trkpt>
      <trkpt lat="45.82692" lon="4.8168">
        <ele>442.9</ele>
        <time>2014-09-14T11:13:29Z</time>
      </trkpt>
      <trkpt lat="45.82692" lon="4.81694">
        <ele>443.4</ele>
        <time>2014-09-14T11:13:34Z</time>
      </trkpt>
      <trkpt lat="45.82688" lon="4.81709">
        <ele>443.8</ele>
        <time>2014-09-14T11:13:38Z</time>
      </trkpt>
      <trkpt lat="45.82685" lon="4.81722">
        <ele>444.2</ele>
        <time>2014-09-14T11:13:43Z</time>
      </trkpt>
      <trkpt lat="45.82685" lon="4.81736">
        <ele>445</ele>
        <time>2014-09-14T11:13:48Z</time>
      </trkpt>
      <trkpt lat="45.82681" lon="4.81748">
        <ele>445.8</ele>
        <time>2014-09-14T11:13:52Z</time>
      </trkpt>
      <trkpt lat="45.82678" lon="4.81763">
        <ele>446.6</ele>
        <time>2014-09-14T11:13:56Z</time>
      </trkpt>
      <trkpt lat="45.82677" lon="4.81777">
        <ele>447.5</ele>
        <time>2014-09-14T11:13:59Z</time>
      </trkpt>
      <trkpt lat="45.82677" lon="4.81791">
        <ele>448.3</ele>
        <time>2014-09-14T11:14:02Z</time>
      </trkpt>
      <trkpt lat="45.82673" lon="4.81807">
        <ele>449</ele>
        <time>2014-09-14T11:14:06Z</time>
      </trkpt>
      <trkpt lat="45.82671" lon="4.8182">
        <ele>449.7</ele>
        <time>2014-09-14T11:14:09Z</time>
      </trkpt>
      <trkpt lat="45.82667" lon="4.81836">
        <ele>450.5</ele>
        <time>2014-09-14T11:14:13Z</time>
      </trkpt>
      <trkpt lat="45.82663" lon="4.81848">
        <ele>451.2</ele>
        <time>2014-09-14T11:14:18Z</time>
      </trkpt>
      <trkpt lat="45.82659" lon="4.81861">
        <ele>451.9</ele>
        <time>2014-09-14T11:14:23Z</time>
      </trkpt>
      <trkpt lat="45.82659" lon="4.81877">
        <ele>452.5</ele>
        <time>2014-09-14T11:14:27Z</time>
      </trkpt>
      <trkpt lat="45.82657" lon="4.81894">
        <ele>452.5</ele>
        <time>2014-09-14T11:14:31Z</time>
      </trkpt>
      <trkpt lat="45.82654" lon="4.81908">
        <ele>452.6</ele>
        <time>2014-09-14T11:14:34Z</time>
      </trkpt>
      <trkpt lat="45.82648" lon="4.81922">
        <ele>452.7</ele>
        <time>2014-09-14T11:14:36Z</time>
      </trkpt>
      <trkpt lat="45.82641" lon="4.81939">
        <ele>452.8</ele>
        <time>2014-09-14T11:14:38Z</time>
      </trkpt>
      <trkpt lat="45.82636" lon="4.81961">
        <ele>452.9</ele>
        <time>2014-09-14T11:14:40Z</time>
      </trkpt>
      <trkpt lat="45.82633" lon="4.81982">
        <ele>452.2</ele>
        <time>2014-09-14T11:14:42Z</time>
      </trkpt>
      <trkpt lat="45.82631" lon="4.82002">
        <ele>451.5</ele>
        <time>2014-09-14T11:14:44Z</time>
      </trkpt>
      <trkpt lat="45.82629" lon="4.82018">
        <ele>450.7</ele>
        <time>2014-09-14T11:14:46Z</time>
      </trkpt>
      <trkpt lat="45.82629" lon="4.82034">
        <ele>450</ele>
        <time>2014-09-14T11:14:50Z</time>
      </trkpt>
      <trkpt lat="45.82633" lon="4.82049">
        <ele>449.3</ele>
        <time>2014-09-14T11:14:51Z</time>
      </trkpt>
      <trkpt lat="45.82637" lon="4.82064">
        <ele>449.4</ele>
        <time>2014-09-14T11:14:53Z</time>
      </trkpt>
      <trkpt lat="45.82641" lon="4.82083">
        <ele>449.5</ele>
        <time>2014-09-14T11:14:55Z</time>
      </trkpt>
      <trkpt lat="45.82645" lon="4.82099">
        <ele>449.5</ele>
        <time>2014-09-14T11:14:57Z</time>
      </trkpt>
      <trkpt lat="45.82649" lon="4.82113">
        <ele>449.6</ele>
        <time>2014-09-14T11:14:59Z</time>
      </trkpt>
      <trkpt lat="45.82653" lon="4.82128">
        <ele>449.7</ele>
        <time>2014-09-14T11:15:01Z</time>
      </trkpt>
      <trkpt lat="45.82656" lon="4.82141">
        <ele>449.8</ele>
        <time>2014-09-14T11:15:03Z</time>
      </trkpt>
      <trkpt lat="45.8266" lon="4.82154">
        <ele>450.6</ele>
        <time>2014-09-14T11:15:05Z</time>
      </trkpt>
      <trkpt lat="45.82664" lon="4.82168">
        <ele>451.5</ele>
        <time>2014-09-14T11:15:07Z</time>
      </trkpt>
      <trkpt lat="45.82668" lon="4.82183">
        <ele>452.3</ele>
        <time>2014-09-14T11:15:09Z</time>
      </trkpt>
      <trkpt lat="45.82674" lon="4.82195">
        <ele>453.1</ele>
        <time>2014-09-14T11:15:11Z</time>
      </trkpt>
      <trkpt lat="45.82681" lon="4.82206">
        <ele>453.3</ele>
        <time>2014-09-14T11:15:13Z</time>
      </trkpt>
      <trkpt lat="45.82689" lon="4.8222">
        <ele>452.8</ele>
        <time>2014-09-14T11:15:15Z</time>
      </trkpt>
      <trkpt lat="45.82698" lon="4.82237">
        <ele>452.4</ele>
        <time>2014-09-14T11:15:17Z</time>
      </trkpt>
      <trkpt lat="45.82703" lon="4.82252">
        <ele>451.9</ele>
        <time>2014-09-14T11:15:19Z</time>
      </trkpt>
      <trkpt lat="45.82709" lon="4.82266">
        <ele>451.5</ele>
        <time>2014-09-14T11:15:21Z</time>
      </trkpt>
      <trkpt lat="45.82716" lon="4.82281">
        <ele>450.5</ele>
        <time>2014-09-14T11:15:23Z</time>
      </trkpt>
      <trkpt lat="45.8272" lon="4.82302">
        <ele>449.5</ele>
        <time>2014-09-14T11:15:25Z</time>
      </trkpt>
      <trkpt lat="45.82725" lon="4.82324">
        <ele>448.3</ele>
        <time>2014-09-14T11:15:27Z</time>
      </trkpt>
      <trkpt lat="45.8273" lon="4.82346">
        <ele>447.1</ele>
        <time>2014-09-14T11:15:29Z</time>
      </trkpt>
      <trkpt lat="45.82734" lon="4.82366">
        <ele>445.9</ele>
        <time>2014-09-14T11:15:31Z</time>
      </trkpt>
      <trkpt lat="45.82738" lon="4.82386">
        <ele>443.8</ele>
        <time>2014-09-14T11:15:33Z</time>
      </trkpt>
      <trkpt lat="45.82742" lon="4.82404">
        <ele>442.4</ele>
        <time>2014-09-14T11:15:35Z</time>
      </trkpt>
      <trkpt lat="45.82747" lon="4.82422">
        <ele>440.9</ele>
        <time>2014-09-14T11:15:37Z</time>
      </trkpt>
      <trkpt lat="45.82751" lon="4.82441">
        <ele>439.5</ele>
        <time>2014-09-14T11:15:39Z</time>
      </trkpt>
      <trkpt lat="45.82756" lon="4.82462">
        <ele>436.7</ele>
        <time>2014-09-14T11:15:41Z</time>
      </trkpt>
      <trkpt lat="45.82761" lon="4.82484">
        <ele>434</ele>
        <time>2014-09-14T11:15:43Z</time>
      </trkpt>
      <trkpt lat="45.82765" lon="4.82505">
        <ele>431.8</ele>
        <time>2014-09-14T11:15:45Z</time>
      </trkpt>
      <trkpt lat="45.82765" lon="4.8252">
        <ele>429.6</ele>
        <time>2014-09-14T11:15:47Z</time>
      </trkpt>
      <trkpt lat="45.82764" lon="4.82537">
        <ele>426.5</ele>
        <time>2014-09-14T11:15:49Z</time>
      </trkpt>
      <trkpt lat="45.82763" lon="4.82554">
        <ele>423.3</ele>
        <time>2014-09-14T11:15:51Z</time>
      </trkpt>
      <trkpt lat="45.82765" lon="4.82574">
        <ele>420.1</ele>
        <time>2014-09-14T11:15:53Z</time>
      </trkpt>
      <trkpt lat="45.8277" lon="4.82595">
        <ele>417.8</ele>
        <time>2014-09-14T11:15:55Z</time>
      </trkpt>
      <trkpt lat="45.82777" lon="4.82615">
        <ele>415.5</ele>
        <time>2014-09-14T11:15:58Z</time>
      </trkpt>
      <trkpt lat="45.82785" lon="4.82643">
        <ele>411.6</ele>
        <time>2014-09-14T11:16:00Z</time>
      </trkpt>
      <trkpt lat="45.8279" lon="4.82662">
        <ele>407.7</ele>
        <time>2014-09-14T11:16:02Z</time>
      </trkpt>
      <trkpt lat="45.8279" lon="4.82679">
        <ele>405.1</ele>
        <time>2014-09-14T11:16:04Z</time>
      </trkpt>
      <trkpt lat="45.8279" lon="4.82697">
        <ele>402.5</ele>
        <time>2014-09-14T11:16:06Z</time>
      </trkpt>
      <trkpt lat="45.8279" lon="4.82711">
        <ele>399.8</ele>
        <time>2014-09-14T11:16:08Z</time>
      </trkpt>
      <trkpt lat="45.82788" lon="4.82728">
        <ele>398.8</ele>
        <time>2014-09-14T11:16:11Z</time>
      </trkpt>
      <trkpt lat="45.82781" lon="4.82737">
        <ele>398.8</ele>
        <time>2014-09-14T11:16:17Z</time>
      </trkpt>
      <trkpt lat="45.82772" lon="4.82735">
        <ele>398.8</ele>
        <time>2014-09-14T11:16:20Z</time>
      </trkpt>
      <trkpt lat="45.82762" lon="4.82731">
        <ele>398.8</ele>
        <time>2014-09-14T11:16:22Z</time>
      </trkpt>
      <trkpt lat="45.82751" lon="4.82722">
        <ele>396.6</ele>
        <time>2014-09-14T11:16:24Z</time>
      </trkpt>
      <trkpt lat="45.82738" lon="4.82704">
        <ele>394.5</ele>
        <time>2014-09-14T11:16:26Z</time>
      </trkpt>
      <trkpt lat="45.82731" lon="4.82694">
        <ele>393.9</ele>
        <time>2014-09-14T11:16:27Z</time>
      </trkpt>
      <trkpt lat="45.82722" lon="4.82685">
        <ele>393.4</ele>
        <time>2014-09-14T11:16:28Z</time>
      </trkpt>
      <trkpt lat="45.82711" lon="4.82677">
        <ele>392.8</ele>
        <time>2014-09-14T11:16:29Z</time>
      </trkpt>
      <trkpt lat="45.82688" lon="4.82663">
        <ele>392.3</ele>
        <time>2014-09-14T11:16:31Z</time>
      </trkpt>
      <trkpt lat="45.82676" lon="4.82657">
        <ele>390.2</ele>
        <time>2014-09-14T11:16:32Z</time>
      </trkpt>
      <trkpt lat="45.82665" lon="4.82652">
        <ele>386.5</ele>
        <time>2014-09-14T11:16:33Z</time>
      </trkpt>
      <trkpt lat="45.82652" lon="4.8265">
        <ele>382.7</ele>
        <time>2014-09-14T11:16:34Z</time>
      </trkpt>
      <trkpt lat="45.82641" lon="4.82648">
        <ele>379</ele>
        <time>2014-09-14T11:16:35Z</time>
      </trkpt>
      <trkpt lat="45.82629" lon="4.82646">
        <ele>375.3</ele>
        <time>2014-09-14T11:16:36Z</time>
      </trkpt>
      <trkpt lat="45.82618" lon="4.82645">
        <ele>373.7</ele>
        <time>2014-09-14T11:16:37Z</time>
      </trkpt>
      <trkpt lat="45.82607" lon="4.82644">
        <ele>371.6</ele>
        <time>2014-09-14T11:16:38Z</time>
      </trkpt>
      <trkpt lat="45.82596" lon="4.82644">
        <ele>369.5</ele>
        <time>2014-09-14T11:16:39Z</time>
      </trkpt>
      <trkpt lat="45.82574" lon="4.82649">
        <ele>367.5</ele>
        <time>2014-09-14T11:16:41Z</time>
      </trkpt>
      <trkpt lat="45.82564" lon="4.82653">
        <ele>365.4</ele>
        <time>2014-09-14T11:16:42Z</time>
      </trkpt>
      <trkpt lat="45.82553" lon="4.8266">
        <ele>361.9</ele>
        <time>2014-09-14T11:16:43Z</time>
      </trkpt>
      <trkpt lat="45.8254" lon="4.82668">
        <ele>360</ele>
        <time>2014-09-14T11:16:44Z</time>
      </trkpt>
      <trkpt lat="45.82522" lon="4.82682">
        <ele>358.1</ele>
        <time>2014-09-14T11:16:46Z</time>
      </trkpt>
      <trkpt lat="45.82513" lon="4.82685">
        <ele>356.4</ele>
        <time>2014-09-14T11:16:47Z</time>
      </trkpt>
      <trkpt lat="45.82511" lon="4.82699">
        <ele>354.6</ele>
        <time>2014-09-14T11:16:50Z</time>
      </trkpt>
      <trkpt lat="45.82521" lon="4.82714">
        <ele>352.9</ele>
        <time>2014-09-14T11:16:52Z</time>
      </trkpt>
      <trkpt lat="45.82534" lon="4.82726">
        <ele>351.2</ele>
        <time>2014-09-14T11:16:54Z</time>
      </trkpt>
      <trkpt lat="45.82544" lon="4.82736">
        <ele>350</ele>
        <time>2014-09-14T11:16:56Z</time>
      </trkpt>
      <trkpt lat="45.82556" lon="4.82741">
        <ele>348.8</ele>
        <time>2014-09-14T11:16:59Z</time>
      </trkpt>
      <trkpt lat="45.82565" lon="4.82742">
        <ele>347.6</ele>
        <time>2014-09-14T11:17:01Z</time>
      </trkpt>
      <trkpt lat="45.82576" lon="4.82743">
        <ele>346.5</ele>
        <time>2014-09-14T11:17:03Z</time>
      </trkpt>
      <trkpt lat="45.82585" lon="4.82749">
        <ele>347</ele>
        <time>2014-09-14T11:17:05Z</time>
      </trkpt>
      <trkpt lat="45.82593" lon="4.82755">
        <ele>347.5</ele>
        <time>2014-09-14T11:17:07Z</time>
      </trkpt>
      <trkpt lat="45.82604" lon="4.82763">
        <ele>348.1</ele>
        <time>2014-09-14T11:17:11Z</time>
      </trkpt>
      <trkpt lat="45.82613" lon="4.82775">
        <ele>348.5</ele>
        <time>2014-09-14T11:17:13Z</time>
      </trkpt>
      <trkpt lat="45.82621" lon="4.82791">
        <ele>348.8</ele>
        <time>2014-09-14T11:17:15Z</time>
      </trkpt>
      <trkpt lat="45.82629" lon="4.82804">
        <ele>349.2</ele>
        <time>2014-09-14T11:17:17Z</time>
      </trkpt>
      <trkpt lat="45.82637" lon="4.82815">
        <ele>349.5</ele>
        <time>2014-09-14T11:17:19Z</time>
      </trkpt>
      <trkpt lat="45.8265" lon="4.82827">
        <ele>348.7</ele>
        <time>2014-09-14T11:17:23Z</time>
      </trkpt>
      <trkpt lat="45.8266" lon="4.8284">
        <ele>347.9</ele>
        <time>2014-09-14T11:17:26Z</time>
      </trkpt>
      <trkpt lat="45.82668" lon="4.82852">
        <ele>348.1</ele>
        <time>2014-09-14T11:17:28Z</time>
      </trkpt>
      <trkpt lat="45.82675" lon="4.82862">
        <ele>348.3</ele>
        <time>2014-09-14T11:17:30Z</time>
      </trkpt>
      <trkpt lat="45.82683" lon="4.82869">
        <ele>348.1</ele>
        <time>2014-09-14T11:17:32Z</time>
      </trkpt>
      <trkpt lat="45.82691" lon="4.82881">
        <ele>347.9</ele>
        <time>2014-09-14T11:17:35Z</time>
      </trkpt>
      <trkpt lat="45.827" lon="4.82889">
        <ele>347.7</ele>
        <time>2014-09-14T11:17:37Z</time>
      </trkpt>
      <trkpt lat="45.82711" lon="4.82898">
        <ele>347.5</ele>
        <time>2014-09-14T11:17:39Z</time>
      </trkpt>
      <trkpt lat="45.82723" lon="4.82905">
        <ele>347.4</ele>
        <time>2014-09-14T11:17:41Z</time>
      </trkpt>
      <trkpt lat="45.82737" lon="4.8291">
        <ele>347.2</ele>
        <time>2014-09-14T11:17:43Z</time>
      </trkpt>
      <trkpt lat="45.82749" lon="4.82918">
        <ele>347</ele>
        <time>2014-09-14T11:17:45Z</time>
      </trkpt>
      <trkpt lat="45.82763" lon="4.82922">
        <ele>348</ele>
        <time>2014-09-14T11:17:47Z</time>
      </trkpt>
      <trkpt lat="45.82777" lon="4.82926">
        <ele>349</ele>
        <time>2014-09-14T11:17:49Z</time>
      </trkpt>
      <trkpt lat="45.82792" lon="4.82926">
        <ele>349</ele>
        <time>2014-09-14T11:17:51Z</time>
      </trkpt>
      <trkpt lat="45.8281" lon="4.82926">
        <ele>349</ele>
        <time>2014-09-14T11:17:53Z</time>
      </trkpt>
      <trkpt lat="45.82819" lon="4.82925">
        <ele>347.9</ele>
        <time>2014-09-14T11:17:54Z</time>
      </trkpt>
      <trkpt lat="45.82829" lon="4.82924">
        <ele>346.8</ele>
        <time>2014-09-14T11:17:55Z</time>
      </trkpt>
      <trkpt lat="45.82839" lon="4.82922">
        <ele>345.7</ele>
        <time>2014-09-14T11:17:56Z</time>
      </trkpt>
      <trkpt lat="45.82849" lon="4.8292">
        <ele>346.7</ele>
        <time>2014-09-14T11:17:57Z</time>
      </trkpt>
      <trkpt lat="45.82873" lon="4.82913">
        <ele>347.7</ele>
        <time>2014-09-14T11:17:59Z</time>
      </trkpt>
      <trkpt lat="45.82886" lon="4.82907">
        <ele>348.7</ele>
        <time>2014-09-14T11:18:00Z</time>
      </trkpt>
      <trkpt lat="45.829" lon="4.829">
        <ele>347.7</ele>
        <time>2014-09-14T11:18:01Z</time>
      </trkpt>
      <trkpt lat="45.82923" lon="4.82884">
        <ele>346.7</ele>
        <time>2014-09-14T11:18:03Z</time>
      </trkpt>
      <trkpt lat="45.82931" lon="4.82875">
        <ele>345.7</ele>
        <time>2014-09-14T11:18:04Z</time>
      </trkpt>
      <trkpt lat="45.82946" lon="4.82861">
        <ele>344.7</ele>
        <time>2014-09-14T11:18:06Z</time>
      </trkpt>
      <trkpt lat="45.8296" lon="4.82848">
        <ele>343.7</ele>
        <time>2014-09-14T11:18:08Z</time>
      </trkpt>
      <trkpt lat="45.82976" lon="4.82834">
        <ele>343.8</ele>
        <time>2014-09-14T11:18:12Z</time>
      </trkpt>
      <trkpt lat="45.82985" lon="4.82827">
        <ele>343.9</ele>
        <time>2014-09-14T11:18:21Z</time>
      </trkpt>
      <trkpt lat="45.82996" lon="4.8283">
        <ele>341.8</ele>
        <time>2014-09-14T11:18:26Z</time>
      </trkpt>
      <trkpt lat="45.83004" lon="4.82835">
        <ele>337.6</ele>
        <time>2014-09-14T11:18:31Z</time>
      </trkpt>
      <trkpt lat="45.83015" lon="4.82839">
        <ele>333.5</ele>
        <time>2014-09-14T11:18:35Z</time>
      </trkpt>
      <trkpt lat="45.83025" lon="4.82843">
        <ele>328.5</ele>
        <time>2014-09-14T11:18:46Z</time>
      </trkpt>
      <trkpt lat="45.83034" lon="4.82844">
        <ele>325.6</ele>
        <time>2014-09-14T11:18:53Z</time>
      </trkpt>
      <trkpt lat="45.83046" lon="4.82847">
        <ele>322.7</ele>
        <time>2014-09-14T11:19:00Z</time>
      </trkpt>
      <trkpt lat="45.8306" lon="4.8286">
        <ele>319.8</ele>
        <time>2014-09-14T11:19:13Z</time>
      </trkpt>
      <trkpt lat="45.83065" lon="4.82873">
        <ele>316.9</ele>
        <time>2014-09-14T11:19:17Z</time>
      </trkpt>
      <trkpt lat="45.83067" lon="4.82889">
        <ele>314</ele>
        <time>2014-09-14T11:19:20Z</time>
      </trkpt>
      <trkpt lat="45.83068" lon="4.82902">
        <ele>311.1</ele>
        <time>2014-09-14T11:19:22Z</time>
      </trkpt>
      <trkpt lat="45.83069" lon="4.82922">
        <ele>308.2</ele>
        <time>2014-09-14T11:19:24Z</time>
      </trkpt>
      <trkpt lat="45.83066" lon="4.82946">
        <ele>308.6</ele>
        <time>2014-09-14T11:19:26Z</time>
      </trkpt>
      <trkpt lat="45.83062" lon="4.82962">
        <ele>309.1</ele>
        <time>2014-09-14T11:19:27Z</time>
      </trkpt>
      <trkpt lat="45.83058" lon="4.82977">
        <ele>309.2</ele>
        <time>2014-09-14T11:19:28Z</time>
      </trkpt>
      <trkpt lat="45.83053" lon="4.82993">
        <ele>310</ele>
        <time>2014-09-14T11:19:29Z</time>
      </trkpt>
      <trkpt lat="45.83046" lon="4.8301">
        <ele>310.8</ele>
        <time>2014-09-14T11:19:30Z</time>
      </trkpt>
      <trkpt lat="45.83041" lon="4.83024">
        <ele>311.6</ele>
        <time>2014-09-14T11:19:31Z</time>
      </trkpt>
      <trkpt lat="45.83036" lon="4.83035">
        <ele>312.5</ele>
        <time>2014-09-14T11:19:32Z</time>
      </trkpt>
      <trkpt lat="45.83029" lon="4.83057">
        <ele>312.5</ele>
        <time>2014-09-14T11:19:34Z</time>
      </trkpt>
      <trkpt lat="45.83024" lon="4.83078">
        <ele>312.5</ele>
        <time>2014-09-14T11:19:36Z</time>
      </trkpt>
      <trkpt lat="45.83019" lon="4.83091">
        <ele>312.5</ele>
        <time>2014-09-14T11:19:38Z</time>
      </trkpt>
      <trkpt lat="45.83029" lon="4.83099">
        <ele>312.5</ele>
        <time>2014-09-14T11:19:43Z</time>
      </trkpt>
      <trkpt lat="45.83041" lon="4.83099">
        <ele>311.3</ele>
        <time>2014-09-14T11:19:45Z</time>
      </trkpt>
      <trkpt lat="45.83051" lon="4.83101">
        <ele>310.1</ele>
        <time>2014-09-14T11:19:46Z</time>
      </trkpt>
      <trkpt lat="45.8306" lon="4.83103">
        <ele>309.3</ele>
        <time>2014-09-14T11:19:47Z</time>
      </trkpt>
      <trkpt lat="45.83071" lon="4.83104">
        <ele>307.7</ele>
        <time>2014-09-14T11:19:48Z</time>
      </trkpt>
      <trkpt lat="45.83083" lon="4.83105">
        <ele>306.2</ele>
        <time>2014-09-14T11:19:49Z</time>
      </trkpt>
      <trkpt lat="45.83099" lon="4.83103">
        <ele>303.9</ele>
        <time>2014-09-14T11:19:51Z</time>
      </trkpt>
      <trkpt lat="45.83109" lon="4.83099">
        <ele>301.6</ele>
        <time>2014-09-14T11:19:52Z</time>
      </trkpt>
      <trkpt lat="45.83118" lon="4.83092">
        <ele>300.2</ele>
        <time>2014-09-14T11:19:54Z</time>
      </trkpt>
      <trkpt lat="45.8313" lon="4.83075">
        <ele>298.7</ele>
        <time>2014-09-14T11:19:57Z</time>
      </trkpt>
      <trkpt lat="45.83134" lon="4.83056">
        <ele>297.3</ele>
        <time>2014-09-14T11:19:59Z</time>
      </trkpt>
      <trkpt lat="45.83137" lon="4.8304">
        <ele>295.8</ele>
        <time>2014-09-14T11:20:01Z</time>
      </trkpt>
      <trkpt lat="45.83142" lon="4.83015">
        <ele>294.5</ele>
        <time>2014-09-14T11:20:03Z</time>
      </trkpt>
      <trkpt lat="45.83147" lon="4.83001">
        <ele>293.3</ele>
        <time>2014-09-14T11:20:04Z</time>
      </trkpt>
      <trkpt lat="45.83154" lon="4.82988">
        <ele>292</ele>
        <time>2014-09-14T11:20:05Z</time>
      </trkpt>
      <trkpt lat="45.83162" lon="4.82975">
        <ele>291.5</ele>
        <time>2014-09-14T11:20:06Z</time>
      </trkpt>
      <trkpt lat="45.83169" lon="4.8296">
        <ele>290.9</ele>
        <time>2014-09-14T11:20:07Z</time>
      </trkpt>
      <trkpt lat="45.83176" lon="4.82946">
        <ele>291.5</ele>
        <time>2014-09-14T11:20:08Z</time>
      </trkpt>
      <trkpt lat="45.83184" lon="4.82929">
        <ele>290.9</ele>
        <time>2014-09-14T11:20:09Z</time>
      </trkpt>
      <trkpt lat="45.83191" lon="4.82915">
        <ele>290.3</ele>
        <time>2014-09-14T11:20:10Z</time>
      </trkpt>
      <trkpt lat="45.83197" lon="4.82902">
        <ele>289.6</ele>
        <time>2014-09-14T11:20:11Z</time>
      </trkpt>
      <trkpt lat="45.83203" lon="4.82888">
        <ele>289.2</ele>
        <time>2014-09-14T11:20:12Z</time>
      </trkpt>
      <trkpt lat="45.83208" lon="4.82875">
        <ele>288.7</ele>
        <time>2014-09-14T11:20:13Z</time>
      </trkpt>
      <trkpt lat="45.83216" lon="4.82856">
        <ele>288.1</ele>
        <time>2014-09-14T11:20:15Z</time>
      </trkpt>
      <trkpt lat="45.83219" lon="4.8284">
        <ele>287.5</ele>
        <time>2014-09-14T11:20:18Z</time>
      </trkpt>
      <trkpt lat="45.8322" lon="4.82808">
        <ele>287.3</ele>
        <time>2014-09-14T11:20:22Z</time>
      </trkpt>
      <trkpt lat="45.83223" lon="4.82785">
        <ele>287.1</ele>
        <time>2014-09-14T11:20:24Z</time>
      </trkpt>
      <trkpt lat="45.83224" lon="4.82769">
        <ele>286.9</ele>
        <time>2014-09-14T11:20:26Z</time>
      </trkpt>
      <trkpt lat="45.83226" lon="4.82753">
        <ele>286.3</ele>
        <time>2014-09-14T11:20:28Z</time>
      </trkpt>
      <trkpt lat="45.83231" lon="4.82724">
        <ele>286.9</ele>
        <time>2014-09-14T11:20:32Z</time>
      </trkpt>
      <trkpt lat="45.83239" lon="4.82705">
        <ele>288.5</ele>
        <time>2014-09-14T11:20:34Z</time>
      </trkpt>
      <trkpt lat="45.83246" lon="4.82689">
        <ele>290</ele>
        <time>2014-09-14T11:20:36Z</time>
      </trkpt>
      <trkpt lat="45.83257" lon="4.82676">
        <ele>291.4</ele>
        <time>2014-09-14T11:20:38Z</time>
      </trkpt>
      <trkpt lat="45.83268" lon="4.8266">
        <ele>292.7</ele>
        <time>2014-09-14T11:20:40Z</time>
      </trkpt>
      <trkpt lat="45.83276" lon="4.82644">
        <ele>294.1</ele>
        <time>2014-09-14T11:20:42Z</time>
      </trkpt>
      <trkpt lat="45.83282" lon="4.82629">
        <ele>295.5</ele>
        <time>2014-09-14T11:20:44Z</time>
      </trkpt>
      <trkpt lat="45.83284" lon="4.82613">
        <ele>297.1</ele>
        <time>2014-09-14T11:20:46Z</time>
      </trkpt>
      <trkpt lat="45.83286" lon="4.82597">
        <ele>298.7</ele>
        <time>2014-09-14T11:20:48Z</time>
      </trkpt>
      <trkpt lat="45.83286" lon="4.82584">
        <ele>298.1</ele>
        <time>2014-09-14T11:20:50Z</time>
      </trkpt>
      <trkpt lat="45.83286" lon="4.82569">
        <ele>297.5</ele>
        <time>2014-09-14T11:20:52Z</time>
      </trkpt>
      <trkpt lat="45.83285" lon="4.82555">
        <ele>296.8</ele>
        <time>2014-09-14T11:20:54Z</time>
      </trkpt>
      <trkpt lat="45.83286" lon="4.82538">
        <ele>296</ele>
        <time>2014-09-14T11:20:56Z</time>
      </trkpt>
      <trkpt lat="45.83291" lon="4.82522">
        <ele>295.2</ele>
        <time>2014-09-14T11:20:58Z</time>
      </trkpt>
      <trkpt lat="45.83297" lon="4.82506">
        <ele>294.4</ele>
        <time>2014-09-14T11:21:00Z</time>
      </trkpt>
      <trkpt lat="45.83303" lon="4.8249">
        <ele>293.5</ele>
        <time>2014-09-14T11:21:02Z</time>
      </trkpt>
      <trkpt lat="45.83309" lon="4.82474">
        <ele>292.7</ele>
        <time>2014-09-14T11:21:04Z</time>
      </trkpt>
      <trkpt lat="45.83317" lon="4.82457">
        <ele>292.3</ele>
        <time>2014-09-14T11:21:06Z</time>
      </trkpt>
      <trkpt lat="45.83322" lon="4.8244">
        <ele>291.1</ele>
        <time>2014-09-14T11:21:08Z</time>
      </trkpt>
      <trkpt lat="45.83327" lon="4.82423">
        <ele>289.9</ele>
        <time>2014-09-14T11:21:10Z</time>
      </trkpt>
      <trkpt lat="45.83331" lon="4.82406">
        <ele>291</ele>
        <time>2014-09-14T11:21:12Z</time>
      </trkpt>
      <trkpt lat="45.83334" lon="4.82389">
        <ele>290.9</ele>
        <time>2014-09-14T11:21:14Z</time>
      </trkpt>
      <trkpt lat="45.83339" lon="4.82374">
        <ele>290.8</ele>
        <time>2014-09-14T11:21:16Z</time>
      </trkpt>
      <trkpt lat="45.83344" lon="4.82359">
        <ele>290</ele>
        <time>2014-09-14T11:21:18Z</time>
      </trkpt>
      <trkpt lat="45.83348" lon="4.82342">
        <ele>287.2</ele>
        <time>2014-09-14T11:21:20Z</time>
      </trkpt>
      <trkpt lat="45.83351" lon="4.82312">
        <ele>284.4</ele>
        <time>2014-09-14T11:21:24Z</time>
      </trkpt>
      <trkpt lat="45.83352" lon="4.82291">
        <ele>281.5</ele>
        <time>2014-09-14T11:21:26Z</time>
      </trkpt>
      <trkpt lat="45.83351" lon="4.82272">
        <ele>278.7</ele>
        <time>2014-09-14T11:21:28Z</time>
      </trkpt>
      <trkpt lat="45.8335" lon="4.8225">
        <ele>275.5</ele>
        <time>2014-09-14T11:21:30Z</time>
      </trkpt>
      <trkpt lat="45.83346" lon="4.82217">
        <ele>272.4</ele>
        <time>2014-09-14T11:21:34Z</time>
      </trkpt>
      <trkpt lat="45.83342" lon="4.82199">
        <ele>269.2</ele>
        <time>2014-09-14T11:21:36Z</time>
      </trkpt>
      <trkpt lat="45.83338" lon="4.82183">
        <ele>266</ele>
        <time>2014-09-14T11:21:38Z</time>
      </trkpt>
      <trkpt lat="45.83335" lon="4.82168">
        <ele>268.8</ele>
        <time>2014-09-14T11:21:40Z</time>
      </trkpt>
      <trkpt lat="45.83332" lon="4.82153">
        <ele>271.6</ele>
        <time>2014-09-14T11:21:42Z</time>
      </trkpt>
      <trkpt lat="45.83329" lon="4.82139">
        <ele>274.5</ele>
        <time>2014-09-14T11:21:47Z</time>
      </trkpt>
      <trkpt lat="45.83338" lon="4.82161">
        <ele>276.5</ele>
        <time>2014-09-14T11:22:00Z</time>
      </trkpt>
      <trkpt lat="45.83345" lon="4.82177">
        <ele>276.5</ele>
        <time>2014-09-14T11:22:02Z</time>
      </trkpt>
      <trkpt lat="45.83253" lon="4.82225">
        <ele>276.5</ele>
        <time>2014-09-14T11:22:15Z</time>
      </trkpt>
      <trkpt lat="45.83276" lon="4.82233">
        <ele>276.5</ele>
        <time>2014-09-14T11:22:18Z</time>
      </trkpt>
      <trkpt lat="45.83288" lon="4.82228">
        <ele>276.5</ele>
        <time>2014-09-14T11:22:19Z</time>
      </trkpt>
      <trkpt lat="45.83299" lon="4.82223">
        <ele>276.5</ele>
        <time>2014-09-14T11:22:21Z</time>
      </trkpt>
      <trkpt lat="45.83308" lon="4.82214">
        <ele>276.5</ele>
        <time>2014-09-14T11:22:25Z</time>
      </trkpt>
      <trkpt lat="45.8332" lon="4.82212">
        <ele>276.5</ele>
        <time>2014-09-14T11:22:29Z</time>
      </trkpt>
      <trkpt lat="45.8333" lon="4.82207">
        <ele>271.6</ele>
        <time>2014-09-14T11:22:32Z</time>
      </trkpt>
      <trkpt lat="45.8334" lon="4.82197">
        <ele>264.8</ele>
        <time>2014-09-14T11:22:38Z</time>
      </trkpt>
      <trkpt lat="45.83348" lon="4.8219">
        <ele>257.5</ele>
        <time>2014-09-14T11:22:40Z</time>
      </trkpt>
      <trkpt lat="45.83356" lon="4.82183">
        <ele>253.1</ele>
        <time>2014-09-14T11:22:42Z</time>
      </trkpt>
      <trkpt lat="45.83364" lon="4.82173">
        <ele>250.6</ele>
        <time>2014-09-14T11:22:45Z</time>
      </trkpt>
      <trkpt lat="45.83372" lon="4.82166">
        <ele>248.2</ele>
        <time>2014-09-14T11:22:48Z</time>
      </trkpt>
      <trkpt lat="45.83385" lon="4.8215">
        <ele>245.7</ele>
        <time>2014-09-14T11:22:55Z</time>
      </trkpt>
      <trkpt lat="45.83387" lon="4.8213">
        <ele>243.3</ele>
        <time>2014-09-14T11:22:59Z</time>
      </trkpt>
      <trkpt lat="45.8339" lon="4.8211">
        <ele>241.6</ele>
        <time>2014-09-14T11:23:03Z</time>
      </trkpt>
      <trkpt lat="45.83392" lon="4.82097">
        <ele>240</ele>
        <time>2014-09-14T11:23:07Z</time>
      </trkpt>
      <trkpt lat="45.83401" lon="4.82087">
        <ele>238.4</ele>
        <time>2014-09-14T11:23:11Z</time>
      </trkpt>
      <trkpt lat="45.8341" lon="4.8208">
        <ele>236.7</ele>
        <time>2014-09-14T11:23:13Z</time>
      </trkpt>
      <trkpt lat="45.83419" lon="4.82063">
        <ele>237.1</ele>
        <time>2014-09-14T11:23:27Z</time>
      </trkpt>
      <trkpt lat="45.83419" lon="4.82049">
        <ele>237.9</ele>
        <time>2014-09-14T11:23:32Z</time>
      </trkpt>
      <trkpt lat="45.83418" lon="4.82036">
        <ele>238.7</ele>
        <time>2014-09-14T11:23:39Z</time>
      </trkpt>
      <trkpt lat="45.83417" lon="4.82023">
        <ele>239.5</ele>
        <time>2014-09-14T11:23:46Z</time>
      </trkpt>
      <trkpt lat="45.83416" lon="4.8201">
        <ele>241.7</ele>
        <time>2014-09-14T11:23:53Z</time>
      </trkpt>
      <trkpt lat="45.83412" lon="4.81999">
        <ele>243.9</ele>
        <time>2014-09-14T11:24:05Z</time>
      </trkpt>
      <trkpt lat="45.83403" lon="4.81989">
        <ele>246.1</ele>
        <time>2014-09-14T11:24:22Z</time>
      </trkpt>
      <trkpt lat="45.83402" lon="4.81975">
        <ele>247.5</ele>
        <time>2014-09-14T11:24:33Z</time>
      </trkpt>
      <trkpt lat="45.834" lon="4.8196">
        <ele>248.8</ele>
        <time>2014-09-14T11:24:43Z</time>
      </trkpt>
      <trkpt lat="45.83398" lon="4.81946">
        <ele>251.9</ele>
        <time>2014-09-14T11:24:51Z</time>
      </trkpt>
      <trkpt lat="45.83395" lon="4.81933">
        <ele>255</ele>
        <time>2014-09-14T11:24:59Z</time>
      </trkpt>
      <trkpt lat="45.83388" lon="4.81911">
        <ele>258.1</ele>
        <time>2014-09-14T11:25:21Z</time>
      </trkpt>
      <trkpt lat="45.83383" lon="4.81899">
        <ele>261.2</ele>
        <time>2014-09-14T11:25:32Z</time>
      </trkpt>
      <trkpt lat="45.83382" lon="4.81886">
        <ele>264.3</ele>
        <time>2014-09-14T11:25:50Z</time>
      </trkpt>
      <trkpt lat="45.83386" lon="4.81873">
        <ele>267.4</ele>
        <time>2014-09-14T11:26:04Z</time>
      </trkpt>
      <trkpt lat="45.83383" lon="4.81861">
        <ele>269.1</ele>
        <time>2014-09-14T11:26:16Z</time>
      </trkpt>
      <trkpt lat="45.83382" lon="4.81847">
        <ele>272.5</ele>
        <time>2014-09-14T11:26:25Z</time>
      </trkpt>
      <trkpt lat="45.83387" lon="4.81833">
        <ele>275.8</ele>
        <time>2014-09-14T11:26:37Z</time>
      </trkpt>
      <trkpt lat="45.83394" lon="4.81825">
        <ele>279.2</ele>
        <time>2014-09-14T11:26:43Z</time>
      </trkpt>
      <trkpt lat="45.83395" lon="4.81812">
        <ele>282.5</ele>
        <time>2014-09-14T11:26:54Z</time>
      </trkpt>
      <trkpt lat="45.83393" lon="4.81798">
        <ele>284.2</ele>
        <time>2014-09-14T11:27:08Z</time>
      </trkpt>
      <trkpt lat="45.83393" lon="4.81785">
        <ele>285.8</ele>
        <time>2014-09-14T11:27:24Z</time>
      </trkpt>
      <trkpt lat="45.83392" lon="4.8177">
        <ele>287.5</ele>
        <time>2014-09-14T11:27:36Z</time>
      </trkpt>
      <trkpt lat="45.83395" lon="4.81755">
        <ele>289.1</ele>
        <time>2014-09-14T11:27:59Z</time>
      </trkpt>
      <trkpt lat="45.83406" lon="4.81755">
        <ele>290.7</ele>
        <time>2014-09-14T11:28:06Z</time>
      </trkpt>
      <trkpt lat="45.83416" lon="4.81754">
        <ele>292.7</ele>
        <time>2014-09-14T11:28:10Z</time>
      </trkpt>
      <trkpt lat="45.83427" lon="4.81752">
        <ele>294.7</ele>
        <time>2014-09-14T11:28:15Z</time>
      </trkpt>
      <trkpt lat="45.83437" lon="4.81747">
        <ele>295.1</ele>
        <time>2014-09-14T11:28:20Z</time>
      </trkpt>
      <trkpt lat="45.83447" lon="4.81747">
        <ele>295.5</ele>
        <time>2014-09-14T11:28:25Z</time>
      </trkpt>
      <trkpt lat="45.83456" lon="4.81745">
        <ele>295.8</ele>
        <time>2014-09-14T11:28:29Z</time>
      </trkpt>
      <trkpt lat="45.83465" lon="4.81742">
        <ele>296.2</ele>
        <time>2014-09-14T11:28:33Z</time>
      </trkpt>
      <trkpt lat="45.83475" lon="4.81744">
        <ele>297.7</ele>
        <time>2014-09-14T11:28:38Z</time>
      </trkpt>
      <trkpt lat="45.83485" lon="4.8174">
        <ele>299.3</ele>
        <time>2014-09-14T11:28:45Z</time>
      </trkpt>
      <trkpt lat="45.8349" lon="4.81728">
        <ele>300.8</ele>
        <time>2014-09-14T11:28:53Z</time>
      </trkpt>
      <trkpt lat="45.8348" lon="4.81722">
        <ele>302.4</ele>
        <time>2014-09-14T11:29:02Z</time>
      </trkpt>
      <trkpt lat="45.83469" lon="4.81719">
        <ele>303.9</ele>
        <time>2014-09-14T11:29:06Z</time>
      </trkpt>
      <trkpt lat="45.83458" lon="4.81712">
        <ele>305.1</ele>
        <time>2014-09-14T11:29:09Z</time>
      </trkpt>
      <trkpt lat="45.83449" lon="4.81705">
        <ele>306.3</ele>
        <time>2014-09-14T11:29:12Z</time>
      </trkpt>
      <trkpt lat="45.8344" lon="4.81701">
        <ele>307.5</ele>
        <time>2014-09-14T11:29:15Z</time>
      </trkpt>
      <trkpt lat="45.8343" lon="4.817">
        <ele>308.6</ele>
        <time>2014-09-14T11:29:19Z</time>
      </trkpt>
      <trkpt lat="45.83419" lon="4.81703">
        <ele>308.6</ele>
        <time>2014-09-14T11:29:26Z</time>
      </trkpt>
      <trkpt lat="45.83408" lon="4.817">
        <ele>308.6</ele>
        <time>2014-09-14T11:29:30Z</time>
      </trkpt>
      <trkpt lat="45.83398" lon="4.81696">
        <ele>307.5</ele>
        <time>2014-09-14T11:29:34Z</time>
      </trkpt>
      <trkpt lat="45.83391" lon="4.81687">
        <ele>307.5</ele>
        <time>2014-09-14T11:29:39Z</time>
      </trkpt>
      <trkpt lat="45.83385" lon="4.81676">
        <ele>307.6</ele>
        <time>2014-09-14T11:29:45Z</time>
      </trkpt>
      <trkpt lat="45.8338" lon="4.81664">
        <ele>307.7</ele>
        <time>2014-09-14T11:29:51Z</time>
      </trkpt>
      <trkpt lat="45.83375" lon="4.81649">
        <ele>307.8</ele>
        <time>2014-09-14T11:29:56Z</time>
      </trkpt>
      <trkpt lat="45.8337" lon="4.81637">
        <ele>307.9</ele>
        <time>2014-09-14T11:30:02Z</time>
      </trkpt>
      <trkpt lat="45.83366" lon="4.81623">
        <ele>308</ele>
        <time>2014-09-14T11:30:09Z</time>
      </trkpt>
      <trkpt lat="45.83362" lon="4.81609">
        <ele>309.4</ele>
        <time>2014-09-14T11:30:17Z</time>
      </trkpt>
      <trkpt lat="45.83354" lon="4.81594">
        <ele>310.7</ele>
        <time>2014-09-14T11:30:25Z</time>
      </trkpt>
      <trkpt lat="45.83349" lon="4.81581">
        <ele>313.3</ele>
        <time>2014-09-14T11:30:30Z</time>
      </trkpt>
      <trkpt lat="45.83345" lon="4.81567">
        <ele>315.8</ele>
        <time>2014-09-14T11:30:36Z</time>
      </trkpt>
      <trkpt lat="45.83341" lon="4.81555">
        <ele>318.4</ele>
        <time>2014-09-14T11:30:41Z</time>
      </trkpt>
      <trkpt lat="45.83336" lon="4.81543">
        <ele>319.6</ele>
        <time>2014-09-14T11:30:49Z</time>
      </trkpt>
      <trkpt lat="45.83336" lon="4.81529">
        <ele>320.9</ele>
        <time>2014-09-14T11:30:55Z</time>
      </trkpt>
      <trkpt lat="45.83337" lon="4.81515">
        <ele>322.2</ele>
        <time>2014-09-14T11:31:04Z</time>
      </trkpt>
      <trkpt lat="45.83331" lon="4.81503">
        <ele>324.2</ele>
        <time>2014-09-14T11:31:10Z</time>
      </trkpt>
      <trkpt lat="45.83324" lon="4.81494">
        <ele>326.2</ele>
        <time>2014-09-14T11:31:19Z</time>
      </trkpt>
      <trkpt lat="45.83318" lon="4.81482">
        <ele>328.2</ele>
        <time>2014-09-14T11:31:28Z</time>
      </trkpt>
      <trkpt lat="45.83323" lon="4.81471">
        <ele>328.9</ele>
        <time>2014-09-14T11:31:42Z</time>
      </trkpt>
      <trkpt lat="45.83333" lon="4.81466">
        <ele>329.6</ele>
        <time>2014-09-14T11:31:49Z</time>
      </trkpt>
      <trkpt lat="45.8334" lon="4.81458">
        <ele>330.8</ele>
        <time>2014-09-14T11:31:54Z</time>
      </trkpt>
      <trkpt lat="45.83347" lon="4.81448">
        <ele>332</ele>
        <time>2014-09-14T11:31:59Z</time>
      </trkpt>
      <trkpt lat="45.83355" lon="4.81439">
        <ele>333.2</ele>
        <time>2014-09-14T11:32:05Z</time>
      </trkpt>
      <trkpt lat="45.83363" lon="4.81432">
        <ele>334.4</ele>
        <time>2014-09-14T11:32:11Z</time>
      </trkpt>
      <trkpt lat="45.83372" lon="4.81428">
        <ele>335.5</ele>
        <time>2014-09-14T11:32:17Z</time>
      </trkpt>
      <trkpt lat="45.83381" lon="4.8142">
        <ele>336.7</ele>
        <time>2014-09-14T11:32:23Z</time>
      </trkpt>
      <trkpt lat="45.8339" lon="4.81416">
        <ele>337.2</ele>
        <time>2014-09-14T11:32:30Z</time>
      </trkpt>
      <trkpt lat="45.834" lon="4.81412">
        <ele>338.5</ele>
        <time>2014-09-14T11:32:38Z</time>
      </trkpt>
      <trkpt lat="45.8341" lon="4.8141">
        <ele>339.7</ele>
        <time>2014-09-14T11:32:47Z</time>
      </trkpt>
      <trkpt lat="45.8342" lon="4.81412">
        <ele>341</ele>
        <time>2014-09-14T11:32:53Z</time>
      </trkpt>
      <trkpt lat="45.83429" lon="4.81408">
        <ele>342.3</ele>
        <time>2014-09-14T11:32:58Z</time>
      </trkpt>
      <trkpt lat="45.83428" lon="4.81394">
        <ele>343.1</ele>
        <time>2014-09-14T11:33:04Z</time>
      </trkpt>
      <trkpt lat="45.83429" lon="4.81378">
        <ele>344.5</ele>
        <time>2014-09-14T11:33:09Z</time>
      </trkpt>
      <trkpt lat="45.83434" lon="4.81364">
        <ele>345.8</ele>
        <time>2014-09-14T11:33:13Z</time>
      </trkpt>
      <trkpt lat="45.83442" lon="4.81353">
        <ele>347.2</ele>
        <time>2014-09-14T11:33:17Z</time>
      </trkpt>
      <trkpt lat="45.83452" lon="4.81353">
        <ele>348.5</ele>
        <time>2014-09-14T11:33:22Z</time>
      </trkpt>
      <trkpt lat="45.8346" lon="4.81362">
        <ele>349.9</ele>
        <time>2014-09-14T11:33:28Z</time>
      </trkpt>
      <trkpt lat="45.8347" lon="4.81363">
        <ele>351.3</ele>
        <time>2014-09-14T11:33:34Z</time>
      </trkpt>
      <trkpt lat="45.83481" lon="4.81359">
        <ele>351.8</ele>
        <time>2014-09-14T11:33:39Z</time>
      </trkpt>
      <trkpt lat="45.8349" lon="4.81353">
        <ele>352.4</ele>
        <time>2014-09-14T11:33:44Z</time>
      </trkpt>
      <trkpt lat="45.83498" lon="4.81344">
        <ele>352.9</ele>
        <time>2014-09-14T11:33:49Z</time>
      </trkpt>
      <trkpt lat="45.83508" lon="4.81339">
        <ele>353.5</ele>
        <time>2014-09-14T11:33:54Z</time>
      </trkpt>
      <trkpt lat="45.83518" lon="4.81335">
        <ele>354.7</ele>
        <time>2014-09-14T11:34:00Z</time>
      </trkpt>
      <trkpt lat="45.83526" lon="4.81328">
        <ele>355.4</ele>
        <time>2014-09-14T11:34:05Z</time>
      </trkpt>
      <trkpt lat="45.83535" lon="4.8132">
        <ele>356</ele>
        <time>2014-09-14T11:34:10Z</time>
      </trkpt>
      <trkpt lat="45.83544" lon="4.81314">
        <ele>356.6</ele>
        <time>2014-09-14T11:34:16Z</time>
      </trkpt>
      <trkpt lat="45.83553" lon="4.81306">
        <ele>357.3</ele>
        <time>2014-09-14T11:34:22Z</time>
      </trkpt>
      <trkpt lat="45.83553" lon="4.81293">
        <ele>357.9</ele>
        <time>2014-09-14T11:34:29Z</time>
      </trkpt>
      <trkpt lat="45.83554" lon="4.81279">
        <ele>359.2</ele>
        <time>2014-09-14T11:34:33Z</time>
      </trkpt>
      <trkpt lat="45.83555" lon="4.81264">
        <ele>360.5</ele>
        <time>2014-09-14T11:34:38Z</time>
      </trkpt>
      <trkpt lat="45.83553" lon="4.81251">
        <ele>362.5</ele>
        <time>2014-09-14T11:34:44Z</time>
      </trkpt>
      <trkpt lat="45.83553" lon="4.81236">
        <ele>364.5</ele>
        <time>2014-09-14T11:34:49Z</time>
      </trkpt>
      <trkpt lat="45.83551" lon="4.81223">
        <ele>366.4</ele>
        <time>2014-09-14T11:34:55Z</time>
      </trkpt>
      <trkpt lat="45.83548" lon="4.81209">
        <ele>367</ele>
        <time>2014-09-14T11:35:01Z</time>
      </trkpt>
      <trkpt lat="45.83547" lon="4.81196">
        <ele>369.2</ele>
        <time>2014-09-14T11:35:06Z</time>
      </trkpt>
      <trkpt lat="45.83545" lon="4.81181">
        <ele>371.4</ele>
        <time>2014-09-14T11:35:15Z</time>
      </trkpt>
      <trkpt lat="45.83543" lon="4.81167">
        <ele>373.5</ele>
        <time>2014-09-14T11:35:24Z</time>
      </trkpt>
      <trkpt lat="45.83544" lon="4.81152">
        <ele>375.7</ele>
        <time>2014-09-14T11:35:34Z</time>
      </trkpt>
      <trkpt lat="45.83548" lon="4.8114">
        <ele>377.9</ele>
        <time>2014-09-14T11:35:46Z</time>
      </trkpt>
      <trkpt lat="45.83551" lon="4.81127">
        <ele>379.5</ele>
        <time>2014-09-14T11:35:57Z</time>
      </trkpt>
      <trkpt lat="45.83556" lon="4.81116">
        <ele>382.3</ele>
        <time>2014-09-14T11:36:04Z</time>
      </trkpt>
      <trkpt lat="45.8356" lon="4.81104">
        <ele>384.4</ele>
        <time>2014-09-14T11:36:24Z</time>
      </trkpt>
      <trkpt lat="45.83566" lon="4.81092">
        <ele>386.5</ele>
        <time>2014-09-14T11:36:35Z</time>
      </trkpt>
      <trkpt lat="45.83569" lon="4.81073">
        <ele>388.5</ele>
        <time>2014-09-14T11:36:50Z</time>
      </trkpt>
      <trkpt lat="45.83574" lon="4.81061">
        <ele>391.4</ele>
        <time>2014-09-14T11:36:56Z</time>
      </trkpt>
      <trkpt lat="45.83582" lon="4.81045">
        <ele>392.6</ele>
        <time>2014-09-14T11:37:09Z</time>
      </trkpt>
      <trkpt lat="45.83585" lon="4.81032">
        <ele>393.9</ele>
        <time>2014-09-14T11:37:17Z</time>
      </trkpt>
      <trkpt lat="45.83583" lon="4.81019">
        <ele>395.2</ele>
        <time>2014-09-14T11:37:27Z</time>
      </trkpt>
      <trkpt lat="45.83585" lon="4.81004">
        <ele>396.6</ele>
        <time>2014-09-14T11:37:38Z</time>
      </trkpt>
      <trkpt lat="45.83591" lon="4.80994">
        <ele>398.1</ele>
        <time>2014-09-14T11:37:44Z</time>
      </trkpt>
      <trkpt lat="45.83598" lon="4.80984">
        <ele>400.3</ele>
        <time>2014-09-14T11:38:02Z</time>
      </trkpt>
      <trkpt lat="45.83608" lon="4.80979">
        <ele>401.2</ele>
        <time>2014-09-14T11:38:07Z</time>
      </trkpt>
      <trkpt lat="45.83619" lon="4.80977">
        <ele>402.1</ele>
        <time>2014-09-14T11:38:12Z</time>
      </trkpt>
      <trkpt lat="45.83629" lon="4.80974">
        <ele>403</ele>
        <time>2014-09-14T11:38:16Z</time>
      </trkpt>
      <trkpt lat="45.83639" lon="4.80968">
        <ele>403.9</ele>
        <time>2014-09-14T11:38:20Z</time>
      </trkpt>
      <trkpt lat="45.83648" lon="4.80959">
        <ele>404.8</ele>
        <time>2014-09-14T11:38:25Z</time>
      </trkpt>
      <trkpt lat="45.83654" lon="4.80949">
        <ele>405.7</ele>
        <time>2014-09-14T11:38:30Z</time>
      </trkpt>
      <trkpt lat="45.8366" lon="4.80939">
        <ele>406.9</ele>
        <time>2014-09-14T11:38:35Z</time>
      </trkpt>
      <trkpt lat="45.83667" lon="4.80928">
        <ele>408.1</ele>
        <time>2014-09-14T11:38:42Z</time>
      </trkpt>
      <trkpt lat="45.8367" lon="4.80915">
        <ele>409.1</ele>
        <time>2014-09-14T11:38:46Z</time>
      </trkpt>
      <trkpt lat="45.83672" lon="4.809">
        <ele>410.1</ele>
        <time>2014-09-14T11:38:51Z</time>
      </trkpt>
      <trkpt lat="45.83673" lon="4.80884">
        <ele>410.4</ele>
        <time>2014-09-14T11:38:55Z</time>
      </trkpt>
      <trkpt lat="45.83674" lon="4.80869">
        <ele>411.3</ele>
        <time>2014-09-14T11:38:58Z</time>
      </trkpt>
      <trkpt lat="45.83674" lon="4.80854">
        <ele>412.2</ele>
        <time>2014-09-14T11:39:01Z</time>
      </trkpt>
      <trkpt lat="45.83675" lon="4.80839">
        <ele>413.1</ele>
        <time>2014-09-14T11:39:05Z</time>
      </trkpt>
      <trkpt lat="45.83676" lon="4.80821">
        <ele>414</ele>
        <time>2014-09-14T11:39:09Z</time>
      </trkpt>
      <trkpt lat="45.83676" lon="4.80804">
        <ele>414.9</ele>
        <time>2014-09-14T11:39:12Z</time>
      </trkpt>
      <trkpt lat="45.83678" lon="4.80789">
        <ele>415.5</ele>
        <time>2014-09-14T11:39:16Z</time>
      </trkpt>
      <trkpt lat="45.83681" lon="4.80777">
        <ele>415.9</ele>
        <time>2014-09-14T11:39:20Z</time>
      </trkpt>
      <trkpt lat="45.83687" lon="4.80764">
        <ele>417.1</ele>
        <time>2014-09-14T11:39:23Z</time>
      </trkpt>
      <trkpt lat="45.83695" lon="4.80751">
        <ele>418.3</ele>
        <time>2014-09-14T11:39:26Z</time>
      </trkpt>
      <trkpt lat="45.83705" lon="4.80739">
        <ele>419.5</ele>
        <time>2014-09-14T11:39:29Z</time>
      </trkpt>
      <trkpt lat="45.83713" lon="4.80728">
        <ele>420.6</ele>
        <time>2014-09-14T11:39:32Z</time>
      </trkpt>
      <trkpt lat="45.83718" lon="4.80714">
        <ele>420.8</ele>
        <time>2014-09-14T11:39:36Z</time>
      </trkpt>
      <trkpt lat="45.83725" lon="4.80706">
        <ele>421</ele>
        <time>2014-09-14T11:39:39Z</time>
      </trkpt>
      <trkpt lat="45.83738" lon="4.80705">
        <ele>421.2</ele>
        <time>2014-09-14T11:39:43Z</time>
      </trkpt>
      <trkpt lat="45.83748" lon="4.80708">
        <ele>421.6</ele>
        <time>2014-09-14T11:39:46Z</time>
      </trkpt>
      <trkpt lat="45.83748" lon="4.80708">
        <ele>422</ele>
        <time>2014-09-14T11:39:46Z</time>
      </trkpt>
      <trkpt lat="45.83729" lon="4.80702">
        <ele>425</ele>
        <time>2014-09-14T11:47:59Z</time>
      </trkpt>
      <trkpt lat="45.83724" lon="4.80702">
        <ele>427.1</ele>
        <time>2014-09-14T11:48:11Z</time>
      </trkpt>
      <trkpt lat="45.8372" lon="4.80689">
        <ele>428.8</ele>
        <time>2014-09-14T11:48:22Z</time>
      </trkpt>
      <trkpt lat="45.83719" lon="4.80671">
        <ele>430</ele>
        <time>2014-09-14T11:48:32Z</time>
      </trkpt>
      <trkpt lat="45.83717" lon="4.80657">
        <ele>431</ele>
        <time>2014-09-14T11:48:39Z</time>
      </trkpt>
      <trkpt lat="45.83718" lon="4.80643">
        <ele>432</ele>
        <time>2014-09-14T11:48:45Z</time>
      </trkpt>
      <trkpt lat="45.83718" lon="4.80629">
        <ele>433.5</ele>
        <time>2014-09-14T11:48:55Z</time>
      </trkpt>
      <trkpt lat="45.83718" lon="4.80614">
        <ele>434.9</ele>
        <time>2014-09-14T11:49:04Z</time>
      </trkpt>
      <trkpt lat="45.83717" lon="4.80599">
        <ele>436.3</ele>
        <time>2014-09-14T11:49:11Z</time>
      </trkpt>
      <trkpt lat="45.83711" lon="4.80588">
        <ele>438.5</ele>
        <time>2014-09-14T11:49:22Z</time>
      </trkpt>
      <trkpt lat="45.83708" lon="4.80575">
        <ele>440.6</ele>
        <time>2014-09-14T11:49:33Z</time>
      </trkpt>
      <trkpt lat="45.83709" lon="4.8056">
        <ele>442.8</ele>
        <time>2014-09-14T11:49:39Z</time>
      </trkpt>
      <trkpt lat="45.83717" lon="4.80553">
        <ele>443.6</ele>
        <time>2014-09-14T11:49:45Z</time>
      </trkpt>
      <trkpt lat="45.83726" lon="4.80551">
        <ele>445.3</ele>
        <time>2014-09-14T11:49:53Z</time>
      </trkpt>
      <trkpt lat="45.83734" lon="4.80542">
        <ele>446.9</ele>
        <time>2014-09-14T11:50:05Z</time>
      </trkpt>
      <trkpt lat="45.83733" lon="4.80529">
        <ele>448.5</ele>
        <time>2014-09-14T11:50:12Z</time>
      </trkpt>
      <trkpt lat="45.83723" lon="4.80523">
        <ele>450</ele>
        <time>2014-09-14T11:50:15Z</time>
      </trkpt>
      <trkpt lat="45.83714" lon="4.80519">
        <ele>452.3</ele>
        <time>2014-09-14T11:50:18Z</time>
      </trkpt>
      <trkpt lat="45.83702" lon="4.80518">
        <ele>454.7</ele>
        <time>2014-09-14T11:50:24Z</time>
      </trkpt>
      <trkpt lat="45.83693" lon="4.80506">
        <ele>457.2</ele>
        <time>2014-09-14T11:50:31Z</time>
      </trkpt>
      <trkpt lat="45.83688" lon="4.80492">
        <ele>458.8</ele>
        <time>2014-09-14T11:50:40Z</time>
      </trkpt>
      <trkpt lat="45.8369" lon="4.80475">
        <ele>460.5</ele>
        <time>2014-09-14T11:51:00Z</time>
      </trkpt>
      <trkpt lat="45.83688" lon="4.80459">
        <ele>462.4</ele>
        <time>2014-09-14T11:51:10Z</time>
      </trkpt>
      <trkpt lat="45.83691" lon="4.80443">
        <ele>464.3</ele>
        <time>2014-09-14T11:51:17Z</time>
      </trkpt>
      <trkpt lat="45.83694" lon="4.80431">
        <ele>465.4</ele>
        <time>2014-09-14T11:51:23Z</time>
      </trkpt>
      <trkpt lat="45.83692" lon="4.80413">
        <ele>466.2</ele>
        <time>2014-09-14T11:51:42Z</time>
      </trkpt>
      <trkpt lat="45.8369" lon="4.80396">
        <ele>467</ele>
        <time>2014-09-14T11:51:53Z</time>
      </trkpt>
      <trkpt lat="45.83688" lon="4.80383">
        <ele>467.8</ele>
        <time>2014-09-14T11:52:01Z</time>
      </trkpt>
      <trkpt lat="45.83678" lon="4.80378">
        <ele>468.1</ele>
        <time>2014-09-14T11:52:18Z</time>
      </trkpt>
      <trkpt lat="45.83669" lon="4.80382">
        <ele>468.4</ele>
        <time>2014-09-14T11:52:25Z</time>
      </trkpt>
      <trkpt lat="45.83655" lon="4.80385">
        <ele>468.6</ele>
        <time>2014-09-14T11:52:45Z</time>
      </trkpt>
      <trkpt lat="45.83645" lon="4.80388">
        <ele>468.9</ele>
        <time>2014-09-14T11:52:54Z</time>
      </trkpt>
      <trkpt lat="45.83635" lon="4.80394">
        <ele>469.2</ele>
        <time>2014-09-14T11:52:59Z</time>
      </trkpt>
      <trkpt lat="45.83626" lon="4.80402">
        <ele>469.2</ele>
        <time>2014-09-14T11:53:02Z</time>
      </trkpt>
      <trkpt lat="45.83617" lon="4.80409">
        <ele>469.2</ele>
        <time>2014-09-14T11:53:05Z</time>
      </trkpt>
      <trkpt lat="45.83608" lon="4.80413">
        <ele>469.6</ele>
        <time>2014-09-14T11:53:08Z</time>
      </trkpt>
      <trkpt lat="45.83598" lon="4.80412">
        <ele>470.4</ele>
        <time>2014-09-14T11:53:12Z</time>
      </trkpt>
      <trkpt lat="45.83587" lon="4.80406">
        <ele>471.1</ele>
        <time>2014-09-14T11:53:16Z</time>
      </trkpt>
      <trkpt lat="45.83578" lon="4.80396">
        <ele>471.8</ele>
        <time>2014-09-14T11:53:20Z</time>
      </trkpt>
      <trkpt lat="45.83573" lon="4.80384">
        <ele>472</ele>
        <time>2014-09-14T11:53:25Z</time>
      </trkpt>
      <trkpt lat="45.83567" lon="4.80374">
        <ele>472.2</ele>
        <time>2014-09-14T11:53:30Z</time>
      </trkpt>
      <trkpt lat="45.8356" lon="4.80361">
        <ele>472.4</ele>
        <time>2014-09-14T11:53:34Z</time>
      </trkpt>
      <trkpt lat="45.83556" lon="4.80349">
        <ele>473.1</ele>
        <time>2014-09-14T11:53:38Z</time>
      </trkpt>
      <trkpt lat="45.8355" lon="4.80336">
        <ele>473.8</ele>
        <time>2014-09-14T11:53:44Z</time>
      </trkpt>
      <trkpt lat="45.83544" lon="4.80324">
        <ele>474.5</ele>
        <time>2014-09-14T11:53:49Z</time>
      </trkpt>
      <trkpt lat="45.83536" lon="4.80316">
        <ele>475.3</ele>
        <time>2014-09-14T11:53:52Z</time>
      </trkpt>
      <trkpt lat="45.83529" lon="4.80306">
        <ele>475.5</ele>
        <time>2014-09-14T11:53:56Z</time>
      </trkpt>
      <trkpt lat="45.83523" lon="4.80293">
        <ele>475.8</ele>
        <time>2014-09-14T11:54:00Z</time>
      </trkpt>
      <trkpt lat="45.83518" lon="4.80282">
        <ele>476.1</ele>
        <time>2014-09-14T11:54:07Z</time>
      </trkpt>
      <trkpt lat="45.83511" lon="4.8027">
        <ele>477</ele>
        <time>2014-09-14T11:54:10Z</time>
      </trkpt>
      <trkpt lat="45.83504" lon="4.80259">
        <ele>478.2</ele>
        <time>2014-09-14T11:54:17Z</time>
      </trkpt>
      <trkpt lat="45.83499" lon="4.80247">
        <ele>479.4</ele>
        <time>2014-09-14T11:54:24Z</time>
      </trkpt>
      <trkpt lat="45.83496" lon="4.80234">
        <ele>480.5</ele>
        <time>2014-09-14T11:54:34Z</time>
      </trkpt>
      <trkpt lat="45.83497" lon="4.8022">
        <ele>481.2</ele>
        <time>2014-09-14T11:54:40Z</time>
      </trkpt>
      <trkpt lat="45.83501" lon="4.80205">
        <ele>481.8</ele>
        <time>2014-09-14T11:54:47Z</time>
      </trkpt>
      <trkpt lat="45.83503" lon="4.80192">
        <ele>483</ele>
        <time>2014-09-14T11:54:59Z</time>
      </trkpt>
      <trkpt lat="45.83509" lon="4.80178">
        <ele>484.2</ele>
        <time>2014-09-14T11:55:04Z</time>
      </trkpt>
      <trkpt lat="45.83512" lon="4.80165">
        <ele>485.4</ele>
        <time>2014-09-14T11:55:10Z</time>
      </trkpt>
      <trkpt lat="45.8352" lon="4.80154">
        <ele>487</ele>
        <time>2014-09-14T11:55:17Z</time>
      </trkpt>
      <trkpt lat="45.83528" lon="4.80146">
        <ele>488.6</ele>
        <time>2014-09-14T11:55:22Z</time>
      </trkpt>
      <trkpt lat="45.83533" lon="4.80134">
        <ele>489.6</ele>
        <time>2014-09-14T11:55:28Z</time>
      </trkpt>
      <trkpt lat="45.83539" lon="4.80122">
        <ele>490.6</ele>
        <time>2014-09-14T11:55:33Z</time>
      </trkpt>
      <trkpt lat="45.83546" lon="4.80106">
        <ele>491.6</ele>
        <time>2014-09-14T11:55:37Z</time>
      </trkpt>
      <trkpt lat="45.83553" lon="4.80096">
        <ele>494.1</ele>
        <time>2014-09-14T11:55:42Z</time>
      </trkpt>
      <trkpt lat="45.83563" lon="4.80086">
        <ele>496.5</ele>
        <time>2014-09-14T11:55:49Z</time>
      </trkpt>
      <trkpt lat="45.83573" lon="4.80083">
        <ele>499</ele>
        <time>2014-09-14T11:55:56Z</time>
      </trkpt>
      <trkpt lat="45.83579" lon="4.80073">
        <ele>500.9</ele>
        <time>2014-09-14T11:56:06Z</time>
      </trkpt>
      <trkpt lat="45.83585" lon="4.80063">
        <ele>502.8</ele>
        <time>2014-09-14T11:56:13Z</time>
      </trkpt>
      <trkpt lat="45.83591" lon="4.80052">
        <ele>504.7</ele>
        <time>2014-09-14T11:56:22Z</time>
      </trkpt>
      <trkpt lat="45.83598" lon="4.80041">
        <ele>506</ele>
        <time>2014-09-14T11:56:28Z</time>
      </trkpt>
      <trkpt lat="45.83606" lon="4.80034">
        <ele>507.3</ele>
        <time>2014-09-14T11:56:37Z</time>
      </trkpt>
      <trkpt lat="45.83612" lon="4.80024">
        <ele>508.5</ele>
        <time>2014-09-14T11:56:45Z</time>
      </trkpt>
      <trkpt lat="45.8362" lon="4.80015">
        <ele>509.8</ele>
        <time>2014-09-14T11:56:51Z</time>
      </trkpt>
      <trkpt lat="45.83627" lon="4.80007">
        <ele>511.1</ele>
        <time>2014-09-14T11:56:57Z</time>
      </trkpt>
      <trkpt lat="45.83636" lon="4.79999">
        <ele>510.9</ele>
        <time>2014-09-14T11:57:04Z</time>
      </trkpt>
      <trkpt lat="45.83643" lon="4.79993">
        <ele>510.7</ele>
        <time>2014-09-14T11:57:10Z</time>
      </trkpt>
      <trkpt lat="45.83653" lon="4.79991">
        <ele>510.5</ele>
        <time>2014-09-14T11:57:17Z</time>
      </trkpt>
      <trkpt lat="45.83662" lon="4.79986">
        <ele>510.9</ele>
        <time>2014-09-14T11:57:26Z</time>
      </trkpt>
      <trkpt lat="45.8367" lon="4.7998">
        <ele>511.9</ele>
        <time>2014-09-14T11:57:33Z</time>
      </trkpt>
      <trkpt lat="45.83679" lon="4.79973">
        <ele>512.9</ele>
        <time>2014-09-14T11:57:40Z</time>
      </trkpt>
      <trkpt lat="45.83687" lon="4.79966">
        <ele>514.1</ele>
        <time>2014-09-14T11:57:47Z</time>
      </trkpt>
      <trkpt lat="45.83697" lon="4.79961">
        <ele>515.3</ele>
        <time>2014-09-14T11:57:56Z</time>
      </trkpt>
      <trkpt lat="45.83705" lon="4.79952">
        <ele>516.5</ele>
        <time>2014-09-14T11:58:02Z</time>
      </trkpt>
      <trkpt lat="45.83715" lon="4.79947">
        <ele>517.6</ele>
        <time>2014-09-14T11:58:10Z</time>
      </trkpt>
      <trkpt lat="45.83724" lon="4.79939">
        <ele>518.8</ele>
        <time>2014-09-14T11:58:18Z</time>
      </trkpt>
      <trkpt lat="45.83733" lon="4.79938">
        <ele>520</ele>
        <time>2014-09-14T11:58:26Z</time>
      </trkpt>
      <trkpt lat="45.83743" lon="4.79933">
        <ele>521.2</ele>
        <time>2014-09-14T11:58:33Z</time>
      </trkpt>
      <trkpt lat="45.8375" lon="4.79924">
        <ele>521.7</ele>
        <time>2014-09-14T11:58:38Z</time>
      </trkpt>
      <trkpt lat="45.83759" lon="4.79919">
        <ele>521.7</ele>
        <time>2014-09-14T11:58:44Z</time>
      </trkpt>
      <trkpt lat="45.83766" lon="4.7991">
        <ele>522.6</ele>
        <time>2014-09-14T11:58:50Z</time>
      </trkpt>
      <trkpt lat="45.83773" lon="4.79897">
        <ele>523.5</ele>
        <time>2014-09-14T11:58:55Z</time>
      </trkpt>
      <trkpt lat="45.83778" lon="4.79886">
        <ele>524.5</ele>
        <time>2014-09-14T11:58:58Z</time>
      </trkpt>
      <trkpt lat="45.83784" lon="4.79874">
        <ele>525.4</ele>
        <time>2014-09-14T11:59:02Z</time>
      </trkpt>
      <trkpt lat="45.8379" lon="4.79863">
        <ele>526.3</ele>
        <time>2014-09-14T11:59:04Z</time>
      </trkpt>
      <trkpt lat="45.83795" lon="4.7985">
        <ele>526.9</ele>
        <time>2014-09-14T11:59:08Z</time>
      </trkpt>
      <trkpt lat="45.83801" lon="4.79836">
        <ele>527.5</ele>
        <time>2014-09-14T11:59:12Z</time>
      </trkpt>
      <trkpt lat="45.83807" lon="4.79822">
        <ele>528.2</ele>
        <time>2014-09-14T11:59:18Z</time>
      </trkpt>
      <trkpt lat="45.83812" lon="4.79811">
        <ele>528.8</ele>
        <time>2014-09-14T11:59:20Z</time>
      </trkpt>
      <trkpt lat="45.83817" lon="4.79798">
        <ele>530.1</ele>
        <time>2014-09-14T11:59:24Z</time>
      </trkpt>
      <trkpt lat="45.83821" lon="4.79786">
        <ele>531.4</ele>
        <time>2014-09-14T11:59:28Z</time>
      </trkpt>
      <trkpt lat="45.83825" lon="4.7977">
        <ele>530.5</ele>
        <time>2014-09-14T11:59:32Z</time>
      </trkpt>
      <trkpt lat="45.8383" lon="4.79756">
        <ele>529.5</ele>
        <time>2014-09-14T11:59:36Z</time>
      </trkpt>
      <trkpt lat="45.83836" lon="4.79745">
        <ele>528.6</ele>
        <time>2014-09-14T11:59:39Z</time>
      </trkpt>
      <trkpt lat="45.83842" lon="4.79733">
        <ele>527.7</ele>
        <time>2014-09-14T11:59:42Z</time>
      </trkpt>
      <trkpt lat="45.83847" lon="4.79721">
        <ele>526.8</ele>
        <time>2014-09-14T11:59:45Z</time>
      </trkpt>
      <trkpt lat="45.83852" lon="4.79705">
        <ele>526.2</ele>
        <time>2014-09-14T11:59:48Z</time>
      </trkpt>
      <trkpt lat="45.83855" lon="4.79688">
        <ele>527.2</ele>
        <time>2014-09-14T11:59:51Z</time>
      </trkpt>
      <trkpt lat="45.83861" lon="4.79676">
        <ele>528.2</ele>
        <time>2014-09-14T11:59:53Z</time>
      </trkpt>
      <trkpt lat="45.83869" lon="4.79662">
        <ele>529.2</ele>
        <time>2014-09-14T11:59:55Z</time>
      </trkpt>
      <trkpt lat="45.83875" lon="4.79647">
        <ele>530.2</ele>
        <time>2014-09-14T11:59:57Z</time>
      </trkpt>
      <trkpt lat="45.83879" lon="4.79633">
        <ele>531.2</ele>
        <time>2014-09-14T12:00:00Z</time>
      </trkpt>
      <trkpt lat="45.83883" lon="4.7962">
        <ele>532.8</ele>
        <time>2014-09-14T12:00:03Z</time>
      </trkpt>
      <trkpt lat="45.83887" lon="4.79606">
        <ele>533.2</ele>
        <time>2014-09-14T12:00:06Z</time>
      </trkpt>
      <trkpt lat="45.83893" lon="4.79593">
        <ele>533.5</ele>
        <time>2014-09-14T12:00:09Z</time>
      </trkpt>
      <trkpt lat="45.83899" lon="4.79583">
        <ele>533.9</ele>
        <time>2014-09-14T12:00:12Z</time>
      </trkpt>
      <trkpt lat="45.83903" lon="4.79569">
        <ele>534.3</ele>
        <time>2014-09-14T12:00:15Z</time>
      </trkpt>
      <trkpt lat="45.83908" lon="4.79557">
        <ele>534.6</ele>
        <time>2014-09-14T12:00:18Z</time>
      </trkpt>
      <trkpt lat="45.83916" lon="4.79541">
        <ele>533.4</ele>
        <time>2014-09-14T12:00:21Z</time>
      </trkpt>
      <trkpt lat="45.83924" lon="4.79527">
        <ele>533.7</ele>
        <time>2014-09-14T12:00:24Z</time>
      </trkpt>
      <trkpt lat="45.83933" lon="4.79518">
        <ele>534.1</ele>
        <time>2014-09-14T12:00:27Z</time>
      </trkpt>
      <trkpt lat="45.83941" lon="4.79509">
        <ele>534.5</ele>
        <time>2014-09-14T12:00:30Z</time>
      </trkpt>
      <trkpt lat="45.83949" lon="4.795">
        <ele>534.8</ele>
        <time>2014-09-14T12:00:33Z</time>
      </trkpt>
      <trkpt lat="45.83957" lon="4.79492">
        <ele>533.5</ele>
        <time>2014-09-14T12:00:36Z</time>
      </trkpt>
      <trkpt lat="45.83966" lon="4.79488">
        <ele>533.4</ele>
        <time>2014-09-14T12:00:39Z</time>
      </trkpt>
      <trkpt lat="45.83977" lon="4.79483">
        <ele>533.3</ele>
        <time>2014-09-14T12:00:42Z</time>
      </trkpt>
      <trkpt lat="45.83988" lon="4.79475">
        <ele>533.2</ele>
        <time>2014-09-14T12:00:45Z</time>
      </trkpt>
      <trkpt lat="45.83996" lon="4.79466">
        <ele>533.1</ele>
        <time>2014-09-14T12:00:47Z</time>
      </trkpt>
      <trkpt lat="45.84004" lon="4.79459">
        <ele>533.8</ele>
        <time>2014-09-14T12:00:49Z</time>
      </trkpt>
      <trkpt lat="45.84014" lon="4.79449">
        <ele>534.5</ele>
        <time>2014-09-14T12:00:52Z</time>
      </trkpt>
      <trkpt lat="45.84024" lon="4.79442">
        <ele>533.6</ele>
        <time>2014-09-14T12:00:55Z</time>
      </trkpt>
      <trkpt lat="45.84036" lon="4.79436">
        <ele>532.7</ele>
        <time>2014-09-14T12:00:58Z</time>
      </trkpt>
      <trkpt lat="45.84045" lon="4.79429">
        <ele>531.8</ele>
        <time>2014-09-14T12:01:00Z</time>
      </trkpt>
      <trkpt lat="45.84054" lon="4.79422">
        <ele>529.6</ele>
        <time>2014-09-14T12:01:02Z</time>
      </trkpt>
      <trkpt lat="45.84064" lon="4.79413">
        <ele>529.2</ele>
        <time>2014-09-14T12:01:04Z</time>
      </trkpt>
      <trkpt lat="45.84075" lon="4.79403">
        <ele>529.2</ele>
        <time>2014-09-14T12:01:06Z</time>
      </trkpt>
      <trkpt lat="45.84087" lon="4.79394">
        <ele>529.2</ele>
        <time>2014-09-14T12:01:08Z</time>
      </trkpt>
      <trkpt lat="45.841" lon="4.79385">
        <ele>529.2</ele>
        <time>2014-09-14T12:01:10Z</time>
      </trkpt>
      <trkpt lat="45.84112" lon="4.79375">
        <ele>529.2</ele>
        <time>2014-09-14T12:01:12Z</time>
      </trkpt>
      <trkpt lat="45.84125" lon="4.79368">
        <ele>528.4</ele>
        <time>2014-09-14T12:01:14Z</time>
      </trkpt>
      <trkpt lat="45.84141" lon="4.79361">
        <ele>527.5</ele>
        <time>2014-09-14T12:01:16Z</time>
      </trkpt>
      <trkpt lat="45.84157" lon="4.79355">
        <ele>526.8</ele>
        <time>2014-09-14T12:01:18Z</time>
      </trkpt>
      <trkpt lat="45.84174" lon="4.79348">
        <ele>526.1</ele>
        <time>2014-09-14T12:01:20Z</time>
      </trkpt>
      <trkpt lat="45.84183" lon="4.79345">
        <ele>525.5</ele>
        <time>2014-09-14T12:01:21Z</time>
      </trkpt>
      <trkpt lat="45.84192" lon="4.79341">
        <ele>526.3</ele>
        <time>2014-09-14T12:01:22Z</time>
      </trkpt>
      <trkpt lat="45.84209" lon="4.79332">
        <ele>527</ele>
        <time>2014-09-14T12:01:24Z</time>
      </trkpt>
      <trkpt lat="45.84223" lon="4.7932">
        <ele>527.3</ele>
        <time>2014-09-14T12:01:26Z</time>
      </trkpt>
      <trkpt lat="45.84232" lon="4.79307">
        <ele>527.5</ele>
        <time>2014-09-14T12:01:28Z</time>
      </trkpt>
      <trkpt lat="45.84238" lon="4.79297">
        <ele>527.8</ele>
        <time>2014-09-14T12:01:30Z</time>
      </trkpt>
      <trkpt lat="45.84241" lon="4.79285">
        <ele>528.1</ele>
        <time>2014-09-14T12:01:33Z</time>
      </trkpt>
      <trkpt lat="45.8424" lon="4.79269">
        <ele>528.5</ele>
        <time>2014-09-14T12:01:36Z</time>
      </trkpt>
      <trkpt lat="45.84234" lon="4.79259">
        <ele>528.8</ele>
        <time>2014-09-14T12:01:39Z</time>
      </trkpt>
      <trkpt lat="45.84227" lon="4.79248">
        <ele>529.1</ele>
        <time>2014-09-14T12:01:42Z</time>
      </trkpt>
      <trkpt lat="45.84223" lon="4.79234">
        <ele>529.4</ele>
        <time>2014-09-14T12:01:46Z</time>
      </trkpt>
      <trkpt lat="45.84216" lon="4.79222">
        <ele>529.5</ele>
        <time>2014-09-14T12:01:51Z</time>
      </trkpt>
      <trkpt lat="45.84209" lon="4.79211">
        <ele>529.5</ele>
        <time>2014-09-14T12:01:55Z</time>
      </trkpt>
      <trkpt lat="45.84203" lon="4.79201">
        <ele>529.6</ele>
        <time>2014-09-14T12:01:59Z</time>
      </trkpt>
      <trkpt lat="45.84195" lon="4.79191">
        <ele>529.7</ele>
        <time>2014-09-14T12:02:03Z</time>
      </trkpt>
      <trkpt lat="45.84187" lon="4.7918">
        <ele>530.8</ele>
        <time>2014-09-14T12:02:07Z</time>
      </trkpt>
      <trkpt lat="45.8418" lon="4.7917">
        <ele>531.9</ele>
        <time>2014-09-14T12:02:11Z</time>
      </trkpt>
      <trkpt lat="45.84173" lon="4.79159">
        <ele>533</ele>
        <time>2014-09-14T12:02:15Z</time>
      </trkpt>
      <trkpt lat="45.84166" lon="4.79148">
        <ele>534</ele>
        <time>2014-09-14T12:02:19Z</time>
      </trkpt>
      <trkpt lat="45.84158" lon="4.79139">
        <ele>534.6</ele>
        <time>2014-09-14T12:02:23Z</time>
      </trkpt>
      <trkpt lat="45.84152" lon="4.7913">
        <ele>535.3</ele>
        <time>2014-09-14T12:02:27Z</time>
      </trkpt>
      <trkpt lat="45.84147" lon="4.79118">
        <ele>535.9</ele>
        <time>2014-09-14T12:02:31Z</time>
      </trkpt>
      <trkpt lat="45.84141" lon="4.79107">
        <ele>536.5</ele>
        <time>2014-09-14T12:02:35Z</time>
      </trkpt>
      <trkpt lat="45.84132" lon="4.791">
        <ele>537.2</ele>
        <time>2014-09-14T12:02:39Z</time>
      </trkpt>
      <trkpt lat="45.84123" lon="4.79088">
        <ele>538.8</ele>
        <time>2014-09-14T12:02:44Z</time>
      </trkpt>
      <trkpt lat="45.84115" lon="4.79079">
        <ele>540.5</ele>
        <time>2014-09-14T12:02:48Z</time>
      </trkpt>
      <trkpt lat="45.84106" lon="4.79071">
        <ele>541.1</ele>
        <time>2014-09-14T12:02:52Z</time>
      </trkpt>
      <trkpt lat="45.84097" lon="4.79062">
        <ele>541.7</ele>
        <time>2014-09-14T12:02:56Z</time>
      </trkpt>
      <trkpt lat="45.84091" lon="4.79053">
        <ele>542</ele>
        <time>2014-09-14T12:02:59Z</time>
      </trkpt>
      <trkpt lat="45.84081" lon="4.79037">
        <ele>542.3</ele>
        <time>2014-09-14T12:03:04Z</time>
      </trkpt>
      <trkpt lat="45.84074" lon="4.79023">
        <ele>542.9</ele>
        <time>2014-09-14T12:03:10Z</time>
      </trkpt>
      <trkpt lat="45.84066" lon="4.79015">
        <ele>543.5</ele>
        <time>2014-09-14T12:03:14Z</time>
      </trkpt>
      <trkpt lat="45.84053" lon="4.79004">
        <ele>544.2</ele>
        <time>2014-09-14T12:03:21Z</time>
      </trkpt>
      <trkpt lat="45.84042" lon="4.79003">
        <ele>544.8</ele>
        <time>2014-09-14T12:03:25Z</time>
      </trkpt>
      <trkpt lat="45.84033" lon="4.79003">
        <ele>545.8</ele>
        <time>2014-09-14T12:03:29Z</time>
      </trkpt>
      <trkpt lat="45.84024" lon="4.78986">
        <ele>545.8</ele>
        <time>2014-09-14T12:03:36Z</time>
      </trkpt>
      <trkpt lat="45.84026" lon="4.78972">
        <ele>545.8</ele>
        <time>2014-09-14T12:03:40Z</time>
      </trkpt>
      <trkpt lat="45.84033" lon="4.78964">
        <ele>545.8</ele>
        <time>2014-09-14T12:03:44Z</time>
      </trkpt>
      <trkpt lat="45.84043" lon="4.78965">
        <ele>545.8</ele>
        <time>2014-09-14T12:03:49Z</time>
      </trkpt>
      <trkpt lat="45.84053" lon="4.78969">
        <ele>546.2</ele>
        <time>2014-09-14T12:03:54Z</time>
      </trkpt>
      <trkpt lat="45.84062" lon="4.78974">
        <ele>546.5</ele>
        <time>2014-09-14T12:03:57Z</time>
      </trkpt>
      <trkpt lat="45.84071" lon="4.78975">
        <ele>546.9</ele>
        <time>2014-09-14T12:04:01Z</time>
      </trkpt>
      <trkpt lat="45.84082" lon="4.78975">
        <ele>547.5</ele>
        <time>2014-09-14T12:04:05Z</time>
      </trkpt>
      <trkpt lat="45.84092" lon="4.78975">
        <ele>548.2</ele>
        <time>2014-09-14T12:04:09Z</time>
      </trkpt>
      <trkpt lat="45.84103" lon="4.78975">
        <ele>549.5</ele>
        <time>2014-09-14T12:04:14Z</time>
      </trkpt>
      <trkpt lat="45.84113" lon="4.78974">
        <ele>550.5</ele>
        <time>2014-09-14T12:04:18Z</time>
      </trkpt>
      <trkpt lat="45.84128" lon="4.7897">
        <ele>551.5</ele>
        <time>2014-09-14T12:04:25Z</time>
      </trkpt>
      <trkpt lat="45.84138" lon="4.78966">
        <ele>552.5</ele>
        <time>2014-09-14T12:04:29Z</time>
      </trkpt>
      <trkpt lat="45.84148" lon="4.78961">
        <ele>553.5</ele>
        <time>2014-09-14T12:04:33Z</time>
      </trkpt>
      <trkpt lat="45.84157" lon="4.78957">
        <ele>554.5</ele>
        <time>2014-09-14T12:04:37Z</time>
      </trkpt>
      <trkpt lat="45.84169" lon="4.78951">
        <ele>555.3</ele>
        <time>2014-09-14T12:04:42Z</time>
      </trkpt>
      <trkpt lat="45.8418" lon="4.78948">
        <ele>556</ele>
        <time>2014-09-14T12:04:47Z</time>
      </trkpt>
      <trkpt lat="45.84191" lon="4.78944">
        <ele>556.7</ele>
        <time>2014-09-14T12:04:52Z</time>
      </trkpt>
      <trkpt lat="45.84203" lon="4.78937">
        <ele>557.2</ele>
        <time>2014-09-14T12:04:57Z</time>
      </trkpt>
      <trkpt lat="45.8421" lon="4.78926">
        <ele>557.6</ele>
        <time>2014-09-14T12:05:01Z</time>
      </trkpt>
      <trkpt lat="45.84216" lon="4.78906">
        <ele>558.2</ele>
        <time>2014-09-14T12:05:07Z</time>
      </trkpt>
      <trkpt lat="45.84218" lon="4.78892">
        <ele>557.9</ele>
        <time>2014-09-14T12:05:12Z</time>
      </trkpt>
      <trkpt lat="45.84217" lon="4.78876">
        <ele>558.5</ele>
        <time>2014-09-14T12:05:15Z</time>
      </trkpt>
      <trkpt lat="45.84214" lon="4.78864">
        <ele>559</ele>
        <time>2014-09-14T12:05:18Z</time>
      </trkpt>
      <trkpt lat="45.84211" lon="4.78849">
        <ele>558.8</ele>
        <time>2014-09-14T12:05:21Z</time>
      </trkpt>
      <trkpt lat="45.8421" lon="4.78834">
        <ele>558.6</ele>
        <time>2014-09-14T12:05:24Z</time>
      </trkpt>
      <trkpt lat="45.8421" lon="4.78819">
        <ele>558.7</ele>
        <time>2014-09-14T12:05:27Z</time>
      </trkpt>
      <trkpt lat="45.8421" lon="4.78804">
        <ele>558.8</ele>
        <time>2014-09-14T12:05:30Z</time>
      </trkpt>
      <trkpt lat="45.8421" lon="4.78784">
        <ele>558.9</ele>
        <time>2014-09-14T12:05:33Z</time>
      </trkpt>
      <trkpt lat="45.84211" lon="4.7877">
        <ele>559.3</ele>
        <time>2014-09-14T12:05:35Z</time>
      </trkpt>
      <trkpt lat="45.84214" lon="4.78756">
        <ele>559.6</ele>
        <time>2014-09-14T12:05:37Z</time>
      </trkpt>
      <trkpt lat="45.84216" lon="4.78742">
        <ele>559.2</ele>
        <time>2014-09-14T12:05:39Z</time>
      </trkpt>
      <trkpt lat="45.84218" lon="4.78728">
        <ele>559.5</ele>
        <time>2014-09-14T12:05:41Z</time>
      </trkpt>
      <trkpt lat="45.84219" lon="4.78714">
        <ele>559.4</ele>
        <time>2014-09-14T12:05:43Z</time>
      </trkpt>
      <trkpt lat="45.84222" lon="4.78695">
        <ele>559.2</ele>
        <time>2014-09-14T12:05:46Z</time>
      </trkpt>
      <trkpt lat="45.84226" lon="4.78678">
        <ele>559.7</ele>
        <time>2014-09-14T12:05:49Z</time>
      </trkpt>
      <trkpt lat="45.84228" lon="4.78664">
        <ele>560.3</ele>
        <time>2014-09-14T12:05:52Z</time>
      </trkpt>
      <trkpt lat="45.8423" lon="4.78641">
        <ele>560.5</ele>
        <time>2014-09-14T12:05:57Z</time>
      </trkpt>
      <trkpt lat="45.84231" lon="4.78619">
        <ele>560.8</ele>
        <time>2014-09-14T12:06:00Z</time>
      </trkpt>
      <trkpt lat="45.84233" lon="4.78598">
        <ele>561.1</ele>
        <time>2014-09-14T12:06:02Z</time>
      </trkpt>
      <trkpt lat="45.84235" lon="4.78579">
        <ele>561.1</ele>
        <time>2014-09-14T12:06:04Z</time>
      </trkpt>
      <trkpt lat="45.84237" lon="4.78557">
        <ele>560.2</ele>
        <time>2014-09-14T12:06:06Z</time>
      </trkpt>
      <trkpt lat="45.84237" lon="4.78536">
        <ele>559.3</ele>
        <time>2014-09-14T12:06:08Z</time>
      </trkpt>
      <trkpt lat="45.84236" lon="4.78514">
        <ele>558.4</ele>
        <time>2014-09-14T12:06:10Z</time>
      </trkpt>
      <trkpt lat="45.84236" lon="4.78501">
        <ele>557.2</ele>
        <time>2014-09-14T12:06:11Z</time>
      </trkpt>
      <trkpt lat="45.84236" lon="4.78487">
        <ele>555.6</ele>
        <time>2014-09-14T12:06:12Z</time>
      </trkpt>
      <trkpt lat="45.84235" lon="4.78459">
        <ele>554.1</ele>
        <time>2014-09-14T12:06:15Z</time>
      </trkpt>
      <trkpt lat="45.84231" lon="4.78416">
        <ele>552.5</ele>
        <time>2014-09-14T12:06:17Z</time>
      </trkpt>
      <trkpt lat="45.8423" lon="4.78402">
        <ele>551.3</ele>
        <time>2014-09-14T12:06:18Z</time>
      </trkpt>
      <trkpt lat="45.84228" lon="4.78388">
        <ele>550</ele>
        <time>2014-09-14T12:06:19Z</time>
      </trkpt>
      <trkpt lat="45.84227" lon="4.78374">
        <ele>549.4</ele>
        <time>2014-09-14T12:06:20Z</time>
      </trkpt>
      <trkpt lat="45.84224" lon="4.7836">
        <ele>548.7</ele>
        <time>2014-09-14T12:06:21Z</time>
      </trkpt>
      <trkpt lat="45.84223" lon="4.78343">
        <ele>549</ele>
        <time>2014-09-14T12:06:22Z</time>
      </trkpt>
      <trkpt lat="45.84221" lon="4.78327">
        <ele>549.3</ele>
        <time>2014-09-14T12:06:23Z</time>
      </trkpt>
      <trkpt lat="45.84219" lon="4.78311">
        <ele>549.5</ele>
        <time>2014-09-14T12:06:24Z</time>
      </trkpt>
      <trkpt lat="45.84221" lon="4.78287">
        <ele>549.8</ele>
        <time>2014-09-14T12:06:27Z</time>
      </trkpt>
      <trkpt lat="45.84228" lon="4.78276">
        <ele>550.5</ele>
        <time>2014-09-14T12:06:29Z</time>
      </trkpt>
      <trkpt lat="45.84238" lon="4.78268">
        <ele>551.2</ele>
        <time>2014-09-14T12:06:32Z</time>
      </trkpt>
      <trkpt lat="45.84249" lon="4.78263">
        <ele>551.9</ele>
        <time>2014-09-14T12:06:36Z</time>
      </trkpt>
      <trkpt lat="45.84264" lon="4.7826">
        <ele>552.6</ele>
        <time>2014-09-14T12:06:44Z</time>
      </trkpt>
      <trkpt lat="45.84276" lon="4.78261">
        <ele>553.4</ele>
        <time>2014-09-14T12:06:49Z</time>
      </trkpt>
      <trkpt lat="45.84287" lon="4.78261">
        <ele>553.5</ele>
        <time>2014-09-14T12:06:53Z</time>
      </trkpt>
      <trkpt lat="45.84306" lon="4.78258">
        <ele>553.5</ele>
        <time>2014-09-14T12:07:00Z</time>
      </trkpt>
      <trkpt lat="45.84315" lon="4.78255">
        <ele>553.6</ele>
        <time>2014-09-14T12:07:03Z</time>
      </trkpt>
      <trkpt lat="45.84324" lon="4.78251">
        <ele>554.5</ele>
        <time>2014-09-14T12:07:06Z</time>
      </trkpt>
      <trkpt lat="45.84339" lon="4.78244">
        <ele>555.5</ele>
        <time>2014-09-14T12:07:16Z</time>
      </trkpt>
      <trkpt lat="45.8435" lon="4.78242">
        <ele>556.4</ele>
        <time>2014-09-14T12:07:17Z</time>
      </trkpt>
      <trkpt lat="45.84361" lon="4.78241">
        <ele>557.3</ele>
        <time>2014-09-14T12:07:21Z</time>
      </trkpt>
      <trkpt lat="45.84374" lon="4.7824">
        <ele>558.1</ele>
        <time>2014-09-14T12:07:26Z</time>
      </trkpt>
      <trkpt lat="45.84385" lon="4.78241">
        <ele>558.9</ele>
        <time>2014-09-14T12:07:32Z</time>
      </trkpt>
      <trkpt lat="45.84396" lon="4.78243">
        <ele>559.7</ele>
        <time>2014-09-14T12:07:36Z</time>
      </trkpt>
      <trkpt lat="45.84406" lon="4.78245">
        <ele>561.5</ele>
        <time>2014-09-14T12:07:40Z</time>
      </trkpt>
      <trkpt lat="45.84416" lon="4.78248">
        <ele>563.4</ele>
        <time>2014-09-14T12:07:44Z</time>
      </trkpt>
      <trkpt lat="45.84425" lon="4.7825">
        <ele>565.2</ele>
        <time>2014-09-14T12:07:48Z</time>
      </trkpt>
      <trkpt lat="45.84439" lon="4.78253">
        <ele>567</ele>
        <time>2014-09-14T12:07:55Z</time>
      </trkpt>
      <trkpt lat="45.84454" lon="4.78251">
        <ele>568</ele>
        <time>2014-09-14T12:08:01Z</time>
      </trkpt>
      <trkpt lat="45.84466" lon="4.78247">
        <ele>569</ele>
        <time>2014-09-14T12:08:06Z</time>
      </trkpt>
      <trkpt lat="45.84483" lon="4.78244">
        <ele>570</ele>
        <time>2014-09-14T12:08:14Z</time>
      </trkpt>
      <trkpt lat="45.84492" lon="4.78245">
        <ele>571.5</ele>
        <time>2014-09-14T12:08:19Z</time>
      </trkpt>
      <trkpt lat="45.84506" lon="4.78244">
        <ele>572.9</ele>
        <time>2014-09-14T12:08:25Z</time>
      </trkpt>
      <trkpt lat="45.84517" lon="4.78249">
        <ele>574.4</ele>
        <time>2014-09-14T12:08:30Z</time>
      </trkpt>
      <trkpt lat="45.84532" lon="4.78258">
        <ele>575.8</ele>
        <time>2014-09-14T12:08:38Z</time>
      </trkpt>
      <trkpt lat="45.84542" lon="4.78262">
        <ele>576.3</ele>
        <time>2014-09-14T12:08:44Z</time>
      </trkpt>
      <trkpt lat="45.84553" lon="4.78264">
        <ele>576.7</ele>
        <time>2014-09-14T12:08:48Z</time>
      </trkpt>
      <trkpt lat="45.84569" lon="4.78264">
        <ele>577.2</ele>
        <time>2014-09-14T12:08:55Z</time>
      </trkpt>
      <trkpt lat="45.8458" lon="4.78263">
        <ele>577.6</ele>
        <time>2014-09-14T12:09:00Z</time>
      </trkpt>
      <trkpt lat="45.84589" lon="4.78261">
        <ele>577.8</ele>
        <time>2014-09-14T12:09:04Z</time>
      </trkpt>
      <trkpt lat="45.84598" lon="4.78253">
        <ele>578.5</ele>
        <time>2014-09-14T12:09:09Z</time>
      </trkpt>
      <trkpt lat="45.84607" lon="4.78247">
        <ele>579.3</ele>
        <time>2014-09-14T12:09:14Z</time>
      </trkpt>
      <trkpt lat="45.84618" lon="4.7824">
        <ele>579.5</ele>
        <time>2014-09-14T12:09:19Z</time>
      </trkpt>
      <trkpt lat="45.84626" lon="4.78232">
        <ele>579.8</ele>
        <time>2014-09-14T12:09:24Z</time>
      </trkpt>
      <trkpt lat="45.84632" lon="4.78221">
        <ele>580.1</ele>
        <time>2014-09-14T12:09:30Z</time>
      </trkpt>
      <trkpt lat="45.84639" lon="4.78211">
        <ele>580.4</ele>
        <time>2014-09-14T12:09:35Z</time>
      </trkpt>
      <trkpt lat="45.84644" lon="4.78198">
        <ele>581.5</ele>
        <time>2014-09-14T12:09:39Z</time>
      </trkpt>
      <trkpt lat="45.84646" lon="4.78184">
        <ele>582.7</ele>
        <time>2014-09-14T12:09:43Z</time>
      </trkpt>
      <trkpt lat="45.84649" lon="4.78165">
        <ele>583.9</ele>
        <time>2014-09-14T12:09:49Z</time>
      </trkpt>
      <trkpt lat="45.84652" lon="4.78152">
        <ele>585.1</ele>
        <time>2014-09-14T12:09:56Z</time>
      </trkpt>
      <trkpt lat="45.84655" lon="4.78138">
        <ele>586.5</ele>
        <time>2014-09-14T12:10:02Z</time>
      </trkpt>
      <trkpt lat="45.8466" lon="4.78117">
        <ele>587.5</ele>
        <time>2014-09-14T12:10:10Z</time>
      </trkpt>
      <trkpt lat="45.84665" lon="4.78104">
        <ele>588.3</ele>
        <time>2014-09-14T12:10:13Z</time>
      </trkpt>
      <trkpt lat="45.8467" lon="4.7809">
        <ele>589.1</ele>
        <time>2014-09-14T12:10:17Z</time>
      </trkpt>
      <trkpt lat="45.84674" lon="4.78078">
        <ele>589.9</ele>
        <time>2014-09-14T12:10:21Z</time>
      </trkpt>
      <trkpt lat="45.84676" lon="4.78065">
        <ele>590.7</ele>
        <time>2014-09-14T12:10:25Z</time>
      </trkpt>
      <trkpt lat="45.84678" lon="4.78051">
        <ele>591.5</ele>
        <time>2014-09-14T12:10:28Z</time>
      </trkpt>
      <trkpt lat="45.84682" lon="4.78038">
        <ele>591.5</ele>
        <time>2014-09-14T12:10:32Z</time>
      </trkpt>
      <trkpt lat="45.84683" lon="4.78024">
        <ele>590</ele>
        <time>2014-09-14T12:10:35Z</time>
      </trkpt>
      <trkpt lat="45.84684" lon="4.78009">
        <ele>588.5</ele>
        <time>2014-09-14T12:10:38Z</time>
      </trkpt>
      <trkpt lat="45.84686" lon="4.77994">
        <ele>589</ele>
        <time>2014-09-14T12:10:41Z</time>
      </trkpt>
      <trkpt lat="45.8469" lon="4.77975">
        <ele>589.5</ele>
        <time>2014-09-14T12:10:45Z</time>
      </trkpt>
      <trkpt lat="45.84693" lon="4.7796">
        <ele>588.5</ele>
        <time>2014-09-14T12:10:46Z</time>
      </trkpt>
      <trkpt lat="45.84698" lon="4.77946">
        <ele>587.7</ele>
        <time>2014-09-14T12:10:48Z</time>
      </trkpt>
      <trkpt lat="45.84705" lon="4.7793">
        <ele>586.9</ele>
        <time>2014-09-14T12:10:50Z</time>
      </trkpt>
      <trkpt lat="45.84713" lon="4.77912">
        <ele>586.1</ele>
        <time>2014-09-14T12:10:52Z</time>
      </trkpt>
      <trkpt lat="45.84722" lon="4.77894">
        <ele>584</ele>
        <time>2014-09-14T12:10:54Z</time>
      </trkpt>
      <trkpt lat="45.8473" lon="4.77874">
        <ele>583.2</ele>
        <time>2014-09-14T12:10:56Z</time>
      </trkpt>
      <trkpt lat="45.84734" lon="4.77852">
        <ele>582.4</ele>
        <time>2014-09-14T12:10:58Z</time>
      </trkpt>
      <trkpt lat="45.84736" lon="4.77824">
        <ele>582.9</ele>
        <time>2014-09-14T12:11:01Z</time>
      </trkpt>
      <trkpt lat="45.84736" lon="4.77811">
        <ele>582.9</ele>
        <time>2014-09-14T12:11:02Z</time>
      </trkpt>
      <trkpt lat="45.84737" lon="4.77793">
        <ele>581</ele>
        <time>2014-09-14T12:11:04Z</time>
      </trkpt>
      <trkpt lat="45.84729" lon="4.77824">
        <ele>579.1</ele>
        <time>2014-09-14T12:11:06Z</time>
      </trkpt>
      <trkpt lat="45.84726" lon="4.77842">
        <ele>578.5</ele>
        <time>2014-09-14T12:11:07Z</time>
      </trkpt>
      <trkpt lat="45.84717" lon="4.77869">
        <ele>578</ele>
        <time>2014-09-14T12:11:08Z</time>
      </trkpt>
      <trkpt lat="45.84704" lon="4.77889">
        <ele>577.5</ele>
        <time>2014-09-14T12:11:09Z</time>
      </trkpt>
      <trkpt lat="45.84693" lon="4.77906">
        <ele>576.9</ele>
        <time>2014-09-14T12:11:10Z</time>
      </trkpt>
      <trkpt lat="45.8468" lon="4.77922">
        <ele>576.5</ele>
        <time>2014-09-14T12:11:11Z</time>
      </trkpt>
      <trkpt lat="45.84669" lon="4.77934">
        <ele>576.5</ele>
        <time>2014-09-14T12:11:12Z</time>
      </trkpt>
      <trkpt lat="45.84676" lon="4.77944">
        <ele>576.5</ele>
        <time>2014-09-14T12:11:17Z</time>
      </trkpt>
      <trkpt lat="45.84687" lon="4.77936">
        <ele>576.5</ele>
        <time>2014-09-14T12:11:19Z</time>
      </trkpt>
      <trkpt lat="45.84695" lon="4.77921">
        <ele>575.8</ele>
        <time>2014-09-14T12:11:21Z</time>
      </trkpt>
      <trkpt lat="45.84707" lon="4.77864">
        <ele>575.1</ele>
        <time>2014-09-14T12:11:23Z</time>
      </trkpt>
      <trkpt lat="45.84712" lon="4.77847">
        <ele>574.4</ele>
        <time>2014-09-14T12:11:24Z</time>
      </trkpt>
      <trkpt lat="45.84715" lon="4.77832">
        <ele>573.6</ele>
        <time>2014-09-14T12:11:26Z</time>
      </trkpt>
      <trkpt lat="45.84723" lon="4.778">
        <ele>572.9</ele>
        <time>2014-09-14T12:11:27Z</time>
      </trkpt>
      <trkpt lat="45.84728" lon="4.77785">
        <ele>572.2</ele>
        <time>2014-09-14T12:11:28Z</time>
      </trkpt>
      <trkpt lat="45.84732" lon="4.77772">
        <ele>570.3</ele>
        <time>2014-09-14T12:11:29Z</time>
      </trkpt>
      <trkpt lat="45.84736" lon="4.77759">
        <ele>569.5</ele>
        <time>2014-09-14T12:11:30Z</time>
      </trkpt>
      <trkpt lat="45.8474" lon="4.77747">
        <ele>567</ele>
        <time>2014-09-14T12:11:31Z</time>
      </trkpt>
      <trkpt lat="45.84742" lon="4.77733">
        <ele>564.5</ele>
        <time>2014-09-14T12:11:32Z</time>
      </trkpt>
      <trkpt lat="45.84744" lon="4.77715">
        <ele>561.5</ele>
        <time>2014-09-14T12:11:33Z</time>
      </trkpt>
      <trkpt lat="45.84744" lon="4.77696">
        <ele>559.6</ele>
        <time>2014-09-14T12:11:34Z</time>
      </trkpt>
      <trkpt lat="45.84738" lon="4.77662">
        <ele>558</ele>
        <time>2014-09-14T12:11:36Z</time>
      </trkpt>
      <trkpt lat="45.84733" lon="4.77646">
        <ele>556.4</ele>
        <time>2014-09-14T12:11:37Z</time>
      </trkpt>
      <trkpt lat="45.84726" lon="4.77631">
        <ele>554.5</ele>
        <time>2014-09-14T12:11:38Z</time>
      </trkpt>
      <trkpt lat="45.84719" lon="4.77618">
        <ele>552.7</ele>
        <time>2014-09-14T12:11:39Z</time>
      </trkpt>
      <trkpt lat="45.84714" lon="4.77606">
        <ele>550.9</ele>
        <time>2014-09-14T12:11:40Z</time>
      </trkpt>
      <trkpt lat="45.84708" lon="4.77594">
        <ele>550.3</ele>
        <time>2014-09-14T12:11:41Z</time>
      </trkpt>
      <trkpt lat="45.84701" lon="4.77578">
        <ele>549.6</ele>
        <time>2014-09-14T12:11:43Z</time>
      </trkpt>
      <trkpt lat="45.84711" lon="4.77588">
        <ele>549</ele>
        <time>2014-09-14T12:11:50Z</time>
      </trkpt>
      <trkpt lat="45.84718" lon="4.77599">
        <ele>548.4</ele>
        <time>2014-09-14T12:11:53Z</time>
      </trkpt>
      <trkpt lat="45.84728" lon="4.77607">
        <ele>548.4</ele>
        <time>2014-09-14T12:11:56Z</time>
      </trkpt>
      <trkpt lat="45.84741" lon="4.77611">
        <ele>548</ele>
        <time>2014-09-14T12:11:59Z</time>
      </trkpt>
      <trkpt lat="45.8475" lon="4.77614">
        <ele>547.5</ele>
        <time>2014-09-14T12:12:01Z</time>
      </trkpt>
      <trkpt lat="45.84759" lon="4.77618">
        <ele>546.9</ele>
        <time>2014-09-14T12:12:03Z</time>
      </trkpt>
      <trkpt lat="45.84772" lon="4.77621">
        <ele>546.5</ele>
        <time>2014-09-14T12:12:06Z</time>
      </trkpt>
      <trkpt lat="45.84783" lon="4.77622">
        <ele>546.2</ele>
        <time>2014-09-14T12:12:08Z</time>
      </trkpt>
      <trkpt lat="45.84795" lon="4.77623">
        <ele>545.8</ele>
        <time>2014-09-14T12:12:10Z</time>
      </trkpt>
      <trkpt lat="45.84806" lon="4.77622">
        <ele>545.5</ele>
        <time>2014-09-14T12:12:12Z</time>
      </trkpt>
      <trkpt lat="45.84816" lon="4.77622">
        <ele>545.1</ele>
        <time>2014-09-14T12:12:14Z</time>
      </trkpt>
      <trkpt lat="45.84825" lon="4.77624">
        <ele>544.7</ele>
        <time>2014-09-14T12:12:16Z</time>
      </trkpt>
      <trkpt lat="45.84836" lon="4.77623">
        <ele>544.9</ele>
        <time>2014-09-14T12:12:19Z</time>
      </trkpt>
      <trkpt lat="45.84846" lon="4.77623">
        <ele>545.1</ele>
        <time>2014-09-14T12:12:22Z</time>
      </trkpt>
      <trkpt lat="45.84856" lon="4.77622">
        <ele>545.6</ele>
        <time>2014-09-14T12:12:25Z</time>
      </trkpt>
      <trkpt lat="45.8487" lon="4.77622">
        <ele>546.2</ele>
        <time>2014-09-14T12:12:29Z</time>
      </trkpt>
      <trkpt lat="45.8488" lon="4.77622">
        <ele>546.7</ele>
        <time>2014-09-14T12:12:32Z</time>
      </trkpt>
      <trkpt lat="45.84892" lon="4.77622">
        <ele>547.3</ele>
        <time>2014-09-14T12:12:36Z</time>
      </trkpt>
      <trkpt lat="45.84909" lon="4.77625">
        <ele>547.6</ele>
        <time>2014-09-14T12:12:42Z</time>
      </trkpt>
      <trkpt lat="45.84922" lon="4.77622">
        <ele>548</ele>
        <time>2014-09-14T12:12:45Z</time>
      </trkpt>
      <trkpt lat="45.84931" lon="4.77621">
        <ele>548.4</ele>
        <time>2014-09-14T12:12:47Z</time>
      </trkpt>
      <trkpt lat="45.84943" lon="4.7762">
        <ele>548.7</ele>
        <time>2014-09-14T12:12:50Z</time>
      </trkpt>
      <trkpt lat="45.84956" lon="4.7762">
        <ele>550.5</ele>
        <time>2014-09-14T12:12:54Z</time>
      </trkpt>
      <trkpt lat="45.84969" lon="4.7762">
        <ele>551.8</ele>
        <time>2014-09-14T12:12:57Z</time>
      </trkpt>
      <trkpt lat="45.8498" lon="4.77622">
        <ele>553.1</ele>
        <time>2014-09-14T12:13:00Z</time>
      </trkpt>
      <trkpt lat="45.84993" lon="4.77625">
        <ele>553.5</ele>
        <time>2014-09-14T12:13:03Z</time>
      </trkpt>
      <trkpt lat="45.85005" lon="4.77631">
        <ele>553.8</ele>
        <time>2014-09-14T12:13:06Z</time>
      </trkpt>
      <trkpt lat="45.85015" lon="4.77635">
        <ele>554.2</ele>
        <time>2014-09-14T12:13:08Z</time>
      </trkpt>
      <trkpt lat="45.85026" lon="4.77642">
        <ele>554.5</ele>
        <time>2014-09-14T12:13:11Z</time>
      </trkpt>
      <trkpt lat="45.85035" lon="4.7765">
        <ele>555.1</ele>
        <time>2014-09-14T12:13:13Z</time>
      </trkpt>
      <trkpt lat="45.85047" lon="4.77659">
        <ele>557.1</ele>
        <time>2014-09-14T12:13:18Z</time>
      </trkpt>
      <trkpt lat="45.85055" lon="4.77665">
        <ele>559.1</ele>
        <time>2014-09-14T12:13:23Z</time>
      </trkpt>
      <trkpt lat="45.85063" lon="4.77673">
        <ele>561.1</ele>
        <time>2014-09-14T12:13:26Z</time>
      </trkpt>
      <trkpt lat="45.8507" lon="4.77685">
        <ele>561.6</ele>
        <time>2014-09-14T12:13:31Z</time>
      </trkpt>
      <trkpt lat="45.85072" lon="4.77699">
        <ele>562.2</ele>
        <time>2014-09-14T12:13:37Z</time>
      </trkpt>
      <trkpt lat="45.85074" lon="4.77713">
        <ele>562.7</ele>
        <time>2014-09-14T12:13:42Z</time>
      </trkpt>
      <trkpt lat="45.8508" lon="4.77725">
        <ele>564.2</ele>
        <time>2014-09-14T12:13:47Z</time>
      </trkpt>
      <trkpt lat="45.85084" lon="4.77737">
        <ele>566.3</ele>
        <time>2014-09-14T12:13:54Z</time>
      </trkpt>
      <trkpt lat="45.85089" lon="4.77749">
        <ele>568.4</ele>
        <time>2014-09-14T12:14:00Z</time>
      </trkpt>
      <trkpt lat="45.85095" lon="4.77763">
        <ele>570.5</ele>
        <time>2014-09-14T12:14:07Z</time>
      </trkpt>
      <trkpt lat="45.851" lon="4.77776">
        <ele>572.5</ele>
        <time>2014-09-14T12:14:14Z</time>
      </trkpt>
      <trkpt lat="45.85102" lon="4.7779">
        <ele>573.2</ele>
        <time>2014-09-14T12:14:20Z</time>
      </trkpt>
      <trkpt lat="45.85101" lon="4.77804">
        <ele>574.3</ele>
        <time>2014-09-14T12:14:28Z</time>
      </trkpt>
      <trkpt lat="45.85099" lon="4.77819">
        <ele>575.4</ele>
        <time>2014-09-14T12:14:36Z</time>
      </trkpt>
      <trkpt lat="45.85098" lon="4.77835">
        <ele>576.5</ele>
        <time>2014-09-14T12:14:42Z</time>
      </trkpt>
      <trkpt lat="45.85097" lon="4.77848">
        <ele>577.5</ele>
        <time>2014-09-14T12:14:48Z</time>
      </trkpt>
      <trkpt lat="45.85094" lon="4.7786">
        <ele>578.6</ele>
        <time>2014-09-14T12:14:56Z</time>
      </trkpt>
      <trkpt lat="45.85095" lon="4.77882">
        <ele>579.7</ele>
        <time>2014-09-14T12:15:03Z</time>
      </trkpt>
      <trkpt lat="45.85101" lon="4.77892">
        <ele>581.1</ele>
        <time>2014-09-14T12:15:06Z</time>
      </trkpt>
      <trkpt lat="45.85108" lon="4.77902">
        <ele>582.5</ele>
        <time>2014-09-14T12:15:09Z</time>
      </trkpt>
      <trkpt lat="45.85115" lon="4.77912">
        <ele>583.8</ele>
        <time>2014-09-14T12:15:11Z</time>
      </trkpt>
      <trkpt lat="45.85121" lon="4.77927">
        <ele>582.3</ele>
        <time>2014-09-14T12:15:13Z</time>
      </trkpt>
      <trkpt lat="45.85123" lon="4.77945">
        <ele>580.7</ele>
        <time>2014-09-14T12:15:15Z</time>
      </trkpt>
      <trkpt lat="45.85124" lon="4.77963">
        <ele>579.5</ele>
        <time>2014-09-14T12:15:17Z</time>
      </trkpt>
      <trkpt lat="45.85126" lon="4.77978">
        <ele>578.2</ele>
        <time>2014-09-14T12:15:19Z</time>
      </trkpt>
      <trkpt lat="45.85127" lon="4.77994">
        <ele>576.9</ele>
        <time>2014-09-14T12:15:21Z</time>
      </trkpt>
      <trkpt lat="45.8513" lon="4.78011">
        <ele>575.6</ele>
        <time>2014-09-14T12:15:23Z</time>
      </trkpt>
      <trkpt lat="45.85133" lon="4.78029">
        <ele>574.4</ele>
        <time>2014-09-14T12:15:25Z</time>
      </trkpt>
      <trkpt lat="45.85139" lon="4.78048">
        <ele>573.1</ele>
        <time>2014-09-14T12:15:27Z</time>
      </trkpt>
      <trkpt lat="45.85145" lon="4.78066">
        <ele>570.9</ele>
        <time>2014-09-14T12:15:29Z</time>
      </trkpt>
      <trkpt lat="45.8515" lon="4.78079">
        <ele>569.6</ele>
        <time>2014-09-14T12:15:30Z</time>
      </trkpt>
      <trkpt lat="45.85155" lon="4.7809">
        <ele>568.4</ele>
        <time>2014-09-14T12:15:31Z</time>
      </trkpt>
      <trkpt lat="45.85162" lon="4.78101">
        <ele>567.9</ele>
        <time>2014-09-14T12:15:32Z</time>
      </trkpt>
      <trkpt lat="45.85169" lon="4.78114">
        <ele>567.5</ele>
        <time>2014-09-14T12:15:33Z</time>
      </trkpt>
      <trkpt lat="45.85176" lon="4.78125">
        <ele>566.3</ele>
        <time>2014-09-14T12:15:34Z</time>
      </trkpt>
      <trkpt lat="45.85189" lon="4.78148">
        <ele>565.1</ele>
        <time>2014-09-14T12:15:36Z</time>
      </trkpt>
      <trkpt lat="45.85201" lon="4.78168">
        <ele>564.6</ele>
        <time>2014-09-14T12:15:38Z</time>
      </trkpt>
      <trkpt lat="45.85212" lon="4.78185">
        <ele>564.2</ele>
        <time>2014-09-14T12:15:40Z</time>
      </trkpt>
      <trkpt lat="45.85225" lon="4.78203">
        <ele>563.7</ele>
        <time>2014-09-14T12:15:42Z</time>
      </trkpt>
      <trkpt lat="45.85234" lon="4.78211">
        <ele>563.3</ele>
        <time>2014-09-14T12:15:43Z</time>
      </trkpt>
      <trkpt lat="45.85241" lon="4.78219">
        <ele>560.3</ele>
        <time>2014-09-14T12:15:44Z</time>
      </trkpt>
      <trkpt lat="45.85253" lon="4.78235">
        <ele>558</ele>
        <time>2014-09-14T12:15:46Z</time>
      </trkpt>
      <trkpt lat="45.8526" lon="4.78244">
        <ele>555.7</ele>
        <time>2014-09-14T12:15:47Z</time>
      </trkpt>
      <trkpt lat="45.85272" lon="4.78261">
        <ele>555.5</ele>
        <time>2014-09-14T12:15:49Z</time>
      </trkpt>
      <trkpt lat="45.85284" lon="4.7828">
        <ele>555.4</ele>
        <time>2014-09-14T12:15:51Z</time>
      </trkpt>
      <trkpt lat="45.85296" lon="4.78299">
        <ele>555.2</ele>
        <time>2014-09-14T12:15:53Z</time>
      </trkpt>
      <trkpt lat="45.85308" lon="4.78318">
        <ele>555</ele>
        <time>2014-09-14T12:15:55Z</time>
      </trkpt>
      <trkpt lat="45.85321" lon="4.78331">
        <ele>554.5</ele>
        <time>2014-09-14T12:15:57Z</time>
      </trkpt>
      <trkpt lat="45.8533" lon="4.78339">
        <ele>554.1</ele>
        <time>2014-09-14T12:15:59Z</time>
      </trkpt>
      <trkpt lat="45.8534" lon="4.7835">
        <ele>553.6</ele>
        <time>2014-09-14T12:16:01Z</time>
      </trkpt>
      <trkpt lat="45.85349" lon="4.78362">
        <ele>551.4</ele>
        <time>2014-09-14T12:16:03Z</time>
      </trkpt>
      <trkpt lat="45.85358" lon="4.78374">
        <ele>551.6</ele>
        <time>2014-09-14T12:16:05Z</time>
      </trkpt>
      <trkpt lat="45.85365" lon="4.78388">
        <ele>550.3</ele>
        <time>2014-09-14T12:16:07Z</time>
      </trkpt>
      <trkpt lat="45.85371" lon="4.78402">
        <ele>548.9</ele>
        <time>2014-09-14T12:16:09Z</time>
      </trkpt>
      <trkpt lat="45.85379" lon="4.78415">
        <ele>548.5</ele>
        <time>2014-09-14T12:16:11Z</time>
      </trkpt>
      <trkpt lat="45.85387" lon="4.78428">
        <ele>548.2</ele>
        <time>2014-09-14T12:16:13Z</time>
      </trkpt>
      <trkpt lat="45.85394" lon="4.7844">
        <ele>547.8</ele>
        <time>2014-09-14T12:16:15Z</time>
      </trkpt>
      <trkpt lat="45.854" lon="4.7845">
        <ele>547.5</ele>
        <time>2014-09-14T12:16:17Z</time>
      </trkpt>
      <trkpt lat="45.85406" lon="4.7846">
        <ele>545.5</ele>
        <time>2014-09-14T12:16:19Z</time>
      </trkpt>
      <trkpt lat="45.85418" lon="4.78475">
        <ele>543.5</ele>
        <time>2014-09-14T12:16:21Z</time>
      </trkpt>
      <trkpt lat="45.85425" lon="4.78484">
        <ele>542.1</ele>
        <time>2014-09-14T12:16:22Z</time>
      </trkpt>
      <trkpt lat="45.85438" lon="4.785">
        <ele>542.5</ele>
        <time>2014-09-14T12:16:24Z</time>
      </trkpt>
      <trkpt lat="45.85453" lon="4.78514">
        <ele>543</ele>
        <time>2014-09-14T12:16:26Z</time>
      </trkpt>
      <trkpt lat="45.85468" lon="4.78528">
        <ele>543.5</ele>
        <time>2014-09-14T12:16:28Z</time>
      </trkpt>
      <trkpt lat="45.85482" lon="4.78543">
        <ele>543.9</ele>
        <time>2014-09-14T12:16:30Z</time>
      </trkpt>
      <trkpt lat="45.85495" lon="4.7856">
        <ele>542.9</ele>
        <time>2014-09-14T12:16:32Z</time>
      </trkpt>
      <trkpt lat="45.85508" lon="4.78574">
        <ele>541.9</ele>
        <time>2014-09-14T12:16:34Z</time>
      </trkpt>
      <trkpt lat="45.85519" lon="4.78584">
        <ele>540.9</ele>
        <time>2014-09-14T12:16:36Z</time>
      </trkpt>
      <trkpt lat="45.85531" lon="4.7859">
        <ele>539.9</ele>
        <time>2014-09-14T12:16:38Z</time>
      </trkpt>
      <trkpt lat="45.85542" lon="4.78594">
        <ele>540.1</ele>
        <time>2014-09-14T12:16:40Z</time>
      </trkpt>
      <trkpt lat="45.85556" lon="4.78598">
        <ele>540.4</ele>
        <time>2014-09-14T12:16:43Z</time>
      </trkpt>
      <trkpt lat="45.85567" lon="4.78603">
        <ele>540.4</ele>
        <time>2014-09-14T12:16:45Z</time>
      </trkpt>
      <trkpt lat="45.85576" lon="4.78611">
        <ele>540.4</ele>
        <time>2014-09-14T12:16:47Z</time>
      </trkpt>
      <trkpt lat="45.85586" lon="4.78618">
        <ele>540.4</ele>
        <time>2014-09-14T12:16:49Z</time>
      </trkpt>
      <trkpt lat="45.85607" lon="4.78629">
        <ele>540.4</ele>
        <time>2014-09-14T12:16:56Z</time>
      </trkpt>
      <trkpt lat="45.85617" lon="4.78641">
        <ele>540.4</ele>
        <time>2014-09-14T12:16:59Z</time>
      </trkpt>
      <trkpt lat="45.85629" lon="4.78654">
        <ele>540.8</ele>
        <time>2014-09-14T12:17:03Z</time>
      </trkpt>
      <trkpt lat="45.85641" lon="4.78662">
        <ele>540.4</ele>
        <time>2014-09-14T12:17:06Z</time>
      </trkpt>
      <trkpt lat="45.85656" lon="4.78672">
        <ele>539.9</ele>
        <time>2014-09-14T12:17:11Z</time>
      </trkpt>
      <trkpt lat="45.85664" lon="4.78679">
        <ele>539.5</ele>
        <time>2014-09-14T12:17:13Z</time>
      </trkpt>
      <trkpt lat="45.85673" lon="4.78692">
        <ele>539.5</ele>
        <time>2014-09-14T12:17:16Z</time>
      </trkpt>
      <trkpt lat="45.85682" lon="4.78704">
        <ele>539.4</ele>
        <time>2014-09-14T12:17:20Z</time>
      </trkpt>
      <trkpt lat="45.85693" lon="4.78716">
        <ele>538.9</ele>
        <time>2014-09-14T12:17:24Z</time>
      </trkpt>
      <trkpt lat="45.85701" lon="4.78728">
        <ele>538.5</ele>
        <time>2014-09-14T12:17:27Z</time>
      </trkpt>
      <trkpt lat="45.85708" lon="4.7874">
        <ele>538</ele>
        <time>2014-09-14T12:17:30Z</time>
      </trkpt>
      <trkpt lat="45.85716" lon="4.78751">
        <ele>537.5</ele>
        <time>2014-09-14T12:17:33Z</time>
      </trkpt>
      <trkpt lat="45.85723" lon="4.7876">
        <ele>537.1</ele>
        <time>2014-09-14T12:17:36Z</time>
      </trkpt>
      <trkpt lat="45.85733" lon="4.78771">
        <ele>535.5</ele>
        <time>2014-09-14T12:17:42Z</time>
      </trkpt>
      <trkpt lat="45.85739" lon="4.78781">
        <ele>535.6</ele>
        <time>2014-09-14T12:17:47Z</time>
      </trkpt>
      <trkpt lat="45.85752" lon="4.78788">
        <ele>535.7</ele>
        <time>2014-09-14T12:17:52Z</time>
      </trkpt>
      <trkpt lat="45.85763" lon="4.7879">
        <ele>535.8</ele>
        <time>2014-09-14T12:17:55Z</time>
      </trkpt>
      <trkpt lat="45.85775" lon="4.78795">
        <ele>534.5</ele>
        <time>2014-09-14T12:17:58Z</time>
      </trkpt>
      <trkpt lat="45.85785" lon="4.78797">
        <ele>533.3</ele>
        <time>2014-09-14T12:18:00Z</time>
      </trkpt>
      <trkpt lat="45.85794" lon="4.78799">
        <ele>532</ele>
        <time>2014-09-14T12:18:03Z</time>
      </trkpt>
      <trkpt lat="45.85808" lon="4.78804">
        <ele>530.7</ele>
        <time>2014-09-14T12:18:08Z</time>
      </trkpt>
      <trkpt lat="45.85823" lon="4.78796">
        <ele>528.5</ele>
        <time>2014-09-14T12:18:19Z</time>
      </trkpt>
      <trkpt lat="45.85825" lon="4.78778">
        <ele>526.2</ele>
        <time>2014-09-14T12:18:22Z</time>
      </trkpt>
      <trkpt lat="45.85825" lon="4.78763">
        <ele>523.9</ele>
        <time>2014-09-14T12:18:24Z</time>
      </trkpt>
      <trkpt lat="45.85826" lon="4.78745">
        <ele>522.7</ele>
        <time>2014-09-14T12:18:26Z</time>
      </trkpt>
      <trkpt lat="45.85829" lon="4.78724">
        <ele>520.8</ele>
        <time>2014-09-14T12:18:28Z</time>
      </trkpt>
      <trkpt lat="45.85831" lon="4.7871">
        <ele>517.9</ele>
        <time>2014-09-14T12:18:29Z</time>
      </trkpt>
      <trkpt lat="45.85834" lon="4.78688">
        <ele>515</ele>
        <time>2014-09-14T12:18:31Z</time>
      </trkpt>
      <trkpt lat="45.85834" lon="4.78671">
        <ele>513</ele>
        <time>2014-09-14T12:18:33Z</time>
      </trkpt>
      <trkpt lat="45.85832" lon="4.78652">
        <ele>511</ele>
        <time>2014-09-14T12:18:35Z</time>
      </trkpt>
      <trkpt lat="45.85831" lon="4.78635">
        <ele>509</ele>
        <time>2014-09-14T12:18:37Z</time>
      </trkpt>
      <trkpt lat="45.85829" lon="4.78621">
        <ele>508.5</ele>
        <time>2014-09-14T12:18:39Z</time>
      </trkpt>
      <trkpt lat="45.85825" lon="4.78607">
        <ele>509.1</ele>
        <time>2014-09-14T12:18:41Z</time>
      </trkpt>
      <trkpt lat="45.85819" lon="4.78595">
        <ele>508</ele>
        <time>2014-09-14T12:18:43Z</time>
      </trkpt>
      <trkpt lat="45.8581" lon="4.78585">
        <ele>506.9</ele>
        <time>2014-09-14T12:18:46Z</time>
      </trkpt>
      <trkpt lat="45.858" lon="4.78579">
        <ele>505.8</ele>
        <time>2014-09-14T12:18:50Z</time>
      </trkpt>
      <trkpt lat="45.85789" lon="4.78569">
        <ele>504.7</ele>
        <time>2014-09-14T12:18:54Z</time>
      </trkpt>
      <trkpt lat="45.85781" lon="4.78558">
        <ele>504.6</ele>
        <time>2014-09-14T12:18:57Z</time>
      </trkpt>
      <trkpt lat="45.85774" lon="4.78548">
        <ele>504.5</ele>
        <time>2014-09-14T12:19:00Z</time>
      </trkpt>
      <trkpt lat="45.85764" lon="4.78538">
        <ele>504.5</ele>
        <time>2014-09-14T12:19:03Z</time>
      </trkpt>
      <trkpt lat="45.85757" lon="4.78529">
        <ele>503.5</ele>
        <time>2014-09-14T12:19:05Z</time>
      </trkpt>
      <trkpt lat="45.8575" lon="4.78516">
        <ele>502.5</ele>
        <time>2014-09-14T12:19:07Z</time>
      </trkpt>
      <trkpt lat="45.85743" lon="4.78503">
        <ele>500.9</ele>
        <time>2014-09-14T12:19:09Z</time>
      </trkpt>
      <trkpt lat="45.85737" lon="4.78491">
        <ele>499.4</ele>
        <time>2014-09-14T12:19:11Z</time>
      </trkpt>
      <trkpt lat="45.85731" lon="4.78479">
        <ele>499.5</ele>
        <time>2014-09-14T12:19:13Z</time>
      </trkpt>
      <trkpt lat="45.85722" lon="4.78464">
        <ele>499.5</ele>
        <time>2014-09-14T12:19:15Z</time>
      </trkpt>
      <trkpt lat="45.85714" lon="4.78449">
        <ele>499</ele>
        <time>2014-09-14T12:19:17Z</time>
      </trkpt>
      <trkpt lat="45.85707" lon="4.78434">
        <ele>498.5</ele>
        <time>2014-09-14T12:19:19Z</time>
      </trkpt>
      <trkpt lat="45.857" lon="4.7842">
        <ele>497.9</ele>
        <time>2014-09-14T12:19:21Z</time>
      </trkpt>
      <trkpt lat="45.85693" lon="4.78405">
        <ele>497.4</ele>
        <time>2014-09-14T12:19:23Z</time>
      </trkpt>
      <trkpt lat="45.85687" lon="4.78392">
        <ele>496.8</ele>
        <time>2014-09-14T12:19:25Z</time>
      </trkpt>
      <trkpt lat="45.85682" lon="4.78378">
        <ele>497.2</ele>
        <time>2014-09-14T12:19:27Z</time>
      </trkpt>
      <trkpt lat="45.85688" lon="4.78361">
        <ele>497.5</ele>
        <time>2014-09-14T12:19:38Z</time>
      </trkpt>
      <trkpt lat="45.85698" lon="4.78356">
        <ele>496.9</ele>
        <time>2014-09-14T12:19:42Z</time>
      </trkpt>
      <trkpt lat="45.85705" lon="4.78347">
        <ele>496.2</ele>
        <time>2014-09-14T12:19:45Z</time>
      </trkpt>
      <trkpt lat="45.85706" lon="4.78332">
        <ele>495.5</ele>
        <time>2014-09-14T12:19:48Z</time>
      </trkpt>
      <trkpt lat="45.85697" lon="4.78324">
        <ele>494.7</ele>
        <time>2014-09-14T12:19:52Z</time>
      </trkpt>
      <trkpt lat="45.85686" lon="4.78312">
        <ele>494.6</ele>
        <time>2014-09-14T12:20:00Z</time>
      </trkpt>
      <trkpt lat="45.85679" lon="4.78303">
        <ele>494.5</ele>
        <time>2014-09-14T12:20:05Z</time>
      </trkpt>
      <trkpt lat="45.85674" lon="4.7829">
        <ele>494.5</ele>
        <time>2014-09-14T12:20:10Z</time>
      </trkpt>
      <trkpt lat="45.85673" lon="4.78276">
        <ele>494.4</ele>
        <time>2014-09-14T12:20:13Z</time>
      </trkpt>
      <trkpt lat="45.85676" lon="4.78262">
        <ele>493.5</ele>
        <time>2014-09-14T12:20:16Z</time>
      </trkpt>
      <trkpt lat="45.85681" lon="4.78251">
        <ele>491.2</ele>
        <time>2014-09-14T12:20:21Z</time>
      </trkpt>
      <trkpt lat="45.85692" lon="4.78253">
        <ele>488.8</ele>
        <time>2014-09-14T12:20:26Z</time>
      </trkpt>
      <trkpt lat="45.85701" lon="4.78249">
        <ele>485.7</ele>
        <time>2014-09-14T12:20:55Z</time>
      </trkpt>
      <trkpt lat="45.85708" lon="4.78238">
        <ele>482.7</ele>
        <time>2014-09-14T12:21:19Z</time>
      </trkpt>
      <trkpt lat="45.85714" lon="4.78226">
        <ele>479.7</ele>
        <time>2014-09-14T12:21:49Z</time>
      </trkpt>
      <trkpt lat="45.85754" lon="4.78185">
        <ele>477</ele>
        <time>2014-09-14T12:22:00Z</time>
      </trkpt>
      <trkpt lat="45.85779" lon="4.78177">
        <ele>474.3</ele>
        <time>2014-09-14T12:22:13Z</time>
      </trkpt>
      <trkpt lat="45.85828" lon="4.78195">
        <ele>471.5</ele>
        <time>2014-09-14T12:22:24Z</time>
      </trkpt>
      <trkpt lat="45.85856" lon="4.78202">
        <ele>468.8</ele>
        <time>2014-09-14T12:22:36Z</time>
      </trkpt>
      <trkpt lat="45.85872" lon="4.78205">
        <ele>468.3</ele>
        <time>2014-09-14T12:22:39Z</time>
      </trkpt>
      <trkpt lat="45.85883" lon="4.78204">
        <ele>468.5</ele>
        <time>2014-09-14T12:22:40Z</time>
      </trkpt>
      <trkpt lat="45.85895" lon="4.78203">
        <ele>470.2</ele>
        <time>2014-09-14T12:22:42Z</time>
      </trkpt>
      <trkpt lat="45.85908" lon="4.78212">
        <ele>471.9</ele>
        <time>2014-09-14T12:22:50Z</time>
      </trkpt>
      <trkpt lat="45.85917" lon="4.78219">
        <ele>472.4</ele>
        <time>2014-09-14T12:22:55Z</time>
      </trkpt>
      <trkpt lat="45.85927" lon="4.78221">
        <ele>472.8</ele>
        <time>2014-09-14T12:22:59Z</time>
      </trkpt>
      <trkpt lat="45.85937" lon="4.78222">
        <ele>473.3</ele>
        <time>2014-09-14T12:23:03Z</time>
      </trkpt>
      <trkpt lat="45.85947" lon="4.78224">
        <ele>473.5</ele>
        <time>2014-09-14T12:23:07Z</time>
      </trkpt>
      <trkpt lat="45.85956" lon="4.78221">
        <ele>473.6</ele>
        <time>2014-09-14T12:23:10Z</time>
      </trkpt>
      <trkpt lat="45.85965" lon="4.78217">
        <ele>473.8</ele>
        <time>2014-09-14T12:23:15Z</time>
      </trkpt>
      <trkpt lat="45.85972" lon="4.7821">
        <ele>476.2</ele>
        <time>2014-09-14T12:23:19Z</time>
      </trkpt>
      <trkpt lat="45.85981" lon="4.78206">
        <ele>476.4</ele>
        <time>2014-09-14T12:23:24Z</time>
      </trkpt>
      <trkpt lat="45.85993" lon="4.78206">
        <ele>476.5</ele>
        <time>2014-09-14T12:23:31Z</time>
      </trkpt>
      <trkpt lat="45.86003" lon="4.78211">
        <ele>476.3</ele>
        <time>2014-09-14T12:23:34Z</time>
      </trkpt>
      <trkpt lat="45.86011" lon="4.78218">
        <ele>476</ele>
        <time>2014-09-14T12:23:37Z</time>
      </trkpt>
      <trkpt lat="45.8602" lon="4.78227">
        <ele>477.7</ele>
        <time>2014-09-14T12:23:41Z</time>
      </trkpt>
      <trkpt lat="45.8603" lon="4.78236">
        <ele>479.5</ele>
        <time>2014-09-14T12:23:45Z</time>
      </trkpt>
      <trkpt lat="45.86039" lon="4.78243">
        <ele>481.2</ele>
        <time>2014-09-14T12:23:48Z</time>
      </trkpt>
      <trkpt lat="45.86049" lon="4.7825">
        <ele>482.9</ele>
        <time>2014-09-14T12:23:52Z</time>
      </trkpt>
      <trkpt lat="45.86061" lon="4.78254">
        <ele>484.6</ele>
        <time>2014-09-14T12:23:55Z</time>
      </trkpt>
      <trkpt lat="45.86069" lon="4.78258">
        <ele>486.4</ele>
        <time>2014-09-14T12:23:57Z</time>
      </trkpt>
      <trkpt lat="45.86081" lon="4.78262">
        <ele>485</ele>
        <time>2014-09-14T12:24:00Z</time>
      </trkpt>
      <trkpt lat="45.86095" lon="4.78268">
        <ele>483.6</ele>
        <time>2014-09-14T12:24:03Z</time>
      </trkpt>
      <trkpt lat="45.86106" lon="4.78274">
        <ele>482.3</ele>
        <time>2014-09-14T12:24:05Z</time>
      </trkpt>
      <trkpt lat="45.86117" lon="4.78283">
        <ele>481.4</ele>
        <time>2014-09-14T12:24:07Z</time>
      </trkpt>
      <trkpt lat="45.86127" lon="4.78293">
        <ele>480.5</ele>
        <time>2014-09-14T12:24:09Z</time>
      </trkpt>
      <trkpt lat="45.86133" lon="4.78304">
        <ele>479</ele>
        <time>2014-09-14T12:24:11Z</time>
      </trkpt>
      <trkpt lat="45.86137" lon="4.78322">
        <ele>477.5</ele>
        <time>2014-09-14T12:24:15Z</time>
      </trkpt>
      <trkpt lat="45.86136" lon="4.78338">
        <ele>476.1</ele>
        <time>2014-09-14T12:24:20Z</time>
      </trkpt>
      <trkpt lat="45.86133" lon="4.78357">
        <ele>474.6</ele>
        <time>2014-09-14T12:24:22Z</time>
      </trkpt>
      <trkpt lat="45.86131" lon="4.78371">
        <ele>473.2</ele>
        <time>2014-09-14T12:24:25Z</time>
      </trkpt>
      <trkpt lat="45.86134" lon="4.78387">
        <ele>472.9</ele>
        <time>2014-09-14T12:24:28Z</time>
      </trkpt>
      <trkpt lat="45.86136" lon="4.78402">
        <ele>472.6</ele>
        <time>2014-09-14T12:24:30Z</time>
      </trkpt>
      <trkpt lat="45.86138" lon="4.78418">
        <ele>472.4</ele>
        <time>2014-09-14T12:24:32Z</time>
      </trkpt>
      <trkpt lat="45.86137" lon="4.78436">
        <ele>472.1</ele>
        <time>2014-09-14T12:24:35Z</time>
      </trkpt>
      <trkpt lat="45.86132" lon="4.7845">
        <ele>471.8</ele>
        <time>2014-09-14T12:24:38Z</time>
      </trkpt>
      <trkpt lat="45.86126" lon="4.78462">
        <ele>470.6</ele>
        <time>2014-09-14T12:24:41Z</time>
      </trkpt>
      <trkpt lat="45.86118" lon="4.78476">
        <ele>470</ele>
        <time>2014-09-14T12:24:44Z</time>
      </trkpt>
      <trkpt lat="45.86112" lon="4.78487">
        <ele>469.4</ele>
        <time>2014-09-14T12:24:49Z</time>
      </trkpt>
      <trkpt lat="45.86114" lon="4.785">
        <ele>468.7</ele>
        <time>2014-09-14T12:24:53Z</time>
      </trkpt>
      <trkpt lat="45.86123" lon="4.78507">
        <ele>468.1</ele>
        <time>2014-09-14T12:24:55Z</time>
      </trkpt>
      <trkpt lat="45.86135" lon="4.78508">
        <ele>467.5</ele>
        <time>2014-09-14T12:24:57Z</time>
      </trkpt>
      <trkpt lat="45.86149" lon="4.78508">
        <ele>466.3</ele>
        <time>2014-09-14T12:24:59Z</time>
      </trkpt>
      <trkpt lat="45.86161" lon="4.78506">
        <ele>466</ele>
        <time>2014-09-14T12:25:03Z</time>
      </trkpt>
      <trkpt lat="45.86172" lon="4.78501">
        <ele>465.1</ele>
        <time>2014-09-14T12:25:04Z</time>
      </trkpt>
      <trkpt lat="45.8618" lon="4.78492">
        <ele>464.2</ele>
        <time>2014-09-14T12:25:07Z</time>
      </trkpt>
      <trkpt lat="45.86189" lon="4.78478">
        <ele>463.3</ele>
        <time>2014-09-14T12:25:10Z</time>
      </trkpt>
      <trkpt lat="45.86194" lon="4.78466">
        <ele>463.3</ele>
        <time>2014-09-14T12:25:13Z</time>
      </trkpt>
      <trkpt lat="45.86199" lon="4.78455">
        <ele>460.9</ele>
        <time>2014-09-14T12:25:16Z</time>
      </trkpt>
      <trkpt lat="45.86199" lon="4.78468">
        <ele>458.5</ele>
        <time>2014-09-14T12:25:31Z</time>
      </trkpt>
      <trkpt lat="45.86198" lon="4.78486">
        <ele>457</ele>
        <time>2014-09-14T12:25:35Z</time>
      </trkpt>
      <trkpt lat="45.86202" lon="4.78499">
        <ele>455.5</ele>
        <time>2014-09-14T12:25:37Z</time>
      </trkpt>
      <trkpt lat="45.86207" lon="4.78511">
        <ele>453.9</ele>
        <time>2014-09-14T12:25:39Z</time>
      </trkpt>
      <trkpt lat="45.86214" lon="4.78522">
        <ele>451.7</ele>
        <time>2014-09-14T12:25:41Z</time>
      </trkpt>
      <trkpt lat="45.86223" lon="4.78536">
        <ele>449.5</ele>
        <time>2014-09-14T12:25:43Z</time>
      </trkpt>
      <trkpt lat="45.86233" lon="4.78549">
        <ele>448</ele>
        <time>2014-09-14T12:25:45Z</time>
      </trkpt>
      <trkpt lat="45.86241" lon="4.78561">
        <ele>446.5</ele>
        <time>2014-09-14T12:25:47Z</time>
      </trkpt>
      <trkpt lat="45.86251" lon="4.78569">
        <ele>443.5</ele>
        <time>2014-09-14T12:25:50Z</time>
      </trkpt>
      <trkpt lat="45.86261" lon="4.78574">
        <ele>440.6</ele>
        <time>2014-09-14T12:25:53Z</time>
      </trkpt>
      <trkpt lat="45.86272" lon="4.78579">
        <ele>440.1</ele>
        <time>2014-09-14T12:25:56Z</time>
      </trkpt>
      <trkpt lat="45.86283" lon="4.78583">
        <ele>439.5</ele>
        <time>2014-09-14T12:25:59Z</time>
      </trkpt>
      <trkpt lat="45.86292" lon="4.78586">
        <ele>438.2</ele>
        <time>2014-09-14T12:26:02Z</time>
      </trkpt>
      <trkpt lat="45.86304" lon="4.7859">
        <ele>436.8</ele>
        <time>2014-09-14T12:26:05Z</time>
      </trkpt>
      <trkpt lat="45.86316" lon="4.78597">
        <ele>435.5</ele>
        <time>2014-09-14T12:26:07Z</time>
      </trkpt>
      <trkpt lat="45.86326" lon="4.78602">
        <ele>434.1</ele>
        <time>2014-09-14T12:26:10Z</time>
      </trkpt>
      <trkpt lat="45.86335" lon="4.78607">
        <ele>432.3</ele>
        <time>2014-09-14T12:26:13Z</time>
      </trkpt>
      <trkpt lat="45.86346" lon="4.7861">
        <ele>430.5</ele>
        <time>2014-09-14T12:26:17Z</time>
      </trkpt>
      <trkpt lat="45.86356" lon="4.78615">
        <ele>428.6</ele>
        <time>2014-09-14T12:26:20Z</time>
      </trkpt>
      <trkpt lat="45.86364" lon="4.78618">
        <ele>428.2</ele>
        <time>2014-09-14T12:26:23Z</time>
      </trkpt>
      <trkpt lat="45.86376" lon="4.78619">
        <ele>429.5</ele>
        <time>2014-09-14T12:26:27Z</time>
      </trkpt>
      <trkpt lat="45.86391" lon="4.78622">
        <ele>430.9</ele>
        <time>2014-09-14T12:26:30Z</time>
      </trkpt>
      <trkpt lat="45.86408" lon="4.7862">
        <ele>430.9</ele>
        <time>2014-09-14T12:26:32Z</time>
      </trkpt>
      <trkpt lat="45.86422" lon="4.78622">
        <ele>430.9</ele>
        <time>2014-09-14T12:26:34Z</time>
      </trkpt>
      <trkpt lat="45.86438" lon="4.7863">
        <ele>430.9</ele>
        <time>2014-09-14T12:26:36Z</time>
      </trkpt>
      <trkpt lat="45.86447" lon="4.78635">
        <ele>430.9</ele>
        <time>2014-09-14T12:26:37Z</time>
      </trkpt>
      <trkpt lat="45.86463" lon="4.78639">
        <ele>430.9</ele>
        <time>2014-09-14T12:26:39Z</time>
      </trkpt>
      <trkpt lat="45.86478" lon="4.78639">
        <ele>431.4</ele>
        <time>2014-09-14T12:26:41Z</time>
      </trkpt>
      <trkpt lat="45.86495" lon="4.78646">
        <ele>429.7</ele>
        <time>2014-09-14T12:26:43Z</time>
      </trkpt>
      <trkpt lat="45.86508" lon="4.78657">
        <ele>428.1</ele>
        <time>2014-09-14T12:26:45Z</time>
      </trkpt>
      <trkpt lat="45.86521" lon="4.78666">
        <ele>426.8</ele>
        <time>2014-09-14T12:26:47Z</time>
      </trkpt>
      <trkpt lat="45.8653" lon="4.78675">
        <ele>423.7</ele>
        <time>2014-09-14T12:26:49Z</time>
      </trkpt>
      <trkpt lat="45.8654" lon="4.78685">
        <ele>420.6</ele>
        <time>2014-09-14T12:26:51Z</time>
      </trkpt>
      <trkpt lat="45.8655" lon="4.78697">
        <ele>418.9</ele>
        <time>2014-09-14T12:26:53Z</time>
      </trkpt>
      <trkpt lat="45.86559" lon="4.78713">
        <ele>417.2</ele>
        <time>2014-09-14T12:26:55Z</time>
      </trkpt>
      <trkpt lat="45.86571" lon="4.78733">
        <ele>416.5</ele>
        <time>2014-09-14T12:26:57Z</time>
      </trkpt>
      <trkpt lat="45.86583" lon="4.78747">
        <ele>414.8</ele>
        <time>2014-09-14T12:26:59Z</time>
      </trkpt>
      <trkpt lat="45.86595" lon="4.78762">
        <ele>413.2</ele>
        <time>2014-09-14T12:27:01Z</time>
      </trkpt>
      <trkpt lat="45.86605" lon="4.78779">
        <ele>411.5</ele>
        <time>2014-09-14T12:27:03Z</time>
      </trkpt>
      <trkpt lat="45.86612" lon="4.78794">
        <ele>412</ele>
        <time>2014-09-14T12:27:05Z</time>
      </trkpt>
      <trkpt lat="45.8662" lon="4.78817">
        <ele>412.5</ele>
        <time>2014-09-14T12:27:10Z</time>
      </trkpt>
      <trkpt lat="45.86628" lon="4.78827">
        <ele>412.5</ele>
        <time>2014-09-14T12:27:14Z</time>
      </trkpt>
      <trkpt lat="45.86641" lon="4.78827">
        <ele>412.6</ele>
        <time>2014-09-14T12:27:17Z</time>
      </trkpt>
      <trkpt lat="45.86654" lon="4.78826">
        <ele>412.2</ele>
        <time>2014-09-14T12:27:20Z</time>
      </trkpt>
      <trkpt lat="45.86665" lon="4.78826">
        <ele>411.7</ele>
        <time>2014-09-14T12:27:23Z</time>
      </trkpt>
      <trkpt lat="45.86675" lon="4.78826">
        <ele>411.3</ele>
        <time>2014-09-14T12:27:26Z</time>
      </trkpt>
      <trkpt lat="45.86686" lon="4.78825">
        <ele>409.8</ele>
        <time>2014-09-14T12:27:29Z</time>
      </trkpt>
      <trkpt lat="45.86702" lon="4.78827">
        <ele>409.3</ele>
        <time>2014-09-14T12:27:33Z</time>
      </trkpt>
      <trkpt lat="45.86712" lon="4.78828">
        <ele>408.7</ele>
        <time>2014-09-14T12:27:36Z</time>
      </trkpt>
      <trkpt lat="45.86724" lon="4.78832">
        <ele>409</ele>
        <time>2014-09-14T12:27:39Z</time>
      </trkpt>
      <trkpt lat="45.86733" lon="4.78839">
        <ele>409.3</ele>
        <time>2014-09-14T12:27:41Z</time>
      </trkpt>
      <trkpt lat="45.86741" lon="4.78848">
        <ele>409.5</ele>
        <time>2014-09-14T12:27:43Z</time>
      </trkpt>
      <trkpt lat="45.86748" lon="4.78855">
        <ele>409.8</ele>
        <time>2014-09-14T12:27:45Z</time>
      </trkpt>
      <trkpt lat="45.86755" lon="4.78866">
        <ele>409.3</ele>
        <time>2014-09-14T12:27:47Z</time>
      </trkpt>
      <trkpt lat="45.86759" lon="4.7888">
        <ele>409.3</ele>
        <time>2014-09-14T12:27:49Z</time>
      </trkpt>
      <trkpt lat="45.86767" lon="4.78896">
        <ele>409.3</ele>
        <time>2014-09-14T12:27:53Z</time>
      </trkpt>
      <trkpt lat="45.86775" lon="4.78904">
        <ele>409.3</ele>
        <time>2014-09-14T12:27:57Z</time>
      </trkpt>
      <trkpt lat="45.8678" lon="4.78888">
        <ele>408.3</ele>
        <time>2014-09-14T12:28:02Z</time>
      </trkpt>
      <trkpt lat="45.86782" lon="4.78871">
        <ele>407.3</ele>
        <time>2014-09-14T12:28:04Z</time>
      </trkpt>
      <trkpt lat="45.86782" lon="4.78853">
        <ele>406.3</ele>
        <time>2014-09-14T12:28:07Z</time>
      </trkpt>
      <trkpt lat="45.86781" lon="4.7884">
        <ele>404.5</ele>
        <time>2014-09-14T12:28:11Z</time>
      </trkpt>
      <trkpt lat="45.86785" lon="4.78827">
        <ele>402.6</ele>
        <time>2014-09-14T12:28:15Z</time>
      </trkpt>
      <trkpt lat="45.86794" lon="4.78825">
        <ele>400.8</ele>
        <time>2014-09-14T12:28:17Z</time>
      </trkpt>
      <trkpt lat="45.8681" lon="4.78825">
        <ele>399</ele>
        <time>2014-09-14T12:28:21Z</time>
      </trkpt>
      <trkpt lat="45.8682" lon="4.78824">
        <ele>397.2</ele>
        <time>2014-09-14T12:28:23Z</time>
      </trkpt>
      <trkpt lat="45.86832" lon="4.7882">
        <ele>395</ele>
        <time>2014-09-14T12:28:25Z</time>
      </trkpt>
      <trkpt lat="45.86843" lon="4.78816">
        <ele>392.8</ele>
        <time>2014-09-14T12:28:27Z</time>
      </trkpt>
      <trkpt lat="45.86853" lon="4.78812">
        <ele>390.6</ele>
        <time>2014-09-14T12:28:29Z</time>
      </trkpt>
      <trkpt lat="45.86866" lon="4.78806">
        <ele>389.5</ele>
        <time>2014-09-14T12:28:31Z</time>
      </trkpt>
      <trkpt lat="45.8688" lon="4.78794">
        <ele>388.3</ele>
        <time>2014-09-14T12:28:35Z</time>
      </trkpt>
      <trkpt lat="45.86889" lon="4.78787">
        <ele>387.1</ele>
        <time>2014-09-14T12:28:38Z</time>
      </trkpt>
      <trkpt lat="45.86902" lon="4.78775">
        <ele>385.9</ele>
        <time>2014-09-14T12:28:43Z</time>
      </trkpt>
      <trkpt lat="45.86911" lon="4.78769">
        <ele>384.7</ele>
        <time>2014-09-14T12:28:46Z</time>
      </trkpt>
      <trkpt lat="45.86923" lon="4.78765">
        <ele>382.9</ele>
        <time>2014-09-14T12:28:49Z</time>
      </trkpt>
      <trkpt lat="45.86935" lon="4.78764">
        <ele>381.1</ele>
        <time>2014-09-14T12:28:52Z</time>
      </trkpt>
      <trkpt lat="45.86945" lon="4.78762">
        <ele>380.1</ele>
        <time>2014-09-14T12:28:54Z</time>
      </trkpt>
      <trkpt lat="45.86954" lon="4.78758">
        <ele>379.5</ele>
        <time>2014-09-14T12:28:56Z</time>
      </trkpt>
      <trkpt lat="45.86963" lon="4.78756">
        <ele>378.8</ele>
        <time>2014-09-14T12:28:58Z</time>
      </trkpt>
      <trkpt lat="45.86975" lon="4.7875">
        <ele>377.6</ele>
        <time>2014-09-14T12:29:00Z</time>
      </trkpt>
      <trkpt lat="45.86988" lon="4.78742">
        <ele>376.5</ele>
        <time>2014-09-14T12:29:02Z</time>
      </trkpt>
      <trkpt lat="45.87004" lon="4.78737">
        <ele>375.3</ele>
        <time>2014-09-14T12:29:04Z</time>
      </trkpt>
      <trkpt lat="45.87019" lon="4.78735">
        <ele>374.1</ele>
        <time>2014-09-14T12:29:06Z</time>
      </trkpt>
      <trkpt lat="45.87034" lon="4.78732">
        <ele>372.9</ele>
        <time>2014-09-14T12:29:08Z</time>
      </trkpt>
      <trkpt lat="45.87047" lon="4.7873">
        <ele>371.7</ele>
        <time>2014-09-14T12:29:10Z</time>
      </trkpt>
      <trkpt lat="45.87058" lon="4.78732">
        <ele>371.2</ele>
        <time>2014-09-14T12:29:12Z</time>
      </trkpt>
      <trkpt lat="45.8707" lon="4.78731">
        <ele>370.6</ele>
        <time>2014-09-14T12:29:14Z</time>
      </trkpt>
      <trkpt lat="45.87079" lon="4.78724">
        <ele>370.1</ele>
        <time>2014-09-14T12:29:16Z</time>
      </trkpt>
      <trkpt lat="45.87088" lon="4.78718">
        <ele>369.5</ele>
        <time>2014-09-14T12:29:18Z</time>
      </trkpt>
      <trkpt lat="45.871" lon="4.78717">
        <ele>368.4</ele>
        <time>2014-09-14T12:29:21Z</time>
      </trkpt>
      <trkpt lat="45.87106" lon="4.78728">
        <ele>367.7</ele>
        <time>2014-09-14T12:29:51Z</time>
      </trkpt>
      <trkpt lat="45.87113" lon="4.7874">
        <ele>367.1</ele>
        <time>2014-09-14T12:30:03Z</time>
      </trkpt>
      <trkpt lat="45.87116" lon="4.78754">
        <ele>366.5</ele>
        <time>2014-09-14T12:30:07Z</time>
      </trkpt>
      <trkpt lat="45.87118" lon="4.78781">
        <ele>364.7</ele>
        <time>2014-09-14T12:30:13Z</time>
      </trkpt>
      <trkpt lat="45.87121" lon="4.78797">
        <ele>363</ele>
        <time>2014-09-14T12:30:16Z</time>
      </trkpt>
      <trkpt lat="45.87122" lon="4.78813">
        <ele>359.5</ele>
        <time>2014-09-14T12:30:19Z</time>
      </trkpt>
      <trkpt lat="45.87121" lon="4.7883">
        <ele>355.9</ele>
        <time>2014-09-14T12:30:22Z</time>
      </trkpt>
      <trkpt lat="45.87126" lon="4.78842">
        <ele>352.4</ele>
        <time>2014-09-14T12:30:25Z</time>
      </trkpt>
      <trkpt lat="45.87133" lon="4.78852">
        <ele>348.8</ele>
        <time>2014-09-14T12:30:28Z</time>
      </trkpt>
      <trkpt lat="45.87142" lon="4.78868">
        <ele>345.3</ele>
        <time>2014-09-14T12:30:33Z</time>
      </trkpt>
      <trkpt lat="45.87157" lon="4.78881">
        <ele>342.4</ele>
        <time>2014-09-14T12:30:42Z</time>
      </trkpt>
      <trkpt lat="45.87165" lon="4.7889">
        <ele>338.6</ele>
        <time>2014-09-14T12:30:49Z</time>
      </trkpt>
      <trkpt lat="45.87155" lon="4.78899">
        <ele>334.9</ele>
        <time>2014-09-14T12:30:57Z</time>
      </trkpt>
      <trkpt lat="45.87152" lon="4.78912">
        <ele>331.2</ele>
        <time>2014-09-14T12:31:01Z</time>
      </trkpt>
      <trkpt lat="45.87151" lon="4.78936">
        <ele>328.5</ele>
        <time>2014-09-14T12:31:05Z</time>
      </trkpt>
      <trkpt lat="45.8715" lon="4.78949">
        <ele>325.9</ele>
        <time>2014-09-14T12:31:07Z</time>
      </trkpt>
      <trkpt lat="45.87153" lon="4.78962">
        <ele>326.5</ele>
        <time>2014-09-14T12:31:09Z</time>
      </trkpt>
      <trkpt lat="45.87161" lon="4.78981">
        <ele>327</ele>
        <time>2014-09-14T12:31:16Z</time>
      </trkpt>
      <trkpt lat="45.87152" lon="4.78986">
        <ele>327.5</ele>
        <time>2014-09-14T12:32:07Z</time>
      </trkpt>
      <trkpt lat="45.87142" lon="4.7899">
        <ele>328.1</ele>
        <time>2014-09-14T12:32:16Z</time>
      </trkpt>
      <trkpt lat="45.87133" lon="4.7899">
        <ele>328.6</ele>
        <time>2014-09-14T12:32:23Z</time>
      </trkpt>
      <trkpt lat="45.87123" lon="4.78993">
        <ele>329.2</ele>
        <time>2014-09-14T12:32:31Z</time>
      </trkpt>
      <trkpt lat="45.87112" lon="4.78993">
        <ele>330.5</ele>
        <time>2014-09-14T12:32:38Z</time>
      </trkpt>
      <trkpt lat="45.87103" lon="4.78999">
        <ele>331.9</ele>
        <time>2014-09-14T12:32:46Z</time>
      </trkpt>
      <trkpt lat="45.87094" lon="4.79005">
        <ele>333.3</ele>
        <time>2014-09-14T12:32:54Z</time>
      </trkpt>
      <trkpt lat="45.87088" lon="4.79014">
        <ele>336.4</ele>
        <time>2014-09-14T12:33:05Z</time>
      </trkpt>
      <trkpt lat="45.8708" lon="4.79021">
        <ele>339.3</ele>
        <time>2014-09-14T12:33:12Z</time>
      </trkpt>
      <trkpt lat="45.8707" lon="4.79022">
        <ele>340.8</ele>
        <time>2014-09-14T12:33:20Z</time>
      </trkpt>
      <trkpt lat="45.8706" lon="4.79025">
        <ele>342.4</ele>
        <time>2014-09-14T12:33:24Z</time>
      </trkpt>
      <trkpt lat="45.87051" lon="4.79029">
        <ele>343.9</ele>
        <time>2014-09-14T12:33:30Z</time>
      </trkpt>
      <trkpt lat="45.87044" lon="4.79038">
        <ele>345.5</ele>
        <time>2014-09-14T12:33:38Z</time>
      </trkpt>
      <trkpt lat="45.87036" lon="4.79046">
        <ele>347</ele>
        <time>2014-09-14T12:33:43Z</time>
      </trkpt>
      <trkpt lat="45.87027" lon="4.79046">
        <ele>348.5</ele>
        <time>2014-09-14T12:33:49Z</time>
      </trkpt>
      <trkpt lat="45.87017" lon="4.79046">
        <ele>350.1</ele>
        <time>2014-09-14T12:33:55Z</time>
      </trkpt>
      <trkpt lat="45.87008" lon="4.79053">
        <ele>351.6</ele>
        <time>2014-09-14T12:34:11Z</time>
      </trkpt>
      <trkpt lat="45.86998" lon="4.79053">
        <ele>353.2</ele>
        <time>2014-09-14T12:34:19Z</time>
      </trkpt>
      <trkpt lat="45.86986" lon="4.79053">
        <ele>353</ele>
        <time>2014-09-14T12:34:41Z</time>
      </trkpt>
      <trkpt lat="45.8698" lon="4.79064">
        <ele>353</ele>
        <time>2014-09-14T12:35:05Z</time>
      </trkpt>
      <trkpt lat="45.86975" lon="4.79074">
        <ele>353</ele>
        <time>2014-09-14T12:35:19Z</time>
      </trkpt>
      <trkpt lat="45.86978" lon="4.79087">
        <ele>354.2</ele>
        <time>2014-09-14T12:35:27Z</time>
      </trkpt>
      <trkpt lat="45.86983" lon="4.79099">
        <ele>355.4</ele>
        <time>2014-09-14T12:35:34Z</time>
      </trkpt>
      <trkpt lat="45.86988" lon="4.79112">
        <ele>356.5</ele>
        <time>2014-09-14T12:35:38Z</time>
      </trkpt>
      <trkpt lat="45.8699" lon="4.79126">
        <ele>357.7</ele>
        <time>2014-09-14T12:35:44Z</time>
      </trkpt>
      <trkpt lat="45.86997" lon="4.79136">
        <ele>358.9</ele>
        <time>2014-09-14T12:35:52Z</time>
      </trkpt>
      <trkpt lat="45.87002" lon="4.79149">
        <ele>360.1</ele>
        <time>2014-09-14T12:35:58Z</time>
      </trkpt>
      <trkpt lat="45.87008" lon="4.7916">
        <ele>361.3</ele>
        <time>2014-09-14T12:36:04Z</time>
      </trkpt>
      <trkpt lat="45.87014" lon="4.7917">
        <ele>362.9</ele>
        <time>2014-09-14T12:36:10Z</time>
      </trkpt>
      <trkpt lat="45.87019" lon="4.79182">
        <ele>364.5</ele>
        <time>2014-09-14T12:36:17Z</time>
      </trkpt>
      <trkpt lat="45.87023" lon="4.79194">
        <ele>366.2</ele>
        <time>2014-09-14T12:36:24Z</time>
      </trkpt>
      <trkpt lat="45.87028" lon="4.79205">
        <ele>367.8</ele>
        <time>2014-09-14T12:36:31Z</time>
      </trkpt>
      <trkpt lat="45.87037" lon="4.79213">
        <ele>368.3</ele>
        <time>2014-09-14T12:36:37Z</time>
      </trkpt>
      <trkpt lat="45.87046" lon="4.7922">
        <ele>368.7</ele>
        <time>2014-09-14T12:36:42Z</time>
      </trkpt>
      <trkpt lat="45.87055" lon="4.79224">
        <ele>369.2</ele>
        <time>2014-09-14T12:36:44Z</time>
      </trkpt>
      <trkpt lat="45.87064" lon="4.79225">
        <ele>369.6</ele>
        <time>2014-09-14T12:36:46Z</time>
      </trkpt>
      <trkpt lat="45.87077" lon="4.79224">
        <ele>368.5</ele>
        <time>2014-09-14T12:36:48Z</time>
      </trkpt>
      <trkpt lat="45.87087" lon="4.79223">
        <ele>367.5</ele>
        <time>2014-09-14T12:36:50Z</time>
      </trkpt>
      <trkpt lat="45.87098" lon="4.79224">
        <ele>366.4</ele>
        <time>2014-09-14T12:36:52Z</time>
      </trkpt>
      <trkpt lat="45.87109" lon="4.79221">
        <ele>364.8</ele>
        <time>2014-09-14T12:36:54Z</time>
      </trkpt>
      <trkpt lat="45.87121" lon="4.79222">
        <ele>363.3</ele>
        <time>2014-09-14T12:36:57Z</time>
      </trkpt>
      <trkpt lat="45.8713" lon="4.79227">
        <ele>361.7</ele>
        <time>2014-09-14T12:36:59Z</time>
      </trkpt>
      <trkpt lat="45.87139" lon="4.79236">
        <ele>360.5</ele>
        <time>2014-09-14T12:37:01Z</time>
      </trkpt>
      <trkpt lat="45.8715" lon="4.79249">
        <ele>359.2</ele>
        <time>2014-09-14T12:37:03Z</time>
      </trkpt>
      <trkpt lat="45.87156" lon="4.7926">
        <ele>357.9</ele>
        <time>2014-09-14T12:37:06Z</time>
      </trkpt>
      <trkpt lat="45.87164" lon="4.79274">
        <ele>356.6</ele>
        <time>2014-09-14T12:37:07Z</time>
      </trkpt>
      <trkpt lat="45.87165" lon="4.79292">
        <ele>355.4</ele>
        <time>2014-09-14T12:37:09Z</time>
      </trkpt>
      <trkpt lat="45.87168" lon="4.79312">
        <ele>355.6</ele>
        <time>2014-09-14T12:37:11Z</time>
      </trkpt>
      <trkpt lat="45.87171" lon="4.79331">
        <ele>355.9</ele>
        <time>2014-09-14T12:37:13Z</time>
      </trkpt>
      <trkpt lat="45.87176" lon="4.79348">
        <ele>355.5</ele>
        <time>2014-09-14T12:37:15Z</time>
      </trkpt>
      <trkpt lat="45.87182" lon="4.79362">
        <ele>355</ele>
        <time>2014-09-14T12:37:17Z</time>
      </trkpt>
      <trkpt lat="45.87189" lon="4.79372">
        <ele>355</ele>
        <time>2014-09-14T12:37:19Z</time>
      </trkpt>
      <trkpt lat="45.87198" lon="4.79382">
        <ele>355</ele>
        <time>2014-09-14T12:37:23Z</time>
      </trkpt>
      <trkpt lat="45.87208" lon="4.79383">
        <ele>354.7</ele>
        <time>2014-09-14T12:37:29Z</time>
      </trkpt>
      <trkpt lat="45.87217" lon="4.7938">
        <ele>354.5</ele>
        <time>2014-09-14T12:37:33Z</time>
      </trkpt>
      <trkpt lat="45.87226" lon="4.79382">
        <ele>354.2</ele>
        <time>2014-09-14T12:37:39Z</time>
      </trkpt>
      <trkpt lat="45.8723" lon="4.79395">
        <ele>353.9</ele>
        <time>2014-09-14T12:37:44Z</time>
      </trkpt>
      <trkpt lat="45.87233" lon="4.7941">
        <ele>353.6</ele>
        <time>2014-09-14T12:37:49Z</time>
      </trkpt>
      <trkpt lat="45.87235" lon="4.79424">
        <ele>353.4</ele>
        <time>2014-09-14T12:37:54Z</time>
      </trkpt>
      <trkpt lat="45.87236" lon="4.79437">
        <ele>353.1</ele>
        <time>2014-09-14T12:37:58Z</time>
      </trkpt>
      <trkpt lat="45.87239" lon="4.7945">
        <ele>353.5</ele>
        <time>2014-09-14T12:38:02Z</time>
      </trkpt>
      <trkpt lat="45.8724" lon="4.79465">
        <ele>353.9</ele>
        <time>2014-09-14T12:38:06Z</time>
      </trkpt>
      <trkpt lat="45.8724" lon="4.79481">
        <ele>353.8</ele>
        <time>2014-09-14T12:38:10Z</time>
      </trkpt>
      <trkpt lat="45.87241" lon="4.79496">
        <ele>353.7</ele>
        <time>2014-09-14T12:38:13Z</time>
      </trkpt>
      <trkpt lat="45.87241" lon="4.79511">
        <ele>353.6</ele>
        <time>2014-09-14T12:38:15Z</time>
      </trkpt>
      <trkpt lat="45.87243" lon="4.79535">
        <ele>353.5</ele>
        <time>2014-09-14T12:38:17Z</time>
      </trkpt>
      <trkpt lat="45.87244" lon="4.79559">
        <ele>353.4</ele>
        <time>2014-09-14T12:38:19Z</time>
      </trkpt>
      <trkpt lat="45.87245" lon="4.79581">
        <ele>353.2</ele>
        <time>2014-09-14T12:38:21Z</time>
      </trkpt>
      <trkpt lat="45.87246" lon="4.79595">
        <ele>353</ele>
        <time>2014-09-14T12:38:22Z</time>
      </trkpt>
      <trkpt lat="45.87247" lon="4.79609">
        <ele>352.8</ele>
        <time>2014-09-14T12:38:23Z</time>
      </trkpt>
      <trkpt lat="45.87248" lon="4.79625">
        <ele>352.6</ele>
        <time>2014-09-14T12:38:24Z</time>
      </trkpt>
      <trkpt lat="45.8725" lon="4.79639">
        <ele>352.7</ele>
        <time>2014-09-14T12:38:25Z</time>
      </trkpt>
      <trkpt lat="45.87254" lon="4.79661">
        <ele>352.9</ele>
        <time>2014-09-14T12:38:27Z</time>
      </trkpt>
      <trkpt lat="45.87259" lon="4.79683">
        <ele>353.1</ele>
        <time>2014-09-14T12:38:29Z</time>
      </trkpt>
      <trkpt lat="45.87264" lon="4.79699">
        <ele>353.3</ele>
        <time>2014-09-14T12:38:31Z</time>
      </trkpt>
      <trkpt lat="45.87268" lon="4.79712">
        <ele>353.5</ele>
        <time>2014-09-14T12:38:33Z</time>
      </trkpt>
      <trkpt lat="45.87273" lon="4.79726">
        <ele>352.6</ele>
        <time>2014-09-14T12:38:35Z</time>
      </trkpt>
      <trkpt lat="45.87277" lon="4.79742">
        <ele>351.9</ele>
        <time>2014-09-14T12:38:37Z</time>
      </trkpt>
      <trkpt lat="45.87283" lon="4.79757">
        <ele>351.2</ele>
        <time>2014-09-14T12:38:39Z</time>
      </trkpt>
      <trkpt lat="45.87288" lon="4.79772">
        <ele>350.5</ele>
        <time>2014-09-14T12:38:41Z</time>
      </trkpt>
      <trkpt lat="45.87292" lon="4.79784">
        <ele>349.7</ele>
        <time>2014-09-14T12:38:43Z</time>
      </trkpt>
      <trkpt lat="45.87297" lon="4.79799">
        <ele>349</ele>
        <time>2014-09-14T12:38:45Z</time>
      </trkpt>
      <trkpt lat="45.87301" lon="4.79811">
        <ele>348</ele>
        <time>2014-09-14T12:38:47Z</time>
      </trkpt>
      <trkpt lat="45.87304" lon="4.79826">
        <ele>348.4</ele>
        <time>2014-09-14T12:38:49Z</time>
      </trkpt>
      <trkpt lat="45.87309" lon="4.79838">
        <ele>348.7</ele>
        <time>2014-09-14T12:38:51Z</time>
      </trkpt>
      <trkpt lat="45.87316" lon="4.79849">
        <ele>349.1</ele>
        <time>2014-09-14T12:38:54Z</time>
      </trkpt>
      <trkpt lat="45.87307" lon="4.79856">
        <ele>349.5</ele>
        <time>2014-09-14T12:39:05Z</time>
      </trkpt>
      <trkpt lat="45.87298" lon="4.79856">
        <ele>350.8</ele>
        <time>2014-09-14T12:39:11Z</time>
      </trkpt>
      <trkpt lat="45.87289" lon="4.79857">
        <ele>352.2</ele>
        <time>2014-09-14T12:39:17Z</time>
      </trkpt>
      <trkpt lat="45.8728" lon="4.79856">
        <ele>353.5</ele>
        <time>2014-09-14T12:39:24Z</time>
      </trkpt>
      <trkpt lat="45.87271" lon="4.79851">
        <ele>354.9</ele>
        <time>2014-09-14T12:39:31Z</time>
      </trkpt>
      <trkpt lat="45.87262" lon="4.79849">
        <ele>356.3</ele>
        <time>2014-09-14T12:39:40Z</time>
      </trkpt>
      <trkpt lat="45.87252" lon="4.79844">
        <ele>358.5</ele>
        <time>2014-09-14T12:39:48Z</time>
      </trkpt>
      <trkpt lat="45.87243" lon="4.79839">
        <ele>360.6</ele>
        <time>2014-09-14T12:39:53Z</time>
      </trkpt>
      <trkpt lat="45.87235" lon="4.79832">
        <ele>361.5</ele>
        <time>2014-09-14T12:39:59Z</time>
      </trkpt>
      <trkpt lat="45.87226" lon="4.79825">
        <ele>362.6</ele>
        <time>2014-09-14T12:40:04Z</time>
      </trkpt>
      <trkpt lat="45.87219" lon="4.79818">
        <ele>363.8</ele>
        <time>2014-09-14T12:40:10Z</time>
      </trkpt>
      <trkpt lat="45.87209" lon="4.79811">
        <ele>365</ele>
        <time>2014-09-14T12:40:17Z</time>
      </trkpt>
      <trkpt lat="45.872" lon="4.79805">
        <ele>366.2</ele>
        <time>2014-09-14T12:40:25Z</time>
      </trkpt>
      <trkpt lat="45.87192" lon="4.79799">
        <ele>367.4</ele>
        <time>2014-09-14T12:40:32Z</time>
      </trkpt>
      <trkpt lat="45.87184" lon="4.79793">
        <ele>368.5</ele>
        <time>2014-09-14T12:40:39Z</time>
      </trkpt>
      <trkpt lat="45.87175" lon="4.79785">
        <ele>369.7</ele>
        <time>2014-09-14T12:40:46Z</time>
      </trkpt>
      <trkpt lat="45.87167" lon="4.79776">
        <ele>372.1</ele>
        <time>2014-09-14T12:40:53Z</time>
      </trkpt>
      <trkpt lat="45.87158" lon="4.79771">
        <ele>373.6</ele>
        <time>2014-09-14T12:40:59Z</time>
      </trkpt>
      <trkpt lat="45.87149" lon="4.79768">
        <ele>375.2</ele>
        <time>2014-09-14T12:41:06Z</time>
      </trkpt>
      <trkpt lat="45.8714" lon="4.79764">
        <ele>376.7</ele>
        <time>2014-09-14T12:41:14Z</time>
      </trkpt>
      <trkpt lat="45.87129" lon="4.7976">
        <ele>377.9</ele>
        <time>2014-09-14T12:41:22Z</time>
      </trkpt>
      <trkpt lat="45.8712" lon="4.79754">
        <ele>379.1</ele>
        <time>2014-09-14T12:41:29Z</time>
      </trkpt>
      <trkpt lat="45.87112" lon="4.79748">
        <ele>380.9</ele>
        <time>2014-09-14T12:41:36Z</time>
      </trkpt>
      <trkpt lat="45.87104" lon="4.7974">
        <ele>382.7</ele>
        <time>2014-09-14T12:41:43Z</time>
      </trkpt>
      <trkpt lat="45.87097" lon="4.79731">
        <ele>384.5</ele>
        <time>2014-09-14T12:41:50Z</time>
      </trkpt>
      <trkpt lat="45.87089" lon="4.79725">
        <ele>386.9</ele>
        <time>2014-09-14T12:41:57Z</time>
      </trkpt>
      <trkpt lat="45.87081" lon="4.79718">
        <ele>389.3</ele>
        <time>2014-09-14T12:42:04Z</time>
      </trkpt>
      <trkpt lat="45.87073" lon="4.79711">
        <ele>390.5</ele>
        <time>2014-09-14T12:42:10Z</time>
      </trkpt>
      <trkpt lat="45.87062" lon="4.79705">
        <ele>391</ele>
        <time>2014-09-14T12:42:20Z</time>
      </trkpt>
      <trkpt lat="45.87053" lon="4.79699">
        <ele>391.7</ele>
        <time>2014-09-14T12:42:27Z</time>
      </trkpt>
      <trkpt lat="45.87045" lon="4.79692">
        <ele>392.5</ele>
        <time>2014-09-14T12:42:33Z</time>
      </trkpt>
      <trkpt lat="45.87034" lon="4.7969">
        <ele>393.6</ele>
        <time>2014-09-14T12:42:47Z</time>
      </trkpt>
      <trkpt lat="45.87034" lon="4.7969">
        <ele>395</ele>
        <time>2014-09-14T12:42:47Z</time>
      </trkpt>
      <trkpt lat="45.87007" lon="4.79646">
        <ele>400</ele>
        <time>2014-09-14T13:09:46Z</time>
      </trkpt>
      <trkpt lat="45.87006" lon="4.79644">
        <ele>400.3</ele>
        <time>2014-09-14T13:09:56Z</time>
      </trkpt>
      <trkpt lat="45.87" lon="4.79633">
        <ele>400.5</ele>
        <time>2014-09-14T13:10:47Z</time>
      </trkpt>
      <trkpt lat="45.86995" lon="4.79621">
        <ele>401.1</ele>
        <time>2014-09-14T13:10:51Z</time>
      </trkpt>
      <trkpt lat="45.86988" lon="4.79609">
        <ele>401.6</ele>
        <time>2014-09-14T13:10:55Z</time>
      </trkpt>
      <trkpt lat="45.86981" lon="4.79597">
        <ele>402.2</ele>
        <time>2014-09-14T13:10:59Z</time>
      </trkpt>
      <trkpt lat="45.86973" lon="4.79587">
        <ele>403.1</ele>
        <time>2014-09-14T13:11:04Z</time>
      </trkpt>
      <trkpt lat="45.86965" lon="4.79576">
        <ele>404</ele>
        <time>2014-09-14T13:11:07Z</time>
      </trkpt>
      <trkpt lat="45.86958" lon="4.79567">
        <ele>404.9</ele>
        <time>2014-09-14T13:11:10Z</time>
      </trkpt>
      <trkpt lat="45.86951" lon="4.79557">
        <ele>405.5</ele>
        <time>2014-09-14T13:11:14Z</time>
      </trkpt>
      <trkpt lat="45.86942" lon="4.79547">
        <ele>406</ele>
        <time>2014-09-14T13:11:16Z</time>
      </trkpt>
      <trkpt lat="45.86931" lon="4.79539">
        <ele>407.2</ele>
        <time>2014-09-14T13:11:19Z</time>
      </trkpt>
      <trkpt lat="45.8692" lon="4.79529">
        <ele>408.4</ele>
        <time>2014-09-14T13:11:22Z</time>
      </trkpt>
      <trkpt lat="45.86908" lon="4.79522">
        <ele>409.5</ele>
        <time>2014-09-14T13:11:25Z</time>
      </trkpt>
      <trkpt lat="45.86897" lon="4.79519">
        <ele>410.4</ele>
        <time>2014-09-14T13:11:27Z</time>
      </trkpt>
      <trkpt lat="45.86887" lon="4.79519">
        <ele>411.2</ele>
        <time>2014-09-14T13:11:30Z</time>
      </trkpt>
      <trkpt lat="45.86876" lon="4.7952">
        <ele>411.8</ele>
        <time>2014-09-14T13:11:31Z</time>
      </trkpt>
      <trkpt lat="45.86867" lon="4.79522">
        <ele>412.5</ele>
        <time>2014-09-14T13:11:33Z</time>
      </trkpt>
      <trkpt lat="45.86856" lon="4.79524">
        <ele>413.3</ele>
        <time>2014-09-14T13:11:36Z</time>
      </trkpt>
      <trkpt lat="45.86847" lon="4.7953">
        <ele>414</ele>
        <time>2014-09-14T13:11:39Z</time>
      </trkpt>
      <trkpt lat="45.86839" lon="4.79537">
        <ele>414.7</ele>
        <time>2014-09-14T13:11:43Z</time>
      </trkpt>
      <trkpt lat="45.86831" lon="4.79544">
        <ele>416.5</ele>
        <time>2014-09-14T13:11:47Z</time>
      </trkpt>
      <trkpt lat="45.86823" lon="4.7955">
        <ele>417.5</ele>
        <time>2014-09-14T13:11:51Z</time>
      </trkpt>
      <trkpt lat="45.86815" lon="4.79557">
        <ele>418.6</ele>
        <time>2014-09-14T13:11:56Z</time>
      </trkpt>
      <trkpt lat="45.86805" lon="4.79564">
        <ele>419.7</ele>
        <time>2014-09-14T13:12:01Z</time>
      </trkpt>
      <trkpt lat="45.86796" lon="4.79568">
        <ele>420.8</ele>
        <time>2014-09-14T13:12:05Z</time>
      </trkpt>
      <trkpt lat="45.86788" lon="4.79576">
        <ele>421.9</ele>
        <time>2014-09-14T13:12:10Z</time>
      </trkpt>
      <trkpt lat="45.86778" lon="4.79581">
        <ele>423</ele>
        <time>2014-09-14T13:12:16Z</time>
      </trkpt>
      <trkpt lat="45.8677" lon="4.79584">
        <ele>424</ele>
        <time>2014-09-14T13:12:21Z</time>
      </trkpt>
      <trkpt lat="45.8676" lon="4.79588">
        <ele>425</ele>
        <time>2014-09-14T13:12:26Z</time>
      </trkpt>
      <trkpt lat="45.86751" lon="4.79594">
        <ele>425.5</ele>
        <time>2014-09-14T13:12:31Z</time>
      </trkpt>
      <trkpt lat="45.86742" lon="4.79602">
        <ele>428.9</ele>
        <time>2014-09-14T13:12:39Z</time>
      </trkpt>
      <trkpt lat="45.86733" lon="4.79608">
        <ele>431.3</ele>
        <time>2014-09-14T13:12:45Z</time>
      </trkpt>
      <trkpt lat="45.86724" lon="4.79615">
        <ele>433.6</ele>
        <time>2014-09-14T13:12:51Z</time>
      </trkpt>
      <trkpt lat="45.86717" lon="4.79625">
        <ele>436</ele>
        <time>2014-09-14T13:13:00Z</time>
      </trkpt>
      <trkpt lat="45.86713" lon="4.79638">
        <ele>438.4</ele>
        <time>2014-09-14T13:13:07Z</time>
      </trkpt>
      <trkpt lat="45.86707" lon="4.7965">
        <ele>440.4</ele>
        <time>2014-09-14T13:13:15Z</time>
      </trkpt>
      <trkpt lat="45.86708" lon="4.79666">
        <ele>442.7</ele>
        <time>2014-09-14T13:13:22Z</time>
      </trkpt>
      <trkpt lat="45.86708" lon="4.7968">
        <ele>445.1</ele>
        <time>2014-09-14T13:13:29Z</time>
      </trkpt>
      <trkpt lat="45.86704" lon="4.79693">
        <ele>447.5</ele>
        <time>2014-09-14T13:13:35Z</time>
      </trkpt>
      <trkpt lat="45.86696" lon="4.79704">
        <ele>449.8</ele>
        <time>2014-09-14T13:13:38Z</time>
      </trkpt>
      <trkpt lat="45.86691" lon="4.79715">
        <ele>452.6</ele>
        <time>2014-09-14T13:13:43Z</time>
      </trkpt>
      <trkpt lat="45.86689" lon="4.79702">
        <ele>452.6</ele>
        <time>2014-09-14T13:13:52Z</time>
      </trkpt>
      <trkpt lat="45.86685" lon="4.79687">
        <ele>452.4</ele>
        <time>2014-09-14T13:13:56Z</time>
      </trkpt>
      <trkpt lat="45.8668" lon="4.79674">
        <ele>452.1</ele>
        <time>2014-09-14T13:14:00Z</time>
      </trkpt>
      <trkpt lat="45.86676" lon="4.79661">
        <ele>451.8</ele>
        <time>2014-09-14T13:14:05Z</time>
      </trkpt>
      <trkpt lat="45.86673" lon="4.79648">
        <ele>451.5</ele>
        <time>2014-09-14T13:14:12Z</time>
      </trkpt>
      <trkpt lat="45.86669" lon="4.79636">
        <ele>451.6</ele>
        <time>2014-09-14T13:14:22Z</time>
      </trkpt>
      <trkpt lat="45.86665" lon="4.79621">
        <ele>451.4</ele>
        <time>2014-09-14T13:14:28Z</time>
      </trkpt>
      <trkpt lat="45.86663" lon="4.79608">
        <ele>450.4</ele>
        <time>2014-09-14T13:14:33Z</time>
      </trkpt>
      <trkpt lat="45.86658" lon="4.79595">
        <ele>449.4</ele>
        <time>2014-09-14T13:14:40Z</time>
      </trkpt>
      <trkpt lat="45.86654" lon="4.79583">
        <ele>451.5</ele>
        <time>2014-09-14T13:14:46Z</time>
      </trkpt>
      <trkpt lat="45.86652" lon="4.79571">
        <ele>453.7</ele>
        <time>2014-09-14T13:14:52Z</time>
      </trkpt>
      <trkpt lat="45.86646" lon="4.79556">
        <ele>455.9</ele>
        <time>2014-09-14T13:15:00Z</time>
      </trkpt>
      <trkpt lat="45.86639" lon="4.79542">
        <ele>458.4</ele>
        <time>2014-09-14T13:15:08Z</time>
      </trkpt>
      <trkpt lat="45.86633" lon="4.79532">
        <ele>460.8</ele>
        <time>2014-09-14T13:15:14Z</time>
      </trkpt>
      <trkpt lat="45.86625" lon="4.79522">
        <ele>463.3</ele>
        <time>2014-09-14T13:15:22Z</time>
      </trkpt>
      <trkpt lat="45.86619" lon="4.79507">
        <ele>465.7</ele>
        <time>2014-09-14T13:15:34Z</time>
      </trkpt>
      <trkpt lat="45.86614" lon="4.79495">
        <ele>466.6</ele>
        <time>2014-09-14T13:15:41Z</time>
      </trkpt>
      <trkpt lat="45.86607" lon="4.79483">
        <ele>467.5</ele>
        <time>2014-09-14T13:16:09Z</time>
      </trkpt>
      <trkpt lat="45.86598" lon="4.7948">
        <ele>472</ele>
        <time>2014-09-14T13:16:17Z</time>
      </trkpt>
      <trkpt lat="45.86588" lon="4.79475">
        <ele>476.5</ele>
        <time>2014-09-14T13:16:20Z</time>
      </trkpt>
      <trkpt lat="45.86576" lon="4.79468">
        <ele>477.7</ele>
        <time>2014-09-14T13:16:25Z</time>
      </trkpt>
      <trkpt lat="45.86564" lon="4.79463">
        <ele>479</ele>
        <time>2014-09-14T13:16:31Z</time>
      </trkpt>
      <trkpt lat="45.8655" lon="4.79438">
        <ele>478.3</ele>
        <time>2014-09-14T13:16:47Z</time>
      </trkpt>
      <trkpt lat="45.86538" lon="4.79418">
        <ele>480.4</ele>
        <time>2014-09-14T13:16:52Z</time>
      </trkpt>
      <trkpt lat="45.8652" lon="4.794">
        <ele>482.5</ele>
        <time>2014-09-14T13:16:54Z</time>
      </trkpt>
      <trkpt lat="45.86509" lon="4.79396">
        <ele>484.5</ele>
        <time>2014-09-14T13:16:56Z</time>
      </trkpt>
      <trkpt lat="45.86501" lon="4.79392">
        <ele>486.6</ele>
        <time>2014-09-14T13:16:58Z</time>
      </trkpt>
      <trkpt lat="45.86473" lon="4.79374">
        <ele>490.3</ele>
        <time>2014-09-14T13:17:13Z</time>
      </trkpt>
      <trkpt lat="45.86463" lon="4.79363">
        <ele>493.9</ele>
        <time>2014-09-14T13:17:31Z</time>
      </trkpt>
      <trkpt lat="45.86452" lon="4.79352">
        <ele>497.5</ele>
        <time>2014-09-14T13:17:33Z</time>
      </trkpt>
      <trkpt lat="45.86428" lon="4.79344">
        <ele>499.7</ele>
        <time>2014-09-14T13:17:47Z</time>
      </trkpt>
      <trkpt lat="45.86412" lon="4.79335">
        <ele>502</ele>
        <time>2014-09-14T13:17:49Z</time>
      </trkpt>
      <trkpt lat="45.86397" lon="4.79325">
        <ele>504.3</ele>
        <time>2014-09-14T13:17:49Z</time>
      </trkpt>
      <trkpt lat="45.86389" lon="4.79319">
        <ele>508.5</ele>
        <time>2014-09-14T13:17:50Z</time>
      </trkpt>
      <trkpt lat="45.86378" lon="4.79312">
        <ele>510</ele>
        <time>2014-09-14T13:17:52Z</time>
      </trkpt>
      <trkpt lat="45.86371" lon="4.79301">
        <ele>511.5</ele>
        <time>2014-09-14T13:18:00Z</time>
      </trkpt>
      <trkpt lat="45.86367" lon="4.79285">
        <ele>511</ele>
        <time>2014-09-14T13:18:13Z</time>
      </trkpt>
      <trkpt lat="45.86364" lon="4.79269">
        <ele>513.1</ele>
        <time>2014-09-14T13:18:27Z</time>
      </trkpt>
      <trkpt lat="45.86357" lon="4.79257">
        <ele>515.2</ele>
        <time>2014-09-14T13:18:30Z</time>
      </trkpt>
      <trkpt lat="45.86343" lon="4.79238">
        <ele>517.3</ele>
        <time>2014-09-14T13:18:46Z</time>
      </trkpt>
      <trkpt lat="45.8633" lon="4.79221">
        <ele>516.6</ele>
        <time>2014-09-14T13:19:03Z</time>
      </trkpt>
      <trkpt lat="45.86304" lon="4.79189">
        <ele>515.7</ele>
        <time>2014-09-14T13:19:05Z</time>
      </trkpt>
      <trkpt lat="45.86291" lon="4.79176">
        <ele>517.7</ele>
        <time>2014-09-14T13:19:07Z</time>
      </trkpt>
      <trkpt lat="45.86281" lon="4.79166">
        <ele>519.7</ele>
        <time>2014-09-14T13:19:09Z</time>
      </trkpt>
      <trkpt lat="45.86271" lon="4.79157">
        <ele>521.7</ele>
        <time>2014-09-14T13:19:12Z</time>
      </trkpt>
      <trkpt lat="45.86263" lon="4.79148">
        <ele>523.7</ele>
        <time>2014-09-14T13:19:15Z</time>
      </trkpt>
      <trkpt lat="45.86252" lon="4.79135">
        <ele>527.8</ele>
        <time>2014-09-14T13:19:38Z</time>
      </trkpt>
      <trkpt lat="45.86205" lon="4.79071">
        <ele>532.6</ele>
        <time>2014-09-14T13:19:48Z</time>
      </trkpt>
      <trkpt lat="45.86159" lon="4.79063">
        <ele>534.9</ele>
        <time>2014-09-14T13:19:50Z</time>
      </trkpt>
      <trkpt lat="45.86148" lon="4.79065">
        <ele>537.2</ele>
        <time>2014-09-14T13:19:56Z</time>
      </trkpt>
      <trkpt lat="45.86134" lon="4.79054">
        <ele>539.5</ele>
        <time>2014-09-14T13:19:58Z</time>
      </trkpt>
      <trkpt lat="45.86124" lon="4.79043">
        <ele>541.7</ele>
        <time>2014-09-14T13:20:00Z</time>
      </trkpt>
      <trkpt lat="45.86114" lon="4.79037">
        <ele>543.9</ele>
        <time>2014-09-14T13:20:03Z</time>
      </trkpt>
      <trkpt lat="45.86105" lon="4.79032">
        <ele>543.2</ele>
        <time>2014-09-14T13:20:06Z</time>
      </trkpt>
      <trkpt lat="45.86107" lon="4.79013">
        <ele>542.5</ele>
        <time>2014-09-14T13:20:18Z</time>
      </trkpt>
      <trkpt lat="45.86112" lon="4.78999">
        <ele>541.7</ele>
        <time>2014-09-14T13:20:21Z</time>
      </trkpt>
      <trkpt lat="45.86113" lon="4.78975">
        <ele>541</ele>
        <time>2014-09-14T13:20:32Z</time>
      </trkpt>
      <trkpt lat="45.86101" lon="4.78955">
        <ele>539.5</ele>
        <time>2014-09-14T13:20:40Z</time>
      </trkpt>
      <trkpt lat="45.8609" lon="4.78949">
        <ele>539.1</ele>
        <time>2014-09-14T13:20:42Z</time>
      </trkpt>
      <trkpt lat="45.86073" lon="4.78945">
        <ele>538.7</ele>
        <time>2014-09-14T13:20:44Z</time>
      </trkpt>
      <trkpt lat="45.86064" lon="4.78941">
        <ele>538.4</ele>
        <time>2014-09-14T13:20:46Z</time>
      </trkpt>
      <trkpt lat="45.86054" lon="4.78939">
        <ele>538</ele>
        <time>2014-09-14T13:20:48Z</time>
      </trkpt>
      <trkpt lat="45.86039" lon="4.78938">
        <ele>537.6</ele>
        <time>2014-09-14T13:20:50Z</time>
      </trkpt>
      <trkpt lat="45.86026" lon="4.78938">
        <ele>538.9</ele>
        <time>2014-09-14T13:20:52Z</time>
      </trkpt>
      <trkpt lat="45.86016" lon="4.78938">
        <ele>540.2</ele>
        <time>2014-09-14T13:20:55Z</time>
      </trkpt>
      <trkpt lat="45.86005" lon="4.78935">
        <ele>541.6</ele>
        <time>2014-09-14T13:20:57Z</time>
      </trkpt>
      <trkpt lat="45.85994" lon="4.78933">
        <ele>543.1</ele>
        <time>2014-09-14T13:21:00Z</time>
      </trkpt>
      <trkpt lat="45.85985" lon="4.78921">
        <ele>544.5</ele>
        <time>2014-09-14T13:21:09Z</time>
      </trkpt>
      <trkpt lat="45.85979" lon="4.78908">
        <ele>543.7</ele>
        <time>2014-09-14T13:21:14Z</time>
      </trkpt>
      <trkpt lat="45.85969" lon="4.78898">
        <ele>542.9</ele>
        <time>2014-09-14T13:21:28Z</time>
      </trkpt>
      <trkpt lat="45.85953" lon="4.78891">
        <ele>542</ele>
        <time>2014-09-14T13:21:55Z</time>
      </trkpt>
      <trkpt lat="45.8594" lon="4.78891">
        <ele>541.1</ele>
        <time>2014-09-14T13:21:59Z</time>
      </trkpt>
      <trkpt lat="45.85928" lon="4.78883">
        <ele>540.2</ele>
        <time>2014-09-14T13:22:14Z</time>
      </trkpt>
      <trkpt lat="45.85915" lon="4.78873">
        <ele>539.3</ele>
        <time>2014-09-14T13:22:28Z</time>
      </trkpt>
      <trkpt lat="45.85905" lon="4.78863">
        <ele>538.4</ele>
        <time>2014-09-14T13:22:31Z</time>
      </trkpt>
      <trkpt lat="45.85871" lon="4.78845">
        <ele>537.3</ele>
        <time>2014-09-14T13:22:32Z</time>
      </trkpt>
      <trkpt lat="45.8586" lon="4.78842">
        <ele>536</ele>
        <time>2014-09-14T13:22:34Z</time>
      </trkpt>
      <trkpt lat="45.85851" lon="4.78842">
        <ele>534.7</ele>
        <time>2014-09-14T13:22:54Z</time>
      </trkpt>
      <trkpt lat="45.85851" lon="4.78857">
        <ele>533.5</ele>
        <time>2014-09-14T13:23:10Z</time>
      </trkpt>
      <trkpt lat="45.85854" lon="4.7887">
        <ele>534.5</ele>
        <time>2014-09-14T13:23:15Z</time>
      </trkpt>
      <trkpt lat="45.85857" lon="4.78884">
        <ele>535.5</ele>
        <time>2014-09-14T13:23:22Z</time>
      </trkpt>
      <trkpt lat="45.85862" lon="4.78901">
        <ele>536.2</ele>
        <time>2014-09-14T13:23:25Z</time>
      </trkpt>
      <trkpt lat="45.85867" lon="4.78912">
        <ele>536.9</ele>
        <time>2014-09-14T13:23:26Z</time>
      </trkpt>
      <trkpt lat="45.85872" lon="4.78929">
        <ele>537.6</ele>
        <time>2014-09-14T13:23:27Z</time>
      </trkpt>
      <trkpt lat="45.85892" lon="4.78953">
        <ele>538.4</ele>
        <time>2014-09-14T13:23:29Z</time>
      </trkpt>
      <trkpt lat="45.85902" lon="4.78959">
        <ele>539.1</ele>
        <time>2014-09-14T13:23:30Z</time>
      </trkpt>
      <trkpt lat="45.85922" lon="4.78976">
        <ele>540</ele>
        <time>2014-09-14T13:23:34Z</time>
      </trkpt>
      <trkpt lat="45.85932" lon="4.78983">
        <ele>539.8</ele>
        <time>2014-09-14T13:23:41Z</time>
      </trkpt>
      <trkpt lat="45.85941" lon="4.78995">
        <ele>542.2</ele>
        <time>2014-09-14T13:23:42Z</time>
      </trkpt>
      <trkpt lat="45.85948" lon="4.79004">
        <ele>544.5</ele>
        <time>2014-09-14T13:23:56Z</time>
      </trkpt>
      <trkpt lat="45.85955" lon="4.79017">
        <ele>545.6</ele>
        <time>2014-09-14T13:23:58Z</time>
      </trkpt>
      <trkpt lat="45.8596" lon="4.7903">
        <ele>546.7</ele>
        <time>2014-09-14T13:24:05Z</time>
      </trkpt>
      <trkpt lat="45.85963" lon="4.79043">
        <ele>548.2</ele>
        <time>2014-09-14T13:24:10Z</time>
      </trkpt>
      <trkpt lat="45.85967" lon="4.79062">
        <ele>548.8</ele>
        <time>2014-09-14T13:24:12Z</time>
      </trkpt>
      <trkpt lat="45.85971" lon="4.79077">
        <ele>549.5</ele>
        <time>2014-09-14T13:24:23Z</time>
      </trkpt>
      <trkpt lat="45.85974" lon="4.79092">
        <ele>550.1</ele>
        <time>2014-09-14T13:24:28Z</time>
      </trkpt>
      <trkpt lat="45.8598" lon="4.79115">
        <ele>550.7</ele>
        <time>2014-09-14T13:24:29Z</time>
      </trkpt>
      <trkpt lat="45.85982" lon="4.79128">
        <ele>551.4</ele>
        <time>2014-09-14T13:24:30Z</time>
      </trkpt>
      <trkpt lat="45.8599" lon="4.79149">
        <ele>553.1</ele>
        <time>2014-09-14T13:24:32Z</time>
      </trkpt>
      <trkpt lat="45.86002" lon="4.79169">
        <ele>553.4</ele>
        <time>2014-09-14T13:24:36Z</time>
      </trkpt>
      <trkpt lat="45.8601" lon="4.79181">
        <ele>553.6</ele>
        <time>2014-09-14T13:24:39Z</time>
      </trkpt>
      <trkpt lat="45.86019" lon="4.79191">
        <ele>553.9</ele>
        <time>2014-09-14T13:24:45Z</time>
      </trkpt>
      <trkpt lat="45.86027" lon="4.792">
        <ele>554.2</ele>
        <time>2014-09-14T13:24:56Z</time>
      </trkpt>
      <trkpt lat="45.86038" lon="4.79205">
        <ele>554.5</ele>
        <time>2014-09-14T13:25:00Z</time>
      </trkpt>
      <trkpt lat="45.8605" lon="4.79207">
        <ele>555</ele>
        <time>2014-09-14T13:25:02Z</time>
      </trkpt>
      <trkpt lat="45.86061" lon="4.79206">
        <ele>555.5</ele>
        <time>2014-09-14T13:25:04Z</time>
      </trkpt>
      <trkpt lat="45.86071" lon="4.79203">
        <ele>556.1</ele>
        <time>2014-09-14T13:25:08Z</time>
      </trkpt>
      <trkpt lat="45.86081" lon="4.79207">
        <ele>556.6</ele>
        <time>2014-09-14T13:25:10Z</time>
      </trkpt>
      <trkpt lat="45.86092" lon="4.79212">
        <ele>557.2</ele>
        <time>2014-09-14T13:25:11Z</time>
      </trkpt>
      <trkpt lat="45.86101" lon="4.79224">
        <ele>557.3</ele>
        <time>2014-09-14T13:25:12Z</time>
      </trkpt>
      <trkpt lat="45.86108" lon="4.79234">
        <ele>556.3</ele>
        <time>2014-09-14T13:25:13Z</time>
      </trkpt>
      <trkpt lat="45.86114" lon="4.79252">
        <ele>555.3</ele>
        <time>2014-09-14T13:25:16Z</time>
      </trkpt>
      <trkpt lat="45.86116" lon="4.79267">
        <ele>554.3</ele>
        <time>2014-09-14T13:25:20Z</time>
      </trkpt>
      <trkpt lat="45.86122" lon="4.7928">
        <ele>552.7</ele>
        <time>2014-09-14T13:25:22Z</time>
      </trkpt>
      <trkpt lat="45.86142" lon="4.79309">
        <ele>551.2</ele>
        <time>2014-09-14T13:25:24Z</time>
      </trkpt>
      <trkpt lat="45.86155" lon="4.79319">
        <ele>550.2</ele>
        <time>2014-09-14T13:25:29Z</time>
      </trkpt>
      <trkpt lat="45.86177" lon="4.79325">
        <ele>549.2</ele>
        <time>2014-09-14T13:25:36Z</time>
      </trkpt>
      <trkpt lat="45.86187" lon="4.79328">
        <ele>547.4</ele>
        <time>2014-09-14T13:25:37Z</time>
      </trkpt>
      <trkpt lat="45.86215" lon="4.79349">
        <ele>545.5</ele>
        <time>2014-09-14T13:25:39Z</time>
      </trkpt>
      <trkpt lat="45.86225" lon="4.79356">
        <ele>543.4</ele>
        <time>2014-09-14T13:25:40Z</time>
      </trkpt>
      <trkpt lat="45.86237" lon="4.79366">
        <ele>541.6</ele>
        <time>2014-09-14T13:25:41Z</time>
      </trkpt>
      <trkpt lat="45.86254" lon="4.7938">
        <ele>539.9</ele>
        <time>2014-09-14T13:25:48Z</time>
      </trkpt>
      <trkpt lat="45.86272" lon="4.79396">
        <ele>537.3</ele>
        <time>2014-09-14T13:25:51Z</time>
      </trkpt>
      <trkpt lat="45.86281" lon="4.79406">
        <ele>534.6</ele>
        <time>2014-09-14T13:25:57Z</time>
      </trkpt>
      <trkpt lat="45.86297" lon="4.79425">
        <ele>532.5</ele>
        <time>2014-09-14T13:26:00Z</time>
      </trkpt>
      <trkpt lat="45.86304" lon="4.79435">
        <ele>529.1</ele>
        <time>2014-09-14T13:26:01Z</time>
      </trkpt>
      <trkpt lat="45.86317" lon="4.79454">
        <ele>525.8</ele>
        <time>2014-09-14T13:26:04Z</time>
      </trkpt>
      <trkpt lat="45.86326" lon="4.79475">
        <ele>522.5</ele>
        <time>2014-09-14T13:26:09Z</time>
      </trkpt>
      <trkpt lat="45.86336" lon="4.79507">
        <ele>518.7</ele>
        <time>2014-09-14T13:26:11Z</time>
      </trkpt>
      <trkpt lat="45.86346" lon="4.79527">
        <ele>514.9</ele>
        <time>2014-09-14T13:26:13Z</time>
      </trkpt>
      <trkpt lat="45.86376" lon="4.79589">
        <ele>511.5</ele>
        <time>2014-09-14T13:26:15Z</time>
      </trkpt>
      <trkpt lat="45.86381" lon="4.79601">
        <ele>508</ele>
        <time>2014-09-14T13:26:15Z</time>
      </trkpt>
      <trkpt lat="45.86382" lon="4.79616">
        <ele>504.5</ele>
        <time>2014-09-14T13:26:15Z</time>
      </trkpt>
      <trkpt lat="45.86382" lon="4.7964">
        <ele>502</ele>
        <time>2014-09-14T13:26:16Z</time>
      </trkpt>
      <trkpt lat="45.8639" lon="4.79649">
        <ele>499.5</ele>
        <time>2014-09-14T13:26:21Z</time>
      </trkpt>
      <trkpt lat="45.86414" lon="4.79662">
        <ele>496.9</ele>
        <time>2014-09-14T13:26:24Z</time>
      </trkpt>
      <trkpt lat="45.86427" lon="4.79664">
        <ele>495.7</ele>
        <time>2014-09-14T13:26:25Z</time>
      </trkpt>
      <trkpt lat="45.86443" lon="4.79668">
        <ele>494.4</ele>
        <time>2014-09-14T13:26:27Z</time>
      </trkpt>
      <trkpt lat="45.8646" lon="4.79671">
        <ele>493</ele>
        <time>2014-09-14T13:26:30Z</time>
      </trkpt>
      <trkpt lat="45.86477" lon="4.79677">
        <ele>491.4</ele>
        <time>2014-09-14T13:26:32Z</time>
      </trkpt>
      <trkpt lat="45.86491" lon="4.79682">
        <ele>489.7</ele>
        <time>2014-09-14T13:26:33Z</time>
      </trkpt>
      <trkpt lat="45.86507" lon="4.79682">
        <ele>488.1</ele>
        <time>2014-09-14T13:26:38Z</time>
      </trkpt>
      <trkpt lat="45.86514" lon="4.7969">
        <ele>486.1</ele>
        <time>2014-09-14T13:26:42Z</time>
      </trkpt>
      <trkpt lat="45.86506" lon="4.79709">
        <ele>484.1</ele>
        <time>2014-09-14T13:26:53Z</time>
      </trkpt>
      <trkpt lat="45.86495" lon="4.79713">
        <ele>484.1</ele>
        <time>2014-09-14T13:26:56Z</time>
      </trkpt>
      <trkpt lat="45.86483" lon="4.79717">
        <ele>484.1</ele>
        <time>2014-09-14T13:27:02Z</time>
      </trkpt>
      <trkpt lat="45.86465" lon="4.79724">
        <ele>482.1</ele>
        <time>2014-09-14T13:27:03Z</time>
      </trkpt>
      <trkpt lat="45.86456" lon="4.79727">
        <ele>480.1</ele>
        <time>2014-09-14T13:27:05Z</time>
      </trkpt>
      <trkpt lat="45.86439" lon="4.79719">
        <ele>478.1</ele>
        <time>2014-09-14T13:27:07Z</time>
      </trkpt>
      <trkpt lat="45.86426" lon="4.7971">
        <ele>475.7</ele>
        <time>2014-09-14T13:27:09Z</time>
      </trkpt>
      <trkpt lat="45.86412" lon="4.7971">
        <ele>475</ele>
        <time>2014-09-14T13:27:11Z</time>
      </trkpt>
      <trkpt lat="45.86401" lon="4.79715">
        <ele>474.3</ele>
        <time>2014-09-14T13:27:14Z</time>
      </trkpt>
      <trkpt lat="45.86389" lon="4.79744">
        <ele>473.5</ele>
        <time>2014-09-14T13:27:15Z</time>
      </trkpt>
      <trkpt lat="45.86384" lon="4.79755">
        <ele>473</ele>
        <time>2014-09-14T13:27:16Z</time>
      </trkpt>
      <trkpt lat="45.86352" lon="4.79771">
        <ele>471.5</ele>
        <time>2014-09-14T13:27:18Z</time>
      </trkpt>
      <trkpt lat="45.86325" lon="4.79775">
        <ele>468.1</ele>
        <time>2014-09-14T13:27:20Z</time>
      </trkpt>
      <trkpt lat="45.86312" lon="4.79781">
        <ele>464.1</ele>
        <time>2014-09-14T13:27:20Z</time>
      </trkpt>
      <trkpt lat="45.86301" lon="4.79787">
        <ele>462.1</ele>
        <time>2014-09-14T13:27:21Z</time>
      </trkpt>
      <trkpt lat="45.8629" lon="4.79794">
        <ele>460.1</ele>
        <time>2014-09-14T13:27:23Z</time>
      </trkpt>
      <trkpt lat="45.86281" lon="4.79796">
        <ele>458.1</ele>
        <time>2014-09-14T13:27:26Z</time>
      </trkpt>
      <trkpt lat="45.86288" lon="4.79813">
        <ele>456.5</ele>
        <time>2014-09-14T13:27:31Z</time>
      </trkpt>
      <trkpt lat="45.86295" lon="4.79824">
        <ele>454.8</ele>
        <time>2014-09-14T13:27:33Z</time>
      </trkpt>
      <trkpt lat="45.86304" lon="4.79836">
        <ele>453.2</ele>
        <time>2014-09-14T13:27:35Z</time>
      </trkpt>
      <trkpt lat="45.86304" lon="4.7985">
        <ele>451.5</ele>
        <time>2014-09-14T13:27:37Z</time>
      </trkpt>
      <trkpt lat="45.86299" lon="4.79864">
        <ele>450.1</ele>
        <time>2014-09-14T13:27:41Z</time>
      </trkpt>
      <trkpt lat="45.86311" lon="4.7987">
        <ele>449.9</ele>
        <time>2014-09-14T13:27:46Z</time>
      </trkpt>
      <trkpt lat="45.86323" lon="4.79868">
        <ele>449.7</ele>
        <time>2014-09-14T13:27:49Z</time>
      </trkpt>
      <trkpt lat="45.86338" lon="4.79867">
        <ele>450.1</ele>
        <time>2014-09-14T13:27:50Z</time>
      </trkpt>
      <trkpt lat="45.86354" lon="4.79865">
        <ele>449.5</ele>
        <time>2014-09-14T13:27:52Z</time>
      </trkpt>
      <trkpt lat="45.86371" lon="4.79863">
        <ele>448.8</ele>
        <time>2014-09-14T13:27:55Z</time>
      </trkpt>
      <trkpt lat="45.86386" lon="4.79864">
        <ele>448.2</ele>
        <time>2014-09-14T13:27:56Z</time>
      </trkpt>
      <trkpt lat="45.864" lon="4.79866">
        <ele>448</ele>
        <time>2014-09-14T13:27:58Z</time>
      </trkpt>
      <trkpt lat="45.86414" lon="4.79872">
        <ele>447.8</ele>
        <time>2014-09-14T13:28:00Z</time>
      </trkpt>
      <trkpt lat="45.86427" lon="4.79879">
        <ele>447.6</ele>
        <time>2014-09-14T13:28:02Z</time>
      </trkpt>
      <trkpt lat="45.86441" lon="4.79887">
        <ele>447.5</ele>
        <time>2014-09-14T13:28:05Z</time>
      </trkpt>
      <trkpt lat="45.86463" lon="4.79898">
        <ele>447.3</ele>
        <time>2014-09-14T13:28:07Z</time>
      </trkpt>
      <trkpt lat="45.86477" lon="4.79904">
        <ele>446.7</ele>
        <time>2014-09-14T13:28:10Z</time>
      </trkpt>
      <trkpt lat="45.86489" lon="4.79909">
        <ele>446.2</ele>
        <time>2014-09-14T13:28:11Z</time>
      </trkpt>
      <trkpt lat="45.86501" lon="4.79913">
        <ele>445.8</ele>
        <time>2014-09-14T13:28:13Z</time>
      </trkpt>
      <trkpt lat="45.86512" lon="4.79915">
        <ele>446.5</ele>
        <time>2014-09-14T13:28:15Z</time>
      </trkpt>
      <trkpt lat="45.86524" lon="4.79915">
        <ele>447.1</ele>
        <time>2014-09-14T13:28:17Z</time>
      </trkpt>
      <trkpt lat="45.86535" lon="4.79914">
        <ele>447.7</ele>
        <time>2014-09-14T13:28:19Z</time>
      </trkpt>
      <trkpt lat="45.86545" lon="4.79913">
        <ele>447.9</ele>
        <time>2014-09-14T13:28:21Z</time>
      </trkpt>
      <trkpt lat="45.86556" lon="4.79912">
        <ele>448.1</ele>
        <time>2014-09-14T13:28:23Z</time>
      </trkpt>
      <trkpt lat="45.86565" lon="4.79911">
        <ele>448.3</ele>
        <time>2014-09-14T13:28:26Z</time>
      </trkpt>
      <trkpt lat="45.86578" lon="4.79911">
        <ele>447.7</ele>
        <time>2014-09-14T13:28:28Z</time>
      </trkpt>
      <trkpt lat="45.86587" lon="4.79915">
        <ele>447.2</ele>
        <time>2014-09-14T13:28:30Z</time>
      </trkpt>
      <trkpt lat="45.86597" lon="4.79922">
        <ele>447.1</ele>
        <time>2014-09-14T13:28:32Z</time>
      </trkpt>
      <trkpt lat="45.8661" lon="4.7993">
        <ele>447</ele>
        <time>2014-09-14T13:28:35Z</time>
      </trkpt>
      <trkpt lat="45.86624" lon="4.79938">
        <ele>446.7</ele>
        <time>2014-09-14T13:28:36Z</time>
      </trkpt>
      <trkpt lat="45.86639" lon="4.79946">
        <ele>446.5</ele>
        <time>2014-09-14T13:28:38Z</time>
      </trkpt>
      <trkpt lat="45.86653" lon="4.79955">
        <ele>446.2</ele>
        <time>2014-09-14T13:28:40Z</time>
      </trkpt>
      <trkpt lat="45.86665" lon="4.79966">
        <ele>445.9</ele>
        <time>2014-09-14T13:28:42Z</time>
      </trkpt>
      <trkpt lat="45.86675" lon="4.79981">
        <ele>445.2</ele>
        <time>2014-09-14T13:28:44Z</time>
      </trkpt>
      <trkpt lat="45.86683" lon="4.79998">
        <ele>444.5</ele>
        <time>2014-09-14T13:28:46Z</time>
      </trkpt>
      <trkpt lat="45.86691" lon="4.80009">
        <ele>444.8</ele>
        <time>2014-09-14T13:28:49Z</time>
      </trkpt>
      <trkpt lat="45.867" lon="4.80016">
        <ele>445.9</ele>
        <time>2014-09-14T13:28:53Z</time>
      </trkpt>
      <trkpt lat="45.86708" lon="4.80026">
        <ele>447</ele>
        <time>2014-09-14T13:28:56Z</time>
      </trkpt>
      <trkpt lat="45.86715" lon="4.80039">
        <ele>447.6</ele>
        <time>2014-09-14T13:29:01Z</time>
      </trkpt>
      <trkpt lat="45.86719" lon="4.80054">
        <ele>448.3</ele>
        <time>2014-09-14T13:29:12Z</time>
      </trkpt>
      <trkpt lat="45.86722" lon="4.80068">
        <ele>449</ele>
        <time>2014-09-14T13:29:14Z</time>
      </trkpt>
      <trkpt lat="45.86726" lon="4.80081">
        <ele>449.7</ele>
        <time>2014-09-14T13:29:18Z</time>
      </trkpt>
      <trkpt lat="45.8673" lon="4.80095">
        <ele>450.5</ele>
        <time>2014-09-14T13:29:24Z</time>
      </trkpt>
      <trkpt lat="45.86732" lon="4.80108">
        <ele>451.2</ele>
        <time>2014-09-14T13:29:27Z</time>
      </trkpt>
      <trkpt lat="45.86733" lon="4.80125">
        <ele>452.4</ele>
        <time>2014-09-14T13:29:33Z</time>
      </trkpt>
      <trkpt lat="45.86737" lon="4.80138">
        <ele>453.5</ele>
        <time>2014-09-14T13:29:36Z</time>
      </trkpt>
      <trkpt lat="45.86746" lon="4.80144">
        <ele>452.9</ele>
        <time>2014-09-14T13:29:46Z</time>
      </trkpt>
      <trkpt lat="45.86763" lon="4.80149">
        <ele>452.3</ele>
        <time>2014-09-14T13:29:56Z</time>
      </trkpt>
      <trkpt lat="45.86772" lon="4.80158">
        <ele>452</ele>
        <time>2014-09-14T13:30:02Z</time>
      </trkpt>
      <trkpt lat="45.8678" lon="4.80173">
        <ele>451.7</ele>
        <time>2014-09-14T13:30:04Z</time>
      </trkpt>
      <trkpt lat="45.86788" lon="4.80186">
        <ele>451.5</ele>
        <time>2014-09-14T13:30:07Z</time>
      </trkpt>
      <trkpt lat="45.86794" lon="4.802">
        <ele>451.1</ele>
        <time>2014-09-14T13:30:09Z</time>
      </trkpt>
      <trkpt lat="45.86798" lon="4.80214">
        <ele>450.7</ele>
        <time>2014-09-14T13:30:11Z</time>
      </trkpt>
      <trkpt lat="45.86803" lon="4.80231">
        <ele>450</ele>
        <time>2014-09-14T13:30:14Z</time>
      </trkpt>
      <trkpt lat="45.86807" lon="4.80249">
        <ele>449.3</ele>
        <time>2014-09-14T13:30:17Z</time>
      </trkpt>
      <trkpt lat="45.86812" lon="4.80264">
        <ele>448.5</ele>
        <time>2014-09-14T13:30:23Z</time>
      </trkpt>
      <trkpt lat="45.86812" lon="4.80278">
        <ele>447.8</ele>
        <time>2014-09-14T13:30:27Z</time>
      </trkpt>
      <trkpt lat="45.8681" lon="4.80291">
        <ele>447.8</ele>
        <time>2014-09-14T13:30:31Z</time>
      </trkpt>
      <trkpt lat="45.86808" lon="4.80306">
        <ele>447.8</ele>
        <time>2014-09-14T13:30:35Z</time>
      </trkpt>
      <trkpt lat="45.86807" lon="4.80318">
        <ele>446.3</ele>
        <time>2014-09-14T13:30:38Z</time>
      </trkpt>
      <trkpt lat="45.86805" lon="4.80332">
        <ele>444.7</ele>
        <time>2014-09-14T13:30:42Z</time>
      </trkpt>
      <trkpt lat="45.86803" lon="4.80348">
        <ele>443.2</ele>
        <time>2014-09-14T13:30:45Z</time>
      </trkpt>
      <trkpt lat="45.86803" lon="4.80362">
        <ele>441.6</ele>
        <time>2014-09-14T13:30:52Z</time>
      </trkpt>
      <trkpt lat="45.86801" lon="4.80376">
        <ele>440.1</ele>
        <time>2014-09-14T13:30:53Z</time>
      </trkpt>
      <trkpt lat="45.86798" lon="4.8039">
        <ele>438.2</ele>
        <time>2014-09-14T13:30:57Z</time>
      </trkpt>
      <trkpt lat="45.86799" lon="4.80406">
        <ele>436.3</ele>
        <time>2014-09-14T13:31:00Z</time>
      </trkpt>
      <trkpt lat="45.86803" lon="4.8042">
        <ele>434.4</ele>
        <time>2014-09-14T13:31:04Z</time>
      </trkpt>
      <trkpt lat="45.86804" lon="4.80435">
        <ele>432.5</ele>
        <time>2014-09-14T13:31:08Z</time>
      </trkpt>
      <trkpt lat="45.86793" lon="4.80445">
        <ele>430.5</ele>
        <time>2014-09-14T13:31:19Z</time>
      </trkpt>
      <trkpt lat="45.86783" lon="4.80444">
        <ele>428.6</ele>
        <time>2014-09-14T13:31:22Z</time>
      </trkpt>
      <trkpt lat="45.86774" lon="4.80444">
        <ele>427.9</ele>
        <time>2014-09-14T13:31:25Z</time>
      </trkpt>
      <trkpt lat="45.8676" lon="4.8044">
        <ele>427.2</ele>
        <time>2014-09-14T13:31:27Z</time>
      </trkpt>
      <trkpt lat="45.86747" lon="4.80433">
        <ele>425.2</ele>
        <time>2014-09-14T13:31:29Z</time>
      </trkpt>
      <trkpt lat="45.86736" lon="4.80426">
        <ele>423.2</ele>
        <time>2014-09-14T13:31:32Z</time>
      </trkpt>
      <trkpt lat="45.86722" lon="4.80423">
        <ele>421.2</ele>
        <time>2014-09-14T13:31:35Z</time>
      </trkpt>
      <trkpt lat="45.86718" lon="4.80439">
        <ele>419.9</ele>
        <time>2014-09-14T13:31:39Z</time>
      </trkpt>
      <trkpt lat="45.86725" lon="4.80455">
        <ele>418.6</ele>
        <time>2014-09-14T13:31:42Z</time>
      </trkpt>
      <trkpt lat="45.86731" lon="4.80472">
        <ele>416.3</ele>
        <time>2014-09-14T13:31:43Z</time>
      </trkpt>
      <trkpt lat="45.86736" lon="4.80491">
        <ele>413.9</ele>
        <time>2014-09-14T13:31:45Z</time>
      </trkpt>
      <trkpt lat="45.86744" lon="4.80513">
        <ele>411.5</ele>
        <time>2014-09-14T13:31:47Z</time>
      </trkpt>
      <trkpt lat="45.86749" lon="4.80526">
        <ele>409.2</ele>
        <time>2014-09-14T13:31:50Z</time>
      </trkpt>
      <trkpt lat="45.86757" lon="4.80542">
        <ele>407.3</ele>
        <time>2014-09-14T13:31:52Z</time>
      </trkpt>
      <trkpt lat="45.8677" lon="4.80567">
        <ele>405.4</ele>
        <time>2014-09-14T13:31:56Z</time>
      </trkpt>
      <trkpt lat="45.86784" lon="4.8059">
        <ele>404.7</ele>
        <time>2014-09-14T13:31:57Z</time>
      </trkpt>
      <trkpt lat="45.86788" lon="4.80604">
        <ele>404.1</ele>
        <time>2014-09-14T13:31:59Z</time>
      </trkpt>
      <trkpt lat="45.86791" lon="4.80617">
        <ele>403.5</ele>
        <time>2014-09-14T13:32:02Z</time>
      </trkpt>
      <trkpt lat="45.86793" lon="4.80633">
        <ele>402.4</ele>
        <time>2014-09-14T13:32:05Z</time>
      </trkpt>
      <trkpt lat="45.86794" lon="4.80648">
        <ele>401.3</ele>
        <time>2014-09-14T13:32:07Z</time>
      </trkpt>
      <trkpt lat="45.86796" lon="4.80667">
        <ele>401.3</ele>
        <time>2014-09-14T13:32:09Z</time>
      </trkpt>
      <trkpt lat="45.86798" lon="4.80683">
        <ele>401.3</ele>
        <time>2014-09-14T13:32:11Z</time>
      </trkpt>
      <trkpt lat="45.86801" lon="4.80699">
        <ele>401.3</ele>
        <time>2014-09-14T13:32:13Z</time>
      </trkpt>
      <trkpt lat="45.86806" lon="4.80721">
        <ele>400.5</ele>
        <time>2014-09-14T13:32:18Z</time>
      </trkpt>
      <trkpt lat="45.86811" lon="4.80733">
        <ele>399.4</ele>
        <time>2014-09-14T13:32:23Z</time>
      </trkpt>
      <trkpt lat="45.86816" lon="4.80748">
        <ele>398.2</ele>
        <time>2014-09-14T13:32:25Z</time>
      </trkpt>
      <trkpt lat="45.86819" lon="4.80768">
        <ele>396.5</ele>
        <time>2014-09-14T13:32:30Z</time>
      </trkpt>
      <trkpt lat="45.86823" lon="4.80793">
        <ele>394.7</ele>
        <time>2014-09-14T13:32:32Z</time>
      </trkpt>
      <trkpt lat="45.86826" lon="4.80835">
        <ele>393</ele>
        <time>2014-09-14T13:32:33Z</time>
      </trkpt>
      <trkpt lat="45.86828" lon="4.80857">
        <ele>391.7</ele>
        <time>2014-09-14T13:32:35Z</time>
      </trkpt>
      <trkpt lat="45.8683" lon="4.80875">
        <ele>389.4</ele>
        <time>2014-09-14T13:32:37Z</time>
      </trkpt>
      <trkpt lat="45.86833" lon="4.80893">
        <ele>387</ele>
        <time>2014-09-14T13:32:39Z</time>
      </trkpt>
      <trkpt lat="45.86837" lon="4.80915">
        <ele>384.6</ele>
        <time>2014-09-14T13:32:41Z</time>
      </trkpt>
      <trkpt lat="45.86841" lon="4.80934">
        <ele>382.3</ele>
        <time>2014-09-14T13:32:43Z</time>
      </trkpt>
      <trkpt lat="45.86844" lon="4.80948">
        <ele>379.7</ele>
        <time>2014-09-14T13:32:45Z</time>
      </trkpt>
      <trkpt lat="45.86849" lon="4.80969">
        <ele>377.2</ele>
        <time>2014-09-14T13:32:46Z</time>
      </trkpt>
      <trkpt lat="45.86852" lon="4.80991">
        <ele>374.6</ele>
        <time>2014-09-14T13:32:48Z</time>
      </trkpt>
      <trkpt lat="45.86855" lon="4.81013">
        <ele>372.6</ele>
        <time>2014-09-14T13:32:50Z</time>
      </trkpt>
      <trkpt lat="45.86859" lon="4.81034">
        <ele>370.6</ele>
        <time>2014-09-14T13:32:52Z</time>
      </trkpt>
      <trkpt lat="45.86863" lon="4.81058">
        <ele>367.2</ele>
        <time>2014-09-14T13:32:54Z</time>
      </trkpt>
      <trkpt lat="45.86869" lon="4.81083">
        <ele>366</ele>
        <time>2014-09-14T13:32:56Z</time>
      </trkpt>
      <trkpt lat="45.86872" lon="4.81102">
        <ele>365.9</ele>
        <time>2014-09-14T13:32:58Z</time>
      </trkpt>
      <trkpt lat="45.86875" lon="4.81121">
        <ele>365.8</ele>
        <time>2014-09-14T13:33:01Z</time>
      </trkpt>
      <trkpt lat="45.86877" lon="4.81136">
        <ele>365.7</ele>
        <time>2014-09-14T13:33:02Z</time>
      </trkpt>
      <trkpt lat="45.8688" lon="4.81153">
        <ele>365.6</ele>
        <time>2014-09-14T13:33:04Z</time>
      </trkpt>
      <trkpt lat="45.86889" lon="4.81166">
        <ele>367.5</ele>
        <time>2014-09-14T13:33:07Z</time>
      </trkpt>
      <trkpt lat="45.86903" lon="4.81172">
        <ele>369.5</ele>
        <time>2014-09-14T13:33:11Z</time>
      </trkpt>
      <trkpt lat="45.86912" lon="4.81167">
        <ele>371.4</ele>
        <time>2014-09-14T13:33:14Z</time>
      </trkpt>
      <trkpt lat="45.86923" lon="4.81157">
        <ele>373.3</ele>
        <time>2014-09-14T13:33:19Z</time>
      </trkpt>
      <trkpt lat="45.86933" lon="4.81146">
        <ele>374.5</ele>
        <time>2014-09-14T13:33:24Z</time>
      </trkpt>
      <trkpt lat="45.8694" lon="4.81136">
        <ele>377.1</ele>
        <time>2014-09-14T13:33:26Z</time>
      </trkpt>
      <trkpt lat="45.86948" lon="4.81124">
        <ele>378</ele>
        <time>2014-09-14T13:33:29Z</time>
      </trkpt>
      <trkpt lat="45.86955" lon="4.81111">
        <ele>378.9</ele>
        <time>2014-09-14T13:33:32Z</time>
      </trkpt>
      <trkpt lat="45.86962" lon="4.81098">
        <ele>379.8</ele>
        <time>2014-09-14T13:33:35Z</time>
      </trkpt>
      <trkpt lat="45.86968" lon="4.81083">
        <ele>365.1</ele>
        <time>2014-09-14T13:33:38Z</time>
      </trkpt>
      <trkpt lat="45.86973" lon="4.81067">
        <ele>350.4</ele>
        <time>2014-09-14T13:33:41Z</time>
      </trkpt>
      <trkpt lat="45.86978" lon="4.81053">
        <ele>334.5</ele>
        <time>2014-09-14T13:33:44Z</time>
      </trkpt>
      <trkpt lat="45.86981" lon="4.81037">
        <ele>318.7</ele>
        <time>2014-09-14T13:33:48Z</time>
      </trkpt>
      <trkpt lat="45.86986" lon="4.81024">
        <ele>302.9</ele>
        <time>2014-09-14T13:33:53Z</time>
      </trkpt>
      <trkpt lat="45.87621" lon="4.81838">
        <ele>287.1</ele>
        <time>2014-09-14T13:40:44Z</time>
      </trkpt>
      <trkpt lat="45.87616" lon="4.81852">
        <ele>272</ele>
        <time>2014-09-14T13:40:45Z</time>
      </trkpt>
      <trkpt lat="45.87612" lon="4.81863">
        <ele>258.2</ele>
        <time>2014-09-14T13:40:46Z</time>
      </trkpt>
      <trkpt lat="45.87591" lon="4.81861">
        <ele>243.8</ele>
        <time>2014-09-14T13:40:47Z</time>
      </trkpt>
      <trkpt lat="45.87572" lon="4.81863">
        <ele>229.5</ele>
        <time>2014-09-14T13:40:49Z</time>
      </trkpt>
      <trkpt lat="45.87556" lon="4.81865">
        <ele>215.1</ele>
        <time>2014-09-14T13:40:55Z</time>
      </trkpt>
      <trkpt lat="45.87547" lon="4.81866">
        <ele>216.4</ele>
        <time>2014-09-14T13:41:08Z</time>
      </trkpt>
      <trkpt lat="45.87459" lon="4.81885">
        <ele>217.5</ele>
        <time>2014-09-14T13:41:45Z</time>
      </trkpt>
      <trkpt lat="45.87449" lon="4.81887">
        <ele>217.8</ele>
        <time>2014-09-14T13:41:47Z</time>
      </trkpt>
      <trkpt lat="45.87435" lon="4.81906">
        <ele>218.1</ele>
        <time>2014-09-14T13:41:57Z</time>
      </trkpt>
      <trkpt lat="45.87429" lon="4.81897">
        <ele>218.4</ele>
        <time>2014-09-14T13:41:59Z</time>
      </trkpt>
      <trkpt lat="45.87438" lon="4.81924">
        <ele>218.6</ele>
        <time>2014-09-14T13:42:12Z</time>
      </trkpt>
      <trkpt lat="45.87458" lon="4.81964">
        <ele>219.8</ele>
        <time>2014-09-14T13:42:15Z</time>
      </trkpt>
      <trkpt lat="45.87469" lon="4.81975">
        <ele>219.7</ele>
        <time>2014-09-14T13:42:17Z</time>
      </trkpt>
      <trkpt lat="45.87472" lon="4.81989">
        <ele>219.3</ele>
        <time>2014-09-14T13:42:19Z</time>
      </trkpt>
      <trkpt lat="45.8747" lon="4.82003">
        <ele>218.8</ele>
        <time>2014-09-14T13:42:22Z</time>
      </trkpt>
      <trkpt lat="45.87467" lon="4.82015">
        <ele>218.4</ele>
        <time>2014-09-14T13:42:24Z</time>
      </trkpt>
      <trkpt lat="45.87461" lon="4.8203">
        <ele>217.9</ele>
        <time>2014-09-14T13:42:27Z</time>
      </trkpt>
      <trkpt lat="45.87456" lon="4.82045">
        <ele>217.5</ele>
        <time>2014-09-14T13:42:30Z</time>
      </trkpt>
      <trkpt lat="45.87452" lon="4.82061">
        <ele>218.1</ele>
        <time>2014-09-14T13:42:34Z</time>
      </trkpt>
      <trkpt lat="45.87449" lon="4.82074">
        <ele>218.3</ele>
        <time>2014-09-14T13:42:36Z</time>
      </trkpt>
      <trkpt lat="45.87447" lon="4.82088">
        <ele>218.5</ele>
        <time>2014-09-14T13:42:40Z</time>
      </trkpt>
      <trkpt lat="45.87447" lon="4.82104">
        <ele>218.6</ele>
        <time>2014-09-14T13:42:46Z</time>
      </trkpt>
      <trkpt lat="45.87447" lon="4.82117">
        <ele>217.9</ele>
        <time>2014-09-14T13:42:48Z</time>
      </trkpt>
      <trkpt lat="45.87446" lon="4.82131">
        <ele>217.2</ele>
        <time>2014-09-14T13:42:51Z</time>
      </trkpt>
      <trkpt lat="45.87446" lon="4.82146">
        <ele>216.7</ele>
        <time>2014-09-14T13:42:53Z</time>
      </trkpt>
      <trkpt lat="45.87447" lon="4.82161">
        <ele>216.3</ele>
        <time>2014-09-14T13:42:54Z</time>
      </trkpt>
      <trkpt lat="45.87447" lon="4.82177">
        <ele>215.8</ele>
        <time>2014-09-14T13:42:56Z</time>
      </trkpt>
      <trkpt lat="45.87449" lon="4.82195">
        <ele>215.4</ele>
        <time>2014-09-14T13:43:00Z</time>
      </trkpt>
      <trkpt lat="45.87457" lon="4.8221">
        <ele>214.5</ele>
        <time>2014-09-14T13:43:02Z</time>
      </trkpt>
      <trkpt lat="45.87471" lon="4.82231">
        <ele>213.7</ele>
        <time>2014-09-14T13:43:03Z</time>
      </trkpt>
      <trkpt lat="45.87475" lon="4.82245">
        <ele>213.3</ele>
        <time>2014-09-14T13:43:05Z</time>
      </trkpt>
      <trkpt lat="45.87474" lon="4.82259">
        <ele>212.8</ele>
        <time>2014-09-14T13:43:07Z</time>
      </trkpt>
      <trkpt lat="45.87467" lon="4.82271">
        <ele>212.4</ele>
        <time>2014-09-14T13:43:09Z</time>
      </trkpt>
      <trkpt lat="45.87462" lon="4.82284">
        <ele>211.9</ele>
        <time>2014-09-14T13:43:13Z</time>
      </trkpt>
      <trkpt lat="45.87452" lon="4.82289">
        <ele>211.5</ele>
        <time>2014-09-14T13:43:16Z</time>
      </trkpt>
      <trkpt lat="45.87445" lon="4.82281">
        <ele>211.1</ele>
        <time>2014-09-14T13:43:18Z</time>
      </trkpt>
      <trkpt lat="45.87438" lon="4.82269">
        <ele>210.7</ele>
        <time>2014-09-14T13:43:20Z</time>
      </trkpt>
      <trkpt lat="45.87431" lon="4.82255">
        <ele>210.4</ele>
        <time>2014-09-14T13:43:24Z</time>
      </trkpt>
      <trkpt lat="45.87419" lon="4.82239">
        <ele>209.1</ele>
        <time>2014-09-14T13:43:25Z</time>
      </trkpt>
      <trkpt lat="45.8741" lon="4.82235">
        <ele>208.2</ele>
        <time>2014-09-14T13:43:30Z</time>
      </trkpt>
      <trkpt lat="45.87412" lon="4.82252">
        <ele>207.3</ele>
        <time>2014-09-14T13:43:32Z</time>
      </trkpt>
      <trkpt lat="45.87418" lon="4.82271">
        <ele>206.4</ele>
        <time>2014-09-14T13:43:34Z</time>
      </trkpt>
      <trkpt lat="45.87427" lon="4.82289">
        <ele>206.4</ele>
        <time>2014-09-14T13:43:36Z</time>
      </trkpt>
      <trkpt lat="45.87436" lon="4.82307">
        <ele>206.4</ele>
        <time>2014-09-14T13:43:38Z</time>
      </trkpt>
      <trkpt lat="45.8744" lon="4.82319">
        <ele>206.4</ele>
        <time>2014-09-14T13:43:39Z</time>
      </trkpt>
      <trkpt lat="45.87431" lon="4.82319">
        <ele>205.6</ele>
        <time>2014-09-14T13:43:45Z</time>
      </trkpt>
      <trkpt lat="45.87418" lon="4.82303">
        <ele>204.7</ele>
        <time>2014-09-14T13:43:47Z</time>
      </trkpt>
      <trkpt lat="45.87407" lon="4.82292">
        <ele>203.8</ele>
        <time>2014-09-14T13:43:49Z</time>
      </trkpt>
      <trkpt lat="45.87393" lon="4.82288">
        <ele>202.9</ele>
        <time>2014-09-14T13:43:50Z</time>
      </trkpt>
      <trkpt lat="45.87381" lon="4.82295">
        <ele>202.9</ele>
        <time>2014-09-14T13:44:09Z</time>
      </trkpt>
      <trkpt lat="45.87371" lon="4.82297">
        <ele>202.9</ele>
        <time>2014-09-14T13:44:11Z</time>
      </trkpt>
      <trkpt lat="45.87358" lon="4.82304">
        <ele>202.9</ele>
        <time>2014-09-14T13:44:14Z</time>
      </trkpt>
      <trkpt lat="45.87349" lon="4.82314">
        <ele>202.9</ele>
        <time>2014-09-14T13:44:17Z</time>
      </trkpt>
      <trkpt lat="45.87341" lon="4.82327">
        <ele>202</ele>
        <time>2014-09-14T13:44:18Z</time>
      </trkpt>
      <trkpt lat="45.87335" lon="4.82342">
        <ele>201.1</ele>
        <time>2014-09-14T13:44:20Z</time>
      </trkpt>
      <trkpt lat="45.87328" lon="4.8235">
        <ele>200.4</ele>
        <time>2014-09-14T13:44:22Z</time>
      </trkpt>
      <trkpt lat="45.87317" lon="4.82344">
        <ele>200.5</ele>
        <time>2014-09-14T13:44:26Z</time>
      </trkpt>
      <trkpt lat="45.87309" lon="4.82334">
        <ele>200.7</ele>
        <time>2014-09-14T13:44:28Z</time>
      </trkpt>
      <trkpt lat="45.87305" lon="4.82322">
        <ele>201</ele>
        <time>2014-09-14T13:44:30Z</time>
      </trkpt>
      <trkpt lat="45.873" lon="4.82307">
        <ele>201.3</ele>
        <time>2014-09-14T13:44:32Z</time>
      </trkpt>
      <trkpt lat="45.87292" lon="4.82294">
        <ele>201.5</ele>
        <time>2014-09-14T13:44:35Z</time>
      </trkpt>
      <trkpt lat="45.87284" lon="4.82282">
        <ele>202.2</ele>
        <time>2014-09-14T13:44:38Z</time>
      </trkpt>
      <trkpt lat="45.87276" lon="4.82272">
        <ele>202.8</ele>
        <time>2014-09-14T13:44:40Z</time>
      </trkpt>
      <trkpt lat="45.87265" lon="4.82269">
        <ele>203.5</ele>
        <time>2014-09-14T13:44:43Z</time>
      </trkpt>
      <trkpt lat="45.8725" lon="4.82254">
        <ele>204.1</ele>
        <time>2014-09-14T13:44:49Z</time>
      </trkpt>
      <trkpt lat="45.87244" lon="4.82231">
        <ele>204.8</ele>
        <time>2014-09-14T13:44:54Z</time>
      </trkpt>
      <trkpt lat="45.87237" lon="4.82218">
        <ele>205.4</ele>
        <time>2014-09-14T13:44:56Z</time>
      </trkpt>
      <trkpt lat="45.87232" lon="4.82207">
        <ele>205.8</ele>
        <time>2014-09-14T13:44:58Z</time>
      </trkpt>
      <trkpt lat="45.87224" lon="4.82194">
        <ele>206.3</ele>
        <time>2014-09-14T13:45:01Z</time>
      </trkpt>
      <trkpt lat="45.87217" lon="4.82185">
        <ele>207</ele>
        <time>2014-09-14T13:45:04Z</time>
      </trkpt>
      <trkpt lat="45.87206" lon="4.82173">
        <ele>207.7</ele>
        <time>2014-09-14T13:45:06Z</time>
      </trkpt>
      <trkpt lat="45.87196" lon="4.82161">
        <ele>208.5</ele>
        <time>2014-09-14T13:45:09Z</time>
      </trkpt>
      <trkpt lat="45.87187" lon="4.82152">
        <ele>208.8</ele>
        <time>2014-09-14T13:45:13Z</time>
      </trkpt>
      <trkpt lat="45.87178" lon="4.82144">
        <ele>209.5</ele>
        <time>2014-09-14T13:45:15Z</time>
      </trkpt>
      <trkpt lat="45.87168" lon="4.82137">
        <ele>210.1</ele>
        <time>2014-09-14T13:45:18Z</time>
      </trkpt>
      <trkpt lat="45.8716" lon="4.8213">
        <ele>210.7</ele>
        <time>2014-09-14T13:45:20Z</time>
      </trkpt>
      <trkpt lat="45.87151" lon="4.8212">
        <ele>211.3</ele>
        <time>2014-09-14T13:45:23Z</time>
      </trkpt>
      <trkpt lat="45.8714" lon="4.82112">
        <ele>211.8</ele>
        <time>2014-09-14T13:45:26Z</time>
      </trkpt>
      <trkpt lat="45.87125" lon="4.82097">
        <ele>212.4</ele>
        <time>2014-09-14T13:45:32Z</time>
      </trkpt>
      <trkpt lat="45.87114" lon="4.8209">
        <ele>213.5</ele>
        <time>2014-09-14T13:45:35Z</time>
      </trkpt>
      <trkpt lat="45.87104" lon="4.82082">
        <ele>214.5</ele>
        <time>2014-09-14T13:45:38Z</time>
      </trkpt>
      <trkpt lat="45.87093" lon="4.82073">
        <ele>215.1</ele>
        <time>2014-09-14T13:45:41Z</time>
      </trkpt>
      <trkpt lat="45.87082" lon="4.82064">
        <ele>215.7</ele>
        <time>2014-09-14T13:45:44Z</time>
      </trkpt>
      <trkpt lat="45.8707" lon="4.82056">
        <ele>216.4</ele>
        <time>2014-09-14T13:45:47Z</time>
      </trkpt>
      <trkpt lat="45.87062" lon="4.8205">
        <ele>216.7</ele>
        <time>2014-09-14T13:45:49Z</time>
      </trkpt>
      <trkpt lat="45.87051" lon="4.82043">
        <ele>217.1</ele>
        <time>2014-09-14T13:45:51Z</time>
      </trkpt>
      <trkpt lat="45.8704" lon="4.82038">
        <ele>217.5</ele>
        <time>2014-09-14T13:45:53Z</time>
      </trkpt>
      <trkpt lat="45.8703" lon="4.82032">
        <ele>217.8</ele>
        <time>2014-09-14T13:45:55Z</time>
      </trkpt>
      <trkpt lat="45.8702" lon="4.82024">
        <ele>219.5</ele>
        <time>2014-09-14T13:45:57Z</time>
      </trkpt>
      <trkpt lat="45.87013" lon="4.82013">
        <ele>221.3</ele>
        <time>2014-09-14T13:45:59Z</time>
      </trkpt>
      <trkpt lat="45.87007" lon="4.82001">
        <ele>222.4</ele>
        <time>2014-09-14T13:46:01Z</time>
      </trkpt>
      <trkpt lat="45.87001" lon="4.81987">
        <ele>222.5</ele>
        <time>2014-09-14T13:46:05Z</time>
      </trkpt>
      <trkpt lat="45.86993" lon="4.81975">
        <ele>223</ele>
        <time>2014-09-14T13:46:09Z</time>
      </trkpt>
      <trkpt lat="45.86981" lon="4.81957">
        <ele>223.6</ele>
        <time>2014-09-14T13:46:33Z</time>
      </trkpt>
      <trkpt lat="45.86972" lon="4.81958">
        <ele>224.4</ele>
        <time>2014-09-14T13:46:39Z</time>
      </trkpt>
      <trkpt lat="45.86972" lon="4.81958">
        <ele>225.5</ele>
        <time>2014-09-14T13:46:41Z</time>
      </trkpt>
      <trkpt lat="45.87133" lon="4.82131">
        <ele>210</ele>
        <time>2014-09-14T13:56:33Z</time>
      </trkpt>
      <trkpt lat="45.87127" lon="4.8212">
        <ele>209.7</ele>
        <time>2014-09-14T13:56:39Z</time>
      </trkpt>
      <trkpt lat="45.87135" lon="4.82127">
        <ele>209.5</ele>
        <time>2014-09-14T13:56:51Z</time>
      </trkpt>
      <trkpt lat="45.87143" lon="4.82139">
        <ele>209.6</ele>
        <time>2014-09-14T13:56:54Z</time>
      </trkpt>
      <trkpt lat="45.87151" lon="4.82153">
        <ele>209.6</ele>
        <time>2014-09-14T13:56:56Z</time>
      </trkpt>
      <trkpt lat="45.87159" lon="4.82172">
        <ele>209.6</ele>
        <time>2014-09-14T13:56:58Z</time>
      </trkpt>
      <trkpt lat="45.87167" lon="4.82191">
        <ele>209.5</ele>
        <time>2014-09-14T13:57:00Z</time>
      </trkpt>
      <trkpt lat="45.87173" lon="4.82209">
        <ele>209.2</ele>
        <time>2014-09-14T13:57:02Z</time>
      </trkpt>
      <trkpt lat="45.8718" lon="4.82227">
        <ele>209.1</ele>
        <time>2014-09-14T13:57:04Z</time>
      </trkpt>
      <trkpt lat="45.87185" lon="4.82245">
        <ele>209.1</ele>
        <time>2014-09-14T13:57:06Z</time>
      </trkpt>
      <trkpt lat="45.8719" lon="4.82261">
        <ele>209.1</ele>
        <time>2014-09-14T13:57:08Z</time>
      </trkpt>
      <trkpt lat="45.87196" lon="4.82275">
        <ele>209.1</ele>
        <time>2014-09-14T13:57:10Z</time>
      </trkpt>
      <trkpt lat="45.87202" lon="4.82288">
        <ele>209.1</ele>
        <time>2014-09-14T13:57:12Z</time>
      </trkpt>
      <trkpt lat="45.87208" lon="4.823">
        <ele>209.1</ele>
        <time>2014-09-14T13:57:14Z</time>
      </trkpt>
      <trkpt lat="45.87214" lon="4.82313">
        <ele>208.9</ele>
        <time>2014-09-14T13:57:16Z</time>
      </trkpt>
      <trkpt lat="45.87221" lon="4.82327">
        <ele>208.7</ele>
        <time>2014-09-14T13:57:18Z</time>
      </trkpt>
      <trkpt lat="45.87226" lon="4.82338">
        <ele>209.3</ele>
        <time>2014-09-14T13:57:20Z</time>
      </trkpt>
      <trkpt lat="45.87233" lon="4.82349">
        <ele>209.8</ele>
        <time>2014-09-14T13:57:22Z</time>
      </trkpt>
      <trkpt lat="45.8724" lon="4.8236">
        <ele>210.4</ele>
        <time>2014-09-14T13:57:25Z</time>
      </trkpt>
      <trkpt lat="45.87247" lon="4.82371">
        <ele>210.9</ele>
        <time>2014-09-14T13:57:28Z</time>
      </trkpt>
      <trkpt lat="45.87252" lon="4.82382">
        <ele>211.6</ele>
        <time>2014-09-14T13:57:31Z</time>
      </trkpt>
      <trkpt lat="45.87259" lon="4.82394">
        <ele>211.3</ele>
        <time>2014-09-14T13:57:34Z</time>
      </trkpt>
      <trkpt lat="45.87265" lon="4.82405">
        <ele>210.9</ele>
        <time>2014-09-14T13:57:37Z</time>
      </trkpt>
      <trkpt lat="45.87272" lon="4.82418">
        <ele>211</ele>
        <time>2014-09-14T13:57:41Z</time>
      </trkpt>
      <trkpt lat="45.87279" lon="4.8243">
        <ele>211.1</ele>
        <time>2014-09-14T13:57:44Z</time>
      </trkpt>
      <trkpt lat="45.87285" lon="4.82438">
        <ele>211.2</ele>
        <time>2014-09-14T13:57:47Z</time>
      </trkpt>
      <trkpt lat="45.87293" lon="4.82448">
        <ele>211.3</ele>
        <time>2014-09-14T13:57:50Z</time>
      </trkpt>
      <trkpt lat="45.873" lon="4.82458">
        <ele>210.6</ele>
        <time>2014-09-14T13:57:53Z</time>
      </trkpt>
      <trkpt lat="45.87306" lon="4.82469">
        <ele>210</ele>
        <time>2014-09-14T13:57:56Z</time>
      </trkpt>
      <trkpt lat="45.87312" lon="4.82483">
        <ele>209.4</ele>
        <time>2014-09-14T13:58:00Z</time>
      </trkpt>
      <trkpt lat="45.87317" lon="4.82496">
        <ele>209.4</ele>
        <time>2014-09-14T13:58:03Z</time>
      </trkpt>
      <trkpt lat="45.87325" lon="4.82511">
        <ele>209.4</ele>
        <time>2014-09-14T13:58:06Z</time>
      </trkpt>
      <trkpt lat="45.87329" lon="4.82523">
        <ele>210.5</ele>
        <time>2014-09-14T13:58:08Z</time>
      </trkpt>
      <trkpt lat="45.87335" lon="4.82535">
        <ele>211.5</ele>
        <time>2014-09-14T13:58:10Z</time>
      </trkpt>
      <trkpt lat="45.87341" lon="4.82547">
        <ele>212.2</ele>
        <time>2014-09-14T13:58:12Z</time>
      </trkpt>
      <trkpt lat="45.87347" lon="4.82558">
        <ele>212.8</ele>
        <time>2014-09-14T13:58:14Z</time>
      </trkpt>
      <trkpt lat="45.87352" lon="4.8257">
        <ele>213</ele>
        <time>2014-09-14T13:58:16Z</time>
      </trkpt>
      <trkpt lat="45.87358" lon="4.82584">
        <ele>213.2</ele>
        <time>2014-09-14T13:58:19Z</time>
      </trkpt>
      <trkpt lat="45.87363" lon="4.82597">
        <ele>213.4</ele>
        <time>2014-09-14T13:58:21Z</time>
      </trkpt>
      <trkpt lat="45.87369" lon="4.82609">
        <ele>213.5</ele>
        <time>2014-09-14T13:58:23Z</time>
      </trkpt>
      <trkpt lat="45.87376" lon="4.82621">
        <ele>213.7</ele>
        <time>2014-09-14T13:58:25Z</time>
      </trkpt>
      <trkpt lat="45.87382" lon="4.82635">
        <ele>213.3</ele>
        <time>2014-09-14T13:58:27Z</time>
      </trkpt>
      <trkpt lat="45.87391" lon="4.82649">
        <ele>213.2</ele>
        <time>2014-09-14T13:58:30Z</time>
      </trkpt>
      <trkpt lat="45.87399" lon="4.82663">
        <ele>213.1</ele>
        <time>2014-09-14T13:58:32Z</time>
      </trkpt>
      <trkpt lat="45.87403" lon="4.82678">
        <ele>213</ele>
        <time>2014-09-14T13:58:34Z</time>
      </trkpt>
      <trkpt lat="45.8741" lon="4.82691">
        <ele>212.9</ele>
        <time>2014-09-14T13:58:36Z</time>
      </trkpt>
      <trkpt lat="45.87418" lon="4.82707">
        <ele>212.8</ele>
        <time>2014-09-14T13:58:38Z</time>
      </trkpt>
      <trkpt lat="45.87424" lon="4.82723">
        <ele>213.2</ele>
        <time>2014-09-14T13:58:40Z</time>
      </trkpt>
      <trkpt lat="45.8743" lon="4.82738">
        <ele>212.8</ele>
        <time>2014-09-14T13:58:42Z</time>
      </trkpt>
      <trkpt lat="45.87437" lon="4.82755">
        <ele>212.5</ele>
        <time>2014-09-14T13:58:44Z</time>
      </trkpt>
      <trkpt lat="45.87444" lon="4.8277">
        <ele>212.1</ele>
        <time>2014-09-14T13:58:46Z</time>
      </trkpt>
      <trkpt lat="45.87451" lon="4.82784">
        <ele>211.7</ele>
        <time>2014-09-14T13:58:48Z</time>
      </trkpt>
      <trkpt lat="45.87457" lon="4.82799">
        <ele>211.6</ele>
        <time>2014-09-14T13:58:50Z</time>
      </trkpt>
      <trkpt lat="45.87463" lon="4.82814">
        <ele>211.2</ele>
        <time>2014-09-14T13:58:52Z</time>
      </trkpt>
      <trkpt lat="45.87472" lon="4.8283">
        <ele>210.7</ele>
        <time>2014-09-14T13:58:54Z</time>
      </trkpt>
      <trkpt lat="45.87478" lon="4.82845">
        <ele>210.3</ele>
        <time>2014-09-14T13:58:56Z</time>
      </trkpt>
      <trkpt lat="45.87484" lon="4.82861">
        <ele>209.8</ele>
        <time>2014-09-14T13:58:58Z</time>
      </trkpt>
      <trkpt lat="45.8749" lon="4.82878">
        <ele>209</ele>
        <time>2014-09-14T13:59:00Z</time>
      </trkpt>
      <trkpt lat="45.87497" lon="4.82896">
        <ele>208.2</ele>
        <time>2014-09-14T13:59:02Z</time>
      </trkpt>
      <trkpt lat="45.87504" lon="4.82915">
        <ele>208.1</ele>
        <time>2014-09-14T13:59:04Z</time>
      </trkpt>
      <trkpt lat="45.87511" lon="4.82935">
        <ele>208</ele>
        <time>2014-09-14T13:59:06Z</time>
      </trkpt>
      <trkpt lat="45.87517" lon="4.82955">
        <ele>207.9</ele>
        <time>2014-09-14T13:59:08Z</time>
      </trkpt>
      <trkpt lat="45.87522" lon="4.82976">
        <ele>207.8</ele>
        <time>2014-09-14T13:59:10Z</time>
      </trkpt>
      <trkpt lat="45.87524" lon="4.82991">
        <ele>206.8</ele>
        <time>2014-09-14T13:59:12Z</time>
      </trkpt>
      <trkpt lat="45.87527" lon="4.83004">
        <ele>205.3</ele>
        <time>2014-09-14T13:59:14Z</time>
      </trkpt>
      <trkpt lat="45.87531" lon="4.83018">
        <ele>203.7</ele>
        <time>2014-09-14T13:59:16Z</time>
      </trkpt>
      <trkpt lat="45.87536" lon="4.83031">
        <ele>202.2</ele>
        <time>2014-09-14T13:59:18Z</time>
      </trkpt>
      <trkpt lat="45.87539" lon="4.83046">
        <ele>200.6</ele>
        <time>2014-09-14T13:59:20Z</time>
      </trkpt>
      <trkpt lat="45.87543" lon="4.83069">
        <ele>198.5</ele>
        <time>2014-09-14T13:59:22Z</time>
      </trkpt>
      <trkpt lat="45.87546" lon="4.83082">
        <ele>196.3</ele>
        <time>2014-09-14T13:59:23Z</time>
      </trkpt>
      <trkpt lat="45.87547" lon="4.83096">
        <ele>194.1</ele>
        <time>2014-09-14T13:59:24Z</time>
      </trkpt>
      <trkpt lat="45.87549" lon="4.83118">
        <ele>191.9</ele>
        <time>2014-09-14T13:59:26Z</time>
      </trkpt>
      <trkpt lat="45.8755" lon="4.83137">
        <ele>189.7</ele>
        <time>2014-09-14T13:59:28Z</time>
      </trkpt>
      <trkpt lat="45.87551" lon="4.8315">
        <ele>187.2</ele>
        <time>2014-09-14T13:59:30Z</time>
      </trkpt>
      <trkpt lat="45.87546" lon="4.83163">
        <ele>185.3</ele>
        <time>2014-09-14T13:59:34Z</time>
      </trkpt>
      <trkpt lat="45.87549" lon="4.83178">
        <ele>183.9</ele>
        <time>2014-09-14T13:59:37Z</time>
      </trkpt>
      <trkpt lat="45.87554" lon="4.8319">
        <ele>182.7</ele>
        <time>2014-09-14T13:59:39Z</time>
      </trkpt>
      <trkpt lat="45.87561" lon="4.83205">
        <ele>181.5</ele>
        <time>2014-09-14T13:59:41Z</time>
      </trkpt>
      <trkpt lat="45.87567" lon="4.83225">
        <ele>180</ele>
        <time>2014-09-14T13:59:43Z</time>
      </trkpt>
      <trkpt lat="45.8756" lon="4.8324">
        <ele>179.5</ele>
        <time>2014-09-14T13:59:45Z</time>
      </trkpt>
      <trkpt lat="45.87551" lon="4.83254">
        <ele>178.9</ele>
        <time>2014-09-14T13:59:47Z</time>
      </trkpt>
      <trkpt lat="45.87542" lon="4.83273">
        <ele>178.4</ele>
        <time>2014-09-14T13:59:49Z</time>
      </trkpt>
      <trkpt lat="45.87536" lon="4.83293">
        <ele>177.8</ele>
        <time>2014-09-14T13:59:51Z</time>
      </trkpt>
      <trkpt lat="45.8754" lon="4.83312">
        <ele>177.3</ele>
        <time>2014-09-14T13:59:53Z</time>
      </trkpt>
      <trkpt lat="45.87547" lon="4.83329">
        <ele>176.9</ele>
        <time>2014-09-14T13:59:55Z</time>
      </trkpt>
      <trkpt lat="45.87554" lon="4.83344">
        <ele>176.5</ele>
        <time>2014-09-14T13:59:57Z</time>
      </trkpt>
      <trkpt lat="45.87561" lon="4.83353">
        <ele>176.2</ele>
        <time>2014-09-14T13:59:58Z</time>
      </trkpt>
      <trkpt lat="45.87569" lon="4.83362">
        <ele>175.5</ele>
        <time>2014-09-14T13:59:59Z</time>
      </trkpt>
      <trkpt lat="45.87581" lon="4.8338">
        <ele>174.7</ele>
        <time>2014-09-14T14:00:01Z</time>
      </trkpt>
      <trkpt lat="45.87593" lon="4.83395">
        <ele>174.4</ele>
        <time>2014-09-14T14:00:03Z</time>
      </trkpt>
      <trkpt lat="45.8761" lon="4.8341">
        <ele>173.9</ele>
        <time>2014-09-14T14:00:05Z</time>
      </trkpt>
      <trkpt lat="45.8762" lon="4.83419">
        <ele>173.5</ele>
        <time>2014-09-14T14:00:06Z</time>
      </trkpt>
      <trkpt lat="45.87628" lon="4.83427">
        <ele>173</ele>
        <time>2014-09-14T14:00:08Z</time>
      </trkpt>
      <trkpt lat="45.87652" lon="4.8345">
        <ele>172.5</ele>
        <time>2014-09-14T14:00:10Z</time>
      </trkpt>
      <trkpt lat="45.8766" lon="4.83458">
        <ele>171.5</ele>
        <time>2014-09-14T14:00:11Z</time>
      </trkpt>
      <trkpt lat="45.87669" lon="4.83475">
        <ele>170.7</ele>
        <time>2014-09-14T14:00:13Z</time>
      </trkpt>
      <trkpt lat="45.87679" lon="4.83495">
        <ele>169.9</ele>
        <time>2014-09-14T14:00:15Z</time>
      </trkpt>
      <trkpt lat="45.87689" lon="4.83516">
        <ele>169.1</ele>
        <time>2014-09-14T14:00:17Z</time>
      </trkpt>
      <trkpt lat="45.87693" lon="4.83535">
        <ele>169</ele>
        <time>2014-09-14T14:00:19Z</time>
      </trkpt>
      <trkpt lat="45.87691" lon="4.83551">
        <ele>168.8</ele>
        <time>2014-09-14T14:00:21Z</time>
      </trkpt>
      <trkpt lat="45.87674" lon="4.83562">
        <ele>168.6</ele>
        <time>2014-09-14T14:00:24Z</time>
      </trkpt>
      <trkpt lat="45.87663" lon="4.83558">
        <ele>168.5</ele>
        <time>2014-09-14T14:00:25Z</time>
      </trkpt>
      <trkpt lat="45.87651" lon="4.83554">
        <ele>168.5</ele>
        <time>2014-09-14T14:00:27Z</time>
      </trkpt>
      <trkpt lat="45.87631" lon="4.83543">
        <ele>168.4</ele>
        <time>2014-09-14T14:00:28Z</time>
      </trkpt>
      <trkpt lat="45.8762" lon="4.83538">
        <ele>168.3</ele>
        <time>2014-09-14T14:00:29Z</time>
      </trkpt>
      <trkpt lat="45.87605" lon="4.83531">
        <ele>169</ele>
        <time>2014-09-14T14:00:31Z</time>
      </trkpt>
      <trkpt lat="45.8759" lon="4.83525">
        <ele>169.7</ele>
        <time>2014-09-14T14:00:33Z</time>
      </trkpt>
      <trkpt lat="45.87577" lon="4.83519">
        <ele>170.5</ele>
        <time>2014-09-14T14:00:35Z</time>
      </trkpt>
      <trkpt lat="45.87563" lon="4.83514">
        <ele>171.2</ele>
        <time>2014-09-14T14:00:37Z</time>
      </trkpt>
      <trkpt lat="45.87547" lon="4.83508">
        <ele>171.4</ele>
        <time>2014-09-14T14:00:39Z</time>
      </trkpt>
      <trkpt lat="45.87532" lon="4.83503">
        <ele>171.6</ele>
        <time>2014-09-14T14:00:41Z</time>
      </trkpt>
      <trkpt lat="45.87522" lon="4.835">
        <ele>171.8</ele>
        <time>2014-09-14T14:00:42Z</time>
      </trkpt>
      <trkpt lat="45.87507" lon="4.83497">
        <ele>172</ele>
        <time>2014-09-14T14:00:44Z</time>
      </trkpt>
      <trkpt lat="45.87492" lon="4.83496">
        <ele>172.2</ele>
        <time>2014-09-14T14:00:46Z</time>
      </trkpt>
      <trkpt lat="45.87478" lon="4.83494">
        <ele>172.4</ele>
        <time>2014-09-14T14:00:48Z</time>
      </trkpt>
      <trkpt lat="45.87464" lon="4.83494">
        <ele>172.5</ele>
        <time>2014-09-14T14:00:50Z</time>
      </trkpt>
      <trkpt lat="45.87448" lon="4.83493">
        <ele>172.4</ele>
        <time>2014-09-14T14:00:52Z</time>
      </trkpt>
      <trkpt lat="45.87434" lon="4.83492">
        <ele>172.2</ele>
        <time>2014-09-14T14:00:54Z</time>
      </trkpt>
      <trkpt lat="45.87421" lon="4.83492">
        <ele>172</ele>
        <time>2014-09-14T14:00:56Z</time>
      </trkpt>
      <trkpt lat="45.87407" lon="4.83493">
        <ele>171.8</ele>
        <time>2014-09-14T14:00:58Z</time>
      </trkpt>
      <trkpt lat="45.87394" lon="4.83494">
        <ele>171.6</ele>
        <time>2014-09-14T14:01:00Z</time>
      </trkpt>
      <trkpt lat="45.8738" lon="4.83495">
        <ele>171.5</ele>
        <time>2014-09-14T14:01:02Z</time>
      </trkpt>
      <trkpt lat="45.87366" lon="4.83495">
        <ele>171.4</ele>
        <time>2014-09-14T14:01:04Z</time>
      </trkpt>
      <trkpt lat="45.87355" lon="4.83496">
        <ele>170.9</ele>
        <time>2014-09-14T14:01:06Z</time>
      </trkpt>
      <trkpt lat="45.87342" lon="4.83494">
        <ele>170.5</ele>
        <time>2014-09-14T14:01:08Z</time>
      </trkpt>
      <trkpt lat="45.8733" lon="4.83493">
        <ele>170</ele>
        <time>2014-09-14T14:01:10Z</time>
      </trkpt>
      <trkpt lat="45.87317" lon="4.83492">
        <ele>169.5</ele>
        <time>2014-09-14T14:01:12Z</time>
      </trkpt>
      <trkpt lat="45.87305" lon="4.8349">
        <ele>169.2</ele>
        <time>2014-09-14T14:01:14Z</time>
      </trkpt>
      <trkpt lat="45.87292" lon="4.83488">
        <ele>168.8</ele>
        <time>2014-09-14T14:01:16Z</time>
      </trkpt>
      <trkpt lat="45.87279" lon="4.83485">
        <ele>168.5</ele>
        <time>2014-09-14T14:01:18Z</time>
      </trkpt>
      <trkpt lat="45.87264" lon="4.83482">
        <ele>168.5</ele>
        <time>2014-09-14T14:01:20Z</time>
      </trkpt>
      <trkpt lat="45.87252" lon="4.83479">
        <ele>168.5</ele>
        <time>2014-09-14T14:01:22Z</time>
      </trkpt>
      <trkpt lat="45.8724" lon="4.83476">
        <ele>168.6</ele>
        <time>2014-09-14T14:01:24Z</time>
      </trkpt>
      <trkpt lat="45.87227" lon="4.83474">
        <ele>168.8</ele>
        <time>2014-09-14T14:01:26Z</time>
      </trkpt>
      <trkpt lat="45.87214" lon="4.83472">
        <ele>169.4</ele>
        <time>2014-09-14T14:01:28Z</time>
      </trkpt>
      <trkpt lat="45.87203" lon="4.83469">
        <ele>169.9</ele>
        <time>2014-09-14T14:01:30Z</time>
      </trkpt>
      <trkpt lat="45.87191" lon="4.83467">
        <ele>170.5</ele>
        <time>2014-09-14T14:01:32Z</time>
      </trkpt>
      <trkpt lat="45.87179" lon="4.83464">
        <ele>171.1</ele>
        <time>2014-09-14T14:01:34Z</time>
      </trkpt>
      <trkpt lat="45.87168" lon="4.83463">
        <ele>171.7</ele>
        <time>2014-09-14T14:01:36Z</time>
      </trkpt>
      <trkpt lat="45.87156" lon="4.83461">
        <ele>172.4</ele>
        <time>2014-09-14T14:01:38Z</time>
      </trkpt>
      <trkpt lat="45.87145" lon="4.8346">
        <ele>173</ele>
        <time>2014-09-14T14:01:40Z</time>
      </trkpt>
      <trkpt lat="45.87133" lon="4.83458">
        <ele>173.3</ele>
        <time>2014-09-14T14:01:42Z</time>
      </trkpt>
      <trkpt lat="45.87121" lon="4.83458">
        <ele>173.5</ele>
        <time>2014-09-14T14:01:44Z</time>
      </trkpt>
      <trkpt lat="45.87109" lon="4.83458">
        <ele>173.6</ele>
        <time>2014-09-14T14:01:46Z</time>
      </trkpt>
      <trkpt lat="45.87099" lon="4.8346">
        <ele>173.7</ele>
        <time>2014-09-14T14:01:48Z</time>
      </trkpt>
      <trkpt lat="45.87087" lon="4.8346">
        <ele>173.8</ele>
        <time>2014-09-14T14:01:50Z</time>
      </trkpt>
      <trkpt lat="45.87076" lon="4.8346">
        <ele>173.9</ele>
        <time>2014-09-14T14:01:52Z</time>
      </trkpt>
      <trkpt lat="45.87064" lon="4.8346">
        <ele>174</ele>
        <time>2014-09-14T14:01:54Z</time>
      </trkpt>
      <trkpt lat="45.87053" lon="4.83459">
        <ele>174</ele>
        <time>2014-09-14T14:01:56Z</time>
      </trkpt>
      <trkpt lat="45.87043" lon="4.8346">
        <ele>174</ele>
        <time>2014-09-14T14:01:58Z</time>
      </trkpt>
      <trkpt lat="45.8703" lon="4.8346">
        <ele>174</ele>
        <time>2014-09-14T14:02:00Z</time>
      </trkpt>
      <trkpt lat="45.87019" lon="4.83461">
        <ele>173.7</ele>
        <time>2014-09-14T14:02:02Z</time>
      </trkpt>
      <trkpt lat="45.87007" lon="4.83461">
        <ele>173.5</ele>
        <time>2014-09-14T14:02:04Z</time>
      </trkpt>
      <trkpt lat="45.86996" lon="4.83461">
        <ele>173.2</ele>
        <time>2014-09-14T14:02:06Z</time>
      </trkpt>
      <trkpt lat="45.86984" lon="4.83461">
        <ele>172.9</ele>
        <time>2014-09-14T14:02:08Z</time>
      </trkpt>
      <trkpt lat="45.86972" lon="4.83461">
        <ele>172.6</ele>
        <time>2014-09-14T14:02:10Z</time>
      </trkpt>
      <trkpt lat="45.86959" lon="4.83461">
        <ele>172.4</ele>
        <time>2014-09-14T14:02:12Z</time>
      </trkpt>
      <trkpt lat="45.86947" lon="4.83462">
        <ele>172.1</ele>
        <time>2014-09-14T14:02:14Z</time>
      </trkpt>
      <trkpt lat="45.86937" lon="4.83461">
        <ele>171.6</ele>
        <time>2014-09-14T14:02:16Z</time>
      </trkpt>
      <trkpt lat="45.86925" lon="4.83458">
        <ele>171.2</ele>
        <time>2014-09-14T14:02:18Z</time>
      </trkpt>
      <trkpt lat="45.86913" lon="4.83457">
        <ele>170.7</ele>
        <time>2014-09-14T14:02:20Z</time>
      </trkpt>
      <trkpt lat="45.869" lon="4.83454">
        <ele>170.3</ele>
        <time>2014-09-14T14:02:22Z</time>
      </trkpt>
      <trkpt lat="45.86889" lon="4.83452">
        <ele>170.1</ele>
        <time>2014-09-14T14:02:24Z</time>
      </trkpt>
      <trkpt lat="45.86875" lon="4.83449">
        <ele>169.9</ele>
        <time>2014-09-14T14:02:26Z</time>
      </trkpt>
      <trkpt lat="45.86863" lon="4.83448">
        <ele>169.7</ele>
        <time>2014-09-14T14:02:28Z</time>
      </trkpt>
      <trkpt lat="45.86851" lon="4.83446">
        <ele>169.5</ele>
        <time>2014-09-14T14:02:30Z</time>
      </trkpt>
      <trkpt lat="45.86837" lon="4.83444">
        <ele>169.6</ele>
        <time>2014-09-14T14:02:32Z</time>
      </trkpt>
      <trkpt lat="45.86828" lon="4.83443">
        <ele>169.7</ele>
        <time>2014-09-14T14:02:34Z</time>
      </trkpt>
      <trkpt lat="45.86816" lon="4.83441">
        <ele>169.8</ele>
        <time>2014-09-14T14:02:36Z</time>
      </trkpt>
      <trkpt lat="45.86804" lon="4.83441">
        <ele>170.1</ele>
        <time>2014-09-14T14:02:38Z</time>
      </trkpt>
      <trkpt lat="45.86794" lon="4.83441">
        <ele>170.4</ele>
        <time>2014-09-14T14:02:40Z</time>
      </trkpt>
      <trkpt lat="45.86781" lon="4.8344">
        <ele>170.6</ele>
        <time>2014-09-14T14:02:42Z</time>
      </trkpt>
      <trkpt lat="45.86769" lon="4.83439">
        <ele>170.9</ele>
        <time>2014-09-14T14:02:44Z</time>
      </trkpt>
      <trkpt lat="45.86758" lon="4.8344">
        <ele>171.2</ele>
        <time>2014-09-14T14:02:46Z</time>
      </trkpt>
      <trkpt lat="45.86746" lon="4.83439">
        <ele>171.5</ele>
        <time>2014-09-14T14:02:48Z</time>
      </trkpt>
      <trkpt lat="45.86733" lon="4.83438">
        <ele>171.7</ele>
        <time>2014-09-14T14:02:50Z</time>
      </trkpt>
      <trkpt lat="45.8672" lon="4.83438">
        <ele>172</ele>
        <time>2014-09-14T14:02:52Z</time>
      </trkpt>
      <trkpt lat="45.86708" lon="4.83437">
        <ele>172</ele>
        <time>2014-09-14T14:02:54Z</time>
      </trkpt>
      <trkpt lat="45.86697" lon="4.83436">
        <ele>172</ele>
        <time>2014-09-14T14:02:56Z</time>
      </trkpt>
      <trkpt lat="45.86684" lon="4.83434">
        <ele>172</ele>
        <time>2014-09-14T14:02:58Z</time>
      </trkpt>
      <trkpt lat="45.86672" lon="4.83433">
        <ele>172</ele>
        <time>2014-09-14T14:03:00Z</time>
      </trkpt>
      <trkpt lat="45.86659" lon="4.83431">
        <ele>172</ele>
        <time>2014-09-14T14:03:02Z</time>
      </trkpt>
      <trkpt lat="45.86648" lon="4.83431">
        <ele>172</ele>
        <time>2014-09-14T14:03:04Z</time>
      </trkpt>
      <trkpt lat="45.86635" lon="4.83428">
        <ele>172</ele>
        <time>2014-09-14T14:03:06Z</time>
      </trkpt>
      <trkpt lat="45.86622" lon="4.83425">
        <ele>172</ele>
        <time>2014-09-14T14:03:08Z</time>
      </trkpt>
      <trkpt lat="45.8661" lon="4.83422">
        <ele>172</ele>
        <time>2014-09-14T14:03:10Z</time>
      </trkpt>
      <trkpt lat="45.86598" lon="4.83419">
        <ele>172.1</ele>
        <time>2014-09-14T14:03:12Z</time>
      </trkpt>
      <trkpt lat="45.86586" lon="4.83418">
        <ele>172.2</ele>
        <time>2014-09-14T14:03:14Z</time>
      </trkpt>
      <trkpt lat="45.86575" lon="4.83418">
        <ele>172.3</ele>
        <time>2014-09-14T14:03:16Z</time>
      </trkpt>
      <trkpt lat="45.86563" lon="4.83421">
        <ele>172.4</ele>
        <time>2014-09-14T14:03:18Z</time>
      </trkpt>
      <trkpt lat="45.86552" lon="4.83423">
        <ele>172.5</ele>
        <time>2014-09-14T14:03:20Z</time>
      </trkpt>
      <trkpt lat="45.8654" lon="4.83426">
        <ele>172.5</ele>
        <time>2014-09-14T14:03:22Z</time>
      </trkpt>
      <trkpt lat="45.8653" lon="4.83432">
        <ele>172.6</ele>
        <time>2014-09-14T14:03:24Z</time>
      </trkpt>
      <trkpt lat="45.86518" lon="4.83437">
        <ele>172.5</ele>
        <time>2014-09-14T14:03:26Z</time>
      </trkpt>
      <trkpt lat="45.86507" lon="4.8344">
        <ele>172.3</ele>
        <time>2014-09-14T14:03:28Z</time>
      </trkpt>
      <trkpt lat="45.86496" lon="4.83445">
        <ele>172.1</ele>
        <time>2014-09-14T14:03:30Z</time>
      </trkpt>
      <trkpt lat="45.86482" lon="4.83449">
        <ele>171.9</ele>
        <time>2014-09-14T14:03:32Z</time>
      </trkpt>
      <trkpt lat="45.8647" lon="4.83451">
        <ele>171.6</ele>
        <time>2014-09-14T14:03:34Z</time>
      </trkpt>
      <trkpt lat="45.86457" lon="4.83455">
        <ele>171.4</ele>
        <time>2014-09-14T14:03:36Z</time>
      </trkpt>
      <trkpt lat="45.86445" lon="4.83459">
        <ele>171.1</ele>
        <time>2014-09-14T14:03:38Z</time>
      </trkpt>
      <trkpt lat="45.86433" lon="4.8346">
        <ele>170.8</ele>
        <time>2014-09-14T14:03:40Z</time>
      </trkpt>
      <trkpt lat="45.86422" lon="4.83461">
        <ele>170.5</ele>
        <time>2014-09-14T14:03:42Z</time>
      </trkpt>
      <trkpt lat="45.86411" lon="4.83461">
        <ele>170.3</ele>
        <time>2014-09-14T14:03:44Z</time>
      </trkpt>
      <trkpt lat="45.86401" lon="4.83462">
        <ele>169.9</ele>
        <time>2014-09-14T14:03:46Z</time>
      </trkpt>
      <trkpt lat="45.86391" lon="4.83463">
        <ele>169.8</ele>
        <time>2014-09-14T14:03:48Z</time>
      </trkpt>
      <trkpt lat="45.86382" lon="4.8346">
        <ele>169.7</ele>
        <time>2014-09-14T14:03:50Z</time>
      </trkpt>
      <trkpt lat="45.86372" lon="4.83451">
        <ele>169.6</ele>
        <time>2014-09-14T14:03:53Z</time>
      </trkpt>
      <trkpt lat="45.86361" lon="4.83453">
        <ele>169.5</ele>
        <time>2014-09-14T14:03:55Z</time>
      </trkpt>
      <trkpt lat="45.86353" lon="4.83469">
        <ele>169.5</ele>
        <time>2014-09-14T14:03:57Z</time>
      </trkpt>
      <trkpt lat="45.86345" lon="4.8348">
        <ele>169.5</ele>
        <time>2014-09-14T14:03:59Z</time>
      </trkpt>
      <trkpt lat="45.86335" lon="4.8349">
        <ele>169.6</ele>
        <time>2014-09-14T14:04:01Z</time>
      </trkpt>
      <trkpt lat="45.86325" lon="4.835">
        <ele>169.7</ele>
        <time>2014-09-14T14:04:03Z</time>
      </trkpt>
      <trkpt lat="45.86313" lon="4.83503">
        <ele>169.8</ele>
        <time>2014-09-14T14:04:05Z</time>
      </trkpt>
      <trkpt lat="45.86302" lon="4.83508">
        <ele>169.9</ele>
        <time>2014-09-14T14:04:07Z</time>
      </trkpt>
      <trkpt lat="45.86292" lon="4.83513">
        <ele>170.1</ele>
        <time>2014-09-14T14:04:09Z</time>
      </trkpt>
      <trkpt lat="45.86281" lon="4.83516">
        <ele>170.3</ele>
        <time>2014-09-14T14:04:11Z</time>
      </trkpt>
      <trkpt lat="45.86269" lon="4.83518">
        <ele>170.3</ele>
        <time>2014-09-14T14:04:13Z</time>
      </trkpt>
      <trkpt lat="45.86257" lon="4.8352">
        <ele>170.3</ele>
        <time>2014-09-14T14:04:15Z</time>
      </trkpt>
      <trkpt lat="45.86246" lon="4.8352">
        <ele>170.3</ele>
        <time>2014-09-14T14:04:17Z</time>
      </trkpt>
      <trkpt lat="45.86234" lon="4.83519">
        <ele>170.3</ele>
        <time>2014-09-14T14:04:19Z</time>
      </trkpt>
      <trkpt lat="45.86222" lon="4.83518">
        <ele>170.1</ele>
        <time>2014-09-14T14:04:21Z</time>
      </trkpt>
      <trkpt lat="45.86209" lon="4.83517">
        <ele>169.9</ele>
        <time>2014-09-14T14:04:23Z</time>
      </trkpt>
      <trkpt lat="45.86197" lon="4.83515">
        <ele>169.7</ele>
        <time>2014-09-14T14:04:25Z</time>
      </trkpt>
      <trkpt lat="45.86184" lon="4.83513">
        <ele>169.6</ele>
        <time>2014-09-14T14:04:27Z</time>
      </trkpt>
      <trkpt lat="45.86174" lon="4.83512">
        <ele>169.5</ele>
        <time>2014-09-14T14:04:29Z</time>
      </trkpt>
      <trkpt lat="45.86162" lon="4.83513">
        <ele>169.5</ele>
        <time>2014-09-14T14:04:31Z</time>
      </trkpt>
      <trkpt lat="45.8615" lon="4.83511">
        <ele>169.4</ele>
        <time>2014-09-14T14:04:33Z</time>
      </trkpt>
      <trkpt lat="45.86139" lon="4.8351">
        <ele>169.5</ele>
        <time>2014-09-14T14:04:35Z</time>
      </trkpt>
      <trkpt lat="45.86127" lon="4.83508">
        <ele>169.5</ele>
        <time>2014-09-14T14:04:37Z</time>
      </trkpt>
      <trkpt lat="45.86114" lon="4.83508">
        <ele>169.6</ele>
        <time>2014-09-14T14:04:39Z</time>
      </trkpt>
      <trkpt lat="45.86101" lon="4.83507">
        <ele>169.7</ele>
        <time>2014-09-14T14:04:41Z</time>
      </trkpt>
      <trkpt lat="45.86088" lon="4.83507">
        <ele>169.8</ele>
        <time>2014-09-14T14:04:43Z</time>
      </trkpt>
      <trkpt lat="45.86076" lon="4.83506">
        <ele>169.9</ele>
        <time>2014-09-14T14:04:45Z</time>
      </trkpt>
      <trkpt lat="45.86062" lon="4.83504">
        <ele>170</ele>
        <time>2014-09-14T14:04:47Z</time>
      </trkpt>
      <trkpt lat="45.86049" lon="4.83503">
        <ele>170</ele>
        <time>2014-09-14T14:04:49Z</time>
      </trkpt>
      <trkpt lat="45.86035" lon="4.83502">
        <ele>170</ele>
        <time>2014-09-14T14:04:51Z</time>
      </trkpt>
      <trkpt lat="45.86025" lon="4.83501">
        <ele>170</ele>
        <time>2014-09-14T14:04:53Z</time>
      </trkpt>
      <trkpt lat="45.86015" lon="4.835">
        <ele>170</ele>
        <time>2014-09-14T14:04:55Z</time>
      </trkpt>
      <trkpt lat="45.86004" lon="4.835">
        <ele>170</ele>
        <time>2014-09-14T14:04:57Z</time>
      </trkpt>
      <trkpt lat="45.85992" lon="4.83501">
        <ele>170</ele>
        <time>2014-09-14T14:04:59Z</time>
      </trkpt>
      <trkpt lat="45.85978" lon="4.83501">
        <ele>170</ele>
        <time>2014-09-14T14:05:01Z</time>
      </trkpt>
      <trkpt lat="45.85965" lon="4.83502">
        <ele>170</ele>
        <time>2014-09-14T14:05:03Z</time>
      </trkpt>
      <trkpt lat="45.85951" lon="4.83502">
        <ele>170</ele>
        <time>2014-09-14T14:05:05Z</time>
      </trkpt>
      <trkpt lat="45.85939" lon="4.83501">
        <ele>170.1</ele>
        <time>2014-09-14T14:05:07Z</time>
      </trkpt>
      <trkpt lat="45.85928" lon="4.83501">
        <ele>170.2</ele>
        <time>2014-09-14T14:05:09Z</time>
      </trkpt>
      <trkpt lat="45.85916" lon="4.83501">
        <ele>170.3</ele>
        <time>2014-09-14T14:05:11Z</time>
      </trkpt>
      <trkpt lat="45.85904" lon="4.835">
        <ele>170.4</ele>
        <time>2014-09-14T14:05:13Z</time>
      </trkpt>
      <trkpt lat="45.85892" lon="4.835">
        <ele>170.5</ele>
        <time>2014-09-14T14:05:15Z</time>
      </trkpt>
      <trkpt lat="45.85881" lon="4.83499">
        <ele>170.5</ele>
        <time>2014-09-14T14:05:17Z</time>
      </trkpt>
      <trkpt lat="45.8587" lon="4.83499">
        <ele>170.6</ele>
        <time>2014-09-14T14:05:19Z</time>
      </trkpt>
      <trkpt lat="45.85858" lon="4.83497">
        <ele>170.7</ele>
        <time>2014-09-14T14:05:21Z</time>
      </trkpt>
      <trkpt lat="45.85846" lon="4.83495">
        <ele>170.8</ele>
        <time>2014-09-14T14:05:23Z</time>
      </trkpt>
      <trkpt lat="45.85832" lon="4.83492">
        <ele>170.9</ele>
        <time>2014-09-14T14:05:25Z</time>
      </trkpt>
      <trkpt lat="45.85819" lon="4.8349">
        <ele>171</ele>
        <time>2014-09-14T14:05:27Z</time>
      </trkpt>
      <trkpt lat="45.85804" lon="4.83488">
        <ele>171</ele>
        <time>2014-09-14T14:05:29Z</time>
      </trkpt>
      <trkpt lat="45.85789" lon="4.83487">
        <ele>171</ele>
        <time>2014-09-14T14:05:31Z</time>
      </trkpt>
      <trkpt lat="45.85777" lon="4.83486">
        <ele>171</ele>
        <time>2014-09-14T14:05:33Z</time>
      </trkpt>
      <trkpt lat="45.85764" lon="4.83487">
        <ele>170.8</ele>
        <time>2014-09-14T14:05:35Z</time>
      </trkpt>
      <trkpt lat="45.85752" lon="4.83487">
        <ele>170.6</ele>
        <time>2014-09-14T14:05:37Z</time>
      </trkpt>
      <trkpt lat="45.85739" lon="4.83487">
        <ele>170.5</ele>
        <time>2014-09-14T14:05:39Z</time>
      </trkpt>
      <trkpt lat="45.85729" lon="4.83486">
        <ele>170.3</ele>
        <time>2014-09-14T14:05:41Z</time>
      </trkpt>
      <trkpt lat="45.85719" lon="4.83484">
        <ele>170.1</ele>
        <time>2014-09-14T14:05:43Z</time>
      </trkpt>
      <trkpt lat="45.85709" lon="4.83483">
        <ele>169.9</ele>
        <time>2014-09-14T14:05:45Z</time>
      </trkpt>
      <trkpt lat="45.85698" lon="4.83482">
        <ele>169.7</ele>
        <time>2014-09-14T14:05:47Z</time>
      </trkpt>
      <trkpt lat="45.85687" lon="4.83482">
        <ele>169.5</ele>
        <time>2014-09-14T14:05:49Z</time>
      </trkpt>
      <trkpt lat="45.85676" lon="4.8348">
        <ele>169.5</ele>
        <time>2014-09-14T14:05:51Z</time>
      </trkpt>
      <trkpt lat="45.85665" lon="4.83478">
        <ele>169.5</ele>
        <time>2014-09-14T14:05:53Z</time>
      </trkpt>
      <trkpt lat="45.85653" lon="4.83474">
        <ele>169.5</ele>
        <time>2014-09-14T14:05:55Z</time>
      </trkpt>
      <trkpt lat="45.85642" lon="4.8347">
        <ele>169.7</ele>
        <time>2014-09-14T14:05:57Z</time>
      </trkpt>
      <trkpt lat="45.85632" lon="4.83467">
        <ele>169.9</ele>
        <time>2014-09-14T14:05:59Z</time>
      </trkpt>
      <trkpt lat="45.85622" lon="4.83463">
        <ele>170.1</ele>
        <time>2014-09-14T14:06:01Z</time>
      </trkpt>
      <trkpt lat="45.85611" lon="4.83459">
        <ele>170.3</ele>
        <time>2014-09-14T14:06:03Z</time>
      </trkpt>
      <trkpt lat="45.85597" lon="4.83454">
        <ele>170.4</ele>
        <time>2014-09-14T14:06:05Z</time>
      </trkpt>
      <trkpt lat="45.85586" lon="4.83451">
        <ele>170.5</ele>
        <time>2014-09-14T14:06:07Z</time>
      </trkpt>
      <trkpt lat="45.85575" lon="4.83447">
        <ele>170.5</ele>
        <time>2014-09-14T14:06:09Z</time>
      </trkpt>
      <trkpt lat="45.85564" lon="4.83443">
        <ele>170.6</ele>
        <time>2014-09-14T14:06:11Z</time>
      </trkpt>
      <trkpt lat="45.85552" lon="4.83439">
        <ele>170.5</ele>
        <time>2014-09-14T14:06:13Z</time>
      </trkpt>
      <trkpt lat="45.85539" lon="4.83434">
        <ele>170.5</ele>
        <time>2014-09-14T14:06:15Z</time>
      </trkpt>
      <trkpt lat="45.85526" lon="4.8343">
        <ele>170.4</ele>
        <time>2014-09-14T14:06:17Z</time>
      </trkpt>
      <trkpt lat="45.85512" lon="4.83426">
        <ele>170.4</ele>
        <time>2014-09-14T14:06:19Z</time>
      </trkpt>
      <trkpt lat="45.85499" lon="4.83422">
        <ele>170.4</ele>
        <time>2014-09-14T14:06:21Z</time>
      </trkpt>
      <trkpt lat="45.85488" lon="4.83421">
        <ele>170.4</ele>
        <time>2014-09-14T14:06:23Z</time>
      </trkpt>
      <trkpt lat="45.85476" lon="4.83417">
        <ele>170.4</ele>
        <time>2014-09-14T14:06:25Z</time>
      </trkpt>
      <trkpt lat="45.85465" lon="4.83412">
        <ele>170.5</ele>
        <time>2014-09-14T14:06:27Z</time>
      </trkpt>
      <trkpt lat="45.85453" lon="4.83407">
        <ele>170.5</ele>
        <time>2014-09-14T14:06:29Z</time>
      </trkpt>
      <trkpt lat="45.85442" lon="4.83404">
        <ele>170.5</ele>
        <time>2014-09-14T14:06:31Z</time>
      </trkpt>
      <trkpt lat="45.8543" lon="4.834">
        <ele>170.5</ele>
        <time>2014-09-14T14:06:33Z</time>
      </trkpt>
      <trkpt lat="45.85418" lon="4.83397">
        <ele>170.5</ele>
        <time>2014-09-14T14:06:35Z</time>
      </trkpt>
      <trkpt lat="45.85403" lon="4.83393">
        <ele>170.5</ele>
        <time>2014-09-14T14:06:37Z</time>
      </trkpt>
      <trkpt lat="45.85391" lon="4.83389">
        <ele>170.5</ele>
        <time>2014-09-14T14:06:39Z</time>
      </trkpt>
      <trkpt lat="45.85381" lon="4.83386">
        <ele>170.5</ele>
        <time>2014-09-14T14:06:41Z</time>
      </trkpt>
      <trkpt lat="45.85367" lon="4.83381">
        <ele>170.4</ele>
        <time>2014-09-14T14:06:43Z</time>
      </trkpt>
      <trkpt lat="45.85354" lon="4.83377">
        <ele>170.3</ele>
        <time>2014-09-14T14:06:45Z</time>
      </trkpt>
      <trkpt lat="45.85341" lon="4.83374">
        <ele>170.2</ele>
        <time>2014-09-14T14:06:47Z</time>
      </trkpt>
      <trkpt lat="45.85328" lon="4.8337">
        <ele>170.1</ele>
        <time>2014-09-14T14:06:49Z</time>
      </trkpt>
      <trkpt lat="45.85315" lon="4.83367">
        <ele>170</ele>
        <time>2014-09-14T14:06:51Z</time>
      </trkpt>
      <trkpt lat="45.85302" lon="4.83363">
        <ele>170</ele>
        <time>2014-09-14T14:06:53Z</time>
      </trkpt>
      <trkpt lat="45.8529" lon="4.8336">
        <ele>170</ele>
        <time>2014-09-14T14:06:55Z</time>
      </trkpt>
      <trkpt lat="45.85276" lon="4.83357">
        <ele>170</ele>
        <time>2014-09-14T14:06:57Z</time>
      </trkpt>
      <trkpt lat="45.85263" lon="4.83353">
        <ele>170</ele>
        <time>2014-09-14T14:06:59Z</time>
      </trkpt>
      <trkpt lat="45.85249" lon="4.8335">
        <ele>170</ele>
        <time>2014-09-14T14:07:01Z</time>
      </trkpt>
      <trkpt lat="45.85237" lon="4.83347">
        <ele>170</ele>
        <time>2014-09-14T14:07:03Z</time>
      </trkpt>
      <trkpt lat="45.85225" lon="4.83343">
        <ele>170</ele>
        <time>2014-09-14T14:07:05Z</time>
      </trkpt>
      <trkpt lat="45.85213" lon="4.83339">
        <ele>170</ele>
        <time>2014-09-14T14:07:07Z</time>
      </trkpt>
      <trkpt lat="45.85202" lon="4.83336">
        <ele>170</ele>
        <time>2014-09-14T14:07:09Z</time>
      </trkpt>
      <trkpt lat="45.85192" lon="4.83331">
        <ele>170</ele>
        <time>2014-09-14T14:07:11Z</time>
      </trkpt>
      <trkpt lat="45.85182" lon="4.83328">
        <ele>170</ele>
        <time>2014-09-14T14:07:13Z</time>
      </trkpt>
      <trkpt lat="45.85173" lon="4.83324">
        <ele>170.1</ele>
        <time>2014-09-14T14:07:15Z</time>
      </trkpt>
      <trkpt lat="45.85163" lon="4.8332">
        <ele>170.2</ele>
        <time>2014-09-14T14:07:17Z</time>
      </trkpt>
      <trkpt lat="45.85154" lon="4.83318">
        <ele>170.4</ele>
        <time>2014-09-14T14:07:19Z</time>
      </trkpt>
      <trkpt lat="45.85142" lon="4.83316">
        <ele>170.5</ele>
        <time>2014-09-14T14:07:21Z</time>
      </trkpt>
      <trkpt lat="45.85131" lon="4.83313">
        <ele>170.7</ele>
        <time>2014-09-14T14:07:23Z</time>
      </trkpt>
      <trkpt lat="45.85118" lon="4.83308">
        <ele>170.9</ele>
        <time>2014-09-14T14:07:25Z</time>
      </trkpt>
      <trkpt lat="45.85106" lon="4.83304">
        <ele>171.1</ele>
        <time>2014-09-14T14:07:27Z</time>
      </trkpt>
      <trkpt lat="45.85094" lon="4.83299">
        <ele>171.2</ele>
        <time>2014-09-14T14:07:29Z</time>
      </trkpt>
      <trkpt lat="45.85083" lon="4.83295">
        <ele>171.3</ele>
        <time>2014-09-14T14:07:31Z</time>
      </trkpt>
      <trkpt lat="45.85072" lon="4.8329">
        <ele>171.4</ele>
        <time>2014-09-14T14:07:33Z</time>
      </trkpt>
      <trkpt lat="45.85059" lon="4.83285">
        <ele>171.5</ele>
        <time>2014-09-14T14:07:35Z</time>
      </trkpt>
      <trkpt lat="45.85046" lon="4.83279">
        <ele>171.5</ele>
        <time>2014-09-14T14:07:37Z</time>
      </trkpt>
      <trkpt lat="45.85034" lon="4.83273">
        <ele>171.5</ele>
        <time>2014-09-14T14:07:39Z</time>
      </trkpt>
      <trkpt lat="45.85023" lon="4.83267">
        <ele>171.4</ele>
        <time>2014-09-14T14:07:41Z</time>
      </trkpt>
      <trkpt lat="45.85013" lon="4.83263">
        <ele>171</ele>
        <time>2014-09-14T14:07:43Z</time>
      </trkpt>
      <trkpt lat="45.85002" lon="4.83259">
        <ele>170.6</ele>
        <time>2014-09-14T14:07:45Z</time>
      </trkpt>
      <trkpt lat="45.84991" lon="4.83253">
        <ele>170.3</ele>
        <time>2014-09-14T14:07:47Z</time>
      </trkpt>
      <trkpt lat="45.84981" lon="4.8325">
        <ele>169.9</ele>
        <time>2014-09-14T14:07:49Z</time>
      </trkpt>
      <trkpt lat="45.84969" lon="4.83244">
        <ele>169.7</ele>
        <time>2014-09-14T14:07:51Z</time>
      </trkpt>
      <trkpt lat="45.84958" lon="4.83238">
        <ele>169.5</ele>
        <time>2014-09-14T14:07:53Z</time>
      </trkpt>
      <trkpt lat="45.84947" lon="4.83232">
        <ele>169.4</ele>
        <time>2014-09-14T14:07:55Z</time>
      </trkpt>
      <trkpt lat="45.84934" lon="4.83227">
        <ele>169.1</ele>
        <time>2014-09-14T14:07:57Z</time>
      </trkpt>
      <trkpt lat="45.84922" lon="4.83221">
        <ele>168.8</ele>
        <time>2014-09-14T14:07:59Z</time>
      </trkpt>
      <trkpt lat="45.84912" lon="4.83216">
        <ele>168.5</ele>
        <time>2014-09-14T14:08:01Z</time>
      </trkpt>
      <trkpt lat="45.84898" lon="4.83211">
        <ele>168.3</ele>
        <time>2014-09-14T14:08:03Z</time>
      </trkpt>
      <trkpt lat="45.84885" lon="4.83206">
        <ele>168.3</ele>
        <time>2014-09-14T14:08:05Z</time>
      </trkpt>
      <trkpt lat="45.84872" lon="4.832">
        <ele>168.3</ele>
        <time>2014-09-14T14:08:07Z</time>
      </trkpt>
      <trkpt lat="45.8486" lon="4.83196">
        <ele>168.3</ele>
        <time>2014-09-14T14:08:09Z</time>
      </trkpt>
      <trkpt lat="45.84847" lon="4.83192">
        <ele>168.3</ele>
        <time>2014-09-14T14:08:11Z</time>
      </trkpt>
      <trkpt lat="45.84836" lon="4.83188">
        <ele>168.2</ele>
        <time>2014-09-14T14:08:13Z</time>
      </trkpt>
      <trkpt lat="45.84824" lon="4.83186">
        <ele>168.1</ele>
        <time>2014-09-14T14:08:15Z</time>
      </trkpt>
      <trkpt lat="45.84812" lon="4.83183">
        <ele>168</ele>
        <time>2014-09-14T14:08:17Z</time>
      </trkpt>
      <trkpt lat="45.848" lon="4.8318">
        <ele>168</ele>
        <time>2014-09-14T14:08:19Z</time>
      </trkpt>
      <trkpt lat="45.84789" lon="4.83178">
        <ele>168</ele>
        <time>2014-09-14T14:08:21Z</time>
      </trkpt>
      <trkpt lat="45.84777" lon="4.83176">
        <ele>168</ele>
        <time>2014-09-14T14:08:23Z</time>
      </trkpt>
      <trkpt lat="45.84765" lon="4.83173">
        <ele>168.2</ele>
        <time>2014-09-14T14:08:25Z</time>
      </trkpt>
      <trkpt lat="45.84752" lon="4.8317">
        <ele>168.4</ele>
        <time>2014-09-14T14:08:27Z</time>
      </trkpt>
      <trkpt lat="45.84738" lon="4.83167">
        <ele>168.5</ele>
        <time>2014-09-14T14:08:29Z</time>
      </trkpt>
      <trkpt lat="45.84723" lon="4.83166">
        <ele>168.7</ele>
        <time>2014-09-14T14:08:31Z</time>
      </trkpt>
      <trkpt lat="45.8471" lon="4.83166">
        <ele>168.9</ele>
        <time>2014-09-14T14:08:33Z</time>
      </trkpt>
      <trkpt lat="45.84697" lon="4.83166">
        <ele>169.1</ele>
        <time>2014-09-14T14:08:35Z</time>
      </trkpt>
      <trkpt lat="45.84685" lon="4.8317">
        <ele>169.3</ele>
        <time>2014-09-14T14:08:37Z</time>
      </trkpt>
      <trkpt lat="45.84675" lon="4.83176">
        <ele>169.5</ele>
        <time>2014-09-14T14:08:39Z</time>
      </trkpt>
      <trkpt lat="45.84663" lon="4.83179">
        <ele>169.6</ele>
        <time>2014-09-14T14:08:41Z</time>
      </trkpt>
      <trkpt lat="45.84651" lon="4.83183">
        <ele>169.8</ele>
        <time>2014-09-14T14:08:43Z</time>
      </trkpt>
      <trkpt lat="45.84641" lon="4.83192">
        <ele>170</ele>
        <time>2014-09-14T14:08:45Z</time>
      </trkpt>
      <trkpt lat="45.84631" lon="4.83198">
        <ele>170</ele>
        <time>2014-09-14T14:08:47Z</time>
      </trkpt>
      <trkpt lat="45.84621" lon="4.83203">
        <ele>169.9</ele>
        <time>2014-09-14T14:08:49Z</time>
      </trkpt>
      <trkpt lat="45.8461" lon="4.83208">
        <ele>169.8</ele>
        <time>2014-09-14T14:08:51Z</time>
      </trkpt>
      <trkpt lat="45.84601" lon="4.83212">
        <ele>169.7</ele>
        <time>2014-09-14T14:08:53Z</time>
      </trkpt>
      <trkpt lat="45.84592" lon="4.83215">
        <ele>169.6</ele>
        <time>2014-09-14T14:08:55Z</time>
      </trkpt>
      <trkpt lat="45.84582" lon="4.83218">
        <ele>169.5</ele>
        <time>2014-09-14T14:08:57Z</time>
      </trkpt>
      <trkpt lat="45.8457" lon="4.83222">
        <ele>169.6</ele>
        <time>2014-09-14T14:09:00Z</time>
      </trkpt>
      <trkpt lat="45.84558" lon="4.83224">
        <ele>169.7</ele>
        <time>2014-09-14T14:09:03Z</time>
      </trkpt>
      <trkpt lat="45.84545" lon="4.83224">
        <ele>169.8</ele>
        <time>2014-09-14T14:09:06Z</time>
      </trkpt>
      <trkpt lat="45.84536" lon="4.83223">
        <ele>169.9</ele>
        <time>2014-09-14T14:09:08Z</time>
      </trkpt>
      <trkpt lat="45.84522" lon="4.8322">
        <ele>170</ele>
        <time>2014-09-14T14:09:11Z</time>
      </trkpt>
      <trkpt lat="45.84512" lon="4.83218">
        <ele>170.1</ele>
        <time>2014-09-14T14:09:13Z</time>
      </trkpt>
      <trkpt lat="45.84503" lon="4.83217">
        <ele>170.3</ele>
        <time>2014-09-14T14:09:15Z</time>
      </trkpt>
      <trkpt lat="45.84493" lon="4.83215">
        <ele>170.5</ele>
        <time>2014-09-14T14:09:17Z</time>
      </trkpt>
      <trkpt lat="45.84483" lon="4.83213">
        <ele>170.6</ele>
        <time>2014-09-14T14:09:19Z</time>
      </trkpt>
      <trkpt lat="45.84472" lon="4.8321">
        <ele>170.8</ele>
        <time>2014-09-14T14:09:21Z</time>
      </trkpt>
      <trkpt lat="45.84461" lon="4.83207">
        <ele>171</ele>
        <time>2014-09-14T14:09:23Z</time>
      </trkpt>
      <trkpt lat="45.84447" lon="4.83204">
        <ele>171</ele>
        <time>2014-09-14T14:09:26Z</time>
      </trkpt>
      <trkpt lat="45.84435" lon="4.83202">
        <ele>171</ele>
        <time>2014-09-14T14:09:28Z</time>
      </trkpt>
      <trkpt lat="45.84425" lon="4.832">
        <ele>170.9</ele>
        <time>2014-09-14T14:09:30Z</time>
      </trkpt>
      <trkpt lat="45.84414" lon="4.83198">
        <ele>170.8</ele>
        <time>2014-09-14T14:09:32Z</time>
      </trkpt>
      <trkpt lat="45.84404" lon="4.83195">
        <ele>170.7</ele>
        <time>2014-09-14T14:09:34Z</time>
      </trkpt>
      <trkpt lat="45.84394" lon="4.83192">
        <ele>170.6</ele>
        <time>2014-09-14T14:09:36Z</time>
      </trkpt>
      <trkpt lat="45.84383" lon="4.83188">
        <ele>170.5</ele>
        <time>2014-09-14T14:09:38Z</time>
      </trkpt>
      <trkpt lat="45.84372" lon="4.83183">
        <ele>170.5</ele>
        <time>2014-09-14T14:09:40Z</time>
      </trkpt>
      <trkpt lat="45.8436" lon="4.83179">
        <ele>170.4</ele>
        <time>2014-09-14T14:09:42Z</time>
      </trkpt>
      <trkpt lat="45.84348" lon="4.83177">
        <ele>170.3</ele>
        <time>2014-09-14T14:09:44Z</time>
      </trkpt>
      <trkpt lat="45.84337" lon="4.83175">
        <ele>170.2</ele>
        <time>2014-09-14T14:09:46Z</time>
      </trkpt>
      <trkpt lat="45.84323" lon="4.83171">
        <ele>170.1</ele>
        <time>2014-09-14T14:09:49Z</time>
      </trkpt>
      <trkpt lat="45.84313" lon="4.83168">
        <ele>170</ele>
        <time>2014-09-14T14:09:51Z</time>
      </trkpt>
      <trkpt lat="45.84304" lon="4.83165">
        <ele>170</ele>
        <time>2014-09-14T14:09:53Z</time>
      </trkpt>
      <trkpt lat="45.84293" lon="4.83162">
        <ele>170</ele>
        <time>2014-09-14T14:09:55Z</time>
      </trkpt>
      <trkpt lat="45.84283" lon="4.8316">
        <ele>170</ele>
        <time>2014-09-14T14:09:57Z</time>
      </trkpt>
      <trkpt lat="45.84271" lon="4.83158">
        <ele>170</ele>
        <time>2014-09-14T14:09:59Z</time>
      </trkpt>
      <trkpt lat="45.84259" lon="4.83156">
        <ele>169.7</ele>
        <time>2014-09-14T14:10:01Z</time>
      </trkpt>
      <trkpt lat="45.84246" lon="4.83153">
        <ele>169.7</ele>
        <time>2014-09-14T14:10:03Z</time>
      </trkpt>
      <trkpt lat="45.84235" lon="4.83149">
        <ele>169.7</ele>
        <time>2014-09-14T14:10:05Z</time>
      </trkpt>
      <trkpt lat="45.84225" lon="4.83145">
        <ele>169.7</ele>
        <time>2014-09-14T14:10:07Z</time>
      </trkpt>
      <trkpt lat="45.84214" lon="4.83142">
        <ele>169.7</ele>
        <time>2014-09-14T14:10:09Z</time>
      </trkpt>
      <trkpt lat="45.84203" lon="4.83139">
        <ele>169.7</ele>
        <time>2014-09-14T14:10:11Z</time>
      </trkpt>
      <trkpt lat="45.84192" lon="4.83136">
        <ele>169.7</ele>
        <time>2014-09-14T14:10:13Z</time>
      </trkpt>
      <trkpt lat="45.8418" lon="4.83132">
        <ele>169.9</ele>
        <time>2014-09-14T14:10:15Z</time>
      </trkpt>
      <trkpt lat="45.84169" lon="4.83128">
        <ele>170.1</ele>
        <time>2014-09-14T14:10:17Z</time>
      </trkpt>
      <trkpt lat="45.84159" lon="4.83124">
        <ele>170.3</ele>
        <time>2014-09-14T14:10:19Z</time>
      </trkpt>
      <trkpt lat="45.84148" lon="4.83121">
        <ele>170.5</ele>
        <time>2014-09-14T14:10:21Z</time>
      </trkpt>
      <trkpt lat="45.84137" lon="4.83118">
        <ele>170.9</ele>
        <time>2014-09-14T14:10:23Z</time>
      </trkpt>
      <trkpt lat="45.84125" lon="4.83114">
        <ele>171.1</ele>
        <time>2014-09-14T14:10:25Z</time>
      </trkpt>
      <trkpt lat="45.84114" lon="4.8311">
        <ele>171.3</ele>
        <time>2014-09-14T14:10:27Z</time>
      </trkpt>
      <trkpt lat="45.84103" lon="4.83107">
        <ele>171.5</ele>
        <time>2014-09-14T14:10:29Z</time>
      </trkpt>
      <trkpt lat="45.84092" lon="4.83104">
        <ele>171.8</ele>
        <time>2014-09-14T14:10:31Z</time>
      </trkpt>
      <trkpt lat="45.84079" lon="4.83101">
        <ele>172.1</ele>
        <time>2014-09-14T14:10:34Z</time>
      </trkpt>
      <trkpt lat="45.8407" lon="4.83101">
        <ele>172.4</ele>
        <time>2014-09-14T14:10:36Z</time>
      </trkpt>
      <trkpt lat="45.84058" lon="4.83103">
        <ele>172.5</ele>
        <time>2014-09-14T14:10:38Z</time>
      </trkpt>
      <trkpt lat="45.84046" lon="4.83104">
        <ele>172.5</ele>
        <time>2014-09-14T14:10:40Z</time>
      </trkpt>
      <trkpt lat="45.84031" lon="4.83102">
        <ele>172.5</ele>
        <time>2014-09-14T14:10:42Z</time>
      </trkpt>
      <trkpt lat="45.84016" lon="4.831">
        <ele>172.5</ele>
        <time>2014-09-14T14:10:44Z</time>
      </trkpt>
      <trkpt lat="45.84004" lon="4.831">
        <ele>172.5</ele>
        <time>2014-09-14T14:10:46Z</time>
      </trkpt>
      <trkpt lat="45.83989" lon="4.83098">
        <ele>172.5</ele>
        <time>2014-09-14T14:10:48Z</time>
      </trkpt>
      <trkpt lat="45.83975" lon="4.83095">
        <ele>172.5</ele>
        <time>2014-09-14T14:10:50Z</time>
      </trkpt>
      <trkpt lat="45.83961" lon="4.8309">
        <ele>172.5</ele>
        <time>2014-09-14T14:10:52Z</time>
      </trkpt>
      <trkpt lat="45.83948" lon="4.83089">
        <ele>172.4</ele>
        <time>2014-09-14T14:10:54Z</time>
      </trkpt>
      <trkpt lat="45.83934" lon="4.83087">
        <ele>172.5</ele>
        <time>2014-09-14T14:10:56Z</time>
      </trkpt>
      <trkpt lat="45.83921" lon="4.83087">
        <ele>172.5</ele>
        <time>2014-09-14T14:10:58Z</time>
      </trkpt>
      <trkpt lat="45.83909" lon="4.83088">
        <ele>172.6</ele>
        <time>2014-09-14T14:11:00Z</time>
      </trkpt>
      <trkpt lat="45.83898" lon="4.83081">
        <ele>172.7</ele>
        <time>2014-09-14T14:11:03Z</time>
      </trkpt>
      <trkpt lat="45.83896" lon="4.83068">
        <ele>172.9</ele>
        <time>2014-09-14T14:11:06Z</time>
      </trkpt>
      <trkpt lat="45.83893" lon="4.83049">
        <ele>173.1</ele>
        <time>2014-09-14T14:11:09Z</time>
      </trkpt>
      <trkpt lat="45.83891" lon="4.83032">
        <ele>173.8</ele>
        <time>2014-09-14T14:11:12Z</time>
      </trkpt>
      <trkpt lat="45.83889" lon="4.83016">
        <ele>174.5</ele>
        <time>2014-09-14T14:11:14Z</time>
      </trkpt>
      <trkpt lat="45.83887" lon="4.83002">
        <ele>175.3</ele>
        <time>2014-09-14T14:11:16Z</time>
      </trkpt>
      <trkpt lat="45.83886" lon="4.82983">
        <ele>176</ele>
        <time>2014-09-14T14:11:19Z</time>
      </trkpt>
      <trkpt lat="45.83884" lon="4.82967">
        <ele>176.7</ele>
        <time>2014-09-14T14:11:22Z</time>
      </trkpt>
      <trkpt lat="45.83881" lon="4.82949">
        <ele>177.5</ele>
        <time>2014-09-14T14:11:25Z</time>
      </trkpt>
      <trkpt lat="45.83876" lon="4.82931">
        <ele>178.4</ele>
        <time>2014-09-14T14:11:28Z</time>
      </trkpt>
      <trkpt lat="45.83872" lon="4.82913">
        <ele>179.2</ele>
        <time>2014-09-14T14:11:31Z</time>
      </trkpt>
      <trkpt lat="45.83874" lon="4.82896">
        <ele>180</ele>
        <time>2014-09-14T14:11:35Z</time>
      </trkpt>
      <trkpt lat="45.83876" lon="4.82882">
        <ele>180.8</ele>
        <time>2014-09-14T14:11:39Z</time>
      </trkpt>
      <trkpt lat="45.83885" lon="4.82872">
        <ele>181.6</ele>
        <time>2014-09-14T14:11:44Z</time>
      </trkpt>
      <trkpt lat="45.83895" lon="4.82866">
        <ele>181.9</ele>
        <time>2014-09-14T14:11:48Z</time>
      </trkpt>
      <trkpt lat="45.83906" lon="4.82859">
        <ele>182.2</ele>
        <time>2014-09-14T14:11:51Z</time>
      </trkpt>
      <trkpt lat="45.83917" lon="4.82854">
        <ele>182.5</ele>
        <time>2014-09-14T14:11:54Z</time>
      </trkpt>
      <trkpt lat="45.83928" lon="4.82852">
        <ele>182.7</ele>
        <time>2014-09-14T14:11:57Z</time>
      </trkpt>
      <trkpt lat="45.83939" lon="4.8285">
        <ele>183.6</ele>
        <time>2014-09-14T14:12:01Z</time>
      </trkpt>
      <trkpt lat="45.83949" lon="4.82843">
        <ele>184.3</ele>
        <time>2014-09-14T14:12:05Z</time>
      </trkpt>
      <trkpt lat="45.83957" lon="4.82832">
        <ele>184.9</ele>
        <time>2014-09-14T14:12:09Z</time>
      </trkpt>
      <trkpt lat="45.83958" lon="4.82818">
        <ele>185.5</ele>
        <time>2014-09-14T14:12:14Z</time>
      </trkpt>
      <trkpt lat="45.83954" lon="4.82803">
        <ele>186.2</ele>
        <time>2014-09-14T14:12:19Z</time>
      </trkpt>
      <trkpt lat="45.83948" lon="4.82791">
        <ele>186.8</ele>
        <time>2014-09-14T14:12:24Z</time>
      </trkpt>
      <trkpt lat="45.83943" lon="4.8278">
        <ele>187.9</ele>
        <time>2014-09-14T14:12:29Z</time>
      </trkpt>
      <trkpt lat="45.83935" lon="4.82766">
        <ele>189</ele>
        <time>2014-09-14T14:12:35Z</time>
      </trkpt>
      <trkpt lat="45.83931" lon="4.82754">
        <ele>190.1</ele>
        <time>2014-09-14T14:12:39Z</time>
      </trkpt>
      <trkpt lat="45.83921" lon="4.82733">
        <ele>191.2</ele>
        <time>2014-09-14T14:12:48Z</time>
      </trkpt>
      <trkpt lat="45.83917" lon="4.82721">
        <ele>192.3</ele>
        <time>2014-09-14T14:12:54Z</time>
      </trkpt>
      <trkpt lat="45.83913" lon="4.82708">
        <ele>192.7</ele>
        <time>2014-09-14T14:12:59Z</time>
      </trkpt>
      <trkpt lat="45.8391" lon="4.82693">
        <ele>193.1</ele>
        <time>2014-09-14T14:13:06Z</time>
      </trkpt>
      <trkpt lat="45.83901" lon="4.82676">
        <ele>193.5</ele>
        <time>2014-09-14T14:13:13Z</time>
      </trkpt>
      <trkpt lat="45.83894" lon="4.82665">
        <ele>193.8</ele>
        <time>2014-09-14T14:13:17Z</time>
      </trkpt>
      <trkpt lat="45.83891" lon="4.82649">
        <ele>194.2</ele>
        <time>2014-09-14T14:13:24Z</time>
      </trkpt>
      <trkpt lat="45.83888" lon="4.82635">
        <ele>194.5</ele>
        <time>2014-09-14T14:13:29Z</time>
      </trkpt>
      <trkpt lat="45.83881" lon="4.82612">
        <ele>194.7</ele>
        <time>2014-09-14T14:13:39Z</time>
      </trkpt>
      <trkpt lat="45.83876" lon="4.82597">
        <ele>194.9</ele>
        <time>2014-09-14T14:13:43Z</time>
      </trkpt>
      <trkpt lat="45.8387" lon="4.82583">
        <ele>195.1</ele>
        <time>2014-09-14T14:13:47Z</time>
      </trkpt>
      <trkpt lat="45.83866" lon="4.82571">
        <ele>195.3</ele>
        <time>2014-09-14T14:13:50Z</time>
      </trkpt>
      <trkpt lat="45.83862" lon="4.82558">
        <ele>195.5</ele>
        <time>2014-09-14T14:13:53Z</time>
      </trkpt>
      <trkpt lat="45.8386" lon="4.82545">
        <ele>195.6</ele>
        <time>2014-09-14T14:13:56Z</time>
      </trkpt>
      <trkpt lat="45.83856" lon="4.82531">
        <ele>195.9</ele>
        <time>2014-09-14T14:13:59Z</time>
      </trkpt>
      <trkpt lat="45.83854" lon="4.82517">
        <ele>196.2</ele>
        <time>2014-09-14T14:14:02Z</time>
      </trkpt>
      <trkpt lat="45.83847" lon="4.82506">
        <ele>196.5</ele>
        <time>2014-09-14T14:14:05Z</time>
      </trkpt>
      <trkpt lat="45.83839" lon="4.82497">
        <ele>196.8</ele>
        <time>2014-09-14T14:14:08Z</time>
      </trkpt>
      <trkpt lat="45.83828" lon="4.82493">
        <ele>197.2</ele>
        <time>2014-09-14T14:14:12Z</time>
      </trkpt>
      <trkpt lat="45.83816" lon="4.8249">
        <ele>197.3</ele>
        <time>2014-09-14T14:14:16Z</time>
      </trkpt>
      <trkpt lat="45.83806" lon="4.82489">
        <ele>197.5</ele>
        <time>2014-09-14T14:14:19Z</time>
      </trkpt>
      <trkpt lat="45.83797" lon="4.82491">
        <ele>197.6</ele>
        <time>2014-09-14T14:14:22Z</time>
      </trkpt>
      <trkpt lat="45.83788" lon="4.82494">
        <ele>197.8</ele>
        <time>2014-09-14T14:14:25Z</time>
      </trkpt>
      <trkpt lat="45.83778" lon="4.82486">
        <ele>198</ele>
        <time>2014-09-14T14:14:31Z</time>
      </trkpt>
      <trkpt lat="45.83776" lon="4.8247">
        <ele>198.2</ele>
        <time>2014-09-14T14:14:35Z</time>
      </trkpt>
      <trkpt lat="45.83776" lon="4.82453">
        <ele>198.8</ele>
        <time>2014-09-14T14:14:39Z</time>
      </trkpt>
      <trkpt lat="45.83776" lon="4.82439">
        <ele>199.5</ele>
        <time>2014-09-14T14:14:42Z</time>
      </trkpt>
      <trkpt lat="45.83775" lon="4.82425">
        <ele>200.1</ele>
        <time>2014-09-14T14:14:45Z</time>
      </trkpt>
      <trkpt lat="45.83773" lon="4.8241">
        <ele>200.6</ele>
        <time>2014-09-14T14:14:49Z</time>
      </trkpt>
      <trkpt lat="45.83768" lon="4.82396">
        <ele>201.2</ele>
        <time>2014-09-14T14:14:53Z</time>
      </trkpt>
      <trkpt lat="45.83762" lon="4.82382">
        <ele>201.7</ele>
        <time>2014-09-14T14:14:57Z</time>
      </trkpt>
      <trkpt lat="45.83757" lon="4.82368">
        <ele>202.2</ele>
        <time>2014-09-14T14:15:01Z</time>
      </trkpt>
      <trkpt lat="45.83752" lon="4.82357">
        <ele>203.2</ele>
        <time>2014-09-14T14:15:04Z</time>
      </trkpt>
      <trkpt lat="45.83747" lon="4.82343">
        <ele>204.3</ele>
        <time>2014-09-14T14:15:08Z</time>
      </trkpt>
      <trkpt lat="45.83744" lon="4.82328">
        <ele>205.4</ele>
        <time>2014-09-14T14:15:13Z</time>
      </trkpt>
      <trkpt lat="45.83739" lon="4.82316">
        <ele>206.5</ele>
        <time>2014-09-14T14:15:16Z</time>
      </trkpt>
      <trkpt lat="45.8373" lon="4.82307">
        <ele>207.1</ele>
        <time>2014-09-14T14:15:20Z</time>
      </trkpt>
      <trkpt lat="45.83717" lon="4.82301">
        <ele>207.7</ele>
        <time>2014-09-14T14:15:25Z</time>
      </trkpt>
      <trkpt lat="45.83706" lon="4.82298">
        <ele>208.4</ele>
        <time>2014-09-14T14:15:29Z</time>
      </trkpt>
      <trkpt lat="45.83694" lon="4.82297">
        <ele>209</ele>
        <time>2014-09-14T14:15:33Z</time>
      </trkpt>
      <trkpt lat="45.83681" lon="4.82294">
        <ele>209.6</ele>
        <time>2014-09-14T14:15:39Z</time>
      </trkpt>
      <trkpt lat="45.83671" lon="4.82288">
        <ele>210.6</ele>
        <time>2014-09-14T14:15:43Z</time>
      </trkpt>
      <trkpt lat="45.83661" lon="4.82283">
        <ele>211.6</ele>
        <time>2014-09-14T14:15:47Z</time>
      </trkpt>
      <trkpt lat="45.83652" lon="4.82277">
        <ele>212.1</ele>
        <time>2014-09-14T14:15:51Z</time>
      </trkpt>
      <trkpt lat="45.83644" lon="4.82271">
        <ele>212.5</ele>
        <time>2014-09-14T14:15:55Z</time>
      </trkpt>
      <trkpt lat="45.83635" lon="4.82266">
        <ele>212.8</ele>
        <time>2014-09-14T14:15:59Z</time>
      </trkpt>
      <trkpt lat="45.83625" lon="4.8226">
        <ele>214</ele>
        <time>2014-09-14T14:16:05Z</time>
      </trkpt>
      <trkpt lat="45.83614" lon="4.82257">
        <ele>215.2</ele>
        <time>2014-09-14T14:16:11Z</time>
      </trkpt>
      <trkpt lat="45.83606" lon="4.82266">
        <ele>216.4</ele>
        <time>2014-09-14T14:16:16Z</time>
      </trkpt>
      <trkpt lat="45.83604" lon="4.82282">
        <ele>217.5</ele>
        <time>2014-09-14T14:16:21Z</time>
      </trkpt>
      <trkpt lat="45.83602" lon="4.82295">
        <ele>218.7</ele>
        <time>2014-09-14T14:16:27Z</time>
      </trkpt>
      <trkpt lat="45.83602" lon="4.8231">
        <ele>219.9</ele>
        <time>2014-09-14T14:16:33Z</time>
      </trkpt>
      <trkpt lat="45.83604" lon="4.82323">
        <ele>220.8</ele>
        <time>2014-09-14T14:16:39Z</time>
      </trkpt>
      <trkpt lat="45.83606" lon="4.82338">
        <ele>221.7</ele>
        <time>2014-09-14T14:16:46Z</time>
      </trkpt>
      <trkpt lat="45.83605" lon="4.82353">
        <ele>222.6</ele>
        <time>2014-09-14T14:16:52Z</time>
      </trkpt>
      <trkpt lat="45.83605" lon="4.82367">
        <ele>223.5</ele>
        <time>2014-09-14T14:16:58Z</time>
      </trkpt>
      <trkpt lat="45.83605" lon="4.8238">
        <ele>224.5</ele>
        <time>2014-09-14T14:17:04Z</time>
      </trkpt>
      <trkpt lat="45.83601" lon="4.82394">
        <ele>224.5</ele>
        <time>2014-09-14T14:17:10Z</time>
      </trkpt>
      <trkpt lat="45.83597" lon="4.82407">
        <ele>224.6</ele>
        <time>2014-09-14T14:17:15Z</time>
      </trkpt>
      <trkpt lat="45.83592" lon="4.8242">
        <ele>224.6</ele>
        <time>2014-09-14T14:17:21Z</time>
      </trkpt>
      <trkpt lat="45.83584" lon="4.82429">
        <ele>224.6</ele>
        <time>2014-09-14T14:17:25Z</time>
      </trkpt>
      <trkpt lat="45.83578" lon="4.82442">
        <ele>224.6</ele>
        <time>2014-09-14T14:17:31Z</time>
      </trkpt>
      <trkpt lat="45.83571" lon="4.82453">
        <ele>224.6</ele>
        <time>2014-09-14T14:17:36Z</time>
      </trkpt>
      <trkpt lat="45.83566" lon="4.82465">
        <ele>224.5</ele>
        <time>2014-09-14T14:17:42Z</time>
      </trkpt>
      <trkpt lat="45.8356" lon="4.82475">
        <ele>225.8</ele>
        <time>2014-09-14T14:17:48Z</time>
      </trkpt>
      <trkpt lat="45.83556" lon="4.82487">
        <ele>227.2</ele>
        <time>2014-09-14T14:17:54Z</time>
      </trkpt>
      <trkpt lat="45.83553" lon="4.82501">
        <ele>228.5</ele>
        <time>2014-09-14T14:17:59Z</time>
      </trkpt>
      <trkpt lat="45.8355" lon="4.82515">
        <ele>229.9</ele>
        <time>2014-09-14T14:18:05Z</time>
      </trkpt>
      <trkpt lat="45.83548" lon="4.82529">
        <ele>231.3</ele>
        <time>2014-09-14T14:18:10Z</time>
      </trkpt>
      <trkpt lat="45.83542" lon="4.8254">
        <ele>232.6</ele>
        <time>2014-09-14T14:18:16Z</time>
      </trkpt>
      <trkpt lat="45.83538" lon="4.82552">
        <ele>234.1</ele>
        <time>2014-09-14T14:18:21Z</time>
      </trkpt>
      <trkpt lat="45.83535" lon="4.82565">
        <ele>235.5</ele>
        <time>2014-09-14T14:18:27Z</time>
      </trkpt>
      <trkpt lat="45.83532" lon="4.82578">
        <ele>236.9</ele>
        <time>2014-09-14T14:18:33Z</time>
      </trkpt>
      <trkpt lat="45.83527" lon="4.82591">
        <ele>238.3</ele>
        <time>2014-09-14T14:18:39Z</time>
      </trkpt>
      <trkpt lat="45.83523" lon="4.82604">
        <ele>239.6</ele>
        <time>2014-09-14T14:18:45Z</time>
      </trkpt>
      <trkpt lat="45.83519" lon="4.82617">
        <ele>239.6</ele>
        <time>2014-09-14T14:18:51Z</time>
      </trkpt>
      <trkpt lat="45.83512" lon="4.82628">
        <ele>239.5</ele>
        <time>2014-09-14T14:18:56Z</time>
      </trkpt>
      <trkpt lat="45.83507" lon="4.82642">
        <ele>239.5</ele>
        <time>2014-09-14T14:19:02Z</time>
      </trkpt>
      <trkpt lat="45.83502" lon="4.82655">
        <ele>239.4</ele>
        <time>2014-09-14T14:19:07Z</time>
      </trkpt>
      <trkpt lat="45.83497" lon="4.82666">
        <ele>238.9</ele>
        <time>2014-09-14T14:19:12Z</time>
      </trkpt>
      <trkpt lat="45.83489" lon="4.82677">
        <ele>240.5</ele>
        <time>2014-09-14T14:19:19Z</time>
      </trkpt>
      <trkpt lat="45.83483" lon="4.82688">
        <ele>242</ele>
        <time>2014-09-14T14:19:24Z</time>
      </trkpt>
      <trkpt lat="45.83479" lon="4.82702">
        <ele>243.5</ele>
        <time>2014-09-14T14:19:29Z</time>
      </trkpt>
      <trkpt lat="45.83474" lon="4.82713">
        <ele>245.2</ele>
        <time>2014-09-14T14:19:34Z</time>
      </trkpt>
      <trkpt lat="45.83466" lon="4.82722">
        <ele>246.8</ele>
        <time>2014-09-14T14:19:40Z</time>
      </trkpt>
      <trkpt lat="45.83459" lon="4.82732">
        <ele>248.3</ele>
        <time>2014-09-14T14:19:45Z</time>
      </trkpt>
      <trkpt lat="45.83454" lon="4.82744">
        <ele>249.7</ele>
        <time>2014-09-14T14:19:51Z</time>
      </trkpt>
      <trkpt lat="45.83451" lon="4.82757">
        <ele>251.2</ele>
        <time>2014-09-14T14:19:56Z</time>
      </trkpt>
      <trkpt lat="45.83449" lon="4.8277">
        <ele>252.6</ele>
        <time>2014-09-14T14:20:01Z</time>
      </trkpt>
      <trkpt lat="45.83447" lon="4.82783">
        <ele>254.1</ele>
        <time>2014-09-14T14:20:06Z</time>
      </trkpt>
      <trkpt lat="45.83445" lon="4.82797">
        <ele>255.9</ele>
        <time>2014-09-14T14:20:12Z</time>
      </trkpt>
      <trkpt lat="45.83443" lon="4.8281">
        <ele>255.3</ele>
        <time>2014-09-14T14:20:16Z</time>
      </trkpt>
      <trkpt lat="45.8344" lon="4.82824">
        <ele>254.6</ele>
        <time>2014-09-14T14:20:20Z</time>
      </trkpt>
      <trkpt lat="45.83438" lon="4.82839">
        <ele>254</ele>
        <time>2014-09-14T14:20:25Z</time>
      </trkpt>
      <trkpt lat="45.83435" lon="4.82852">
        <ele>253.4</ele>
        <time>2014-09-14T14:20:28Z</time>
      </trkpt>
      <trkpt lat="45.83432" lon="4.82865">
        <ele>252.7</ele>
        <time>2014-09-14T14:20:30Z</time>
      </trkpt>
      <trkpt lat="45.8343" lon="4.82878">
        <ele>252.3</ele>
        <time>2014-09-14T14:20:32Z</time>
      </trkpt>
      <trkpt lat="45.83426" lon="4.82891">
        <ele>251.8</ele>
        <time>2014-09-14T14:20:34Z</time>
      </trkpt>
      <trkpt lat="45.83422" lon="4.82905">
        <ele>250.7</ele>
        <time>2014-09-14T14:20:36Z</time>
      </trkpt>
      <trkpt lat="45.83419" lon="4.82917">
        <ele>249.6</ele>
        <time>2014-09-14T14:20:38Z</time>
      </trkpt>
      <trkpt lat="45.83415" lon="4.82929">
        <ele>248.5</ele>
        <time>2014-09-14T14:20:40Z</time>
      </trkpt>
      <trkpt lat="45.83412" lon="4.82941">
        <ele>248.9</ele>
        <time>2014-09-14T14:20:43Z</time>
      </trkpt>
      <trkpt lat="45.83408" lon="4.82954">
        <ele>249.7</ele>
        <time>2014-09-14T14:20:47Z</time>
      </trkpt>
      <trkpt lat="45.83401" lon="4.82962">
        <ele>250.5</ele>
        <time>2014-09-14T14:20:51Z</time>
      </trkpt>
      <trkpt lat="45.83392" lon="4.82969">
        <ele>251.4</ele>
        <time>2014-09-14T14:20:55Z</time>
      </trkpt>
      <trkpt lat="45.83382" lon="4.82974">
        <ele>252.2</ele>
        <time>2014-09-14T14:20:59Z</time>
      </trkpt>
      <trkpt lat="45.83371" lon="4.82979">
        <ele>253</ele>
        <time>2014-09-14T14:21:03Z</time>
      </trkpt>
      <trkpt lat="45.83361" lon="4.82986">
        <ele>253.8</ele>
        <time>2014-09-14T14:21:07Z</time>
      </trkpt>
      <trkpt lat="45.83354" lon="4.82996">
        <ele>254.1</ele>
        <time>2014-09-14T14:21:10Z</time>
      </trkpt>
      <trkpt lat="45.83346" lon="4.83009">
        <ele>255</ele>
        <time>2014-09-14T14:21:13Z</time>
      </trkpt>
      <trkpt lat="45.8334" lon="4.83021">
        <ele>255.9</ele>
        <time>2014-09-14T14:21:16Z</time>
      </trkpt>
      <trkpt lat="45.83334" lon="4.83034">
        <ele>256.8</ele>
        <time>2014-09-14T14:21:19Z</time>
      </trkpt>
      <trkpt lat="45.83329" lon="4.83049">
        <ele>256.3</ele>
        <time>2014-09-14T14:21:22Z</time>
      </trkpt>
      <trkpt lat="45.83324" lon="4.83064">
        <ele>255.7</ele>
        <time>2014-09-14T14:21:25Z</time>
      </trkpt>
      <trkpt lat="45.83318" lon="4.83077">
        <ele>256.9</ele>
        <time>2014-09-14T14:21:28Z</time>
      </trkpt>
      <trkpt lat="45.83312" lon="4.83092">
        <ele>258.1</ele>
        <time>2014-09-14T14:21:31Z</time>
      </trkpt>
      <trkpt lat="45.83307" lon="4.83105">
        <ele>259.3</ele>
        <time>2014-09-14T14:21:34Z</time>
      </trkpt>
      <trkpt lat="45.83301" lon="4.83117">
        <ele>260.5</ele>
        <time>2014-09-14T14:21:37Z</time>
      </trkpt>
      <trkpt lat="45.83294" lon="4.8313">
        <ele>261.6</ele>
        <time>2014-09-14T14:21:40Z</time>
      </trkpt>
      <trkpt lat="45.8329" lon="4.83142">
        <ele>263.4</ele>
        <time>2014-09-14T14:21:43Z</time>
      </trkpt>
      <trkpt lat="45.83282" lon="4.83151">
        <ele>265.1</ele>
        <time>2014-09-14T14:21:46Z</time>
      </trkpt>
      <trkpt lat="45.83277" lon="4.83162">
        <ele>266.8</ele>
        <time>2014-09-14T14:21:49Z</time>
      </trkpt>
      <trkpt lat="45.83269" lon="4.8317">
        <ele>267.5</ele>
        <time>2014-09-14T14:21:52Z</time>
      </trkpt>
      <trkpt lat="45.8326" lon="4.83181">
        <ele>268.3</ele>
        <time>2014-09-14T14:21:55Z</time>
      </trkpt>
      <trkpt lat="45.83253" lon="4.8319">
        <ele>269</ele>
        <time>2014-09-14T14:21:57Z</time>
      </trkpt>
      <trkpt lat="45.83245" lon="4.83201">
        <ele>269.7</ele>
        <time>2014-09-14T14:21:59Z</time>
      </trkpt>
      <trkpt lat="45.83237" lon="4.83213">
        <ele>270.5</ele>
        <time>2014-09-14T14:22:01Z</time>
      </trkpt>
      <trkpt lat="45.83229" lon="4.83225">
        <ele>271.2</ele>
        <time>2014-09-14T14:22:03Z</time>
      </trkpt>
      <trkpt lat="45.83222" lon="4.83236">
        <ele>271.9</ele>
        <time>2014-09-14T14:22:05Z</time>
      </trkpt>
      <trkpt lat="45.83215" lon="4.83244">
        <ele>272.6</ele>
        <time>2014-09-14T14:22:07Z</time>
      </trkpt>
      <trkpt lat="45.83208" lon="4.83253">
        <ele>271.5</ele>
        <time>2014-09-14T14:22:09Z</time>
      </trkpt>
      <trkpt lat="45.83201" lon="4.83262">
        <ele>270.5</ele>
        <time>2014-09-14T14:22:11Z</time>
      </trkpt>
      <trkpt lat="45.83192" lon="4.83271">
        <ele>269.4</ele>
        <time>2014-09-14T14:22:13Z</time>
      </trkpt>
      <trkpt lat="45.83185" lon="4.83282">
        <ele>269.3</ele>
        <time>2014-09-14T14:22:15Z</time>
      </trkpt>
      <trkpt lat="45.83177" lon="4.83291">
        <ele>269.2</ele>
        <time>2014-09-14T14:22:17Z</time>
      </trkpt>
      <trkpt lat="45.83169" lon="4.83303">
        <ele>269.9</ele>
        <time>2014-09-14T14:22:19Z</time>
      </trkpt>
      <trkpt lat="45.83162" lon="4.83315">
        <ele>268.9</ele>
        <time>2014-09-14T14:22:21Z</time>
      </trkpt>
      <trkpt lat="45.83155" lon="4.83327">
        <ele>267.9</ele>
        <time>2014-09-14T14:22:23Z</time>
      </trkpt>
      <trkpt lat="45.83148" lon="4.83339">
        <ele>265.9</ele>
        <time>2014-09-14T14:22:25Z</time>
      </trkpt>
      <trkpt lat="45.83138" lon="4.83349">
        <ele>263.9</ele>
        <time>2014-09-14T14:22:27Z</time>
      </trkpt>
      <trkpt lat="45.83126" lon="4.8336">
        <ele>261.9</ele>
        <time>2014-09-14T14:22:29Z</time>
      </trkpt>
      <trkpt lat="45.83116" lon="4.8337">
        <ele>261.7</ele>
        <time>2014-09-14T14:22:31Z</time>
      </trkpt>
      <trkpt lat="45.83108" lon="4.8338">
        <ele>261.5</ele>
        <time>2014-09-14T14:22:33Z</time>
      </trkpt>
      <trkpt lat="45.83099" lon="4.83385">
        <ele>261.4</ele>
        <time>2014-09-14T14:22:35Z</time>
      </trkpt>
      <trkpt lat="45.83089" lon="4.83396">
        <ele>262.1</ele>
        <time>2014-09-14T14:22:38Z</time>
      </trkpt>
      <trkpt lat="45.83079" lon="4.83405">
        <ele>262.8</ele>
        <time>2014-09-14T14:22:41Z</time>
      </trkpt>
      <trkpt lat="45.8307" lon="4.83414">
        <ele>262.7</ele>
        <time>2014-09-14T14:22:44Z</time>
      </trkpt>
      <trkpt lat="45.83061" lon="4.8342">
        <ele>262.6</ele>
        <time>2014-09-14T14:22:46Z</time>
      </trkpt>
      <trkpt lat="45.83051" lon="4.83425">
        <ele>262.5</ele>
        <time>2014-09-14T14:22:48Z</time>
      </trkpt>
      <trkpt lat="45.83041" lon="4.8343">
        <ele>263.5</ele>
        <time>2014-09-14T14:22:50Z</time>
      </trkpt>
      <trkpt lat="45.83029" lon="4.83435">
        <ele>264.4</ele>
        <time>2014-09-14T14:22:53Z</time>
      </trkpt>
      <trkpt lat="45.83017" lon="4.8344">
        <ele>264.9</ele>
        <time>2014-09-14T14:22:57Z</time>
      </trkpt>
      <trkpt lat="45.83007" lon="4.83446">
        <ele>266</ele>
        <time>2014-09-14T14:23:01Z</time>
      </trkpt>
      <trkpt lat="45.82997" lon="4.83452">
        <ele>267.1</ele>
        <time>2014-09-14T14:23:05Z</time>
      </trkpt>
      <trkpt lat="45.82989" lon="4.83457">
        <ele>268.2</ele>
        <time>2014-09-14T14:23:08Z</time>
      </trkpt>
      <trkpt lat="45.82979" lon="4.83461">
        <ele>268.4</ele>
        <time>2014-09-14T14:23:11Z</time>
      </trkpt>
      <trkpt lat="45.82969" lon="4.83469">
        <ele>268.5</ele>
        <time>2014-09-14T14:23:15Z</time>
      </trkpt>
      <trkpt lat="45.82961" lon="4.83475">
        <ele>268.7</ele>
        <time>2014-09-14T14:23:19Z</time>
      </trkpt>
      <trkpt lat="45.8295" lon="4.83481">
        <ele>268.9</ele>
        <time>2014-09-14T14:23:22Z</time>
      </trkpt>
      <trkpt lat="45.82939" lon="4.83487">
        <ele>269.1</ele>
        <time>2014-09-14T14:23:27Z</time>
      </trkpt>
      <trkpt lat="45.8293" lon="4.83494">
        <ele>269.1</ele>
        <time>2014-09-14T14:23:29Z</time>
      </trkpt>
      <trkpt lat="45.82921" lon="4.83498">
        <ele>269.1</ele>
        <time>2014-09-14T14:23:32Z</time>
      </trkpt>
      <trkpt lat="45.8291" lon="4.83501">
        <ele>269.5</ele>
        <time>2014-09-14T14:23:35Z</time>
      </trkpt>
      <trkpt lat="45.82901" lon="4.83504">
        <ele>269.3</ele>
        <time>2014-09-14T14:23:37Z</time>
      </trkpt>
      <trkpt lat="45.82888" lon="4.8351">
        <ele>269.1</ele>
        <time>2014-09-14T14:23:40Z</time>
      </trkpt>
      <trkpt lat="45.8288" lon="4.83513">
        <ele>268.9</ele>
        <time>2014-09-14T14:23:42Z</time>
      </trkpt>
      <trkpt lat="45.82867" lon="4.83515">
        <ele>268.7</ele>
        <time>2014-09-14T14:23:45Z</time>
      </trkpt>
      <trkpt lat="45.82854" lon="4.83518">
        <ele>268.5</ele>
        <time>2014-09-14T14:23:48Z</time>
      </trkpt>
      <trkpt lat="45.82843" lon="4.83517">
        <ele>267.9</ele>
        <time>2014-09-14T14:23:51Z</time>
      </trkpt>
      <trkpt lat="45.8283" lon="4.83516">
        <ele>267.3</ele>
        <time>2014-09-14T14:23:54Z</time>
      </trkpt>
      <trkpt lat="45.82819" lon="4.83517">
        <ele>266.6</ele>
        <time>2014-09-14T14:23:57Z</time>
      </trkpt>
      <trkpt lat="45.82807" lon="4.83519">
        <ele>266.2</ele>
        <time>2014-09-14T14:24:00Z</time>
      </trkpt>
      <trkpt lat="45.82795" lon="4.83517">
        <ele>265.7</ele>
        <time>2014-09-14T14:24:02Z</time>
      </trkpt>
      <trkpt lat="45.82782" lon="4.83514">
        <ele>265.3</ele>
        <time>2014-09-14T14:24:04Z</time>
      </trkpt>
      <trkpt lat="45.82769" lon="4.83511">
        <ele>264.8</ele>
        <time>2014-09-14T14:24:06Z</time>
      </trkpt>
      <trkpt lat="45.82758" lon="4.83508">
        <ele>264.4</ele>
        <time>2014-09-14T14:24:08Z</time>
      </trkpt>
      <trkpt lat="45.82745" lon="4.83505">
        <ele>263.9</ele>
        <time>2014-09-14T14:24:10Z</time>
      </trkpt>
      <trkpt lat="45.82732" lon="4.83502">
        <ele>263.5</ele>
        <time>2014-09-14T14:24:12Z</time>
      </trkpt>
      <trkpt lat="45.8272" lon="4.83496">
        <ele>263</ele>
        <time>2014-09-14T14:24:14Z</time>
      </trkpt>
      <trkpt lat="45.82708" lon="4.8349">
        <ele>263.5</ele>
        <time>2014-09-14T14:24:16Z</time>
      </trkpt>
      <trkpt lat="45.82696" lon="4.83485">
        <ele>263.9</ele>
        <time>2014-09-14T14:24:18Z</time>
      </trkpt>
      <trkpt lat="45.82684" lon="4.83478">
        <ele>264.4</ele>
        <time>2014-09-14T14:24:20Z</time>
      </trkpt>
      <trkpt lat="45.82676" lon="4.83474">
        <ele>264.7</ele>
        <time>2014-09-14T14:24:22Z</time>
      </trkpt>
      <trkpt lat="45.82667" lon="4.83468">
        <ele>265.1</ele>
        <time>2014-09-14T14:24:24Z</time>
      </trkpt>
      <trkpt lat="45.82654" lon="4.83461">
        <ele>265.5</ele>
        <time>2014-09-14T14:24:27Z</time>
      </trkpt>
      <trkpt lat="45.82643" lon="4.83456">
        <ele>265.8</ele>
        <time>2014-09-14T14:24:29Z</time>
      </trkpt>
      <trkpt lat="45.8263" lon="4.83452">
        <ele>266.2</ele>
        <time>2014-09-14T14:24:31Z</time>
      </trkpt>
      <trkpt lat="45.8262" lon="4.83446">
        <ele>266.5</ele>
        <time>2014-09-14T14:24:33Z</time>
      </trkpt>
      <trkpt lat="45.8261" lon="4.8344">
        <ele>266.9</ele>
        <time>2014-09-14T14:24:35Z</time>
      </trkpt>
      <trkpt lat="45.826" lon="4.83433">
        <ele>267.3</ele>
        <time>2014-09-14T14:24:38Z</time>
      </trkpt>
      <trkpt lat="45.82592" lon="4.83428">
        <ele>267</ele>
        <time>2014-09-14T14:24:40Z</time>
      </trkpt>
      <trkpt lat="45.82582" lon="4.83422">
        <ele>266.7</ele>
        <time>2014-09-14T14:24:42Z</time>
      </trkpt>
      <trkpt lat="45.82571" lon="4.83411">
        <ele>266.5</ele>
        <time>2014-09-14T14:24:44Z</time>
      </trkpt>
      <trkpt lat="45.82559" lon="4.83401">
        <ele>266.3</ele>
        <time>2014-09-14T14:24:46Z</time>
      </trkpt>
      <trkpt lat="45.82547" lon="4.8339">
        <ele>266.1</ele>
        <time>2014-09-14T14:24:48Z</time>
      </trkpt>
      <trkpt lat="45.82534" lon="4.83379">
        <ele>265.6</ele>
        <time>2014-09-14T14:24:50Z</time>
      </trkpt>
      <trkpt lat="45.8252" lon="4.83367">
        <ele>265.2</ele>
        <time>2014-09-14T14:24:54Z</time>
      </trkpt>
      <trkpt lat="45.82501" lon="4.8335">
        <ele>264.7</ele>
        <time>2014-09-14T14:24:55Z</time>
      </trkpt>
      <trkpt lat="45.82487" lon="4.83339">
        <ele>264.3</ele>
        <time>2014-09-14T14:24:58Z</time>
      </trkpt>
      <trkpt lat="45.82475" lon="4.83327">
        <ele>263.8</ele>
        <time>2014-09-14T14:25:01Z</time>
      </trkpt>
      <trkpt lat="45.82462" lon="4.83315">
        <ele>263.4</ele>
        <time>2014-09-14T14:25:02Z</time>
      </trkpt>
      <trkpt lat="45.82449" lon="4.83307">
        <ele>263.1</ele>
        <time>2014-09-14T14:25:03Z</time>
      </trkpt>
      <trkpt lat="45.82435" lon="4.83306">
        <ele>263.7</ele>
        <time>2014-09-14T14:25:06Z</time>
      </trkpt>
      <trkpt lat="45.82421" lon="4.83304">
        <ele>264.4</ele>
        <time>2014-09-14T14:25:07Z</time>
      </trkpt>
      <trkpt lat="45.82409" lon="4.83304">
        <ele>265</ele>
        <time>2014-09-14T14:25:09Z</time>
      </trkpt>
      <trkpt lat="45.82398" lon="4.83304">
        <ele>265.6</ele>
        <time>2014-09-14T14:25:11Z</time>
      </trkpt>
      <trkpt lat="45.82388" lon="4.83304">
        <ele>266.5</ele>
        <time>2014-09-14T14:25:13Z</time>
      </trkpt>
      <trkpt lat="45.82378" lon="4.83302">
        <ele>267.5</ele>
        <time>2014-09-14T14:25:16Z</time>
      </trkpt>
      <trkpt lat="45.82364" lon="4.83296">
        <ele>268.4</ele>
        <time>2014-09-14T14:25:19Z</time>
      </trkpt>
      <trkpt lat="45.82353" lon="4.83286">
        <ele>269.3</ele>
        <time>2014-09-14T14:25:22Z</time>
      </trkpt>
      <trkpt lat="45.82344" lon="4.83282">
        <ele>270.2</ele>
        <time>2014-09-14T14:25:24Z</time>
      </trkpt>
      <trkpt lat="45.82331" lon="4.83276">
        <ele>270.6</ele>
        <time>2014-09-14T14:25:27Z</time>
      </trkpt>
      <trkpt lat="45.82321" lon="4.83271">
        <ele>271.1</ele>
        <time>2014-09-14T14:25:30Z</time>
      </trkpt>
      <trkpt lat="45.8231" lon="4.83264">
        <ele>271</ele>
        <time>2014-09-14T14:25:34Z</time>
      </trkpt>
      <trkpt lat="45.82301" lon="4.83252">
        <ele>270.9</ele>
        <time>2014-09-14T14:25:38Z</time>
      </trkpt>
      <trkpt lat="45.82292" lon="4.83241">
        <ele>270.8</ele>
        <time>2014-09-14T14:25:42Z</time>
      </trkpt>
      <trkpt lat="45.82285" lon="4.8323">
        <ele>270.7</ele>
        <time>2014-09-14T14:25:45Z</time>
      </trkpt>
      <trkpt lat="45.82278" lon="4.8322">
        <ele>270.6</ele>
        <time>2014-09-14T14:25:47Z</time>
      </trkpt>
      <trkpt lat="45.82269" lon="4.83211">
        <ele>270.5</ele>
        <time>2014-09-14T14:25:49Z</time>
      </trkpt>
      <trkpt lat="45.82261" lon="4.83202">
        <ele>270.5</ele>
        <time>2014-09-14T14:25:51Z</time>
      </trkpt>
      <trkpt lat="45.82253" lon="4.83191">
        <ele>270.5</ele>
        <time>2014-09-14T14:25:53Z</time>
      </trkpt>
      <trkpt lat="45.82242" lon="4.83177">
        <ele>270.6</ele>
        <time>2014-09-14T14:25:55Z</time>
      </trkpt>
      <trkpt lat="45.82232" lon="4.83164">
        <ele>271.2</ele>
        <time>2014-09-14T14:25:57Z</time>
      </trkpt>
      <trkpt lat="45.82222" lon="4.83151">
        <ele>271.7</ele>
        <time>2014-09-14T14:25:59Z</time>
      </trkpt>
      <trkpt lat="45.82211" lon="4.8314">
        <ele>271.9</ele>
        <time>2014-09-14T14:26:01Z</time>
      </trkpt>
      <trkpt lat="45.82199" lon="4.83129">
        <ele>271.3</ele>
        <time>2014-09-14T14:26:03Z</time>
      </trkpt>
      <trkpt lat="45.82187" lon="4.83119">
        <ele>270.6</ele>
        <time>2014-09-14T14:26:05Z</time>
      </trkpt>
      <trkpt lat="45.82173" lon="4.83109">
        <ele>270</ele>
        <time>2014-09-14T14:26:07Z</time>
      </trkpt>
      <trkpt lat="45.82158" lon="4.83098">
        <ele>269.4</ele>
        <time>2014-09-14T14:26:09Z</time>
      </trkpt>
      <trkpt lat="45.82141" lon="4.83088">
        <ele>268.7</ele>
        <time>2014-09-14T14:26:11Z</time>
      </trkpt>
      <trkpt lat="45.82124" lon="4.83082">
        <ele>269.9</ele>
        <time>2014-09-14T14:26:13Z</time>
      </trkpt>
      <trkpt lat="45.82108" lon="4.83076">
        <ele>270.9</ele>
        <time>2014-09-14T14:26:15Z</time>
      </trkpt>
      <trkpt lat="45.82096" lon="4.8307">
        <ele>271.5</ele>
        <time>2014-09-14T14:26:17Z</time>
      </trkpt>
      <trkpt lat="45.82083" lon="4.83065">
        <ele>272.2</ele>
        <time>2014-09-14T14:26:19Z</time>
      </trkpt>
      <trkpt lat="45.82071" lon="4.8306">
        <ele>272.8</ele>
        <time>2014-09-14T14:26:21Z</time>
      </trkpt>
      <trkpt lat="45.82057" lon="4.83051">
        <ele>273.5</ele>
        <time>2014-09-14T14:26:23Z</time>
      </trkpt>
      <trkpt lat="45.82047" lon="4.83048">
        <ele>274.9</ele>
        <time>2014-09-14T14:26:25Z</time>
      </trkpt>
      <trkpt lat="45.82037" lon="4.83046">
        <ele>276.4</ele>
        <time>2014-09-14T14:26:27Z</time>
      </trkpt>
      <trkpt lat="45.82028" lon="4.83045">
        <ele>277.8</ele>
        <time>2014-09-14T14:26:29Z</time>
      </trkpt>
      <trkpt lat="45.82018" lon="4.83041">
        <ele>279.3</ele>
        <time>2014-09-14T14:26:31Z</time>
      </trkpt>
      <trkpt lat="45.82007" lon="4.83039">
        <ele>280.5</ele>
        <time>2014-09-14T14:26:33Z</time>
      </trkpt>
      <trkpt lat="45.81997" lon="4.83037">
        <ele>279.8</ele>
        <time>2014-09-14T14:26:35Z</time>
      </trkpt>
      <trkpt lat="45.81988" lon="4.83035">
        <ele>279.2</ele>
        <time>2014-09-14T14:26:37Z</time>
      </trkpt>
      <trkpt lat="45.81977" lon="4.83033">
        <ele>278.9</ele>
        <time>2014-09-14T14:26:39Z</time>
      </trkpt>
      <trkpt lat="45.81968" lon="4.83031">
        <ele>278.6</ele>
        <time>2014-09-14T14:26:41Z</time>
      </trkpt>
      <trkpt lat="45.81959" lon="4.83029">
        <ele>278.4</ele>
        <time>2014-09-14T14:26:43Z</time>
      </trkpt>
      <trkpt lat="45.81949" lon="4.83028">
        <ele>278.1</ele>
        <time>2014-09-14T14:26:45Z</time>
      </trkpt>
      <trkpt lat="45.81936" lon="4.83028">
        <ele>277.8</ele>
        <time>2014-09-14T14:26:48Z</time>
      </trkpt>
      <trkpt lat="45.81924" lon="4.83027">
        <ele>277.4</ele>
        <time>2014-09-14T14:26:51Z</time>
      </trkpt>
      <trkpt lat="45.81912" lon="4.83023">
        <ele>276.9</ele>
        <time>2014-09-14T14:26:54Z</time>
      </trkpt>
      <trkpt lat="45.81903" lon="4.83018">
        <ele>276.5</ele>
        <time>2014-09-14T14:26:56Z</time>
      </trkpt>
      <trkpt lat="45.81893" lon="4.83014">
        <ele>276.3</ele>
        <time>2014-09-14T14:26:59Z</time>
      </trkpt>
      <trkpt lat="45.81883" lon="4.83009">
        <ele>276.1</ele>
        <time>2014-09-14T14:27:02Z</time>
      </trkpt>
      <trkpt lat="45.81873" lon="4.83003">
        <ele>275.9</ele>
        <time>2014-09-14T14:27:05Z</time>
      </trkpt>
      <trkpt lat="45.81862" lon="4.82998">
        <ele>275.7</ele>
        <time>2014-09-14T14:27:08Z</time>
      </trkpt>
      <trkpt lat="45.8185" lon="4.82992">
        <ele>275.2</ele>
        <time>2014-09-14T14:27:11Z</time>
      </trkpt>
      <trkpt lat="45.81838" lon="4.82987">
        <ele>274.6</ele>
        <time>2014-09-14T14:27:14Z</time>
      </trkpt>
      <trkpt lat="45.81823" lon="4.82973">
        <ele>274.1</ele>
        <time>2014-09-14T14:27:22Z</time>
      </trkpt>
      <trkpt lat="45.81813" lon="4.82968">
        <ele>273.5</ele>
        <time>2014-09-14T14:27:25Z</time>
      </trkpt>
      <trkpt lat="45.81801" lon="4.82965">
        <ele>273.2</ele>
        <time>2014-09-14T14:27:28Z</time>
      </trkpt>
      <trkpt lat="45.81791" lon="4.82963">
        <ele>272.8</ele>
        <time>2014-09-14T14:27:30Z</time>
      </trkpt>
      <trkpt lat="45.81778" lon="4.82961">
        <ele>273.2</ele>
        <time>2014-09-14T14:27:34Z</time>
      </trkpt>
      <trkpt lat="45.81768" lon="4.82961">
        <ele>273.5</ele>
        <time>2014-09-14T14:27:35Z</time>
      </trkpt>
      <trkpt lat="45.81758" lon="4.8296">
        <ele>273.5</ele>
        <time>2014-09-14T14:27:37Z</time>
      </trkpt>
      <trkpt lat="45.81748" lon="4.8296">
        <ele>273.5</ele>
        <time>2014-09-14T14:27:40Z</time>
      </trkpt>
      <trkpt lat="45.81733" lon="4.82961">
        <ele>273.5</ele>
        <time>2014-09-14T14:27:44Z</time>
      </trkpt>
      <trkpt lat="45.81721" lon="4.82959">
        <ele>273.9</ele>
        <time>2014-09-14T14:27:46Z</time>
      </trkpt>
      <trkpt lat="45.8171" lon="4.82957">
        <ele>274</ele>
        <time>2014-09-14T14:27:49Z</time>
      </trkpt>
      <trkpt lat="45.81701" lon="4.82956">
        <ele>274.1</ele>
        <time>2014-09-14T14:27:50Z</time>
      </trkpt>
      <trkpt lat="45.81691" lon="4.82954">
        <ele>274.2</ele>
        <time>2014-09-14T14:27:52Z</time>
      </trkpt>
      <trkpt lat="45.81681" lon="4.82952">
        <ele>274.3</ele>
        <time>2014-09-14T14:27:54Z</time>
      </trkpt>
      <trkpt lat="45.8167" lon="4.8295">
        <ele>274.4</ele>
        <time>2014-09-14T14:27:57Z</time>
      </trkpt>
      <trkpt lat="45.81666" lon="4.82965">
        <ele>273.2</ele>
        <time>2014-09-14T14:28:00Z</time>
      </trkpt>
      <trkpt lat="45.81667" lon="4.8298">
        <ele>272</ele>
        <time>2014-09-14T14:28:02Z</time>
      </trkpt>
      <trkpt lat="45.81667" lon="4.83001">
        <ele>271.2</ele>
        <time>2014-09-14T14:28:04Z</time>
      </trkpt>
      <trkpt lat="45.81668" lon="4.83025">
        <ele>270.4</ele>
        <time>2014-09-14T14:28:06Z</time>
      </trkpt>
      <trkpt lat="45.81669" lon="4.83048">
        <ele>268.9</ele>
        <time>2014-09-14T14:28:08Z</time>
      </trkpt>
      <trkpt lat="45.8167" lon="4.83071">
        <ele>267.5</ele>
        <time>2014-09-14T14:28:10Z</time>
      </trkpt>
      <trkpt lat="45.81672" lon="4.83091">
        <ele>266.3</ele>
        <time>2014-09-14T14:28:12Z</time>
      </trkpt>
      <trkpt lat="45.81673" lon="4.8311">
        <ele>265.1</ele>
        <time>2014-09-14T14:28:14Z</time>
      </trkpt>
      <trkpt lat="45.81674" lon="4.83127">
        <ele>263.9</ele>
        <time>2014-09-14T14:28:16Z</time>
      </trkpt>
      <trkpt lat="45.81675" lon="4.83149">
        <ele>262.7</ele>
        <time>2014-09-14T14:28:18Z</time>
      </trkpt>
      <trkpt lat="45.81677" lon="4.83167">
        <ele>261.5</ele>
        <time>2014-09-14T14:28:21Z</time>
      </trkpt>
      <trkpt lat="45.81678" lon="4.83181">
        <ele>260.9</ele>
        <time>2014-09-14T14:28:22Z</time>
      </trkpt>
      <trkpt lat="45.81676" lon="4.83195">
        <ele>260.3</ele>
        <time>2014-09-14T14:28:27Z</time>
      </trkpt>
      <trkpt lat="45.81667" lon="4.832">
        <ele>259.7</ele>
        <time>2014-09-14T14:28:29Z</time>
      </trkpt>
      <trkpt lat="45.81657" lon="4.83198">
        <ele>259.2</ele>
        <time>2014-09-14T14:28:33Z</time>
      </trkpt>
      <trkpt lat="45.81646" lon="4.83194">
        <ele>259.2</ele>
        <time>2014-09-14T14:28:36Z</time>
      </trkpt>
    </trkseg>
  </trk>
</gpx>